<?xml version="1.0" encoding="UTF-8" standalone="no" ?>
<gpx xmlns="http://www.topografix.com/GPX/1/1" xmlns:xsi="http://www.w3.org/2001/XMLSchema-instance" xsi:schemaLocation="http://www.topografix.com/GPX/1/1 http://www.topografix.com/GPX/1/1/gpx.xsd" version="1.1" creator="VisuGPX - https://www.visugpx.com">
  <metadata>
    <name>Cadaques J11</name>
    <desc><![CDATA[File with points/tracks from Locus Map/4.25.1]]></desc>
  </metadata>
  <trk>
    <name><![CDATA[2024-09-26 Ripoll bellver]]></name>
    <extensions>
      <line xmlns="http://www.topografix.com/GPX/gpx_style/0/2">
        <color>0000FF</color>
        <opacity>0.70</opacity>
        <width>6.0</width>
      </line>
    </extensions>
    <trkseg>
      <trkpt lat="42.19901" lon="2.19035">
        <ele>716.86</ele>
        <time>2024-09-26T07:00:40.000Z</time>
      </trkpt>
      <trkpt lat="42.19904" lon="2.19047">
        <ele>714.11</ele>
        <time>2024-09-26T07:00:56.000Z</time>
      </trkpt>
      <trkpt lat="42.199" lon="2.19059">
        <ele>716.75</ele>
        <time>2024-09-26T07:01:49.000Z</time>
      </trkpt>
      <trkpt lat="42.19899" lon="2.19071">
        <ele>716.66</ele>
        <time>2024-09-26T07:02:30.000Z</time>
      </trkpt>
      <trkpt lat="42.19891" lon="2.19078">
        <ele>709.68</ele>
        <time>2024-09-26T07:04:40.999Z</time>
      </trkpt>
      <trkpt lat="42.19888" lon="2.19089">
        <ele>706.39</ele>
        <time>2024-09-26T07:04:55.999Z</time>
      </trkpt>
      <trkpt lat="42.19882" lon="2.19098">
        <ele>705.37</ele>
        <time>2024-09-26T07:06:31.999Z</time>
      </trkpt>
      <trkpt lat="42.19883" lon="2.19111">
        <ele>704.23</ele>
        <time>2024-09-26T07:08:52.999Z</time>
      </trkpt>
      <trkpt lat="42.19881" lon="2.19124">
        <ele>704.05</ele>
        <time>2024-09-26T07:09:00.999Z</time>
      </trkpt>
      <trkpt lat="42.19879" lon="2.1914">
        <ele>703.93</ele>
        <time>2024-09-26T07:09:06.999Z</time>
      </trkpt>
      <trkpt lat="42.19898" lon="2.19144">
        <ele>703.83</ele>
        <time>2024-09-26T07:09:11.999Z</time>
      </trkpt>
      <trkpt lat="42.19915" lon="2.19145">
        <ele>703.79</ele>
        <time>2024-09-26T07:09:16.999Z</time>
      </trkpt>
      <trkpt lat="42.19916" lon="2.1913">
        <ele>703.84</ele>
        <time>2024-09-26T07:09:21.999Z</time>
      </trkpt>
      <trkpt lat="42.19924" lon="2.19124">
        <ele>705.58</ele>
        <time>2024-09-26T07:10:39.999Z</time>
      </trkpt>
      <trkpt lat="42.1993" lon="2.19114">
        <ele>705.7</ele>
        <time>2024-09-26T07:10:50.999Z</time>
      </trkpt>
      <trkpt lat="42.1994" lon="2.19114">
        <ele>705.76</ele>
        <time>2024-09-26T07:11:01.999Z</time>
      </trkpt>
      <trkpt lat="42.19947" lon="2.19121">
        <ele>705.83</ele>
        <time>2024-09-26T07:11:08.999Z</time>
      </trkpt>
      <trkpt lat="42.19956" lon="2.19111">
        <ele>705.97</ele>
        <time>2024-09-26T07:11:15.999Z</time>
      </trkpt>
      <trkpt lat="42.19976" lon="2.1911">
        <ele>706.13</ele>
        <time>2024-09-26T07:11:20.999Z</time>
      </trkpt>
      <trkpt lat="42.19987" lon="2.1912">
        <ele>706.26</ele>
        <time>2024-09-26T07:11:25.999Z</time>
      </trkpt>
      <trkpt lat="42.19995" lon="2.1913">
        <ele>706.37</ele>
        <time>2024-09-26T07:11:30.999Z</time>
      </trkpt>
      <trkpt lat="42.19997" lon="2.19161">
        <ele>706.47</ele>
        <time>2024-09-26T07:11:35.999Z</time>
      </trkpt>
      <trkpt lat="42.19999" lon="2.19176">
        <ele>706.56</ele>
        <time>2024-09-26T07:11:40.999Z</time>
      </trkpt>
      <trkpt lat="42.20008" lon="2.19185">
        <ele>706.7</ele>
        <time>2024-09-26T07:11:52.999Z</time>
      </trkpt>
      <trkpt lat="42.20015" lon="2.19176">
        <ele>706.67</ele>
        <time>2024-09-26T07:11:58.999Z</time>
      </trkpt>
      <trkpt lat="42.20019" lon="2.19164">
        <ele>706.52</ele>
        <time>2024-09-26T07:12:06.999Z</time>
      </trkpt>
      <trkpt lat="42.20024" lon="2.19151">
        <ele>706.42</ele>
        <time>2024-09-26T07:12:11.999Z</time>
      </trkpt>
      <trkpt lat="42.20033" lon="2.19138">
        <ele>706.32</ele>
        <time>2024-09-26T07:12:16.999Z</time>
      </trkpt>
      <trkpt lat="42.20036" lon="2.19124">
        <ele>706.23</ele>
        <time>2024-09-26T07:12:21.999Z</time>
      </trkpt>
      <trkpt lat="42.20039" lon="2.1911">
        <ele>706.13</ele>
        <time>2024-09-26T07:12:26.999Z</time>
      </trkpt>
      <trkpt lat="42.20048" lon="2.19098">
        <ele>706.03</ele>
        <time>2024-09-26T07:12:31.999Z</time>
      </trkpt>
      <trkpt lat="42.20055" lon="2.19082">
        <ele>705.93</ele>
        <time>2024-09-26T07:12:36.999Z</time>
      </trkpt>
      <trkpt lat="42.20059" lon="2.1907">
        <ele>705.83</ele>
        <time>2024-09-26T07:12:41.999Z</time>
      </trkpt>
      <trkpt lat="42.20059" lon="2.19057">
        <ele>705.7</ele>
        <time>2024-09-26T07:12:47.999Z</time>
      </trkpt>
      <trkpt lat="42.20063" lon="2.19046">
        <ele>705.6</ele>
        <time>2024-09-26T07:12:52.999Z</time>
      </trkpt>
      <trkpt lat="42.20071" lon="2.19032">
        <ele>705.54</ele>
        <time>2024-09-26T07:12:57.999Z</time>
      </trkpt>
      <trkpt lat="42.20074" lon="2.19016">
        <ele>705.5</ele>
        <time>2024-09-26T07:13:02.999Z</time>
      </trkpt>
      <trkpt lat="42.20077" lon="2.19002">
        <ele>705.46</ele>
        <time>2024-09-26T07:13:07.999Z</time>
      </trkpt>
      <trkpt lat="42.20078" lon="2.18986">
        <ele>705.44</ele>
        <time>2024-09-26T07:13:12.999Z</time>
      </trkpt>
      <trkpt lat="42.20078" lon="2.1897">
        <ele>705.41</ele>
        <time>2024-09-26T07:13:17.999Z</time>
      </trkpt>
      <trkpt lat="42.20081" lon="2.18953">
        <ele>705.4</ele>
        <time>2024-09-26T07:13:22.999Z</time>
      </trkpt>
      <trkpt lat="42.20083" lon="2.18934">
        <ele>705.4</ele>
        <time>2024-09-26T07:13:27.999Z</time>
      </trkpt>
      <trkpt lat="42.20085" lon="2.18917">
        <ele>705.38</ele>
        <time>2024-09-26T07:13:32.999Z</time>
      </trkpt>
      <trkpt lat="42.2009" lon="2.18902">
        <ele>705.37</ele>
        <time>2024-09-26T07:13:37.999Z</time>
      </trkpt>
      <trkpt lat="42.20097" lon="2.1888">
        <ele>705.38</ele>
        <time>2024-09-26T07:13:42.999Z</time>
      </trkpt>
      <trkpt lat="42.20104" lon="2.18856">
        <ele>705.08</ele>
        <time>2024-09-26T07:13:47.999Z</time>
      </trkpt>
      <trkpt lat="42.20113" lon="2.1883">
        <ele>704.65</ele>
        <time>2024-09-26T07:13:52.999Z</time>
      </trkpt>
      <trkpt lat="42.20121" lon="2.18805">
        <ele>704.27</ele>
        <time>2024-09-26T07:13:57.999Z</time>
      </trkpt>
      <trkpt lat="42.20131" lon="2.1878">
        <ele>704.59</ele>
        <time>2024-09-26T07:14:02.999Z</time>
      </trkpt>
      <trkpt lat="42.20138" lon="2.18757">
        <ele>705.93</ele>
        <time>2024-09-26T07:14:07.999Z</time>
      </trkpt>
      <trkpt lat="42.20146" lon="2.18737">
        <ele>706.35</ele>
        <time>2024-09-26T07:14:12.999Z</time>
      </trkpt>
      <trkpt lat="42.20153" lon="2.18716">
        <ele>706.72</ele>
        <time>2024-09-26T07:14:17.999Z</time>
      </trkpt>
      <trkpt lat="42.2016" lon="2.18695">
        <ele>707.04</ele>
        <time>2024-09-26T07:14:22.999Z</time>
      </trkpt>
      <trkpt lat="42.20168" lon="2.18672">
        <ele>707.37</ele>
        <time>2024-09-26T07:14:27.999Z</time>
      </trkpt>
      <trkpt lat="42.20175" lon="2.1865">
        <ele>707.61</ele>
        <time>2024-09-26T07:14:32.999Z</time>
      </trkpt>
      <trkpt lat="42.20182" lon="2.18626">
        <ele>708.13</ele>
        <time>2024-09-26T07:14:37.999Z</time>
      </trkpt>
      <trkpt lat="42.20192" lon="2.18604">
        <ele>708.26</ele>
        <time>2024-09-26T07:14:42.999Z</time>
      </trkpt>
      <trkpt lat="42.20202" lon="2.18582">
        <ele>708.36</ele>
        <time>2024-09-26T07:14:47.999Z</time>
      </trkpt>
      <trkpt lat="42.2021" lon="2.18557">
        <ele>708.31</ele>
        <time>2024-09-26T07:14:52.999Z</time>
      </trkpt>
      <trkpt lat="42.20218" lon="2.18533">
        <ele>707.92</ele>
        <time>2024-09-26T07:14:57.999Z</time>
      </trkpt>
      <trkpt lat="42.20226" lon="2.18509">
        <ele>707.26</ele>
        <time>2024-09-26T07:15:02.999Z</time>
      </trkpt>
      <trkpt lat="42.20232" lon="2.18484">
        <ele>706.81</ele>
        <time>2024-09-26T07:15:07.999Z</time>
      </trkpt>
      <trkpt lat="42.20239" lon="2.18461">
        <ele>706.46</ele>
        <time>2024-09-26T07:15:12.999Z</time>
      </trkpt>
      <trkpt lat="42.20246" lon="2.18436">
        <ele>706.11</ele>
        <time>2024-09-26T07:15:17.999Z</time>
      </trkpt>
      <trkpt lat="42.20253" lon="2.18415">
        <ele>706.02</ele>
        <time>2024-09-26T07:15:22.999Z</time>
      </trkpt>
      <trkpt lat="42.2026" lon="2.18393">
        <ele>705.93</ele>
        <time>2024-09-26T07:15:27.999Z</time>
      </trkpt>
      <trkpt lat="42.20267" lon="2.18372">
        <ele>705.86</ele>
        <time>2024-09-26T07:15:32.999Z</time>
      </trkpt>
      <trkpt lat="42.20273" lon="2.18353">
        <ele>705.8</ele>
        <time>2024-09-26T07:15:37.999Z</time>
      </trkpt>
      <trkpt lat="42.20283" lon="2.18338">
        <ele>705.75</ele>
        <time>2024-09-26T07:15:42.999Z</time>
      </trkpt>
      <trkpt lat="42.20295" lon="2.18325">
        <ele>705.74</ele>
        <time>2024-09-26T07:15:47.999Z</time>
      </trkpt>
      <trkpt lat="42.20304" lon="2.18318">
        <ele>706.54</ele>
        <time>2024-09-26T07:17:25.000Z</time>
      </trkpt>
      <trkpt lat="42.20314" lon="2.18304">
        <ele>706.73</ele>
        <time>2024-09-26T07:17:30.000Z</time>
      </trkpt>
      <trkpt lat="42.20324" lon="2.18281">
        <ele>706.95</ele>
        <time>2024-09-26T07:17:35.000Z</time>
      </trkpt>
      <trkpt lat="42.20338" lon="2.18262">
        <ele>709.08</ele>
        <time>2024-09-26T07:17:40.000Z</time>
      </trkpt>
      <trkpt lat="42.20355" lon="2.18246">
        <ele>710.36</ele>
        <time>2024-09-26T07:17:45.000Z</time>
      </trkpt>
      <trkpt lat="42.20373" lon="2.1823">
        <ele>711.2</ele>
        <time>2024-09-26T07:17:50.000Z</time>
      </trkpt>
      <trkpt lat="42.20389" lon="2.18206">
        <ele>711.84</ele>
        <time>2024-09-26T07:17:55.000Z</time>
      </trkpt>
      <trkpt lat="42.20407" lon="2.18173">
        <ele>712.46</ele>
        <time>2024-09-26T07:18:01.000Z</time>
      </trkpt>
      <trkpt lat="42.2042" lon="2.18142">
        <ele>712.97</ele>
        <time>2024-09-26T07:18:06.000Z</time>
      </trkpt>
      <trkpt lat="42.20432" lon="2.18108">
        <ele>713.35</ele>
        <time>2024-09-26T07:18:11.000Z</time>
      </trkpt>
      <trkpt lat="42.20439" lon="2.18071">
        <ele>713.6</ele>
        <time>2024-09-26T07:18:16.000Z</time>
      </trkpt>
      <trkpt lat="42.20442" lon="2.18031">
        <ele>713.74</ele>
        <time>2024-09-26T07:18:21.000Z</time>
      </trkpt>
      <trkpt lat="42.20442" lon="2.17988">
        <ele>713.82</ele>
        <time>2024-09-26T07:18:26.000Z</time>
      </trkpt>
      <trkpt lat="42.20443" lon="2.17944">
        <ele>713.82</ele>
        <time>2024-09-26T07:18:31.000Z</time>
      </trkpt>
      <trkpt lat="42.20444" lon="2.17901">
        <ele>713.68</ele>
        <time>2024-09-26T07:18:36.000Z</time>
      </trkpt>
      <trkpt lat="42.20446" lon="2.17858">
        <ele>713.77</ele>
        <time>2024-09-26T07:18:41.000Z</time>
      </trkpt>
      <trkpt lat="42.20447" lon="2.17815">
        <ele>714.15</ele>
        <time>2024-09-26T07:18:46.000Z</time>
      </trkpt>
      <trkpt lat="42.20458" lon="2.17774">
        <ele>714.93</ele>
        <time>2024-09-26T07:18:51.000Z</time>
      </trkpt>
      <trkpt lat="42.20473" lon="2.17737">
        <ele>715.46</ele>
        <time>2024-09-26T07:18:56.000Z</time>
      </trkpt>
      <trkpt lat="42.20486" lon="2.17704">
        <ele>715.92</ele>
        <time>2024-09-26T07:19:01.000Z</time>
      </trkpt>
      <trkpt lat="42.20496" lon="2.17682">
        <ele>716.14</ele>
        <time>2024-09-26T07:19:06.000Z</time>
      </trkpt>
      <trkpt lat="42.20504" lon="2.17665">
        <ele>716.22</ele>
        <time>2024-09-26T07:19:11.000Z</time>
      </trkpt>
      <trkpt lat="42.20514" lon="2.17643">
        <ele>716.32</ele>
        <time>2024-09-26T07:19:16.000Z</time>
      </trkpt>
      <trkpt lat="42.20523" lon="2.17623">
        <ele>716.41</ele>
        <time>2024-09-26T07:19:21.000Z</time>
      </trkpt>
      <trkpt lat="42.20532" lon="2.17604">
        <ele>716.51</ele>
        <time>2024-09-26T07:19:26.000Z</time>
      </trkpt>
      <trkpt lat="42.2054" lon="2.17583">
        <ele>716.62</ele>
        <time>2024-09-26T07:19:31.000Z</time>
      </trkpt>
      <trkpt lat="42.20548" lon="2.17565">
        <ele>716.71</ele>
        <time>2024-09-26T07:19:36.000Z</time>
      </trkpt>
      <trkpt lat="42.20556" lon="2.17547">
        <ele>716.8</ele>
        <time>2024-09-26T07:19:41.000Z</time>
      </trkpt>
      <trkpt lat="42.20564" lon="2.1753">
        <ele>716.88</ele>
        <time>2024-09-26T07:19:46.000Z</time>
      </trkpt>
      <trkpt lat="42.20572" lon="2.17512">
        <ele>716.94</ele>
        <time>2024-09-26T07:19:51.000Z</time>
      </trkpt>
      <trkpt lat="42.2058" lon="2.17494">
        <ele>717</ele>
        <time>2024-09-26T07:19:56.000Z</time>
      </trkpt>
      <trkpt lat="42.20588" lon="2.17474">
        <ele>717.05</ele>
        <time>2024-09-26T07:20:01.000Z</time>
      </trkpt>
      <trkpt lat="42.20596" lon="2.17454">
        <ele>717.1</ele>
        <time>2024-09-26T07:20:06.000Z</time>
      </trkpt>
      <trkpt lat="42.20605" lon="2.17433">
        <ele>717.32</ele>
        <time>2024-09-26T07:20:11.000Z</time>
      </trkpt>
      <trkpt lat="42.20615" lon="2.17411">
        <ele>717.37</ele>
        <time>2024-09-26T07:20:16.000Z</time>
      </trkpt>
      <trkpt lat="42.20627" lon="2.17396">
        <ele>717.41</ele>
        <time>2024-09-26T07:20:21.000Z</time>
      </trkpt>
      <trkpt lat="42.2063" lon="2.17372">
        <ele>717.58</ele>
        <time>2024-09-26T07:20:26.000Z</time>
      </trkpt>
      <trkpt lat="42.20641" lon="2.17347">
        <ele>717.71</ele>
        <time>2024-09-26T07:20:31.000Z</time>
      </trkpt>
      <trkpt lat="42.20653" lon="2.1732">
        <ele>717.75</ele>
        <time>2024-09-26T07:20:36.000Z</time>
      </trkpt>
      <trkpt lat="42.20665" lon="2.17292">
        <ele>717.73</ele>
        <time>2024-09-26T07:20:41.000Z</time>
      </trkpt>
      <trkpt lat="42.20678" lon="2.17263">
        <ele>717.71</ele>
        <time>2024-09-26T07:20:46.000Z</time>
      </trkpt>
      <trkpt lat="42.2069" lon="2.17236">
        <ele>717.72</ele>
        <time>2024-09-26T07:20:51.000Z</time>
      </trkpt>
      <trkpt lat="42.20701" lon="2.17214">
        <ele>717.73</ele>
        <time>2024-09-26T07:20:56.000Z</time>
      </trkpt>
      <trkpt lat="42.20714" lon="2.17195">
        <ele>717.75</ele>
        <time>2024-09-26T07:21:01.000Z</time>
      </trkpt>
      <trkpt lat="42.20729" lon="2.17179">
        <ele>717.77</ele>
        <time>2024-09-26T07:21:06.000Z</time>
      </trkpt>
      <trkpt lat="42.20744" lon="2.17168">
        <ele>717.79</ele>
        <time>2024-09-26T07:21:11.000Z</time>
      </trkpt>
      <trkpt lat="42.20759" lon="2.17157">
        <ele>717.83</ele>
        <time>2024-09-26T07:21:16.000Z</time>
      </trkpt>
      <trkpt lat="42.20771" lon="2.17147">
        <ele>717.88</ele>
        <time>2024-09-26T07:21:21.000Z</time>
      </trkpt>
      <trkpt lat="42.20782" lon="2.17144">
        <ele>717.92</ele>
        <time>2024-09-26T07:21:26.000Z</time>
      </trkpt>
      <trkpt lat="42.20791" lon="2.17135">
        <ele>717.97</ele>
        <time>2024-09-26T07:22:20.000Z</time>
      </trkpt>
      <trkpt lat="42.20805" lon="2.17124">
        <ele>717.98</ele>
        <time>2024-09-26T07:22:25.000Z</time>
      </trkpt>
      <trkpt lat="42.20821" lon="2.17113">
        <ele>718.15</ele>
        <time>2024-09-26T07:22:30.000Z</time>
      </trkpt>
      <trkpt lat="42.20837" lon="2.17102">
        <ele>718.37</ele>
        <time>2024-09-26T07:22:35.000Z</time>
      </trkpt>
      <trkpt lat="42.20852" lon="2.1709">
        <ele>718.63</ele>
        <time>2024-09-26T07:22:40.000Z</time>
      </trkpt>
      <trkpt lat="42.20868" lon="2.17079">
        <ele>718.93</ele>
        <time>2024-09-26T07:22:45.000Z</time>
      </trkpt>
      <trkpt lat="42.20883" lon="2.17066">
        <ele>719.3</ele>
        <time>2024-09-26T07:22:50.000Z</time>
      </trkpt>
      <trkpt lat="42.20898" lon="2.17053">
        <ele>719.7</ele>
        <time>2024-09-26T07:22:55.000Z</time>
      </trkpt>
      <trkpt lat="42.20913" lon="2.17041">
        <ele>720.1</ele>
        <time>2024-09-26T07:23:00.000Z</time>
      </trkpt>
      <trkpt lat="42.20929" lon="2.17029">
        <ele>720.55</ele>
        <time>2024-09-26T07:23:05.000Z</time>
      </trkpt>
      <trkpt lat="42.20944" lon="2.17018">
        <ele>721.05</ele>
        <time>2024-09-26T07:23:10.000Z</time>
      </trkpt>
      <trkpt lat="42.20959" lon="2.17008">
        <ele>721.56</ele>
        <time>2024-09-26T07:23:15.000Z</time>
      </trkpt>
      <trkpt lat="42.20975" lon="2.17">
        <ele>722.07</ele>
        <time>2024-09-26T07:23:20.000Z</time>
      </trkpt>
      <trkpt lat="42.20991" lon="2.16994">
        <ele>722.55</ele>
        <time>2024-09-26T07:23:25.000Z</time>
      </trkpt>
      <trkpt lat="42.21007" lon="2.1699">
        <ele>723.01</ele>
        <time>2024-09-26T07:23:30.000Z</time>
      </trkpt>
      <trkpt lat="42.21022" lon="2.16986">
        <ele>723.47</ele>
        <time>2024-09-26T07:23:35.000Z</time>
      </trkpt>
      <trkpt lat="42.21037" lon="2.16982">
        <ele>723.95</ele>
        <time>2024-09-26T07:23:40.000Z</time>
      </trkpt>
      <trkpt lat="42.21053" lon="2.16978">
        <ele>724.57</ele>
        <time>2024-09-26T07:23:45.000Z</time>
      </trkpt>
      <trkpt lat="42.21069" lon="2.16974">
        <ele>725.38</ele>
        <time>2024-09-26T07:23:50.000Z</time>
      </trkpt>
      <trkpt lat="42.21086" lon="2.16969">
        <ele>726.27</ele>
        <time>2024-09-26T07:23:55.000Z</time>
      </trkpt>
      <trkpt lat="42.21104" lon="2.16965">
        <ele>727.12</ele>
        <time>2024-09-26T07:24:00.000Z</time>
      </trkpt>
      <trkpt lat="42.2112" lon="2.1696">
        <ele>727.87</ele>
        <time>2024-09-26T07:24:05.000Z</time>
      </trkpt>
      <trkpt lat="42.21138" lon="2.16956">
        <ele>728.52</ele>
        <time>2024-09-26T07:24:10.000Z</time>
      </trkpt>
      <trkpt lat="42.21156" lon="2.16951">
        <ele>729.09</ele>
        <time>2024-09-26T07:24:15.000Z</time>
      </trkpt>
      <trkpt lat="42.21175" lon="2.16947">
        <ele>729.59</ele>
        <time>2024-09-26T07:24:20.000Z</time>
      </trkpt>
      <trkpt lat="42.21194" lon="2.16943">
        <ele>731.75</ele>
        <time>2024-09-26T07:24:25.000Z</time>
      </trkpt>
      <trkpt lat="42.21212" lon="2.16938">
        <ele>733.08</ele>
        <time>2024-09-26T07:24:30.000Z</time>
      </trkpt>
      <trkpt lat="42.21231" lon="2.16934">
        <ele>733.28</ele>
        <time>2024-09-26T07:24:35.000Z</time>
      </trkpt>
      <trkpt lat="42.2125" lon="2.16929">
        <ele>733.23</ele>
        <time>2024-09-26T07:24:40.000Z</time>
      </trkpt>
      <trkpt lat="42.21269" lon="2.16925">
        <ele>733.21</ele>
        <time>2024-09-26T07:24:45.000Z</time>
      </trkpt>
      <trkpt lat="42.2129" lon="2.1692">
        <ele>733.24</ele>
        <time>2024-09-26T07:24:50.000Z</time>
      </trkpt>
      <trkpt lat="42.2131" lon="2.16916">
        <ele>733.41</ele>
        <time>2024-09-26T07:24:55.000Z</time>
      </trkpt>
      <trkpt lat="42.2133" lon="2.16912">
        <ele>733.71</ele>
        <time>2024-09-26T07:25:00.000Z</time>
      </trkpt>
      <trkpt lat="42.21352" lon="2.16908">
        <ele>734.38</ele>
        <time>2024-09-26T07:25:05.000Z</time>
      </trkpt>
      <trkpt lat="42.21374" lon="2.16903">
        <ele>734.93</ele>
        <time>2024-09-26T07:25:10.000Z</time>
      </trkpt>
      <trkpt lat="42.21394" lon="2.16897">
        <ele>735.38</ele>
        <time>2024-09-26T07:25:15.000Z</time>
      </trkpt>
      <trkpt lat="42.21416" lon="2.16893">
        <ele>735.68</ele>
        <time>2024-09-26T07:25:20.000Z</time>
      </trkpt>
      <trkpt lat="42.21439" lon="2.16887">
        <ele>735.76</ele>
        <time>2024-09-26T07:25:25.000Z</time>
      </trkpt>
      <trkpt lat="42.21461" lon="2.16882">
        <ele>735.43</ele>
        <time>2024-09-26T07:25:30.000Z</time>
      </trkpt>
      <trkpt lat="42.21484" lon="2.16876">
        <ele>735.17</ele>
        <time>2024-09-26T07:25:35.000Z</time>
      </trkpt>
      <trkpt lat="42.21508" lon="2.1687">
        <ele>734.75</ele>
        <time>2024-09-26T07:25:40.000Z</time>
      </trkpt>
      <trkpt lat="42.2153" lon="2.16868">
        <ele>734.39</ele>
        <time>2024-09-26T07:25:45.000Z</time>
      </trkpt>
      <trkpt lat="42.21551" lon="2.16873">
        <ele>734.21</ele>
        <time>2024-09-26T07:25:50.000Z</time>
      </trkpt>
      <trkpt lat="42.2157" lon="2.16878">
        <ele>734.05</ele>
        <time>2024-09-26T07:25:55.000Z</time>
      </trkpt>
      <trkpt lat="42.21594" lon="2.16878">
        <ele>733.94</ele>
        <time>2024-09-26T07:26:00.000Z</time>
      </trkpt>
      <trkpt lat="42.21614" lon="2.16878">
        <ele>733.89</ele>
        <time>2024-09-26T07:26:05.000Z</time>
      </trkpt>
      <trkpt lat="42.21631" lon="2.16883">
        <ele>733.92</ele>
        <time>2024-09-26T07:26:10.000Z</time>
      </trkpt>
      <trkpt lat="42.21648" lon="2.16889">
        <ele>734.06</ele>
        <time>2024-09-26T07:26:15.000Z</time>
      </trkpt>
      <trkpt lat="42.21667" lon="2.16894">
        <ele>734.17</ele>
        <time>2024-09-26T07:26:20.000Z</time>
      </trkpt>
      <trkpt lat="42.21683" lon="2.16899">
        <ele>734.27</ele>
        <time>2024-09-26T07:26:25.000Z</time>
      </trkpt>
      <trkpt lat="42.21701" lon="2.16905">
        <ele>734.4</ele>
        <time>2024-09-26T07:26:30.000Z</time>
      </trkpt>
      <trkpt lat="42.21719" lon="2.16911">
        <ele>735.23</ele>
        <time>2024-09-26T07:26:35.000Z</time>
      </trkpt>
      <trkpt lat="42.21737" lon="2.16916">
        <ele>735.43</ele>
        <time>2024-09-26T07:26:40.000Z</time>
      </trkpt>
      <trkpt lat="42.21756" lon="2.16922">
        <ele>735.6</ele>
        <time>2024-09-26T07:26:45.000Z</time>
      </trkpt>
      <trkpt lat="42.21772" lon="2.16928">
        <ele>735.78</ele>
        <time>2024-09-26T07:26:50.000Z</time>
      </trkpt>
      <trkpt lat="42.21786" lon="2.16933">
        <ele>736.04</ele>
        <time>2024-09-26T07:26:55.000Z</time>
      </trkpt>
      <trkpt lat="42.218" lon="2.16937">
        <ele>736.39</ele>
        <time>2024-09-26T07:27:00.000Z</time>
      </trkpt>
      <trkpt lat="42.21819" lon="2.16942">
        <ele>736.76</ele>
        <time>2024-09-26T07:27:05.000Z</time>
      </trkpt>
      <trkpt lat="42.21836" lon="2.16946">
        <ele>737.11</ele>
        <time>2024-09-26T07:27:10.000Z</time>
      </trkpt>
      <trkpt lat="42.21853" lon="2.16951">
        <ele>737.42</ele>
        <time>2024-09-26T07:27:15.000Z</time>
      </trkpt>
      <trkpt lat="42.21866" lon="2.16956">
        <ele>737.69</ele>
        <time>2024-09-26T07:27:20.000Z</time>
      </trkpt>
      <trkpt lat="42.21879" lon="2.16963">
        <ele>737.98</ele>
        <time>2024-09-26T07:27:25.000Z</time>
      </trkpt>
      <trkpt lat="42.2189" lon="2.16969">
        <ele>738.3</ele>
        <time>2024-09-26T07:27:30.000Z</time>
      </trkpt>
      <trkpt lat="42.21902" lon="2.16975">
        <ele>738.63</ele>
        <time>2024-09-26T07:27:35.000Z</time>
      </trkpt>
      <trkpt lat="42.21913" lon="2.16976">
        <ele>738.96</ele>
        <time>2024-09-26T07:27:40.000Z</time>
      </trkpt>
      <trkpt lat="42.21926" lon="2.16979">
        <ele>739.31</ele>
        <time>2024-09-26T07:27:45.000Z</time>
      </trkpt>
      <trkpt lat="42.21939" lon="2.16978">
        <ele>739.67</ele>
        <time>2024-09-26T07:27:50.000Z</time>
      </trkpt>
      <trkpt lat="42.21952" lon="2.16979">
        <ele>740.04</ele>
        <time>2024-09-26T07:27:55.000Z</time>
      </trkpt>
      <trkpt lat="42.21965" lon="2.16981">
        <ele>740.4</ele>
        <time>2024-09-26T07:28:00.000Z</time>
      </trkpt>
      <trkpt lat="42.21978" lon="2.16985">
        <ele>740.76</ele>
        <time>2024-09-26T07:28:05.000Z</time>
      </trkpt>
      <trkpt lat="42.2199" lon="2.1699">
        <ele>741.1</ele>
        <time>2024-09-26T07:28:10.000Z</time>
      </trkpt>
      <trkpt lat="42.22002" lon="2.16996">
        <ele>741.41</ele>
        <time>2024-09-26T07:28:15.000Z</time>
      </trkpt>
      <trkpt lat="42.22014" lon="2.17001">
        <ele>741.7</ele>
        <time>2024-09-26T07:28:20.000Z</time>
      </trkpt>
      <trkpt lat="42.22026" lon="2.17008">
        <ele>741.96</ele>
        <time>2024-09-26T07:28:25.000Z</time>
      </trkpt>
      <trkpt lat="42.2204" lon="2.17014">
        <ele>742.21</ele>
        <time>2024-09-26T07:28:30.000Z</time>
      </trkpt>
      <trkpt lat="42.22055" lon="2.17022">
        <ele>742.44</ele>
        <time>2024-09-26T07:28:35.000Z</time>
      </trkpt>
      <trkpt lat="42.22071" lon="2.1703">
        <ele>742.66</ele>
        <time>2024-09-26T07:28:40.000Z</time>
      </trkpt>
      <trkpt lat="42.22087" lon="2.17039">
        <ele>743.21</ele>
        <time>2024-09-26T07:28:45.000Z</time>
      </trkpt>
      <trkpt lat="42.22104" lon="2.17048">
        <ele>743.6</ele>
        <time>2024-09-26T07:28:50.000Z</time>
      </trkpt>
      <trkpt lat="42.22126" lon="2.17055">
        <ele>743.73</ele>
        <time>2024-09-26T07:28:55.999Z</time>
      </trkpt>
      <trkpt lat="42.22142" lon="2.17061">
        <ele>743.85</ele>
        <time>2024-09-26T07:29:00.999Z</time>
      </trkpt>
      <trkpt lat="42.22158" lon="2.17064">
        <ele>744.01</ele>
        <time>2024-09-26T07:29:05.999Z</time>
      </trkpt>
      <trkpt lat="42.22171" lon="2.17065">
        <ele>744.15</ele>
        <time>2024-09-26T07:29:10.999Z</time>
      </trkpt>
      <trkpt lat="42.22186" lon="2.17055">
        <ele>744.29</ele>
        <time>2024-09-26T07:29:15.999Z</time>
      </trkpt>
      <trkpt lat="42.22191" lon="2.1704">
        <ele>744.42</ele>
        <time>2024-09-26T07:29:20.999Z</time>
      </trkpt>
      <trkpt lat="42.2219" lon="2.17027">
        <ele>744.77</ele>
        <time>2024-09-26T07:30:57.999Z</time>
      </trkpt>
      <trkpt lat="42.2219" lon="2.17008">
        <ele>744.8</ele>
        <time>2024-09-26T07:31:02.999Z</time>
      </trkpt>
      <trkpt lat="42.22191" lon="2.1698">
        <ele>744.91</ele>
        <time>2024-09-26T07:31:07.999Z</time>
      </trkpt>
      <trkpt lat="42.22192" lon="2.1695">
        <ele>744.95</ele>
        <time>2024-09-26T07:31:12.999Z</time>
      </trkpt>
      <trkpt lat="42.22194" lon="2.16918">
        <ele>744.94</ele>
        <time>2024-09-26T07:31:17.999Z</time>
      </trkpt>
      <trkpt lat="42.22196" lon="2.16885">
        <ele>745.02</ele>
        <time>2024-09-26T07:31:22.999Z</time>
      </trkpt>
      <trkpt lat="42.222" lon="2.16851">
        <ele>745.12</ele>
        <time>2024-09-26T07:31:27.999Z</time>
      </trkpt>
      <trkpt lat="42.22205" lon="2.16818">
        <ele>745.13</ele>
        <time>2024-09-26T07:31:32.999Z</time>
      </trkpt>
      <trkpt lat="42.22212" lon="2.16789">
        <ele>745.15</ele>
        <time>2024-09-26T07:31:37.999Z</time>
      </trkpt>
      <trkpt lat="42.22219" lon="2.1676">
        <ele>745.18</ele>
        <time>2024-09-26T07:31:42.999Z</time>
      </trkpt>
      <trkpt lat="42.22225" lon="2.16731">
        <ele>745.2</ele>
        <time>2024-09-26T07:31:47.999Z</time>
      </trkpt>
      <trkpt lat="42.22232" lon="2.16701">
        <ele>745.27</ele>
        <time>2024-09-26T07:31:52.999Z</time>
      </trkpt>
      <trkpt lat="42.22239" lon="2.16673">
        <ele>745.31</ele>
        <time>2024-09-26T07:31:57.999Z</time>
      </trkpt>
      <trkpt lat="42.22247" lon="2.16645">
        <ele>745.47</ele>
        <time>2024-09-26T07:32:02.999Z</time>
      </trkpt>
      <trkpt lat="42.22252" lon="2.16616">
        <ele>745.77</ele>
        <time>2024-09-26T07:32:07.999Z</time>
      </trkpt>
      <trkpt lat="42.22259" lon="2.16586">
        <ele>745.93</ele>
        <time>2024-09-26T07:32:12.999Z</time>
      </trkpt>
      <trkpt lat="42.22265" lon="2.16559">
        <ele>746.07</ele>
        <time>2024-09-26T07:32:17.999Z</time>
      </trkpt>
      <trkpt lat="42.2227" lon="2.16534">
        <ele>746.22</ele>
        <time>2024-09-26T07:32:22.999Z</time>
      </trkpt>
      <trkpt lat="42.22275" lon="2.16511">
        <ele>746.3</ele>
        <time>2024-09-26T07:32:27.999Z</time>
      </trkpt>
      <trkpt lat="42.2228" lon="2.16493">
        <ele>746.45</ele>
        <time>2024-09-26T07:32:32.999Z</time>
      </trkpt>
      <trkpt lat="42.22285" lon="2.16475">
        <ele>746.66</ele>
        <time>2024-09-26T07:32:37.999Z</time>
      </trkpt>
      <trkpt lat="42.22289" lon="2.16458">
        <ele>746.92</ele>
        <time>2024-09-26T07:32:42.999Z</time>
      </trkpt>
      <trkpt lat="42.22293" lon="2.16442">
        <ele>747.23</ele>
        <time>2024-09-26T07:32:47.999Z</time>
      </trkpt>
      <trkpt lat="42.22298" lon="2.16426">
        <ele>747.56</ele>
        <time>2024-09-26T07:32:52.999Z</time>
      </trkpt>
      <trkpt lat="42.22302" lon="2.16409">
        <ele>747.89</ele>
        <time>2024-09-26T07:32:57.999Z</time>
      </trkpt>
      <trkpt lat="42.22307" lon="2.16397">
        <ele>748.25</ele>
        <time>2024-09-26T07:33:02.999Z</time>
      </trkpt>
      <trkpt lat="42.22316" lon="2.16393">
        <ele>748.64</ele>
        <time>2024-09-26T07:33:07.999Z</time>
      </trkpt>
      <trkpt lat="42.22323" lon="2.16381">
        <ele>749.06</ele>
        <time>2024-09-26T07:33:12.999Z</time>
      </trkpt>
      <trkpt lat="42.22328" lon="2.16367">
        <ele>749.46</ele>
        <time>2024-09-26T07:33:17.999Z</time>
      </trkpt>
      <trkpt lat="42.22333" lon="2.16352">
        <ele>749.83</ele>
        <time>2024-09-26T07:33:22.999Z</time>
      </trkpt>
      <trkpt lat="42.22337" lon="2.16339">
        <ele>750.18</ele>
        <time>2024-09-26T07:33:27.999Z</time>
      </trkpt>
      <trkpt lat="42.22341" lon="2.16324">
        <ele>750.55</ele>
        <time>2024-09-26T07:33:32.999Z</time>
      </trkpt>
      <trkpt lat="42.22345" lon="2.16303">
        <ele>750.95</ele>
        <time>2024-09-26T07:33:37.999Z</time>
      </trkpt>
      <trkpt lat="42.22351" lon="2.1628">
        <ele>751.35</ele>
        <time>2024-09-26T07:33:42.999Z</time>
      </trkpt>
      <trkpt lat="42.22357" lon="2.16256">
        <ele>751.71</ele>
        <time>2024-09-26T07:33:47.999Z</time>
      </trkpt>
      <trkpt lat="42.22363" lon="2.16228">
        <ele>752.88</ele>
        <time>2024-09-26T07:33:52.999Z</time>
      </trkpt>
      <trkpt lat="42.22366" lon="2.16199">
        <ele>753.79</ele>
        <time>2024-09-26T07:33:57.999Z</time>
      </trkpt>
      <trkpt lat="42.2237" lon="2.16173">
        <ele>753.9</ele>
        <time>2024-09-26T07:34:02.999Z</time>
      </trkpt>
      <trkpt lat="42.22366" lon="2.16152">
        <ele>753.97</ele>
        <time>2024-09-26T07:34:07.999Z</time>
      </trkpt>
      <trkpt lat="42.22364" lon="2.16126">
        <ele>754.13</ele>
        <time>2024-09-26T07:34:12.999Z</time>
      </trkpt>
      <trkpt lat="42.22371" lon="2.16096">
        <ele>754.12</ele>
        <time>2024-09-26T07:34:17.999Z</time>
      </trkpt>
      <trkpt lat="42.22379" lon="2.16062">
        <ele>754.02</ele>
        <time>2024-09-26T07:34:22.999Z</time>
      </trkpt>
      <trkpt lat="42.22386" lon="2.16028">
        <ele>753.94</ele>
        <time>2024-09-26T07:34:27.999Z</time>
      </trkpt>
      <trkpt lat="42.22394" lon="2.15993">
        <ele>753.9</ele>
        <time>2024-09-26T07:34:32.999Z</time>
      </trkpt>
      <trkpt lat="42.22402" lon="2.15958">
        <ele>753.87</ele>
        <time>2024-09-26T07:34:37.999Z</time>
      </trkpt>
      <trkpt lat="42.22408" lon="2.15929">
        <ele>753.9</ele>
        <time>2024-09-26T07:34:42.999Z</time>
      </trkpt>
      <trkpt lat="42.22413" lon="2.15906">
        <ele>753.91</ele>
        <time>2024-09-26T07:34:47.999Z</time>
      </trkpt>
      <trkpt lat="42.22418" lon="2.15884">
        <ele>753.94</ele>
        <time>2024-09-26T07:34:52.999Z</time>
      </trkpt>
      <trkpt lat="42.22423" lon="2.15863">
        <ele>753.98</ele>
        <time>2024-09-26T07:34:57.999Z</time>
      </trkpt>
      <trkpt lat="42.22428" lon="2.15842">
        <ele>754.03</ele>
        <time>2024-09-26T07:35:02.999Z</time>
      </trkpt>
      <trkpt lat="42.22435" lon="2.15821">
        <ele>754.09</ele>
        <time>2024-09-26T07:35:07.999Z</time>
      </trkpt>
      <trkpt lat="42.22441" lon="2.158">
        <ele>754.15</ele>
        <time>2024-09-26T07:35:12.999Z</time>
      </trkpt>
      <trkpt lat="42.22448" lon="2.15777">
        <ele>754.21</ele>
        <time>2024-09-26T07:35:17.999Z</time>
      </trkpt>
      <trkpt lat="42.22456" lon="2.15754">
        <ele>754.45</ele>
        <time>2024-09-26T07:35:22.999Z</time>
      </trkpt>
      <trkpt lat="42.22463" lon="2.15729">
        <ele>754.8</ele>
        <time>2024-09-26T07:35:27.999Z</time>
      </trkpt>
      <trkpt lat="42.22472" lon="2.15704">
        <ele>755</ele>
        <time>2024-09-26T07:35:32.999Z</time>
      </trkpt>
      <trkpt lat="42.22479" lon="2.15678">
        <ele>755.15</ele>
        <time>2024-09-26T07:35:37.999Z</time>
      </trkpt>
      <trkpt lat="42.22487" lon="2.15652">
        <ele>755.26</ele>
        <time>2024-09-26T07:35:42.999Z</time>
      </trkpt>
      <trkpt lat="42.22495" lon="2.15625">
        <ele>755.35</ele>
        <time>2024-09-26T07:35:47.999Z</time>
      </trkpt>
      <trkpt lat="42.22503" lon="2.15598">
        <ele>755.46</ele>
        <time>2024-09-26T07:35:52.999Z</time>
      </trkpt>
      <trkpt lat="42.2251" lon="2.15574">
        <ele>755.58</ele>
        <time>2024-09-26T07:35:57.999Z</time>
      </trkpt>
      <trkpt lat="42.22518" lon="2.15551">
        <ele>755.63</ele>
        <time>2024-09-26T07:36:02.999Z</time>
      </trkpt>
      <trkpt lat="42.22524" lon="2.15528">
        <ele>755.66</ele>
        <time>2024-09-26T07:36:07.999Z</time>
      </trkpt>
      <trkpt lat="42.22531" lon="2.15506">
        <ele>755.7</ele>
        <time>2024-09-26T07:36:12.999Z</time>
      </trkpt>
      <trkpt lat="42.22538" lon="2.15486">
        <ele>755.74</ele>
        <time>2024-09-26T07:36:17.999Z</time>
      </trkpt>
      <trkpt lat="42.22543" lon="2.15466">
        <ele>755.8</ele>
        <time>2024-09-26T07:36:22.999Z</time>
      </trkpt>
      <trkpt lat="42.2255" lon="2.15446">
        <ele>755.87</ele>
        <time>2024-09-26T07:36:27.999Z</time>
      </trkpt>
      <trkpt lat="42.22556" lon="2.15427">
        <ele>755.96</ele>
        <time>2024-09-26T07:36:32.999Z</time>
      </trkpt>
      <trkpt lat="42.22562" lon="2.15407">
        <ele>756.05</ele>
        <time>2024-09-26T07:36:37.999Z</time>
      </trkpt>
      <trkpt lat="42.22569" lon="2.15387">
        <ele>756.15</ele>
        <time>2024-09-26T07:36:42.999Z</time>
      </trkpt>
      <trkpt lat="42.22575" lon="2.15366">
        <ele>756.25</ele>
        <time>2024-09-26T07:36:47.999Z</time>
      </trkpt>
      <trkpt lat="42.22582" lon="2.15343">
        <ele>756.52</ele>
        <time>2024-09-26T07:36:52.999Z</time>
      </trkpt>
      <trkpt lat="42.22589" lon="2.15319">
        <ele>757.21</ele>
        <time>2024-09-26T07:36:57.999Z</time>
      </trkpt>
      <trkpt lat="42.22597" lon="2.15293">
        <ele>757.53</ele>
        <time>2024-09-26T07:37:02.999Z</time>
      </trkpt>
      <trkpt lat="42.22603" lon="2.15268">
        <ele>757.69</ele>
        <time>2024-09-26T07:37:07.999Z</time>
      </trkpt>
      <trkpt lat="42.22612" lon="2.15241">
        <ele>757.79</ele>
        <time>2024-09-26T07:37:12.999Z</time>
      </trkpt>
      <trkpt lat="42.2262" lon="2.15214">
        <ele>757.88</ele>
        <time>2024-09-26T07:37:17.999Z</time>
      </trkpt>
      <trkpt lat="42.22631" lon="2.15187">
        <ele>757.98</ele>
        <time>2024-09-26T07:37:22.999Z</time>
      </trkpt>
      <trkpt lat="42.22647" lon="2.15172">
        <ele>758.04</ele>
        <time>2024-09-26T07:37:27.999Z</time>
      </trkpt>
      <trkpt lat="42.22655" lon="2.15155">
        <ele>758.06</ele>
        <time>2024-09-26T07:37:32.999Z</time>
      </trkpt>
      <trkpt lat="42.22659" lon="2.15135">
        <ele>758.1</ele>
        <time>2024-09-26T07:37:37.999Z</time>
      </trkpt>
      <trkpt lat="42.22665" lon="2.15118">
        <ele>758.14</ele>
        <time>2024-09-26T07:37:42.999Z</time>
      </trkpt>
      <trkpt lat="42.2267" lon="2.15099">
        <ele>758.2</ele>
        <time>2024-09-26T07:37:47.999Z</time>
      </trkpt>
      <trkpt lat="42.22677" lon="2.15078">
        <ele>758.28</ele>
        <time>2024-09-26T07:37:52.999Z</time>
      </trkpt>
      <trkpt lat="42.22683" lon="2.15057">
        <ele>758.36</ele>
        <time>2024-09-26T07:37:57.999Z</time>
      </trkpt>
      <trkpt lat="42.2269" lon="2.15035">
        <ele>758.45</ele>
        <time>2024-09-26T07:38:02.999Z</time>
      </trkpt>
      <trkpt lat="42.22698" lon="2.15012">
        <ele>758.72</ele>
        <time>2024-09-26T07:38:07.999Z</time>
      </trkpt>
      <trkpt lat="42.22705" lon="2.14989">
        <ele>759.18</ele>
        <time>2024-09-26T07:38:12.999Z</time>
      </trkpt>
      <trkpt lat="42.22712" lon="2.14966">
        <ele>759.28</ele>
        <time>2024-09-26T07:38:17.999Z</time>
      </trkpt>
      <trkpt lat="42.22718" lon="2.14942">
        <ele>759.65</ele>
        <time>2024-09-26T07:38:22.999Z</time>
      </trkpt>
      <trkpt lat="42.22726" lon="2.14919">
        <ele>759.85</ele>
        <time>2024-09-26T07:38:27.999Z</time>
      </trkpt>
      <trkpt lat="42.22733" lon="2.14895">
        <ele>760.05</ele>
        <time>2024-09-26T07:38:32.999Z</time>
      </trkpt>
      <trkpt lat="42.22741" lon="2.14872">
        <ele>760.28</ele>
        <time>2024-09-26T07:38:37.999Z</time>
      </trkpt>
      <trkpt lat="42.22749" lon="2.14848">
        <ele>760.52</ele>
        <time>2024-09-26T07:38:42.999Z</time>
      </trkpt>
      <trkpt lat="42.22755" lon="2.14824">
        <ele>760.61</ele>
        <time>2024-09-26T07:38:47.999Z</time>
      </trkpt>
      <trkpt lat="42.22762" lon="2.14803">
        <ele>760.64</ele>
        <time>2024-09-26T07:38:52.999Z</time>
      </trkpt>
      <trkpt lat="42.22767" lon="2.14785">
        <ele>760.7</ele>
        <time>2024-09-26T07:38:57.999Z</time>
      </trkpt>
      <trkpt lat="42.22773" lon="2.14767">
        <ele>760.76</ele>
        <time>2024-09-26T07:39:02.999Z</time>
      </trkpt>
      <trkpt lat="42.22779" lon="2.14748">
        <ele>760.84</ele>
        <time>2024-09-26T07:39:07.999Z</time>
      </trkpt>
      <trkpt lat="42.22784" lon="2.1473">
        <ele>760.93</ele>
        <time>2024-09-26T07:39:12.999Z</time>
      </trkpt>
      <trkpt lat="42.22791" lon="2.14713">
        <ele>761.03</ele>
        <time>2024-09-26T07:39:17.999Z</time>
      </trkpt>
      <trkpt lat="42.22799" lon="2.14701">
        <ele>761.14</ele>
        <time>2024-09-26T07:39:22.999Z</time>
      </trkpt>
      <trkpt lat="42.22806" lon="2.14689">
        <ele>761.27</ele>
        <time>2024-09-26T07:39:27.999Z</time>
      </trkpt>
      <trkpt lat="42.22806" lon="2.14675">
        <ele>762.62</ele>
        <time>2024-09-26T07:40:55.999Z</time>
      </trkpt>
      <trkpt lat="42.22801" lon="2.14665">
        <ele>763.85</ele>
        <time>2024-09-26T07:41:09.999Z</time>
      </trkpt>
      <trkpt lat="42.22795" lon="2.14652">
        <ele>766.05</ele>
        <time>2024-09-26T07:42:54.000Z</time>
      </trkpt>
      <trkpt lat="42.22799" lon="2.14638">
        <ele>766.4</ele>
        <time>2024-09-26T07:42:59.000Z</time>
      </trkpt>
      <trkpt lat="42.22802" lon="2.1462">
        <ele>766.72</ele>
        <time>2024-09-26T07:43:04.000Z</time>
      </trkpt>
      <trkpt lat="42.22804" lon="2.146">
        <ele>767.01</ele>
        <time>2024-09-26T07:43:09.000Z</time>
      </trkpt>
      <trkpt lat="42.22805" lon="2.1458">
        <ele>767.3</ele>
        <time>2024-09-26T07:43:14.000Z</time>
      </trkpt>
      <trkpt lat="42.22808" lon="2.14558">
        <ele>767.59</ele>
        <time>2024-09-26T07:43:19.000Z</time>
      </trkpt>
      <trkpt lat="42.2281" lon="2.14534">
        <ele>768.65</ele>
        <time>2024-09-26T07:43:24.000Z</time>
      </trkpt>
      <trkpt lat="42.22813" lon="2.14507">
        <ele>770.08</ele>
        <time>2024-09-26T07:43:29.000Z</time>
      </trkpt>
      <trkpt lat="42.22817" lon="2.14479">
        <ele>770.7</ele>
        <time>2024-09-26T07:43:34.000Z</time>
      </trkpt>
      <trkpt lat="42.2282" lon="2.14455">
        <ele>770.93</ele>
        <time>2024-09-26T07:43:39.000Z</time>
      </trkpt>
      <trkpt lat="42.22824" lon="2.14426">
        <ele>771.11</ele>
        <time>2024-09-26T07:43:44.000Z</time>
      </trkpt>
      <trkpt lat="42.22827" lon="2.14393">
        <ele>771.2</ele>
        <time>2024-09-26T07:43:49.000Z</time>
      </trkpt>
      <trkpt lat="42.22827" lon="2.14363">
        <ele>771.24</ele>
        <time>2024-09-26T07:43:54.000Z</time>
      </trkpt>
      <trkpt lat="42.2283" lon="2.14329">
        <ele>771.25</ele>
        <time>2024-09-26T07:43:59.000Z</time>
      </trkpt>
      <trkpt lat="42.22833" lon="2.14293">
        <ele>771.26</ele>
        <time>2024-09-26T07:44:04.000Z</time>
      </trkpt>
      <trkpt lat="42.22831" lon="2.14252">
        <ele>771.32</ele>
        <time>2024-09-26T07:44:09.000Z</time>
      </trkpt>
      <trkpt lat="42.22823" lon="2.14216">
        <ele>771.52</ele>
        <time>2024-09-26T07:44:14.000Z</time>
      </trkpt>
      <trkpt lat="42.22816" lon="2.14183">
        <ele>771.7</ele>
        <time>2024-09-26T07:44:19.000Z</time>
      </trkpt>
      <trkpt lat="42.22809" lon="2.14147">
        <ele>771.89</ele>
        <time>2024-09-26T07:44:24.000Z</time>
      </trkpt>
      <trkpt lat="42.228" lon="2.14116">
        <ele>772.06</ele>
        <time>2024-09-26T07:44:29.000Z</time>
      </trkpt>
      <trkpt lat="42.22796" lon="2.14097">
        <ele>772.12</ele>
        <time>2024-09-26T07:44:34.000Z</time>
      </trkpt>
      <trkpt lat="42.22791" lon="2.14076">
        <ele>772.2</ele>
        <time>2024-09-26T07:44:39.000Z</time>
      </trkpt>
      <trkpt lat="42.22785" lon="2.14055">
        <ele>772.3</ele>
        <time>2024-09-26T07:44:44.000Z</time>
      </trkpt>
      <trkpt lat="42.2278" lon="2.14035">
        <ele>772.41</ele>
        <time>2024-09-26T07:44:49.000Z</time>
      </trkpt>
      <trkpt lat="42.22775" lon="2.14014">
        <ele>772.53</ele>
        <time>2024-09-26T07:44:54.000Z</time>
      </trkpt>
      <trkpt lat="42.2277" lon="2.13995">
        <ele>772.66</ele>
        <time>2024-09-26T07:44:59.000Z</time>
      </trkpt>
      <trkpt lat="42.22764" lon="2.13974">
        <ele>772.81</ele>
        <time>2024-09-26T07:45:04.000Z</time>
      </trkpt>
      <trkpt lat="42.22758" lon="2.1395">
        <ele>772.96</ele>
        <time>2024-09-26T07:45:09.000Z</time>
      </trkpt>
      <trkpt lat="42.22755" lon="2.13924">
        <ele>774</ele>
        <time>2024-09-26T07:45:14.000Z</time>
      </trkpt>
      <trkpt lat="42.22761" lon="2.13899">
        <ele>774.7</ele>
        <time>2024-09-26T07:45:19.000Z</time>
      </trkpt>
      <trkpt lat="42.22771" lon="2.13879">
        <ele>774.79</ele>
        <time>2024-09-26T07:45:24.000Z</time>
      </trkpt>
      <trkpt lat="42.22781" lon="2.1386">
        <ele>774.85</ele>
        <time>2024-09-26T07:45:29.000Z</time>
      </trkpt>
      <trkpt lat="42.22788" lon="2.13846">
        <ele>774.92</ele>
        <time>2024-09-26T07:45:34.000Z</time>
      </trkpt>
      <trkpt lat="42.22795" lon="2.13832">
        <ele>775.01</ele>
        <time>2024-09-26T07:45:39.000Z</time>
      </trkpt>
      <trkpt lat="42.22799" lon="2.13821">
        <ele>775.11</ele>
        <time>2024-09-26T07:45:44.000Z</time>
      </trkpt>
      <trkpt lat="42.22805" lon="2.13811">
        <ele>775.22</ele>
        <time>2024-09-26T07:45:49.000Z</time>
      </trkpt>
      <trkpt lat="42.2281" lon="2.138">
        <ele>775.35</ele>
        <time>2024-09-26T07:45:54.000Z</time>
      </trkpt>
      <trkpt lat="42.22815" lon="2.13789">
        <ele>775.48</ele>
        <time>2024-09-26T07:45:59.000Z</time>
      </trkpt>
      <trkpt lat="42.22821" lon="2.13778">
        <ele>775.63</ele>
        <time>2024-09-26T07:46:04.000Z</time>
      </trkpt>
      <trkpt lat="42.22828" lon="2.13769">
        <ele>775.79</ele>
        <time>2024-09-26T07:46:09.000Z</time>
      </trkpt>
      <trkpt lat="42.22836" lon="2.13762">
        <ele>775.96</ele>
        <time>2024-09-26T07:46:14.000Z</time>
      </trkpt>
      <trkpt lat="42.22846" lon="2.13756">
        <ele>776.14</ele>
        <time>2024-09-26T07:46:19.000Z</time>
      </trkpt>
      <trkpt lat="42.22854" lon="2.13752">
        <ele>776.34</ele>
        <time>2024-09-26T07:46:24.000Z</time>
      </trkpt>
      <trkpt lat="42.22864" lon="2.13748">
        <ele>776.6</ele>
        <time>2024-09-26T07:46:30.000Z</time>
      </trkpt>
      <trkpt lat="42.22874" lon="2.13744">
        <ele>776.87</ele>
        <time>2024-09-26T07:46:36.000Z</time>
      </trkpt>
      <trkpt lat="42.22884" lon="2.13741">
        <ele>777.15</ele>
        <time>2024-09-26T07:46:42.000Z</time>
      </trkpt>
      <trkpt lat="42.22892" lon="2.13735">
        <ele>777.4</ele>
        <time>2024-09-26T07:46:47.000Z</time>
      </trkpt>
      <trkpt lat="42.22901" lon="2.13731">
        <ele>777.66</ele>
        <time>2024-09-26T07:46:52.000Z</time>
      </trkpt>
      <trkpt lat="42.22911" lon="2.13727">
        <ele>777.96</ele>
        <time>2024-09-26T07:46:58.000Z</time>
      </trkpt>
      <trkpt lat="42.2292" lon="2.13722">
        <ele>778.21</ele>
        <time>2024-09-26T07:47:03.000Z</time>
      </trkpt>
      <trkpt lat="42.22929" lon="2.13718">
        <ele>778.5</ele>
        <time>2024-09-26T07:47:09.000Z</time>
      </trkpt>
      <trkpt lat="42.22938" lon="2.13714">
        <ele>778.8</ele>
        <time>2024-09-26T07:47:15.000Z</time>
      </trkpt>
      <trkpt lat="42.22947" lon="2.1371">
        <ele>779.13</ele>
        <time>2024-09-26T07:47:21.000Z</time>
      </trkpt>
      <trkpt lat="42.22954" lon="2.13699">
        <ele>779.49</ele>
        <time>2024-09-26T07:47:26.000Z</time>
      </trkpt>
      <trkpt lat="42.22962" lon="2.13685">
        <ele>779.87</ele>
        <time>2024-09-26T07:47:31.000Z</time>
      </trkpt>
      <trkpt lat="42.22966" lon="2.13673">
        <ele>780.28</ele>
        <time>2024-09-26T07:47:36.000Z</time>
      </trkpt>
      <trkpt lat="42.22973" lon="2.13661">
        <ele>780.74</ele>
        <time>2024-09-26T07:47:41.000Z</time>
      </trkpt>
      <trkpt lat="42.22979" lon="2.13648">
        <ele>781.19</ele>
        <time>2024-09-26T07:47:46.000Z</time>
      </trkpt>
      <trkpt lat="42.22985" lon="2.13632">
        <ele>781.64</ele>
        <time>2024-09-26T07:47:51.000Z</time>
      </trkpt>
      <trkpt lat="42.22992" lon="2.13618">
        <ele>782.06</ele>
        <time>2024-09-26T07:47:56.000Z</time>
      </trkpt>
      <trkpt lat="42.22999" lon="2.13602">
        <ele>782.46</ele>
        <time>2024-09-26T07:48:01.000Z</time>
      </trkpt>
      <trkpt lat="42.23003" lon="2.13587">
        <ele>782.84</ele>
        <time>2024-09-26T07:48:06.000Z</time>
      </trkpt>
      <trkpt lat="42.23004" lon="2.1357">
        <ele>783.24</ele>
        <time>2024-09-26T07:48:11.000Z</time>
      </trkpt>
      <trkpt lat="42.23005" lon="2.13555">
        <ele>783.64</ele>
        <time>2024-09-26T07:48:16.000Z</time>
      </trkpt>
      <trkpt lat="42.23006" lon="2.13539">
        <ele>784.08</ele>
        <time>2024-09-26T07:48:21.000Z</time>
      </trkpt>
      <trkpt lat="42.23006" lon="2.13524">
        <ele>784.52</ele>
        <time>2024-09-26T07:48:26.000Z</time>
      </trkpt>
      <trkpt lat="42.23006" lon="2.13505">
        <ele>784.98</ele>
        <time>2024-09-26T07:48:31.000Z</time>
      </trkpt>
      <trkpt lat="42.23009" lon="2.13488">
        <ele>785.5</ele>
        <time>2024-09-26T07:48:36.000Z</time>
      </trkpt>
      <trkpt lat="42.23014" lon="2.13477">
        <ele>786.06</ele>
        <time>2024-09-26T07:48:41.000Z</time>
      </trkpt>
      <trkpt lat="42.23021" lon="2.13464">
        <ele>786.63</ele>
        <time>2024-09-26T07:48:46.000Z</time>
      </trkpt>
      <trkpt lat="42.23027" lon="2.13451">
        <ele>787.2</ele>
        <time>2024-09-26T07:48:51.000Z</time>
      </trkpt>
      <trkpt lat="42.23033" lon="2.13439">
        <ele>787.79</ele>
        <time>2024-09-26T07:48:56.000Z</time>
      </trkpt>
      <trkpt lat="42.2304" lon="2.13426">
        <ele>788.4</ele>
        <time>2024-09-26T07:49:01.000Z</time>
      </trkpt>
      <trkpt lat="42.23043" lon="2.1341">
        <ele>789</ele>
        <time>2024-09-26T07:49:06.000Z</time>
      </trkpt>
      <trkpt lat="42.23047" lon="2.13388">
        <ele>789.69</ele>
        <time>2024-09-26T07:49:11.000Z</time>
      </trkpt>
      <trkpt lat="42.23051" lon="2.13368">
        <ele>790.43</ele>
        <time>2024-09-26T07:49:16.000Z</time>
      </trkpt>
      <trkpt lat="42.23054" lon="2.13346">
        <ele>791.22</ele>
        <time>2024-09-26T07:49:21.000Z</time>
      </trkpt>
      <trkpt lat="42.23057" lon="2.13325">
        <ele>792.06</ele>
        <time>2024-09-26T07:49:26.000Z</time>
      </trkpt>
      <trkpt lat="42.23061" lon="2.13311">
        <ele>792.9</ele>
        <time>2024-09-26T07:49:31.000Z</time>
      </trkpt>
      <trkpt lat="42.23064" lon="2.13297">
        <ele>793.74</ele>
        <time>2024-09-26T07:49:36.000Z</time>
      </trkpt>
      <trkpt lat="42.23068" lon="2.13281">
        <ele>794.57</ele>
        <time>2024-09-26T07:49:41.000Z</time>
      </trkpt>
      <trkpt lat="42.23071" lon="2.13267">
        <ele>795.4</ele>
        <time>2024-09-26T07:49:46.000Z</time>
      </trkpt>
      <trkpt lat="42.23074" lon="2.13253">
        <ele>796.2</ele>
        <time>2024-09-26T07:49:51.000Z</time>
      </trkpt>
      <trkpt lat="42.23077" lon="2.1324">
        <ele>796.99</ele>
        <time>2024-09-26T07:49:56.000Z</time>
      </trkpt>
      <trkpt lat="42.2308" lon="2.13225">
        <ele>797.76</ele>
        <time>2024-09-26T07:50:01.000Z</time>
      </trkpt>
      <trkpt lat="42.23082" lon="2.1321">
        <ele>798.51</ele>
        <time>2024-09-26T07:50:06.000Z</time>
      </trkpt>
      <trkpt lat="42.23085" lon="2.13194">
        <ele>799.24</ele>
        <time>2024-09-26T07:50:11.000Z</time>
      </trkpt>
      <trkpt lat="42.23088" lon="2.13177">
        <ele>799.95</ele>
        <time>2024-09-26T07:50:16.000Z</time>
      </trkpt>
      <trkpt lat="42.23091" lon="2.13161">
        <ele>800.64</ele>
        <time>2024-09-26T07:50:21.000Z</time>
      </trkpt>
      <trkpt lat="42.23095" lon="2.13142">
        <ele>801.33</ele>
        <time>2024-09-26T07:50:26.000Z</time>
      </trkpt>
      <trkpt lat="42.23099" lon="2.13124">
        <ele>801.99</ele>
        <time>2024-09-26T07:50:31.000Z</time>
      </trkpt>
      <trkpt lat="42.23103" lon="2.13104">
        <ele>802.62</ele>
        <time>2024-09-26T07:50:36.000Z</time>
      </trkpt>
      <trkpt lat="42.23109" lon="2.13086">
        <ele>803.22</ele>
        <time>2024-09-26T07:50:41.000Z</time>
      </trkpt>
      <trkpt lat="42.23115" lon="2.13067">
        <ele>803.81</ele>
        <time>2024-09-26T07:50:46.000Z</time>
      </trkpt>
      <trkpt lat="42.23122" lon="2.13047">
        <ele>804.36</ele>
        <time>2024-09-26T07:50:51.000Z</time>
      </trkpt>
      <trkpt lat="42.23129" lon="2.13024">
        <ele>804.91</ele>
        <time>2024-09-26T07:50:56.000Z</time>
      </trkpt>
      <trkpt lat="42.23137" lon="2.13">
        <ele>808.48</ele>
        <time>2024-09-26T07:51:01.000Z</time>
      </trkpt>
      <trkpt lat="42.23145" lon="2.12975">
        <ele>810</ele>
        <time>2024-09-26T07:51:06.000Z</time>
      </trkpt>
      <trkpt lat="42.23154" lon="2.12948">
        <ele>810.72</ele>
        <time>2024-09-26T07:51:11.000Z</time>
      </trkpt>
      <trkpt lat="42.23162" lon="2.12921">
        <ele>811.12</ele>
        <time>2024-09-26T07:51:16.000Z</time>
      </trkpt>
      <trkpt lat="42.23173" lon="2.12896">
        <ele>811.33</ele>
        <time>2024-09-26T07:51:21.000Z</time>
      </trkpt>
      <trkpt lat="42.23183" lon="2.1287">
        <ele>811.47</ele>
        <time>2024-09-26T07:51:26.000Z</time>
      </trkpt>
      <trkpt lat="42.23194" lon="2.12845">
        <ele>811.63</ele>
        <time>2024-09-26T07:51:31.000Z</time>
      </trkpt>
      <trkpt lat="42.23208" lon="2.12821">
        <ele>811.82</ele>
        <time>2024-09-26T07:51:36.000Z</time>
      </trkpt>
      <trkpt lat="42.23222" lon="2.12798">
        <ele>811.99</ele>
        <time>2024-09-26T07:51:41.000Z</time>
      </trkpt>
      <trkpt lat="42.23236" lon="2.12772">
        <ele>812.17</ele>
        <time>2024-09-26T07:51:46.000Z</time>
      </trkpt>
      <trkpt lat="42.23248" lon="2.12741">
        <ele>812.37</ele>
        <time>2024-09-26T07:51:51.000Z</time>
      </trkpt>
      <trkpt lat="42.2326" lon="2.12713">
        <ele>812.53</ele>
        <time>2024-09-26T07:51:56.000Z</time>
      </trkpt>
      <trkpt lat="42.23271" lon="2.12685">
        <ele>812.61</ele>
        <time>2024-09-26T07:52:01.000Z</time>
      </trkpt>
      <trkpt lat="42.23283" lon="2.12654">
        <ele>812.69</ele>
        <time>2024-09-26T07:52:06.000Z</time>
      </trkpt>
      <trkpt lat="42.23295" lon="2.12624">
        <ele>812.74</ele>
        <time>2024-09-26T07:52:11.000Z</time>
      </trkpt>
      <trkpt lat="42.23307" lon="2.12593">
        <ele>812.78</ele>
        <time>2024-09-26T07:52:16.000Z</time>
      </trkpt>
      <trkpt lat="42.23319" lon="2.12562">
        <ele>812.85</ele>
        <time>2024-09-26T07:52:21.000Z</time>
      </trkpt>
      <trkpt lat="42.23332" lon="2.12536">
        <ele>812.95</ele>
        <time>2024-09-26T07:52:26.000Z</time>
      </trkpt>
      <trkpt lat="42.23346" lon="2.12517">
        <ele>813</ele>
        <time>2024-09-26T07:52:31.000Z</time>
      </trkpt>
      <trkpt lat="42.23357" lon="2.12503">
        <ele>813.04</ele>
        <time>2024-09-26T07:52:36.000Z</time>
      </trkpt>
      <trkpt lat="42.23368" lon="2.12492">
        <ele>813.08</ele>
        <time>2024-09-26T07:52:41.000Z</time>
      </trkpt>
      <trkpt lat="42.23377" lon="2.12479">
        <ele>813.14</ele>
        <time>2024-09-26T07:52:46.000Z</time>
      </trkpt>
      <trkpt lat="42.23387" lon="2.12468">
        <ele>813.21</ele>
        <time>2024-09-26T07:52:51.000Z</time>
      </trkpt>
      <trkpt lat="42.23397" lon="2.12456">
        <ele>813.29</ele>
        <time>2024-09-26T07:52:56.000Z</time>
      </trkpt>
      <trkpt lat="42.23406" lon="2.12443">
        <ele>813.38</ele>
        <time>2024-09-26T07:53:01.000Z</time>
      </trkpt>
      <trkpt lat="42.23417" lon="2.1243">
        <ele>813.48</ele>
        <time>2024-09-26T07:53:06.000Z</time>
      </trkpt>
      <trkpt lat="42.23427" lon="2.12417">
        <ele>813.59</ele>
        <time>2024-09-26T07:53:11.000Z</time>
      </trkpt>
      <trkpt lat="42.23438" lon="2.12404">
        <ele>813.7</ele>
        <time>2024-09-26T07:53:16.000Z</time>
      </trkpt>
      <trkpt lat="42.2345" lon="2.12387">
        <ele>813.85</ele>
        <time>2024-09-26T07:53:21.999Z</time>
      </trkpt>
      <trkpt lat="42.23461" lon="2.12374">
        <ele>813.99</ele>
        <time>2024-09-26T07:53:26.999Z</time>
      </trkpt>
      <trkpt lat="42.23469" lon="2.12363">
        <ele>814.14</ele>
        <time>2024-09-26T07:53:31.999Z</time>
      </trkpt>
      <trkpt lat="42.23477" lon="2.12353">
        <ele>814.35</ele>
        <time>2024-09-26T07:53:37.999Z</time>
      </trkpt>
      <trkpt lat="42.23484" lon="2.12344">
        <ele>814.53</ele>
        <time>2024-09-26T07:53:42.999Z</time>
      </trkpt>
      <trkpt lat="42.23492" lon="2.12336">
        <ele>814.72</ele>
        <time>2024-09-26T07:53:47.999Z</time>
      </trkpt>
      <trkpt lat="42.23499" lon="2.12328">
        <ele>814.92</ele>
        <time>2024-09-26T07:53:52.999Z</time>
      </trkpt>
      <trkpt lat="42.23508" lon="2.12321">
        <ele>815.13</ele>
        <time>2024-09-26T07:53:57.999Z</time>
      </trkpt>
      <trkpt lat="42.23514" lon="2.12311">
        <ele>815.34</ele>
        <time>2024-09-26T07:54:02.999Z</time>
      </trkpt>
      <trkpt lat="42.23521" lon="2.12302">
        <ele>815.55</ele>
        <time>2024-09-26T07:54:07.999Z</time>
      </trkpt>
      <trkpt lat="42.23528" lon="2.12292">
        <ele>815.78</ele>
        <time>2024-09-26T07:54:12.999Z</time>
      </trkpt>
      <trkpt lat="42.23533" lon="2.12282">
        <ele>816.01</ele>
        <time>2024-09-26T07:54:17.999Z</time>
      </trkpt>
      <trkpt lat="42.2354" lon="2.12272">
        <ele>816.24</ele>
        <time>2024-09-26T07:54:22.999Z</time>
      </trkpt>
      <trkpt lat="42.23548" lon="2.12263">
        <ele>816.48</ele>
        <time>2024-09-26T07:54:27.999Z</time>
      </trkpt>
      <trkpt lat="42.23555" lon="2.12252">
        <ele>816.73</ele>
        <time>2024-09-26T07:54:32.999Z</time>
      </trkpt>
      <trkpt lat="42.23564" lon="2.12234">
        <ele>816.98</ele>
        <time>2024-09-26T07:54:37.999Z</time>
      </trkpt>
      <trkpt lat="42.23573" lon="2.12215">
        <ele>817.21</ele>
        <time>2024-09-26T07:54:42.999Z</time>
      </trkpt>
      <trkpt lat="42.2358" lon="2.12194">
        <ele>817.43</ele>
        <time>2024-09-26T07:54:47.999Z</time>
      </trkpt>
      <trkpt lat="42.23588" lon="2.12174">
        <ele>817.64</ele>
        <time>2024-09-26T07:54:52.999Z</time>
      </trkpt>
      <trkpt lat="42.23595" lon="2.12153">
        <ele>817.84</ele>
        <time>2024-09-26T07:54:57.999Z</time>
      </trkpt>
      <trkpt lat="42.23603" lon="2.12131">
        <ele>818.03</ele>
        <time>2024-09-26T07:55:02.999Z</time>
      </trkpt>
      <trkpt lat="42.2361" lon="2.12107">
        <ele>818.45</ele>
        <time>2024-09-26T07:55:07.999Z</time>
      </trkpt>
      <trkpt lat="42.23614" lon="2.12081">
        <ele>819.28</ele>
        <time>2024-09-26T07:55:12.999Z</time>
      </trkpt>
      <trkpt lat="42.2362" lon="2.12056">
        <ele>819.59</ele>
        <time>2024-09-26T07:55:17.999Z</time>
      </trkpt>
      <trkpt lat="42.23627" lon="2.12037">
        <ele>819.65</ele>
        <time>2024-09-26T07:55:22.999Z</time>
      </trkpt>
      <trkpt lat="42.23632" lon="2.12017">
        <ele>819.71</ele>
        <time>2024-09-26T07:55:27.999Z</time>
      </trkpt>
      <trkpt lat="42.23639" lon="2.11998">
        <ele>819.78</ele>
        <time>2024-09-26T07:55:32.999Z</time>
      </trkpt>
      <trkpt lat="42.23646" lon="2.11981">
        <ele>819.85</ele>
        <time>2024-09-26T07:55:37.999Z</time>
      </trkpt>
      <trkpt lat="42.23656" lon="2.11966">
        <ele>819.94</ele>
        <time>2024-09-26T07:55:42.999Z</time>
      </trkpt>
      <trkpt lat="42.23669" lon="2.11954">
        <ele>820.02</ele>
        <time>2024-09-26T07:55:47.999Z</time>
      </trkpt>
      <trkpt lat="42.23683" lon="2.11942">
        <ele>820.12</ele>
        <time>2024-09-26T07:55:52.999Z</time>
      </trkpt>
      <trkpt lat="42.23699" lon="2.1193">
        <ele>820.25</ele>
        <time>2024-09-26T07:55:57.999Z</time>
      </trkpt>
      <trkpt lat="42.23715" lon="2.11916">
        <ele>821.08</ele>
        <time>2024-09-26T07:56:02.999Z</time>
      </trkpt>
      <trkpt lat="42.23734" lon="2.11906">
        <ele>821.95</ele>
        <time>2024-09-26T07:56:07.999Z</time>
      </trkpt>
      <trkpt lat="42.23754" lon="2.11902">
        <ele>822.6</ele>
        <time>2024-09-26T07:56:12.999Z</time>
      </trkpt>
      <trkpt lat="42.23772" lon="2.11901">
        <ele>822.7</ele>
        <time>2024-09-26T07:56:17.999Z</time>
      </trkpt>
      <trkpt lat="42.23791" lon="2.11898">
        <ele>822.81</ele>
        <time>2024-09-26T07:56:22.999Z</time>
      </trkpt>
      <trkpt lat="42.23809" lon="2.11896">
        <ele>823.2</ele>
        <time>2024-09-26T07:56:27.999Z</time>
      </trkpt>
      <trkpt lat="42.2382" lon="2.11893">
        <ele>824.38</ele>
        <time>2024-09-26T07:58:17.999Z</time>
      </trkpt>
      <trkpt lat="42.23842" lon="2.11888">
        <ele>826.38</ele>
        <time>2024-09-26T07:58:22.999Z</time>
      </trkpt>
      <trkpt lat="42.23862" lon="2.11873">
        <ele>827.6</ele>
        <time>2024-09-26T07:58:27.999Z</time>
      </trkpt>
      <trkpt lat="42.23868" lon="2.11843">
        <ele>828.33</ele>
        <time>2024-09-26T07:58:32.999Z</time>
      </trkpt>
      <trkpt lat="42.23856" lon="2.11813">
        <ele>828.74</ele>
        <time>2024-09-26T07:58:37.999Z</time>
      </trkpt>
      <trkpt lat="42.23844" lon="2.11793">
        <ele>828.96</ele>
        <time>2024-09-26T07:58:42.999Z</time>
      </trkpt>
      <trkpt lat="42.23838" lon="2.11778">
        <ele>829.05</ele>
        <time>2024-09-26T07:58:47.999Z</time>
      </trkpt>
      <trkpt lat="42.23836" lon="2.11763">
        <ele>829.2</ele>
        <time>2024-09-26T07:58:52.999Z</time>
      </trkpt>
      <trkpt lat="42.23838" lon="2.11747">
        <ele>829.45</ele>
        <time>2024-09-26T07:58:57.999Z</time>
      </trkpt>
      <trkpt lat="42.23846" lon="2.11735">
        <ele>829.79</ele>
        <time>2024-09-26T07:59:02.999Z</time>
      </trkpt>
      <trkpt lat="42.23855" lon="2.11726">
        <ele>830.21</ele>
        <time>2024-09-26T07:59:07.999Z</time>
      </trkpt>
      <trkpt lat="42.23865" lon="2.1172">
        <ele>830.69</ele>
        <time>2024-09-26T07:59:12.999Z</time>
      </trkpt>
      <trkpt lat="42.23874" lon="2.11714">
        <ele>831.22</ele>
        <time>2024-09-26T07:59:17.999Z</time>
      </trkpt>
      <trkpt lat="42.23884" lon="2.11709">
        <ele>831.8</ele>
        <time>2024-09-26T07:59:22.999Z</time>
      </trkpt>
      <trkpt lat="42.23894" lon="2.11703">
        <ele>832.54</ele>
        <time>2024-09-26T07:59:28.999Z</time>
      </trkpt>
      <trkpt lat="42.23903" lon="2.11698">
        <ele>833.18</ele>
        <time>2024-09-26T07:59:33.999Z</time>
      </trkpt>
      <trkpt lat="42.23912" lon="2.11693">
        <ele>833.85</ele>
        <time>2024-09-26T07:59:38.999Z</time>
      </trkpt>
      <trkpt lat="42.23921" lon="2.11688">
        <ele>834.53</ele>
        <time>2024-09-26T07:59:43.999Z</time>
      </trkpt>
      <trkpt lat="42.2393" lon="2.11681">
        <ele>835.38</ele>
        <time>2024-09-26T07:59:49.999Z</time>
      </trkpt>
      <trkpt lat="42.23936" lon="2.11673">
        <ele>836.11</ele>
        <time>2024-09-26T07:59:54.999Z</time>
      </trkpt>
      <trkpt lat="42.23945" lon="2.11666">
        <ele>836.91</ele>
        <time>2024-09-26T07:59:59.999Z</time>
      </trkpt>
      <trkpt lat="42.23952" lon="2.11657">
        <ele>837.73</ele>
        <time>2024-09-26T08:00:04.999Z</time>
      </trkpt>
      <trkpt lat="42.23961" lon="2.11647">
        <ele>838.51</ele>
        <time>2024-09-26T08:00:09.999Z</time>
      </trkpt>
      <trkpt lat="42.23974" lon="2.11633">
        <ele>839.24</ele>
        <time>2024-09-26T08:00:14.999Z</time>
      </trkpt>
      <trkpt lat="42.2399" lon="2.1162">
        <ele>841.08</ele>
        <time>2024-09-26T08:00:19.999Z</time>
      </trkpt>
      <trkpt lat="42.24007" lon="2.11609">
        <ele>844.02</ele>
        <time>2024-09-26T08:00:24.999Z</time>
      </trkpt>
      <trkpt lat="42.24027" lon="2.116">
        <ele>846.55</ele>
        <time>2024-09-26T08:00:29.999Z</time>
      </trkpt>
      <trkpt lat="42.24047" lon="2.1159">
        <ele>847.48</ele>
        <time>2024-09-26T08:00:34.999Z</time>
      </trkpt>
      <trkpt lat="42.24061" lon="2.11584">
        <ele>847.55</ele>
        <time>2024-09-26T08:00:39.999Z</time>
      </trkpt>
      <trkpt lat="42.24072" lon="2.11579">
        <ele>847.62</ele>
        <time>2024-09-26T08:00:44.999Z</time>
      </trkpt>
      <trkpt lat="42.24081" lon="2.11572">
        <ele>847.7</ele>
        <time>2024-09-26T08:00:49.999Z</time>
      </trkpt>
      <trkpt lat="42.24089" lon="2.11565">
        <ele>847.81</ele>
        <time>2024-09-26T08:00:54.999Z</time>
      </trkpt>
      <trkpt lat="42.24096" lon="2.11556">
        <ele>847.93</ele>
        <time>2024-09-26T08:00:59.999Z</time>
      </trkpt>
      <trkpt lat="42.24103" lon="2.11546">
        <ele>848.09</ele>
        <time>2024-09-26T08:01:04.999Z</time>
      </trkpt>
      <trkpt lat="42.2411" lon="2.11537">
        <ele>848.24</ele>
        <time>2024-09-26T08:01:09.999Z</time>
      </trkpt>
      <trkpt lat="42.24116" lon="2.11527">
        <ele>848.41</ele>
        <time>2024-09-26T08:01:14.999Z</time>
      </trkpt>
      <trkpt lat="42.24123" lon="2.11518">
        <ele>848.6</ele>
        <time>2024-09-26T08:01:19.999Z</time>
      </trkpt>
      <trkpt lat="42.2413" lon="2.11509">
        <ele>848.79</ele>
        <time>2024-09-26T08:01:24.999Z</time>
      </trkpt>
      <trkpt lat="42.24138" lon="2.115">
        <ele>848.99</ele>
        <time>2024-09-26T08:01:29.999Z</time>
      </trkpt>
      <trkpt lat="42.24146" lon="2.11489">
        <ele>849.19</ele>
        <time>2024-09-26T08:01:34.999Z</time>
      </trkpt>
      <trkpt lat="42.24155" lon="2.11476">
        <ele>849.4</ele>
        <time>2024-09-26T08:01:39.999Z</time>
      </trkpt>
      <trkpt lat="42.24164" lon="2.11464">
        <ele>849.61</ele>
        <time>2024-09-26T08:01:44.999Z</time>
      </trkpt>
      <trkpt lat="42.24174" lon="2.1145">
        <ele>849.83</ele>
        <time>2024-09-26T08:01:49.999Z</time>
      </trkpt>
      <trkpt lat="42.24185" lon="2.11436">
        <ele>850.05</ele>
        <time>2024-09-26T08:01:54.999Z</time>
      </trkpt>
      <trkpt lat="42.24197" lon="2.11422">
        <ele>850.26</ele>
        <time>2024-09-26T08:01:59.999Z</time>
      </trkpt>
      <trkpt lat="42.24208" lon="2.11408">
        <ele>850.46</ele>
        <time>2024-09-26T08:02:04.999Z</time>
      </trkpt>
      <trkpt lat="42.24219" lon="2.11394">
        <ele>850.65</ele>
        <time>2024-09-26T08:02:09.999Z</time>
      </trkpt>
      <trkpt lat="42.2423" lon="2.1138">
        <ele>850.85</ele>
        <time>2024-09-26T08:02:14.999Z</time>
      </trkpt>
      <trkpt lat="42.2424" lon="2.11366">
        <ele>851.06</ele>
        <time>2024-09-26T08:02:19.999Z</time>
      </trkpt>
      <trkpt lat="42.24249" lon="2.11353">
        <ele>851.29</ele>
        <time>2024-09-26T08:02:24.999Z</time>
      </trkpt>
      <trkpt lat="42.2426" lon="2.11341">
        <ele>851.52</ele>
        <time>2024-09-26T08:02:29.999Z</time>
      </trkpt>
      <trkpt lat="42.24269" lon="2.11328">
        <ele>851.76</ele>
        <time>2024-09-26T08:02:34.999Z</time>
      </trkpt>
      <trkpt lat="42.24279" lon="2.11315">
        <ele>852</ele>
        <time>2024-09-26T08:02:39.999Z</time>
      </trkpt>
      <trkpt lat="42.24289" lon="2.11302">
        <ele>852.25</ele>
        <time>2024-09-26T08:02:44.999Z</time>
      </trkpt>
      <trkpt lat="42.243" lon="2.11293">
        <ele>852.51</ele>
        <time>2024-09-26T08:02:49.999Z</time>
      </trkpt>
      <trkpt lat="42.24313" lon="2.11288">
        <ele>852.76</ele>
        <time>2024-09-26T08:02:54.999Z</time>
      </trkpt>
      <trkpt lat="42.24327" lon="2.11285">
        <ele>853</ele>
        <time>2024-09-26T08:02:59.999Z</time>
      </trkpt>
      <trkpt lat="42.24345" lon="2.11283">
        <ele>853.25</ele>
        <time>2024-09-26T08:03:04.999Z</time>
      </trkpt>
      <trkpt lat="42.24364" lon="2.11278">
        <ele>854.49</ele>
        <time>2024-09-26T08:03:09.999Z</time>
      </trkpt>
      <trkpt lat="42.24382" lon="2.11263">
        <ele>855.13</ele>
        <time>2024-09-26T08:03:14.999Z</time>
      </trkpt>
      <trkpt lat="42.24394" lon="2.1124">
        <ele>855.84</ele>
        <time>2024-09-26T08:03:19.999Z</time>
      </trkpt>
      <trkpt lat="42.24393" lon="2.11207">
        <ele>856.16</ele>
        <time>2024-09-26T08:03:24.999Z</time>
      </trkpt>
      <trkpt lat="42.24381" lon="2.11182">
        <ele>856.37</ele>
        <time>2024-09-26T08:03:29.999Z</time>
      </trkpt>
      <trkpt lat="42.24361" lon="2.11177">
        <ele>856.46</ele>
        <time>2024-09-26T08:03:34.999Z</time>
      </trkpt>
      <trkpt lat="42.24346" lon="2.11181">
        <ele>856.51</ele>
        <time>2024-09-26T08:03:39.999Z</time>
      </trkpt>
      <trkpt lat="42.24333" lon="2.11185">
        <ele>856.57</ele>
        <time>2024-09-26T08:03:44.999Z</time>
      </trkpt>
      <trkpt lat="42.24323" lon="2.11186">
        <ele>856.65</ele>
        <time>2024-09-26T08:03:49.999Z</time>
      </trkpt>
      <trkpt lat="42.24316" lon="2.11179">
        <ele>856.75</ele>
        <time>2024-09-26T08:03:54.999Z</time>
      </trkpt>
      <trkpt lat="42.24316" lon="2.11165">
        <ele>856.88</ele>
        <time>2024-09-26T08:03:59.999Z</time>
      </trkpt>
      <trkpt lat="42.24319" lon="2.11153">
        <ele>857.09</ele>
        <time>2024-09-26T08:04:05.999Z</time>
      </trkpt>
      <trkpt lat="42.24324" lon="2.11141">
        <ele>857.33</ele>
        <time>2024-09-26T08:04:11.999Z</time>
      </trkpt>
      <trkpt lat="42.24329" lon="2.1113">
        <ele>857.55</ele>
        <time>2024-09-26T08:04:16.999Z</time>
      </trkpt>
      <trkpt lat="42.24333" lon="2.11119">
        <ele>857.78</ele>
        <time>2024-09-26T08:04:21.999Z</time>
      </trkpt>
      <trkpt lat="42.24341" lon="2.1111">
        <ele>858.06</ele>
        <time>2024-09-26T08:04:27.999Z</time>
      </trkpt>
      <trkpt lat="42.24346" lon="2.11098">
        <ele>858.35</ele>
        <time>2024-09-26T08:04:33.999Z</time>
      </trkpt>
      <trkpt lat="42.24352" lon="2.11088">
        <ele>858.66</ele>
        <time>2024-09-26T08:04:39.999Z</time>
      </trkpt>
      <trkpt lat="42.24357" lon="2.11076">
        <ele>858.97</ele>
        <time>2024-09-26T08:04:45.999Z</time>
      </trkpt>
      <trkpt lat="42.24363" lon="2.11062">
        <ele>859.27</ele>
        <time>2024-09-26T08:04:51.999Z</time>
      </trkpt>
      <trkpt lat="42.24368" lon="2.11052">
        <ele>859.51</ele>
        <time>2024-09-26T08:04:56.999Z</time>
      </trkpt>
      <trkpt lat="42.24371" lon="2.11038">
        <ele>859.81</ele>
        <time>2024-09-26T08:05:02.999Z</time>
      </trkpt>
      <trkpt lat="42.24373" lon="2.11024">
        <ele>860.16</ele>
        <time>2024-09-26T08:05:08.999Z</time>
      </trkpt>
      <trkpt lat="42.24373" lon="2.1101">
        <ele>860.55</ele>
        <time>2024-09-26T08:05:14.999Z</time>
      </trkpt>
      <trkpt lat="42.24373" lon="2.10994">
        <ele>860.9</ele>
        <time>2024-09-26T08:05:19.999Z</time>
      </trkpt>
      <trkpt lat="42.24375" lon="2.10982">
        <ele>861.33</ele>
        <time>2024-09-26T08:05:26.000Z</time>
      </trkpt>
      <trkpt lat="42.24379" lon="2.1097">
        <ele>861.83</ele>
        <time>2024-09-26T08:05:33.000Z</time>
      </trkpt>
      <trkpt lat="42.24384" lon="2.1096">
        <ele>862.18</ele>
        <time>2024-09-26T08:05:38.000Z</time>
      </trkpt>
      <trkpt lat="42.2439" lon="2.1095">
        <ele>862.6</ele>
        <time>2024-09-26T08:05:44.000Z</time>
      </trkpt>
      <trkpt lat="42.24397" lon="2.10941">
        <ele>862.94</ele>
        <time>2024-09-26T08:05:49.000Z</time>
      </trkpt>
      <trkpt lat="42.24404" lon="2.10932">
        <ele>863.36</ele>
        <time>2024-09-26T08:05:55.000Z</time>
      </trkpt>
      <trkpt lat="42.2441" lon="2.10923">
        <ele>863.79</ele>
        <time>2024-09-26T08:06:01.000Z</time>
      </trkpt>
      <trkpt lat="42.24417" lon="2.10914">
        <ele>864.23</ele>
        <time>2024-09-26T08:06:07.000Z</time>
      </trkpt>
      <trkpt lat="42.24426" lon="2.10906">
        <ele>864.67</ele>
        <time>2024-09-26T08:06:13.000Z</time>
      </trkpt>
      <trkpt lat="42.24434" lon="2.10899">
        <ele>865.1</ele>
        <time>2024-09-26T08:06:19.000Z</time>
      </trkpt>
      <trkpt lat="42.24441" lon="2.10889">
        <ele>865.59</ele>
        <time>2024-09-26T08:06:26.000Z</time>
      </trkpt>
      <trkpt lat="42.24447" lon="2.10879">
        <ele>865.98</ele>
        <time>2024-09-26T08:06:32.000Z</time>
      </trkpt>
      <trkpt lat="42.2445" lon="2.10862">
        <ele>866.3</ele>
        <time>2024-09-26T08:06:37.000Z</time>
      </trkpt>
      <trkpt lat="42.2445" lon="2.10849">
        <ele>866.63</ele>
        <time>2024-09-26T08:06:42.000Z</time>
      </trkpt>
      <trkpt lat="42.2445" lon="2.10835">
        <ele>867.04</ele>
        <time>2024-09-26T08:06:48.000Z</time>
      </trkpt>
      <trkpt lat="42.24451" lon="2.10822">
        <ele>867.46</ele>
        <time>2024-09-26T08:06:54.000Z</time>
      </trkpt>
      <trkpt lat="42.24454" lon="2.10809">
        <ele>867.91</ele>
        <time>2024-09-26T08:07:00.000Z</time>
      </trkpt>
      <trkpt lat="42.24459" lon="2.10798">
        <ele>868.44</ele>
        <time>2024-09-26T08:07:07.000Z</time>
      </trkpt>
      <trkpt lat="42.24463" lon="2.10785">
        <ele>868.96</ele>
        <time>2024-09-26T08:07:14.000Z</time>
      </trkpt>
      <trkpt lat="42.24469" lon="2.10775">
        <ele>869.32</ele>
        <time>2024-09-26T08:07:19.000Z</time>
      </trkpt>
      <trkpt lat="42.24476" lon="2.10767">
        <ele>869.68</ele>
        <time>2024-09-26T08:07:24.000Z</time>
      </trkpt>
      <trkpt lat="42.24486" lon="2.10761">
        <ele>870.12</ele>
        <time>2024-09-26T08:07:30.000Z</time>
      </trkpt>
      <trkpt lat="42.24494" lon="2.10755">
        <ele>870.54</ele>
        <time>2024-09-26T08:07:36.000Z</time>
      </trkpt>
      <trkpt lat="42.24504" lon="2.10751">
        <ele>870.94</ele>
        <time>2024-09-26T08:07:42.000Z</time>
      </trkpt>
      <trkpt lat="42.24515" lon="2.1075">
        <ele>871.3</ele>
        <time>2024-09-26T08:07:47.000Z</time>
      </trkpt>
      <trkpt lat="42.24525" lon="2.10753">
        <ele>871.8</ele>
        <time>2024-09-26T08:07:54.000Z</time>
      </trkpt>
      <trkpt lat="42.24534" lon="2.10759">
        <ele>872.22</ele>
        <time>2024-09-26T08:08:00.000Z</time>
      </trkpt>
      <trkpt lat="42.24542" lon="2.10768">
        <ele>872.62</ele>
        <time>2024-09-26T08:08:06.000Z</time>
      </trkpt>
      <trkpt lat="42.24548" lon="2.10779">
        <ele>872.99</ele>
        <time>2024-09-26T08:08:12.000Z</time>
      </trkpt>
      <trkpt lat="42.24552" lon="2.10792">
        <ele>873.35</ele>
        <time>2024-09-26T08:08:18.000Z</time>
      </trkpt>
      <trkpt lat="42.24559" lon="2.10803">
        <ele>873.71</ele>
        <time>2024-09-26T08:08:24.000Z</time>
      </trkpt>
      <trkpt lat="42.24569" lon="2.1081">
        <ele>874.01</ele>
        <time>2024-09-26T08:08:29.000Z</time>
      </trkpt>
      <trkpt lat="42.24577" lon="2.10816">
        <ele>874.34</ele>
        <time>2024-09-26T08:08:34.000Z</time>
      </trkpt>
      <trkpt lat="42.24586" lon="2.1082">
        <ele>874.72</ele>
        <time>2024-09-26T08:08:39.000Z</time>
      </trkpt>
      <trkpt lat="42.24595" lon="2.10822">
        <ele>875.15</ele>
        <time>2024-09-26T08:08:44.000Z</time>
      </trkpt>
      <trkpt lat="42.24604" lon="2.10823">
        <ele>875.61</ele>
        <time>2024-09-26T08:08:49.000Z</time>
      </trkpt>
      <trkpt lat="42.24614" lon="2.1082">
        <ele>876.09</ele>
        <time>2024-09-26T08:08:54.000Z</time>
      </trkpt>
      <trkpt lat="42.24624" lon="2.10817">
        <ele>876.58</ele>
        <time>2024-09-26T08:08:59.000Z</time>
      </trkpt>
      <trkpt lat="42.24633" lon="2.10811">
        <ele>877.08</ele>
        <time>2024-09-26T08:09:04.000Z</time>
      </trkpt>
      <trkpt lat="42.24644" lon="2.10807">
        <ele>877.74</ele>
        <time>2024-09-26T08:09:10.000Z</time>
      </trkpt>
      <trkpt lat="42.24654" lon="2.10803">
        <ele>878.42</ele>
        <time>2024-09-26T08:09:15.000Z</time>
      </trkpt>
      <trkpt lat="42.24663" lon="2.10799">
        <ele>879.37</ele>
        <time>2024-09-26T08:09:21.000Z</time>
      </trkpt>
      <trkpt lat="42.24672" lon="2.10798">
        <ele>880.43</ele>
        <time>2024-09-26T08:09:27.000Z</time>
      </trkpt>
      <trkpt lat="42.24683" lon="2.108">
        <ele>881.75</ele>
        <time>2024-09-26T08:09:34.000Z</time>
      </trkpt>
      <trkpt lat="42.24693" lon="2.10803">
        <ele>882.91</ele>
        <time>2024-09-26T08:09:40.000Z</time>
      </trkpt>
      <trkpt lat="42.24702" lon="2.10802">
        <ele>884.06</ele>
        <time>2024-09-26T08:09:46.000Z</time>
      </trkpt>
      <trkpt lat="42.24711" lon="2.10795">
        <ele>885</ele>
        <time>2024-09-26T08:09:51.000Z</time>
      </trkpt>
      <trkpt lat="42.24718" lon="2.10781">
        <ele>885.91</ele>
        <time>2024-09-26T08:09:56.000Z</time>
      </trkpt>
      <trkpt lat="42.24724" lon="2.1076">
        <ele>886.78</ele>
        <time>2024-09-26T08:10:01.000Z</time>
      </trkpt>
      <trkpt lat="42.24719" lon="2.10739">
        <ele>887.63</ele>
        <time>2024-09-26T08:10:06.000Z</time>
      </trkpt>
      <trkpt lat="42.24711" lon="2.1072">
        <ele>888.44</ele>
        <time>2024-09-26T08:10:11.000Z</time>
      </trkpt>
      <trkpt lat="42.24699" lon="2.10704">
        <ele>889.23</ele>
        <time>2024-09-26T08:10:16.000Z</time>
      </trkpt>
      <trkpt lat="42.24687" lon="2.10688">
        <ele>889.99</ele>
        <time>2024-09-26T08:10:21.000Z</time>
      </trkpt>
      <trkpt lat="42.24683" lon="2.1067">
        <ele>890.74</ele>
        <time>2024-09-26T08:10:26.000Z</time>
      </trkpt>
      <trkpt lat="42.24683" lon="2.10647">
        <ele>891.47</ele>
        <time>2024-09-26T08:10:31.000Z</time>
      </trkpt>
      <trkpt lat="42.24688" lon="2.1063">
        <ele>892.19</ele>
        <time>2024-09-26T08:10:36.000Z</time>
      </trkpt>
      <trkpt lat="42.24697" lon="2.10618">
        <ele>892.89</ele>
        <time>2024-09-26T08:10:41.000Z</time>
      </trkpt>
      <trkpt lat="42.24707" lon="2.10605">
        <ele>893.57</ele>
        <time>2024-09-26T08:10:46.000Z</time>
      </trkpt>
      <trkpt lat="42.24716" lon="2.10591">
        <ele>894.23</ele>
        <time>2024-09-26T08:10:51.000Z</time>
      </trkpt>
      <trkpt lat="42.24724" lon="2.10578">
        <ele>894.86</ele>
        <time>2024-09-26T08:10:56.000Z</time>
      </trkpt>
      <trkpt lat="42.24734" lon="2.10566">
        <ele>895.46</ele>
        <time>2024-09-26T08:11:01.000Z</time>
      </trkpt>
      <trkpt lat="42.24744" lon="2.10552">
        <ele>896.04</ele>
        <time>2024-09-26T08:11:06.000Z</time>
      </trkpt>
      <trkpt lat="42.24752" lon="2.10539">
        <ele>896.6</ele>
        <time>2024-09-26T08:11:11.000Z</time>
      </trkpt>
      <trkpt lat="42.24762" lon="2.10527">
        <ele>897.16</ele>
        <time>2024-09-26T08:11:16.000Z</time>
      </trkpt>
      <trkpt lat="42.24771" lon="2.10515">
        <ele>897.68</ele>
        <time>2024-09-26T08:11:21.000Z</time>
      </trkpt>
      <trkpt lat="42.24781" lon="2.10501">
        <ele>898.18</ele>
        <time>2024-09-26T08:11:26.000Z</time>
      </trkpt>
      <trkpt lat="42.24788" lon="2.10479">
        <ele>898.65</ele>
        <time>2024-09-26T08:11:31.000Z</time>
      </trkpt>
      <trkpt lat="42.24784" lon="2.10453">
        <ele>899.92</ele>
        <time>2024-09-26T08:11:36.000Z</time>
      </trkpt>
      <trkpt lat="42.24782" lon="2.10428">
        <ele>901.59</ele>
        <time>2024-09-26T08:11:41.000Z</time>
      </trkpt>
      <trkpt lat="42.24789" lon="2.10408">
        <ele>901.87</ele>
        <time>2024-09-26T08:11:46.000Z</time>
      </trkpt>
      <trkpt lat="42.24797" lon="2.10386">
        <ele>902.15</ele>
        <time>2024-09-26T08:11:51.000Z</time>
      </trkpt>
      <trkpt lat="42.24806" lon="2.10363">
        <ele>904.04</ele>
        <time>2024-09-26T08:11:56.000Z</time>
      </trkpt>
      <trkpt lat="42.24815" lon="2.10337">
        <ele>904.9</ele>
        <time>2024-09-26T08:12:01.000Z</time>
      </trkpt>
      <trkpt lat="42.24824" lon="2.1031">
        <ele>905.35</ele>
        <time>2024-09-26T08:12:06.000Z</time>
      </trkpt>
      <trkpt lat="42.24825" lon="2.10282">
        <ele>905.66</ele>
        <time>2024-09-26T08:12:11.000Z</time>
      </trkpt>
      <trkpt lat="42.24812" lon="2.10257">
        <ele>905.94</ele>
        <time>2024-09-26T08:12:16.000Z</time>
      </trkpt>
      <trkpt lat="42.2481" lon="2.10227">
        <ele>906.26</ele>
        <time>2024-09-26T08:12:21.000Z</time>
      </trkpt>
      <trkpt lat="42.24816" lon="2.10201">
        <ele>906.55</ele>
        <time>2024-09-26T08:12:26.000Z</time>
      </trkpt>
      <trkpt lat="42.24815" lon="2.10171">
        <ele>906.8</ele>
        <time>2024-09-26T08:12:31.000Z</time>
      </trkpt>
      <trkpt lat="42.24815" lon="2.10138">
        <ele>907.1</ele>
        <time>2024-09-26T08:12:36.000Z</time>
      </trkpt>
      <trkpt lat="42.24829" lon="2.10112">
        <ele>907.37</ele>
        <time>2024-09-26T08:12:41.000Z</time>
      </trkpt>
      <trkpt lat="42.24842" lon="2.10081">
        <ele>907.57</ele>
        <time>2024-09-26T08:12:46.000Z</time>
      </trkpt>
      <trkpt lat="42.24846" lon="2.10045">
        <ele>907.75</ele>
        <time>2024-09-26T08:12:51.000Z</time>
      </trkpt>
      <trkpt lat="42.24836" lon="2.10008">
        <ele>908.03</ele>
        <time>2024-09-26T08:12:56.000Z</time>
      </trkpt>
      <trkpt lat="42.24837" lon="2.09971">
        <ele>908.32</ele>
        <time>2024-09-26T08:13:01.000Z</time>
      </trkpt>
      <trkpt lat="42.24852" lon="2.0995">
        <ele>908.55</ele>
        <time>2024-09-26T08:13:06.000Z</time>
      </trkpt>
      <trkpt lat="42.24869" lon="2.09933">
        <ele>908.71</ele>
        <time>2024-09-26T08:13:11.000Z</time>
      </trkpt>
      <trkpt lat="42.2488" lon="2.09909">
        <ele>908.84</ele>
        <time>2024-09-26T08:13:16.000Z</time>
      </trkpt>
      <trkpt lat="42.24883" lon="2.09879">
        <ele>908.97</ele>
        <time>2024-09-26T08:13:21.000Z</time>
      </trkpt>
      <trkpt lat="42.24899" lon="2.0986">
        <ele>909.11</ele>
        <time>2024-09-26T08:13:26.000Z</time>
      </trkpt>
      <trkpt lat="42.24922" lon="2.09848">
        <ele>909.2</ele>
        <time>2024-09-26T08:13:31.000Z</time>
      </trkpt>
      <trkpt lat="42.24943" lon="2.09833">
        <ele>909.26</ele>
        <time>2024-09-26T08:13:36.000Z</time>
      </trkpt>
      <trkpt lat="42.24961" lon="2.09811">
        <ele>909.29</ele>
        <time>2024-09-26T08:13:41.000Z</time>
      </trkpt>
      <trkpt lat="42.24978" lon="2.09788">
        <ele>909.31</ele>
        <time>2024-09-26T08:13:46.000Z</time>
      </trkpt>
      <trkpt lat="42.25002" lon="2.09787">
        <ele>909.36</ele>
        <time>2024-09-26T08:13:51.000Z</time>
      </trkpt>
      <trkpt lat="42.25018" lon="2.09762">
        <ele>909.5</ele>
        <time>2024-09-26T08:13:56.000Z</time>
      </trkpt>
      <trkpt lat="42.25002" lon="2.09736">
        <ele>909.61</ele>
        <time>2024-09-26T08:14:01.000Z</time>
      </trkpt>
      <trkpt lat="42.24979" lon="2.09723">
        <ele>910.63</ele>
        <time>2024-09-26T08:14:06.000Z</time>
      </trkpt>
      <trkpt lat="42.24955" lon="2.09712">
        <ele>912.33</ele>
        <time>2024-09-26T08:14:11.000Z</time>
      </trkpt>
      <trkpt lat="42.24931" lon="2.09711">
        <ele>914.12</ele>
        <time>2024-09-26T08:14:16.000Z</time>
      </trkpt>
      <trkpt lat="42.24908" lon="2.0971">
        <ele>915.78</ele>
        <time>2024-09-26T08:14:21.000Z</time>
      </trkpt>
      <trkpt lat="42.24889" lon="2.09702">
        <ele>916.98</ele>
        <time>2024-09-26T08:14:26.000Z</time>
      </trkpt>
      <trkpt lat="42.24876" lon="2.09689">
        <ele>917.13</ele>
        <time>2024-09-26T08:14:31.000Z</time>
      </trkpt>
      <trkpt lat="42.24864" lon="2.09678">
        <ele>917.32</ele>
        <time>2024-09-26T08:14:36.000Z</time>
      </trkpt>
      <trkpt lat="42.24854" lon="2.09669">
        <ele>917.58</ele>
        <time>2024-09-26T08:14:41.000Z</time>
      </trkpt>
      <trkpt lat="42.24846" lon="2.09657">
        <ele>917.89</ele>
        <time>2024-09-26T08:14:46.000Z</time>
      </trkpt>
      <trkpt lat="42.24846" lon="2.09643">
        <ele>918.24</ele>
        <time>2024-09-26T08:14:51.000Z</time>
      </trkpt>
      <trkpt lat="42.2485" lon="2.09627">
        <ele>918.6</ele>
        <time>2024-09-26T08:14:56.000Z</time>
      </trkpt>
      <trkpt lat="42.24857" lon="2.09608">
        <ele>918.95</ele>
        <time>2024-09-26T08:15:01.000Z</time>
      </trkpt>
      <trkpt lat="42.24863" lon="2.09589">
        <ele>919.27</ele>
        <time>2024-09-26T08:15:06.000Z</time>
      </trkpt>
      <trkpt lat="42.24866" lon="2.09567">
        <ele>919.57</ele>
        <time>2024-09-26T08:15:11.000Z</time>
      </trkpt>
      <trkpt lat="42.24858" lon="2.09544">
        <ele>920.66</ele>
        <time>2024-09-26T08:15:16.000Z</time>
      </trkpt>
      <trkpt lat="42.24848" lon="2.09518">
        <ele>922.05</ele>
        <time>2024-09-26T08:15:21.000Z</time>
      </trkpt>
      <trkpt lat="42.24845" lon="2.09485">
        <ele>922.53</ele>
        <time>2024-09-26T08:15:26.000Z</time>
      </trkpt>
      <trkpt lat="42.24826" lon="2.09459">
        <ele>922.68</ele>
        <time>2024-09-26T08:15:31.000Z</time>
      </trkpt>
      <trkpt lat="42.24833" lon="2.09425">
        <ele>922.75</ele>
        <time>2024-09-26T08:15:36.000Z</time>
      </trkpt>
      <trkpt lat="42.24843" lon="2.09391">
        <ele>922.77</ele>
        <time>2024-09-26T08:15:41.000Z</time>
      </trkpt>
      <trkpt lat="42.2484" lon="2.09357">
        <ele>922.8</ele>
        <time>2024-09-26T08:15:46.000Z</time>
      </trkpt>
      <trkpt lat="42.24842" lon="2.09331">
        <ele>922.82</ele>
        <time>2024-09-26T08:15:51.000Z</time>
      </trkpt>
      <trkpt lat="42.24842" lon="2.09311">
        <ele>922.83</ele>
        <time>2024-09-26T08:15:56.000Z</time>
      </trkpt>
      <trkpt lat="42.24831" lon="2.0929">
        <ele>922.92</ele>
        <time>2024-09-26T08:16:01.000Z</time>
      </trkpt>
      <trkpt lat="42.24821" lon="2.09269">
        <ele>923.04</ele>
        <time>2024-09-26T08:16:06.000Z</time>
      </trkpt>
      <trkpt lat="42.24821" lon="2.09245">
        <ele>923.12</ele>
        <time>2024-09-26T08:16:11.000Z</time>
      </trkpt>
      <trkpt lat="42.24828" lon="2.09224">
        <ele>923.22</ele>
        <time>2024-09-26T08:16:16.000Z</time>
      </trkpt>
      <trkpt lat="42.24835" lon="2.09201">
        <ele>923.27</ele>
        <time>2024-09-26T08:16:21.000Z</time>
      </trkpt>
      <trkpt lat="42.24839" lon="2.0918">
        <ele>923.3</ele>
        <time>2024-09-26T08:16:26.000Z</time>
      </trkpt>
      <trkpt lat="42.24839" lon="2.09158">
        <ele>923.33</ele>
        <time>2024-09-26T08:16:31.000Z</time>
      </trkpt>
      <trkpt lat="42.24838" lon="2.09135">
        <ele>923.36</ele>
        <time>2024-09-26T08:16:36.000Z</time>
      </trkpt>
      <trkpt lat="42.24836" lon="2.09117">
        <ele>923.4</ele>
        <time>2024-09-26T08:16:41.000Z</time>
      </trkpt>
      <trkpt lat="42.24834" lon="2.09104">
        <ele>923.56</ele>
        <time>2024-09-26T08:18:26.999Z</time>
      </trkpt>
      <trkpt lat="42.24835" lon="2.09092">
        <ele>923.68</ele>
        <time>2024-09-26T08:18:47.999Z</time>
      </trkpt>
      <trkpt lat="42.24843" lon="2.09084">
        <ele>923.71</ele>
        <time>2024-09-26T08:18:53.999Z</time>
      </trkpt>
      <trkpt lat="42.24853" lon="2.0908">
        <ele>923.75</ele>
        <time>2024-09-26T08:19:00.999Z</time>
      </trkpt>
      <trkpt lat="42.24841" lon="2.0908">
        <ele>923.85</ele>
        <time>2024-09-26T08:19:21.999Z</time>
      </trkpt>
      <trkpt lat="42.24831" lon="2.09096">
        <ele>923.89</ele>
        <time>2024-09-26T08:19:26.999Z</time>
      </trkpt>
      <trkpt lat="42.24831" lon="2.09123">
        <ele>924.01</ele>
        <time>2024-09-26T08:19:31.999Z</time>
      </trkpt>
      <trkpt lat="42.24833" lon="2.09147">
        <ele>924.16</ele>
        <time>2024-09-26T08:19:36.999Z</time>
      </trkpt>
      <trkpt lat="42.24831" lon="2.09176">
        <ele>924.35</ele>
        <time>2024-09-26T08:19:41.999Z</time>
      </trkpt>
      <trkpt lat="42.24824" lon="2.09205">
        <ele>924.46</ele>
        <time>2024-09-26T08:19:46.999Z</time>
      </trkpt>
      <trkpt lat="42.24813" lon="2.09229">
        <ele>924.57</ele>
        <time>2024-09-26T08:19:51.999Z</time>
      </trkpt>
      <trkpt lat="42.2481" lon="2.09258">
        <ele>924.69</ele>
        <time>2024-09-26T08:19:56.999Z</time>
      </trkpt>
      <trkpt lat="42.2482" lon="2.09286">
        <ele>924.73</ele>
        <time>2024-09-26T08:20:01.999Z</time>
      </trkpt>
      <trkpt lat="42.24834" lon="2.0931">
        <ele>924.71</ele>
        <time>2024-09-26T08:20:06.999Z</time>
      </trkpt>
      <trkpt lat="42.24837" lon="2.09332">
        <ele>924.69</ele>
        <time>2024-09-26T08:20:11.999Z</time>
      </trkpt>
      <trkpt lat="42.24847" lon="2.09337">
        <ele>924.71</ele>
        <time>2024-09-26T08:20:16.999Z</time>
      </trkpt>
      <trkpt lat="42.24857" lon="2.09333">
        <ele>924.73</ele>
        <time>2024-09-26T08:20:21.999Z</time>
      </trkpt>
      <trkpt lat="42.24865" lon="2.09329">
        <ele>924.79</ele>
        <time>2024-09-26T08:20:38.999Z</time>
      </trkpt>
      <trkpt lat="42.24857" lon="2.09324">
        <ele>926.76</ele>
        <time>2024-09-26T08:25:05.999Z</time>
      </trkpt>
      <trkpt lat="42.24866" lon="2.09329">
        <ele>930.05</ele>
        <time>2024-09-26T08:33:41.000Z</time>
      </trkpt>
      <trkpt lat="42.24857" lon="2.09322">
        <ele>931.85</ele>
        <time>2024-09-26T08:40:31.000Z</time>
      </trkpt>
      <trkpt lat="42.24851" lon="2.09333">
        <ele>933</ele>
        <time>2024-09-26T08:45:33.999Z</time>
      </trkpt>
      <trkpt lat="42.24845" lon="2.09319">
        <ele>933.2</ele>
        <time>2024-09-26T08:45:39.999Z</time>
      </trkpt>
      <trkpt lat="42.24836" lon="2.09295">
        <ele>933.22</ele>
        <time>2024-09-26T08:45:44.999Z</time>
      </trkpt>
      <trkpt lat="42.24825" lon="2.09277">
        <ele>933.21</ele>
        <time>2024-09-26T08:45:49.999Z</time>
      </trkpt>
      <trkpt lat="42.24822" lon="2.09253">
        <ele>933.2</ele>
        <time>2024-09-26T08:45:54.999Z</time>
      </trkpt>
      <trkpt lat="42.24828" lon="2.09231">
        <ele>933.18</ele>
        <time>2024-09-26T08:45:59.999Z</time>
      </trkpt>
      <trkpt lat="42.24833" lon="2.09215">
        <ele>933.14</ele>
        <time>2024-09-26T08:46:04.999Z</time>
      </trkpt>
      <trkpt lat="42.24834" lon="2.09202">
        <ele>932.56</ele>
        <time>2024-09-26T08:47:01.999Z</time>
      </trkpt>
      <trkpt lat="42.24838" lon="2.0919">
        <ele>932.28</ele>
        <time>2024-09-26T08:47:06.999Z</time>
      </trkpt>
      <trkpt lat="42.2484" lon="2.0917">
        <ele>932.02</ele>
        <time>2024-09-26T08:47:11.999Z</time>
      </trkpt>
      <trkpt lat="42.24838" lon="2.09143">
        <ele>931.34</ele>
        <time>2024-09-26T08:47:16.999Z</time>
      </trkpt>
      <trkpt lat="42.24834" lon="2.09121">
        <ele>930.77</ele>
        <time>2024-09-26T08:47:21.999Z</time>
      </trkpt>
      <trkpt lat="42.24834" lon="2.09109">
        <ele>930.44</ele>
        <time>2024-09-26T08:47:35.999Z</time>
      </trkpt>
      <trkpt lat="42.24844" lon="2.09109">
        <ele>930.07</ele>
        <time>2024-09-26T08:47:58.999Z</time>
      </trkpt>
      <trkpt lat="42.24838" lon="2.09098">
        <ele>929.62</ele>
        <time>2024-09-26T08:48:56.999Z</time>
      </trkpt>
      <trkpt lat="42.24847" lon="2.09086">
        <ele>929.41</ele>
        <time>2024-09-26T08:49:01.999Z</time>
      </trkpt>
      <trkpt lat="42.24868" lon="2.09092">
        <ele>928.89</ele>
        <time>2024-09-26T08:49:06.999Z</time>
      </trkpt>
      <trkpt lat="42.24893" lon="2.09096">
        <ele>928.68</ele>
        <time>2024-09-26T08:49:11.999Z</time>
      </trkpt>
      <trkpt lat="42.24914" lon="2.09094">
        <ele>928.54</ele>
        <time>2024-09-26T08:49:16.999Z</time>
      </trkpt>
      <trkpt lat="42.24932" lon="2.09093">
        <ele>928.47</ele>
        <time>2024-09-26T08:49:21.999Z</time>
      </trkpt>
      <trkpt lat="42.24948" lon="2.09097">
        <ele>928.46</ele>
        <time>2024-09-26T08:49:26.999Z</time>
      </trkpt>
      <trkpt lat="42.24963" lon="2.091">
        <ele>928.44</ele>
        <time>2024-09-26T08:49:31.999Z</time>
      </trkpt>
      <trkpt lat="42.24976" lon="2.09101">
        <ele>928.41</ele>
        <time>2024-09-26T08:49:36.999Z</time>
      </trkpt>
      <trkpt lat="42.24988" lon="2.09098">
        <ele>928.37</ele>
        <time>2024-09-26T08:49:41.999Z</time>
      </trkpt>
      <trkpt lat="42.25" lon="2.0909">
        <ele>928.3</ele>
        <time>2024-09-26T08:49:46.999Z</time>
      </trkpt>
      <trkpt lat="42.25013" lon="2.09083">
        <ele>928.22</ele>
        <time>2024-09-26T08:49:51.999Z</time>
      </trkpt>
      <trkpt lat="42.25026" lon="2.09082">
        <ele>928.14</ele>
        <time>2024-09-26T08:49:56.999Z</time>
      </trkpt>
      <trkpt lat="42.2504" lon="2.0908">
        <ele>928.06</ele>
        <time>2024-09-26T08:50:01.999Z</time>
      </trkpt>
      <trkpt lat="42.2505" lon="2.09068">
        <ele>927.97</ele>
        <time>2024-09-26T08:50:06.999Z</time>
      </trkpt>
      <trkpt lat="42.25052" lon="2.09048">
        <ele>927.95</ele>
        <time>2024-09-26T08:50:11.999Z</time>
      </trkpt>
      <trkpt lat="42.25041" lon="2.09031">
        <ele>928.03</ele>
        <time>2024-09-26T08:50:16.999Z</time>
      </trkpt>
      <trkpt lat="42.25024" lon="2.0902">
        <ele>928.83</ele>
        <time>2024-09-26T08:50:21.999Z</time>
      </trkpt>
      <trkpt lat="42.25005" lon="2.09008">
        <ele>929.55</ele>
        <time>2024-09-26T08:50:26.999Z</time>
      </trkpt>
      <trkpt lat="42.24983" lon="2.09002">
        <ele>930.05</ele>
        <time>2024-09-26T08:50:31.999Z</time>
      </trkpt>
      <trkpt lat="42.24962" lon="2.09">
        <ele>930.64</ele>
        <time>2024-09-26T08:50:36.999Z</time>
      </trkpt>
      <trkpt lat="42.24942" lon="2.08983">
        <ele>931.25</ele>
        <time>2024-09-26T08:50:41.999Z</time>
      </trkpt>
      <trkpt lat="42.24926" lon="2.08961">
        <ele>931.74</ele>
        <time>2024-09-26T08:50:46.999Z</time>
      </trkpt>
      <trkpt lat="42.2491" lon="2.08933">
        <ele>932.09</ele>
        <time>2024-09-26T08:50:51.999Z</time>
      </trkpt>
      <trkpt lat="42.24898" lon="2.08903">
        <ele>932.59</ele>
        <time>2024-09-26T08:50:56.999Z</time>
      </trkpt>
      <trkpt lat="42.24888" lon="2.08873">
        <ele>933</ele>
        <time>2024-09-26T08:51:01.999Z</time>
      </trkpt>
      <trkpt lat="42.24881" lon="2.08846">
        <ele>933.3</ele>
        <time>2024-09-26T08:51:06.999Z</time>
      </trkpt>
      <trkpt lat="42.24874" lon="2.08819">
        <ele>933.52</ele>
        <time>2024-09-26T08:51:11.999Z</time>
      </trkpt>
      <trkpt lat="42.24874" lon="2.08794">
        <ele>933.6</ele>
        <time>2024-09-26T08:51:16.999Z</time>
      </trkpt>
      <trkpt lat="42.24877" lon="2.08772">
        <ele>933.61</ele>
        <time>2024-09-26T08:51:21.999Z</time>
      </trkpt>
      <trkpt lat="42.2488" lon="2.08751">
        <ele>933.62</ele>
        <time>2024-09-26T08:51:26.999Z</time>
      </trkpt>
      <trkpt lat="42.24885" lon="2.08732">
        <ele>933.64</ele>
        <time>2024-09-26T08:51:31.999Z</time>
      </trkpt>
      <trkpt lat="42.24892" lon="2.08714">
        <ele>933.67</ele>
        <time>2024-09-26T08:51:36.999Z</time>
      </trkpt>
      <trkpt lat="42.24898" lon="2.08697">
        <ele>933.71</ele>
        <time>2024-09-26T08:51:41.999Z</time>
      </trkpt>
      <trkpt lat="42.24903" lon="2.08681">
        <ele>933.76</ele>
        <time>2024-09-26T08:51:46.999Z</time>
      </trkpt>
      <trkpt lat="42.24905" lon="2.08664">
        <ele>933.83</ele>
        <time>2024-09-26T08:51:51.999Z</time>
      </trkpt>
      <trkpt lat="42.24904" lon="2.08645">
        <ele>933.91</ele>
        <time>2024-09-26T08:51:56.999Z</time>
      </trkpt>
      <trkpt lat="42.24902" lon="2.08626">
        <ele>934</ele>
        <time>2024-09-26T08:52:01.999Z</time>
      </trkpt>
      <trkpt lat="42.24901" lon="2.08607">
        <ele>934.1</ele>
        <time>2024-09-26T08:52:06.999Z</time>
      </trkpt>
      <trkpt lat="42.24905" lon="2.08588">
        <ele>934.2</ele>
        <time>2024-09-26T08:52:11.999Z</time>
      </trkpt>
      <trkpt lat="42.24911" lon="2.08571">
        <ele>934.31</ele>
        <time>2024-09-26T08:52:16.999Z</time>
      </trkpt>
      <trkpt lat="42.24918" lon="2.08554">
        <ele>934.45</ele>
        <time>2024-09-26T08:52:21.999Z</time>
      </trkpt>
      <trkpt lat="42.24925" lon="2.08538">
        <ele>934.59</ele>
        <time>2024-09-26T08:52:26.999Z</time>
      </trkpt>
      <trkpt lat="42.24931" lon="2.08525">
        <ele>934.75</ele>
        <time>2024-09-26T08:52:31.999Z</time>
      </trkpt>
      <trkpt lat="42.24936" lon="2.08511">
        <ele>934.93</ele>
        <time>2024-09-26T08:52:36.999Z</time>
      </trkpt>
      <trkpt lat="42.2494" lon="2.08499">
        <ele>935.11</ele>
        <time>2024-09-26T08:52:41.999Z</time>
      </trkpt>
      <trkpt lat="42.24945" lon="2.08487">
        <ele>935.31</ele>
        <time>2024-09-26T08:52:46.999Z</time>
      </trkpt>
      <trkpt lat="42.2495" lon="2.08474">
        <ele>935.53</ele>
        <time>2024-09-26T08:52:51.999Z</time>
      </trkpt>
      <trkpt lat="42.24956" lon="2.08463">
        <ele>935.75</ele>
        <time>2024-09-26T08:52:56.999Z</time>
      </trkpt>
      <trkpt lat="42.2496" lon="2.08451">
        <ele>935.99</ele>
        <time>2024-09-26T08:53:01.999Z</time>
      </trkpt>
      <trkpt lat="42.24965" lon="2.08438">
        <ele>936.24</ele>
        <time>2024-09-26T08:53:06.999Z</time>
      </trkpt>
      <trkpt lat="42.2497" lon="2.08425">
        <ele>936.5</ele>
        <time>2024-09-26T08:53:11.999Z</time>
      </trkpt>
      <trkpt lat="42.24974" lon="2.08413">
        <ele>936.78</ele>
        <time>2024-09-26T08:53:16.999Z</time>
      </trkpt>
      <trkpt lat="42.24979" lon="2.08401">
        <ele>937.06</ele>
        <time>2024-09-26T08:53:21.999Z</time>
      </trkpt>
      <trkpt lat="42.24982" lon="2.08388">
        <ele>937.35</ele>
        <time>2024-09-26T08:53:26.999Z</time>
      </trkpt>
      <trkpt lat="42.24985" lon="2.08374">
        <ele>937.64</ele>
        <time>2024-09-26T08:53:31.999Z</time>
      </trkpt>
      <trkpt lat="42.24989" lon="2.0836">
        <ele>937.93</ele>
        <time>2024-09-26T08:53:36.999Z</time>
      </trkpt>
      <trkpt lat="42.24992" lon="2.08346">
        <ele>938.24</ele>
        <time>2024-09-26T08:53:41.999Z</time>
      </trkpt>
      <trkpt lat="42.24996" lon="2.08332">
        <ele>938.54</ele>
        <time>2024-09-26T08:53:46.999Z</time>
      </trkpt>
      <trkpt lat="42.25" lon="2.0832">
        <ele>938.86</ele>
        <time>2024-09-26T08:53:51.999Z</time>
      </trkpt>
      <trkpt lat="42.25006" lon="2.08307">
        <ele>939.16</ele>
        <time>2024-09-26T08:53:56.999Z</time>
      </trkpt>
      <trkpt lat="42.25011" lon="2.08295">
        <ele>939.47</ele>
        <time>2024-09-26T08:54:02.000Z</time>
      </trkpt>
      <trkpt lat="42.25017" lon="2.08283">
        <ele>939.78</ele>
        <time>2024-09-26T08:54:07.000Z</time>
      </trkpt>
      <trkpt lat="42.25023" lon="2.08271">
        <ele>940.09</ele>
        <time>2024-09-26T08:54:12.000Z</time>
      </trkpt>
      <trkpt lat="42.25029" lon="2.0826">
        <ele>940.45</ele>
        <time>2024-09-26T08:54:18.000Z</time>
      </trkpt>
      <trkpt lat="42.25039" lon="2.08256">
        <ele>940.73</ele>
        <time>2024-09-26T08:54:23.000Z</time>
      </trkpt>
      <trkpt lat="42.2505" lon="2.08255">
        <ele>940.99</ele>
        <time>2024-09-26T08:54:28.000Z</time>
      </trkpt>
      <trkpt lat="42.25062" lon="2.08253">
        <ele>941.24</ele>
        <time>2024-09-26T08:54:33.000Z</time>
      </trkpt>
      <trkpt lat="42.25071" lon="2.08252">
        <ele>941.52</ele>
        <time>2024-09-26T08:54:39.000Z</time>
      </trkpt>
      <trkpt lat="42.25079" lon="2.08243">
        <ele>941.78</ele>
        <time>2024-09-26T08:54:45.000Z</time>
      </trkpt>
      <trkpt lat="42.25084" lon="2.08228">
        <ele>941.98</ele>
        <time>2024-09-26T08:54:50.000Z</time>
      </trkpt>
      <trkpt lat="42.25083" lon="2.08216">
        <ele>942.2</ele>
        <time>2024-09-26T08:54:55.000Z</time>
      </trkpt>
      <trkpt lat="42.25077" lon="2.08205">
        <ele>942.42</ele>
        <time>2024-09-26T08:55:00.000Z</time>
      </trkpt>
      <trkpt lat="42.25069" lon="2.08195">
        <ele>942.66</ele>
        <time>2024-09-26T08:55:05.000Z</time>
      </trkpt>
      <trkpt lat="42.25061" lon="2.08186">
        <ele>942.91</ele>
        <time>2024-09-26T08:55:10.000Z</time>
      </trkpt>
      <trkpt lat="42.25054" lon="2.08177">
        <ele>943.21</ele>
        <time>2024-09-26T08:55:15.000Z</time>
      </trkpt>
      <trkpt lat="42.25046" lon="2.0817">
        <ele>943.6</ele>
        <time>2024-09-26T08:55:20.000Z</time>
      </trkpt>
      <trkpt lat="42.25046" lon="2.08155">
        <ele>944.08</ele>
        <time>2024-09-26T08:55:25.000Z</time>
      </trkpt>
      <trkpt lat="42.25047" lon="2.08142">
        <ele>944.65</ele>
        <time>2024-09-26T08:55:30.000Z</time>
      </trkpt>
      <trkpt lat="42.25044" lon="2.08128">
        <ele>945.29</ele>
        <time>2024-09-26T08:55:35.000Z</time>
      </trkpt>
      <trkpt lat="42.25039" lon="2.08115">
        <ele>945.99</ele>
        <time>2024-09-26T08:55:40.000Z</time>
      </trkpt>
      <trkpt lat="42.25037" lon="2.08101">
        <ele>946.89</ele>
        <time>2024-09-26T08:55:46.000Z</time>
      </trkpt>
      <trkpt lat="42.2504" lon="2.08089">
        <ele>947.83</ele>
        <time>2024-09-26T08:55:52.000Z</time>
      </trkpt>
      <trkpt lat="42.25044" lon="2.08077">
        <ele>948.63</ele>
        <time>2024-09-26T08:55:57.000Z</time>
      </trkpt>
      <trkpt lat="42.25049" lon="2.08065">
        <ele>949.59</ele>
        <time>2024-09-26T08:56:03.000Z</time>
      </trkpt>
      <trkpt lat="42.25053" lon="2.08054">
        <ele>950.36</ele>
        <time>2024-09-26T08:56:08.000Z</time>
      </trkpt>
      <trkpt lat="42.25058" lon="2.08044">
        <ele>951.12</ele>
        <time>2024-09-26T08:56:13.000Z</time>
      </trkpt>
      <trkpt lat="42.25062" lon="2.08032">
        <ele>951.85</ele>
        <time>2024-09-26T08:56:18.000Z</time>
      </trkpt>
      <trkpt lat="42.25065" lon="2.0802">
        <ele>952.57</ele>
        <time>2024-09-26T08:56:23.000Z</time>
      </trkpt>
      <trkpt lat="42.25064" lon="2.08006">
        <ele>953.27</ele>
        <time>2024-09-26T08:56:28.000Z</time>
      </trkpt>
      <trkpt lat="42.25056" lon="2.07993">
        <ele>953.96</ele>
        <time>2024-09-26T08:56:33.000Z</time>
      </trkpt>
      <trkpt lat="42.25042" lon="2.07984">
        <ele>954.63</ele>
        <time>2024-09-26T08:56:38.000Z</time>
      </trkpt>
      <trkpt lat="42.25026" lon="2.07973">
        <ele>956.42</ele>
        <time>2024-09-26T08:56:43.000Z</time>
      </trkpt>
      <trkpt lat="42.25015" lon="2.07957">
        <ele>956.96</ele>
        <time>2024-09-26T08:56:48.000Z</time>
      </trkpt>
      <trkpt lat="42.24999" lon="2.07958">
        <ele>957.45</ele>
        <time>2024-09-26T08:56:53.000Z</time>
      </trkpt>
      <trkpt lat="42.24984" lon="2.07972">
        <ele>957.93</ele>
        <time>2024-09-26T08:56:58.000Z</time>
      </trkpt>
      <trkpt lat="42.24971" lon="2.07982">
        <ele>958.4</ele>
        <time>2024-09-26T08:57:03.000Z</time>
      </trkpt>
      <trkpt lat="42.24956" lon="2.07986">
        <ele>958.86</ele>
        <time>2024-09-26T08:57:08.000Z</time>
      </trkpt>
      <trkpt lat="42.24945" lon="2.07972">
        <ele>959.31</ele>
        <time>2024-09-26T08:57:13.000Z</time>
      </trkpt>
      <trkpt lat="42.24945" lon="2.07951">
        <ele>959.73</ele>
        <time>2024-09-26T08:57:18.000Z</time>
      </trkpt>
      <trkpt lat="42.24954" lon="2.07924">
        <ele>962.48</ele>
        <time>2024-09-26T08:57:23.000Z</time>
      </trkpt>
      <trkpt lat="42.24965" lon="2.07897">
        <ele>963.68</ele>
        <time>2024-09-26T08:57:28.000Z</time>
      </trkpt>
      <trkpt lat="42.24971" lon="2.07868">
        <ele>964.17</ele>
        <time>2024-09-26T08:57:33.000Z</time>
      </trkpt>
      <trkpt lat="42.24963" lon="2.07836">
        <ele>964.51</ele>
        <time>2024-09-26T08:57:38.000Z</time>
      </trkpt>
      <trkpt lat="42.24951" lon="2.0781">
        <ele>964.88</ele>
        <time>2024-09-26T08:57:43.000Z</time>
      </trkpt>
      <trkpt lat="42.2494" lon="2.07787">
        <ele>965.25</ele>
        <time>2024-09-26T08:57:48.000Z</time>
      </trkpt>
      <trkpt lat="42.24929" lon="2.07764">
        <ele>965.62</ele>
        <time>2024-09-26T08:57:53.000Z</time>
      </trkpt>
      <trkpt lat="42.24921" lon="2.07738">
        <ele>965.99</ele>
        <time>2024-09-26T08:57:58.000Z</time>
      </trkpt>
      <trkpt lat="42.24916" lon="2.0771">
        <ele>966.35</ele>
        <time>2024-09-26T08:58:03.000Z</time>
      </trkpt>
      <trkpt lat="42.2491" lon="2.07683">
        <ele>966.58</ele>
        <time>2024-09-26T08:58:08.000Z</time>
      </trkpt>
      <trkpt lat="42.24894" lon="2.07666">
        <ele>966.83</ele>
        <time>2024-09-26T08:58:13.000Z</time>
      </trkpt>
      <trkpt lat="42.24874" lon="2.07654">
        <ele>967.16</ele>
        <time>2024-09-26T08:58:18.000Z</time>
      </trkpt>
      <trkpt lat="42.24863" lon="2.07627">
        <ele>967.48</ele>
        <time>2024-09-26T08:58:23.000Z</time>
      </trkpt>
      <trkpt lat="42.24863" lon="2.07599">
        <ele>967.78</ele>
        <time>2024-09-26T08:58:28.000Z</time>
      </trkpt>
      <trkpt lat="42.24873" lon="2.07574">
        <ele>967.97</ele>
        <time>2024-09-26T08:58:33.000Z</time>
      </trkpt>
      <trkpt lat="42.24883" lon="2.07552">
        <ele>968.29</ele>
        <time>2024-09-26T08:58:38.000Z</time>
      </trkpt>
      <trkpt lat="42.24886" lon="2.07526">
        <ele>968.51</ele>
        <time>2024-09-26T08:58:43.000Z</time>
      </trkpt>
      <trkpt lat="42.24878" lon="2.07498">
        <ele>968.64</ele>
        <time>2024-09-26T08:58:48.000Z</time>
      </trkpt>
      <trkpt lat="42.24873" lon="2.0748">
        <ele>968.68</ele>
        <time>2024-09-26T08:58:53.000Z</time>
      </trkpt>
      <trkpt lat="42.24871" lon="2.07463">
        <ele>968.74</ele>
        <time>2024-09-26T08:58:58.000Z</time>
      </trkpt>
      <trkpt lat="42.24875" lon="2.07443">
        <ele>968.81</ele>
        <time>2024-09-26T08:59:03.000Z</time>
      </trkpt>
      <trkpt lat="42.24882" lon="2.07427">
        <ele>968.91</ele>
        <time>2024-09-26T08:59:08.000Z</time>
      </trkpt>
      <trkpt lat="42.24887" lon="2.07412">
        <ele>969.01</ele>
        <time>2024-09-26T08:59:13.000Z</time>
      </trkpt>
      <trkpt lat="42.24893" lon="2.07394">
        <ele>969.12</ele>
        <time>2024-09-26T08:59:18.000Z</time>
      </trkpt>
      <trkpt lat="42.249" lon="2.07375">
        <ele>969.25</ele>
        <time>2024-09-26T08:59:23.000Z</time>
      </trkpt>
      <trkpt lat="42.24908" lon="2.07356">
        <ele>969.39</ele>
        <time>2024-09-26T08:59:28.000Z</time>
      </trkpt>
      <trkpt lat="42.24918" lon="2.07347">
        <ele>969.54</ele>
        <time>2024-09-26T08:59:33.000Z</time>
      </trkpt>
      <trkpt lat="42.24931" lon="2.07348">
        <ele>969.68</ele>
        <time>2024-09-26T08:59:38.000Z</time>
      </trkpt>
      <trkpt lat="42.24943" lon="2.07342">
        <ele>969.81</ele>
        <time>2024-09-26T08:59:43.000Z</time>
      </trkpt>
      <trkpt lat="42.2495" lon="2.07327">
        <ele>969.95</ele>
        <time>2024-09-26T08:59:48.000Z</time>
      </trkpt>
      <trkpt lat="42.24953" lon="2.07308">
        <ele>970.09</ele>
        <time>2024-09-26T08:59:53.000Z</time>
      </trkpt>
      <trkpt lat="42.24957" lon="2.07288">
        <ele>970.24</ele>
        <time>2024-09-26T08:59:58.000Z</time>
      </trkpt>
      <trkpt lat="42.24966" lon="2.07272">
        <ele>970.41</ele>
        <time>2024-09-26T09:00:03.000Z</time>
      </trkpt>
      <trkpt lat="42.24976" lon="2.07256">
        <ele>970.6</ele>
        <time>2024-09-26T09:00:08.000Z</time>
      </trkpt>
      <trkpt lat="42.24983" lon="2.07236">
        <ele>970.78</ele>
        <time>2024-09-26T09:00:13.000Z</time>
      </trkpt>
      <trkpt lat="42.2499" lon="2.07211">
        <ele>971.51</ele>
        <time>2024-09-26T09:00:18.000Z</time>
      </trkpt>
      <trkpt lat="42.25005" lon="2.07194">
        <ele>972.47</ele>
        <time>2024-09-26T09:00:23.000Z</time>
      </trkpt>
      <trkpt lat="42.25027" lon="2.07179">
        <ele>972.87</ele>
        <time>2024-09-26T09:00:28.000Z</time>
      </trkpt>
      <trkpt lat="42.25044" lon="2.07152">
        <ele>973.11</ele>
        <time>2024-09-26T09:00:33.000Z</time>
      </trkpt>
      <trkpt lat="42.25058" lon="2.07125">
        <ele>973.29</ele>
        <time>2024-09-26T09:00:38.000Z</time>
      </trkpt>
      <trkpt lat="42.25073" lon="2.07101">
        <ele>973.49</ele>
        <time>2024-09-26T09:00:43.000Z</time>
      </trkpt>
      <trkpt lat="42.25091" lon="2.07083">
        <ele>973.62</ele>
        <time>2024-09-26T09:00:48.000Z</time>
      </trkpt>
      <trkpt lat="42.25111" lon="2.07066">
        <ele>973.69</ele>
        <time>2024-09-26T09:00:53.000Z</time>
      </trkpt>
      <trkpt lat="42.25132" lon="2.07049">
        <ele>973.81</ele>
        <time>2024-09-26T09:00:58.000Z</time>
      </trkpt>
      <trkpt lat="42.2515" lon="2.0705">
        <ele>973.91</ele>
        <time>2024-09-26T09:01:03.000Z</time>
      </trkpt>
      <trkpt lat="42.25171" lon="2.07062">
        <ele>973.99</ele>
        <time>2024-09-26T09:01:08.000Z</time>
      </trkpt>
      <trkpt lat="42.25196" lon="2.07057">
        <ele>974.05</ele>
        <time>2024-09-26T09:01:13.000Z</time>
      </trkpt>
      <trkpt lat="42.25222" lon="2.07037">
        <ele>974.04</ele>
        <time>2024-09-26T09:01:18.000Z</time>
      </trkpt>
      <trkpt lat="42.25255" lon="2.0702">
        <ele>974.04</ele>
        <time>2024-09-26T09:01:23.000Z</time>
      </trkpt>
      <trkpt lat="42.2527" lon="2.06981">
        <ele>974.57</ele>
        <time>2024-09-26T09:01:28.000Z</time>
      </trkpt>
      <trkpt lat="42.25265" lon="2.06944">
        <ele>977.87</ele>
        <time>2024-09-26T09:01:33.000Z</time>
      </trkpt>
      <trkpt lat="42.25252" lon="2.06921">
        <ele>979.6</ele>
        <time>2024-09-26T09:01:38.000Z</time>
      </trkpt>
      <trkpt lat="42.25257" lon="2.06935">
        <ele>980.5</ele>
        <time>2024-09-26T09:01:47.000Z</time>
      </trkpt>
      <trkpt lat="42.25268" lon="2.06954">
        <ele>981.07</ele>
        <time>2024-09-26T09:01:52.000Z</time>
      </trkpt>
      <trkpt lat="42.25274" lon="2.06971">
        <ele>981.65</ele>
        <time>2024-09-26T09:01:57.000Z</time>
      </trkpt>
      <trkpt lat="42.25284" lon="2.06976">
        <ele>982.49</ele>
        <time>2024-09-26T09:02:16.000Z</time>
      </trkpt>
      <trkpt lat="42.25296" lon="2.06981">
        <ele>983.02</ele>
        <time>2024-09-26T09:02:21.000Z</time>
      </trkpt>
      <trkpt lat="42.25306" lon="2.06988">
        <ele>983.62</ele>
        <time>2024-09-26T09:02:26.000Z</time>
      </trkpt>
      <trkpt lat="42.25315" lon="2.06994">
        <ele>984.28</ele>
        <time>2024-09-26T09:02:31.000Z</time>
      </trkpt>
      <trkpt lat="42.25327" lon="2.07">
        <ele>984.97</ele>
        <time>2024-09-26T09:02:36.000Z</time>
      </trkpt>
      <trkpt lat="42.25339" lon="2.07006">
        <ele>985.7</ele>
        <time>2024-09-26T09:02:41.000Z</time>
      </trkpt>
      <trkpt lat="42.2535" lon="2.07013">
        <ele>986.46</ele>
        <time>2024-09-26T09:02:46.000Z</time>
      </trkpt>
      <trkpt lat="42.25362" lon="2.07017">
        <ele>987.24</ele>
        <time>2024-09-26T09:02:51.000Z</time>
      </trkpt>
      <trkpt lat="42.2537" lon="2.07021">
        <ele>988.04</ele>
        <time>2024-09-26T09:02:56.000Z</time>
      </trkpt>
      <trkpt lat="42.25383" lon="2.07022">
        <ele>988.81</ele>
        <time>2024-09-26T09:03:01.000Z</time>
      </trkpt>
      <trkpt lat="42.25392" lon="2.07022">
        <ele>989.48</ele>
        <time>2024-09-26T09:03:06.000Z</time>
      </trkpt>
      <trkpt lat="42.25403" lon="2.07022">
        <ele>990.16</ele>
        <time>2024-09-26T09:03:12.000Z</time>
      </trkpt>
      <trkpt lat="42.25412" lon="2.07022">
        <ele>990.71</ele>
        <time>2024-09-26T09:03:18.000Z</time>
      </trkpt>
      <trkpt lat="42.25421" lon="2.07023">
        <ele>991.2</ele>
        <time>2024-09-26T09:03:24.000Z</time>
      </trkpt>
      <trkpt lat="42.25431" lon="2.07025">
        <ele>991.7</ele>
        <time>2024-09-26T09:03:31.000Z</time>
      </trkpt>
      <trkpt lat="42.2544" lon="2.07025">
        <ele>992.1</ele>
        <time>2024-09-26T09:03:37.000Z</time>
      </trkpt>
      <trkpt lat="42.25449" lon="2.07025">
        <ele>992.58</ele>
        <time>2024-09-26T09:03:44.000Z</time>
      </trkpt>
      <trkpt lat="42.25458" lon="2.07025">
        <ele>992.94</ele>
        <time>2024-09-26T09:03:50.000Z</time>
      </trkpt>
      <trkpt lat="42.25469" lon="2.07026">
        <ele>993.34</ele>
        <time>2024-09-26T09:03:57.000Z</time>
      </trkpt>
      <trkpt lat="42.25478" lon="2.07026">
        <ele>993.71</ele>
        <time>2024-09-26T09:04:03.000Z</time>
      </trkpt>
      <trkpt lat="42.25489" lon="2.07027">
        <ele>994.14</ele>
        <time>2024-09-26T09:04:10.000Z</time>
      </trkpt>
      <trkpt lat="42.25498" lon="2.07028">
        <ele>994.5</ele>
        <time>2024-09-26T09:04:16.000Z</time>
      </trkpt>
      <trkpt lat="42.25508" lon="2.07028">
        <ele>994.96</ele>
        <time>2024-09-26T09:04:23.000Z</time>
      </trkpt>
      <trkpt lat="42.25517" lon="2.0703">
        <ele>995.49</ele>
        <time>2024-09-26T09:04:30.000Z</time>
      </trkpt>
      <trkpt lat="42.25527" lon="2.0703">
        <ele>996.06</ele>
        <time>2024-09-26T09:04:37.000Z</time>
      </trkpt>
      <trkpt lat="42.25536" lon="2.07031">
        <ele>996.64</ele>
        <time>2024-09-26T09:04:44.000Z</time>
      </trkpt>
      <trkpt lat="42.25547" lon="2.0703">
        <ele>997.21</ele>
        <time>2024-09-26T09:04:51.000Z</time>
      </trkpt>
      <trkpt lat="42.25556" lon="2.07024">
        <ele>997.79</ele>
        <time>2024-09-26T09:04:58.000Z</time>
      </trkpt>
      <trkpt lat="42.25565" lon="2.07018">
        <ele>998.4</ele>
        <time>2024-09-26T09:05:05.000Z</time>
      </trkpt>
      <trkpt lat="42.25574" lon="2.07012">
        <ele>998.96</ele>
        <time>2024-09-26T09:05:11.000Z</time>
      </trkpt>
      <trkpt lat="42.25583" lon="2.07009">
        <ele>999.72</ele>
        <time>2024-09-26T09:05:19.000Z</time>
      </trkpt>
      <trkpt lat="42.25592" lon="2.07007">
        <ele>1000.5</ele>
        <time>2024-09-26T09:05:27.000Z</time>
      </trkpt>
      <trkpt lat="42.25602" lon="2.07005">
        <ele>1001.18</ele>
        <time>2024-09-26T09:05:34.000Z</time>
      </trkpt>
      <trkpt lat="42.25611" lon="2.07002">
        <ele>1001.87</ele>
        <time>2024-09-26T09:05:41.000Z</time>
      </trkpt>
      <trkpt lat="42.2562" lon="2.06997">
        <ele>1002.6</ele>
        <time>2024-09-26T09:05:48.000Z</time>
      </trkpt>
      <trkpt lat="42.25631" lon="2.06991">
        <ele>1003.41</ele>
        <time>2024-09-26T09:05:56.000Z</time>
      </trkpt>
      <trkpt lat="42.2564" lon="2.06983">
        <ele>1004.36</ele>
        <time>2024-09-26T09:06:05.000Z</time>
      </trkpt>
      <trkpt lat="42.25648" lon="2.06977">
        <ele>1005.13</ele>
        <time>2024-09-26T09:06:11.999Z</time>
      </trkpt>
      <trkpt lat="42.25657" lon="2.06973">
        <ele>1005.81</ele>
        <time>2024-09-26T09:06:17.999Z</time>
      </trkpt>
      <trkpt lat="42.25667" lon="2.06973">
        <ele>1006.56</ele>
        <time>2024-09-26T09:06:23.999Z</time>
      </trkpt>
      <trkpt lat="42.25676" lon="2.06976">
        <ele>1007.7</ele>
        <time>2024-09-26T09:06:31.999Z</time>
      </trkpt>
      <trkpt lat="42.25685" lon="2.0698">
        <ele>1008.82</ele>
        <time>2024-09-26T09:06:39.999Z</time>
      </trkpt>
      <trkpt lat="42.25694" lon="2.06983">
        <ele>1009.76</ele>
        <time>2024-09-26T09:06:46.999Z</time>
      </trkpt>
      <trkpt lat="42.25704" lon="2.06986">
        <ele>1010.61</ele>
        <time>2024-09-26T09:06:52.999Z</time>
      </trkpt>
      <trkpt lat="42.25713" lon="2.06989">
        <ele>1011.56</ele>
        <time>2024-09-26T09:06:58.999Z</time>
      </trkpt>
      <trkpt lat="42.25724" lon="2.06989">
        <ele>1012.94</ele>
        <time>2024-09-26T09:07:06.999Z</time>
      </trkpt>
      <trkpt lat="42.25734" lon="2.06985">
        <ele>1014.23</ele>
        <time>2024-09-26T09:07:14.999Z</time>
      </trkpt>
      <trkpt lat="42.25744" lon="2.06978">
        <ele>1015.25</ele>
        <time>2024-09-26T09:07:21.999Z</time>
      </trkpt>
      <trkpt lat="42.25755" lon="2.06976">
        <ele>1016.08</ele>
        <time>2024-09-26T09:07:27.999Z</time>
      </trkpt>
      <trkpt lat="42.25773" lon="2.06971">
        <ele>1017.52</ele>
        <time>2024-09-26T09:07:32.999Z</time>
      </trkpt>
      <trkpt lat="42.25797" lon="2.06974">
        <ele>1020.54</ele>
        <time>2024-09-26T09:07:37.999Z</time>
      </trkpt>
      <trkpt lat="42.25822" lon="2.06983">
        <ele>1020.51</ele>
        <time>2024-09-26T09:07:42.999Z</time>
      </trkpt>
      <trkpt lat="42.25848" lon="2.06996">
        <ele>1020.08</ele>
        <time>2024-09-26T09:07:47.999Z</time>
      </trkpt>
      <trkpt lat="42.25874" lon="2.0701">
        <ele>1020.09</ele>
        <time>2024-09-26T09:07:52.999Z</time>
      </trkpt>
      <trkpt lat="42.25892" lon="2.07015">
        <ele>1020.26</ele>
        <time>2024-09-26T09:07:57.999Z</time>
      </trkpt>
      <trkpt lat="42.25901" lon="2.07016">
        <ele>1020.51</ele>
        <time>2024-09-26T09:08:04.999Z</time>
      </trkpt>
      <trkpt lat="42.25912" lon="2.07017">
        <ele>1020.86</ele>
        <time>2024-09-26T09:08:10.999Z</time>
      </trkpt>
      <trkpt lat="42.25921" lon="2.07017">
        <ele>1021.34</ele>
        <time>2024-09-26T09:08:17.999Z</time>
      </trkpt>
      <trkpt lat="42.25931" lon="2.07016">
        <ele>1021.91</ele>
        <time>2024-09-26T09:08:24.999Z</time>
      </trkpt>
      <trkpt lat="42.25941" lon="2.07018">
        <ele>1022.46</ele>
        <time>2024-09-26T09:08:30.999Z</time>
      </trkpt>
      <trkpt lat="42.25951" lon="2.07023">
        <ele>1023.19</ele>
        <time>2024-09-26T09:08:37.999Z</time>
      </trkpt>
      <trkpt lat="42.25958" lon="2.07031">
        <ele>1023.97</ele>
        <time>2024-09-26T09:08:44.999Z</time>
      </trkpt>
      <trkpt lat="42.25964" lon="2.07041">
        <ele>1024.78</ele>
        <time>2024-09-26T09:08:51.999Z</time>
      </trkpt>
      <trkpt lat="42.25969" lon="2.07051">
        <ele>1025.64</ele>
        <time>2024-09-26T09:08:58.999Z</time>
      </trkpt>
      <trkpt lat="42.25974" lon="2.07062">
        <ele>1026.51</ele>
        <time>2024-09-26T09:09:05.999Z</time>
      </trkpt>
      <trkpt lat="42.25982" lon="2.07072">
        <ele>1027.37</ele>
        <time>2024-09-26T09:09:12.999Z</time>
      </trkpt>
      <trkpt lat="42.25985" lon="2.07084">
        <ele>1028.22</ele>
        <time>2024-09-26T09:09:19.999Z</time>
      </trkpt>
      <trkpt lat="42.25989" lon="2.07096">
        <ele>1029.05</ele>
        <time>2024-09-26T09:09:26.999Z</time>
      </trkpt>
      <trkpt lat="42.25993" lon="2.07108">
        <ele>1029.83</ele>
        <time>2024-09-26T09:09:33.999Z</time>
      </trkpt>
      <trkpt lat="42.25999" lon="2.07119">
        <ele>1030.59</ele>
        <time>2024-09-26T09:09:40.999Z</time>
      </trkpt>
      <trkpt lat="42.26003" lon="2.07131">
        <ele>1031.35</ele>
        <time>2024-09-26T09:09:47.999Z</time>
      </trkpt>
      <trkpt lat="42.26006" lon="2.07143">
        <ele>1032.08</ele>
        <time>2024-09-26T09:09:54.999Z</time>
      </trkpt>
      <trkpt lat="42.26011" lon="2.07155">
        <ele>1032.77</ele>
        <time>2024-09-26T09:10:01.999Z</time>
      </trkpt>
      <trkpt lat="42.26014" lon="2.07168">
        <ele>1033.58</ele>
        <time>2024-09-26T09:10:09.999Z</time>
      </trkpt>
      <trkpt lat="42.26018" lon="2.0718">
        <ele>1034.3</ele>
        <time>2024-09-26T09:10:16.999Z</time>
      </trkpt>
      <trkpt lat="42.26019" lon="2.07193">
        <ele>1034.97</ele>
        <time>2024-09-26T09:10:23.999Z</time>
      </trkpt>
      <trkpt lat="42.26024" lon="2.07205">
        <ele>1035.62</ele>
        <time>2024-09-26T09:10:30.999Z</time>
      </trkpt>
      <trkpt lat="42.26027" lon="2.07217">
        <ele>1036.28</ele>
        <time>2024-09-26T09:10:37.999Z</time>
      </trkpt>
      <trkpt lat="42.26033" lon="2.07228">
        <ele>1037.07</ele>
        <time>2024-09-26T09:10:45.999Z</time>
      </trkpt>
      <trkpt lat="42.26039" lon="2.07238">
        <ele>1037.76</ele>
        <time>2024-09-26T09:10:52.999Z</time>
      </trkpt>
      <trkpt lat="42.26044" lon="2.07249">
        <ele>1038.42</ele>
        <time>2024-09-26T09:10:59.999Z</time>
      </trkpt>
      <trkpt lat="42.26048" lon="2.07261">
        <ele>1038.97</ele>
        <time>2024-09-26T09:11:05.999Z</time>
      </trkpt>
      <trkpt lat="42.2605" lon="2.07274">
        <ele>1039.6</ele>
        <time>2024-09-26T09:11:12.999Z</time>
      </trkpt>
      <trkpt lat="42.26055" lon="2.07286">
        <ele>1040.33</ele>
        <time>2024-09-26T09:11:20.999Z</time>
      </trkpt>
      <trkpt lat="42.26059" lon="2.07299">
        <ele>1041.07</ele>
        <time>2024-09-26T09:11:28.999Z</time>
      </trkpt>
      <trkpt lat="42.26062" lon="2.07312">
        <ele>1041.9</ele>
        <time>2024-09-26T09:11:37.999Z</time>
      </trkpt>
      <trkpt lat="42.26064" lon="2.07324">
        <ele>1042.52</ele>
        <time>2024-09-26T09:11:44.999Z</time>
      </trkpt>
      <trkpt lat="42.26066" lon="2.07338">
        <ele>1043.15</ele>
        <time>2024-09-26T09:11:51.999Z</time>
      </trkpt>
      <trkpt lat="42.26067" lon="2.07352">
        <ele>1043.87</ele>
        <time>2024-09-26T09:11:59.999Z</time>
      </trkpt>
      <trkpt lat="42.2607" lon="2.07365">
        <ele>1044.65</ele>
        <time>2024-09-26T09:12:07.999Z</time>
      </trkpt>
      <trkpt lat="42.26067" lon="2.07377">
        <ele>1045.41</ele>
        <time>2024-09-26T09:12:14.999Z</time>
      </trkpt>
      <trkpt lat="42.26068" lon="2.07389">
        <ele>1046.19</ele>
        <time>2024-09-26T09:12:21.999Z</time>
      </trkpt>
      <trkpt lat="42.2607" lon="2.07402">
        <ele>1046.91</ele>
        <time>2024-09-26T09:12:28.999Z</time>
      </trkpt>
      <trkpt lat="42.26071" lon="2.07414">
        <ele>1047.58</ele>
        <time>2024-09-26T09:12:35.999Z</time>
      </trkpt>
      <trkpt lat="42.26071" lon="2.07427">
        <ele>1048.2</ele>
        <time>2024-09-26T09:12:42.999Z</time>
      </trkpt>
      <trkpt lat="42.26072" lon="2.0744">
        <ele>1048.81</ele>
        <time>2024-09-26T09:12:49.999Z</time>
      </trkpt>
      <trkpt lat="42.26073" lon="2.07452">
        <ele>1049.36</ele>
        <time>2024-09-26T09:12:55.999Z</time>
      </trkpt>
      <trkpt lat="42.26074" lon="2.07466">
        <ele>1049.99</ele>
        <time>2024-09-26T09:13:02.999Z</time>
      </trkpt>
      <trkpt lat="42.26077" lon="2.07478">
        <ele>1050.67</ele>
        <time>2024-09-26T09:13:09.999Z</time>
      </trkpt>
      <trkpt lat="42.2608" lon="2.0749">
        <ele>1051.53</ele>
        <time>2024-09-26T09:13:17.999Z</time>
      </trkpt>
      <trkpt lat="42.26083" lon="2.07502">
        <ele>1052.41</ele>
        <time>2024-09-26T09:13:24.999Z</time>
      </trkpt>
      <trkpt lat="42.26088" lon="2.07514">
        <ele>1053.5</ele>
        <time>2024-09-26T09:13:32.999Z</time>
      </trkpt>
      <trkpt lat="42.26092" lon="2.07525">
        <ele>1054.43</ele>
        <time>2024-09-26T09:13:39.999Z</time>
      </trkpt>
      <trkpt lat="42.26094" lon="2.07537">
        <ele>1055.23</ele>
        <time>2024-09-26T09:13:45.999Z</time>
      </trkpt>
      <trkpt lat="42.26093" lon="2.07551">
        <ele>1056.2</ele>
        <time>2024-09-26T09:13:52.999Z</time>
      </trkpt>
      <trkpt lat="42.26093" lon="2.07563">
        <ele>1057.25</ele>
        <time>2024-09-26T09:13:59.999Z</time>
      </trkpt>
      <trkpt lat="42.26097" lon="2.07574">
        <ele>1058.32</ele>
        <time>2024-09-26T09:14:06.999Z</time>
      </trkpt>
      <trkpt lat="42.26107" lon="2.07576">
        <ele>1059.28</ele>
        <time>2024-09-26T09:14:12.999Z</time>
      </trkpt>
      <trkpt lat="42.26112" lon="2.07566">
        <ele>1062</ele>
        <time>2024-09-26T09:14:43.999Z</time>
      </trkpt>
      <trkpt lat="42.26111" lon="2.07554">
        <ele>1063.37</ele>
        <time>2024-09-26T09:14:50.999Z</time>
      </trkpt>
      <trkpt lat="42.26109" lon="2.07539">
        <ele>1064.44</ele>
        <time>2024-09-26T09:14:56.999Z</time>
      </trkpt>
      <trkpt lat="42.2611" lon="2.07523">
        <ele>1065.26</ele>
        <time>2024-09-26T09:15:01.999Z</time>
      </trkpt>
      <trkpt lat="42.26106" lon="2.07506">
        <ele>1066</ele>
        <time>2024-09-26T09:15:06.999Z</time>
      </trkpt>
      <trkpt lat="42.26102" lon="2.07485">
        <ele>1066.68</ele>
        <time>2024-09-26T09:15:11.999Z</time>
      </trkpt>
      <trkpt lat="42.26101" lon="2.07463">
        <ele>1067.35</ele>
        <time>2024-09-26T09:15:16.999Z</time>
      </trkpt>
      <trkpt lat="42.26106" lon="2.07438">
        <ele>1068.05</ele>
        <time>2024-09-26T09:15:21.999Z</time>
      </trkpt>
      <trkpt lat="42.26112" lon="2.07413">
        <ele>1068.95</ele>
        <time>2024-09-26T09:15:26.999Z</time>
      </trkpt>
      <trkpt lat="42.26118" lon="2.07393">
        <ele>1069.99</ele>
        <time>2024-09-26T09:15:31.999Z</time>
      </trkpt>
      <trkpt lat="42.26121" lon="2.07376">
        <ele>1071.15</ele>
        <time>2024-09-26T09:15:36.999Z</time>
      </trkpt>
      <trkpt lat="42.26124" lon="2.07361">
        <ele>1072.37</ele>
        <time>2024-09-26T09:15:41.999Z</time>
      </trkpt>
      <trkpt lat="42.26128" lon="2.07344">
        <ele>1073.61</ele>
        <time>2024-09-26T09:15:46.999Z</time>
      </trkpt>
      <trkpt lat="42.26131" lon="2.07328">
        <ele>1074.86</ele>
        <time>2024-09-26T09:15:51.999Z</time>
      </trkpt>
      <trkpt lat="42.26133" lon="2.07312">
        <ele>1076.06</ele>
        <time>2024-09-26T09:15:56.999Z</time>
      </trkpt>
      <trkpt lat="42.26138" lon="2.07293">
        <ele>1077.32</ele>
        <time>2024-09-26T09:16:01.999Z</time>
      </trkpt>
      <trkpt lat="42.26141" lon="2.07276">
        <ele>1078.74</ele>
        <time>2024-09-26T09:16:06.999Z</time>
      </trkpt>
      <trkpt lat="42.26144" lon="2.0726">
        <ele>1080.23</ele>
        <time>2024-09-26T09:16:11.999Z</time>
      </trkpt>
      <trkpt lat="42.26146" lon="2.07247">
        <ele>1081.72</ele>
        <time>2024-09-26T09:16:16.999Z</time>
      </trkpt>
      <trkpt lat="42.26146" lon="2.07235">
        <ele>1083.18</ele>
        <time>2024-09-26T09:16:21.999Z</time>
      </trkpt>
      <trkpt lat="42.26144" lon="2.07221">
        <ele>1084.86</ele>
        <time>2024-09-26T09:16:27.999Z</time>
      </trkpt>
      <trkpt lat="42.26143" lon="2.07206">
        <ele>1086.38</ele>
        <time>2024-09-26T09:16:33.999Z</time>
      </trkpt>
      <trkpt lat="42.26143" lon="2.07193">
        <ele>1087.55</ele>
        <time>2024-09-26T09:16:38.999Z</time>
      </trkpt>
      <trkpt lat="42.26143" lon="2.0718">
        <ele>1088.64</ele>
        <time>2024-09-26T09:16:43.999Z</time>
      </trkpt>
      <trkpt lat="42.26144" lon="2.07166">
        <ele>1089.68</ele>
        <time>2024-09-26T09:16:48.999Z</time>
      </trkpt>
      <trkpt lat="42.26147" lon="2.07153">
        <ele>1090.66</ele>
        <time>2024-09-26T09:16:53.999Z</time>
      </trkpt>
      <trkpt lat="42.26151" lon="2.07141">
        <ele>1091.58</ele>
        <time>2024-09-26T09:16:58.999Z</time>
      </trkpt>
      <trkpt lat="42.26155" lon="2.07127">
        <ele>1092.43</ele>
        <time>2024-09-26T09:17:03.999Z</time>
      </trkpt>
      <trkpt lat="42.26159" lon="2.07115">
        <ele>1093.23</ele>
        <time>2024-09-26T09:17:08.999Z</time>
      </trkpt>
      <trkpt lat="42.26167" lon="2.07108">
        <ele>1094.19</ele>
        <time>2024-09-26T09:17:15.999Z</time>
      </trkpt>
      <trkpt lat="42.26177" lon="2.07104">
        <ele>1094.87</ele>
        <time>2024-09-26T09:17:21.999Z</time>
      </trkpt>
      <trkpt lat="42.26186" lon="2.07099">
        <ele>1095.44</ele>
        <time>2024-09-26T09:17:27.999Z</time>
      </trkpt>
      <trkpt lat="42.26194" lon="2.07091">
        <ele>1095.91</ele>
        <time>2024-09-26T09:17:33.999Z</time>
      </trkpt>
      <trkpt lat="42.262" lon="2.07082">
        <ele>1096.25</ele>
        <time>2024-09-26T09:17:38.999Z</time>
      </trkpt>
      <trkpt lat="42.26205" lon="2.07069">
        <ele>1096.63</ele>
        <time>2024-09-26T09:17:44.999Z</time>
      </trkpt>
      <trkpt lat="42.2621" lon="2.07057">
        <ele>1096.92</ele>
        <time>2024-09-26T09:17:49.999Z</time>
      </trkpt>
      <trkpt lat="42.26215" lon="2.07044">
        <ele>1097.22</ele>
        <time>2024-09-26T09:17:54.999Z</time>
      </trkpt>
      <trkpt lat="42.26219" lon="2.07032">
        <ele>1097.51</ele>
        <time>2024-09-26T09:17:59.999Z</time>
      </trkpt>
      <trkpt lat="42.26227" lon="2.07022">
        <ele>1097.89</ele>
        <time>2024-09-26T09:18:05.999Z</time>
      </trkpt>
      <trkpt lat="42.26236" lon="2.07017">
        <ele>1098.33</ele>
        <time>2024-09-26T09:18:12.999Z</time>
      </trkpt>
      <trkpt lat="42.26243" lon="2.07009">
        <ele>1098.7</ele>
        <time>2024-09-26T09:18:18.999Z</time>
      </trkpt>
      <trkpt lat="42.26251" lon="2.07002">
        <ele>1099.01</ele>
        <time>2024-09-26T09:18:24.000Z</time>
      </trkpt>
      <trkpt lat="42.26257" lon="2.06993">
        <ele>1099.46</ele>
        <time>2024-09-26T09:18:31.000Z</time>
      </trkpt>
      <trkpt lat="42.26267" lon="2.06987">
        <ele>1099.91</ele>
        <time>2024-09-26T09:18:38.000Z</time>
      </trkpt>
      <trkpt lat="42.26277" lon="2.06985">
        <ele>1100.31</ele>
        <time>2024-09-26T09:18:44.000Z</time>
      </trkpt>
      <trkpt lat="42.26286" lon="2.06987">
        <ele>1100.72</ele>
        <time>2024-09-26T09:18:50.000Z</time>
      </trkpt>
      <trkpt lat="42.26296" lon="2.0699">
        <ele>1101.19</ele>
        <time>2024-09-26T09:18:57.000Z</time>
      </trkpt>
      <trkpt lat="42.26306" lon="2.06991">
        <ele>1101.59</ele>
        <time>2024-09-26T09:19:03.000Z</time>
      </trkpt>
      <trkpt lat="42.26316" lon="2.06994">
        <ele>1101.97</ele>
        <time>2024-09-26T09:19:09.000Z</time>
      </trkpt>
      <trkpt lat="42.26325" lon="2.06997">
        <ele>1102.28</ele>
        <time>2024-09-26T09:19:14.000Z</time>
      </trkpt>
      <trkpt lat="42.26333" lon="2.07001">
        <ele>1102.64</ele>
        <time>2024-09-26T09:19:20.000Z</time>
      </trkpt>
      <trkpt lat="42.26344" lon="2.07003">
        <ele>1102.98</ele>
        <time>2024-09-26T09:19:26.000Z</time>
      </trkpt>
      <trkpt lat="42.26354" lon="2.07">
        <ele>1103.26</ele>
        <time>2024-09-26T09:19:31.000Z</time>
      </trkpt>
      <trkpt lat="42.26365" lon="2.06993">
        <ele>1103.51</ele>
        <time>2024-09-26T09:19:36.000Z</time>
      </trkpt>
      <trkpt lat="42.26376" lon="2.0699">
        <ele>1103.77</ele>
        <time>2024-09-26T09:19:41.000Z</time>
      </trkpt>
      <trkpt lat="42.26386" lon="2.06992">
        <ele>1104.02</ele>
        <time>2024-09-26T09:19:46.000Z</time>
      </trkpt>
      <trkpt lat="42.26394" lon="2.06996">
        <ele>1104.27</ele>
        <time>2024-09-26T09:19:51.000Z</time>
      </trkpt>
      <trkpt lat="42.26404" lon="2.06997">
        <ele>1104.52</ele>
        <time>2024-09-26T09:19:56.000Z</time>
      </trkpt>
      <trkpt lat="42.26412" lon="2.06994">
        <ele>1104.82</ele>
        <time>2024-09-26T09:20:02.000Z</time>
      </trkpt>
      <trkpt lat="42.2642" lon="2.06982">
        <ele>1105.13</ele>
        <time>2024-09-26T09:20:08.000Z</time>
      </trkpt>
      <trkpt lat="42.26419" lon="2.06969">
        <ele>1105.43</ele>
        <time>2024-09-26T09:20:14.000Z</time>
      </trkpt>
      <trkpt lat="42.26415" lon="2.06956">
        <ele>1105.78</ele>
        <time>2024-09-26T09:20:21.000Z</time>
      </trkpt>
      <trkpt lat="42.26413" lon="2.06944">
        <ele>1106.08</ele>
        <time>2024-09-26T09:20:27.000Z</time>
      </trkpt>
      <trkpt lat="42.26409" lon="2.06931">
        <ele>1106.45</ele>
        <time>2024-09-26T09:20:34.000Z</time>
      </trkpt>
      <trkpt lat="42.26407" lon="2.06919">
        <ele>1106.82</ele>
        <time>2024-09-26T09:20:40.000Z</time>
      </trkpt>
      <trkpt lat="42.26403" lon="2.06907">
        <ele>1107.35</ele>
        <time>2024-09-26T09:20:48.000Z</time>
      </trkpt>
      <trkpt lat="42.26398" lon="2.06896">
        <ele>1107.77</ele>
        <time>2024-09-26T09:20:54.000Z</time>
      </trkpt>
      <trkpt lat="42.26392" lon="2.06887">
        <ele>1108.34</ele>
        <time>2024-09-26T09:21:02.000Z</time>
      </trkpt>
      <trkpt lat="42.26387" lon="2.06876">
        <ele>1108.85</ele>
        <time>2024-09-26T09:21:09.000Z</time>
      </trkpt>
      <trkpt lat="42.26383" lon="2.06865">
        <ele>1109.28</ele>
        <time>2024-09-26T09:21:15.000Z</time>
      </trkpt>
      <trkpt lat="42.26381" lon="2.06852">
        <ele>1109.72</ele>
        <time>2024-09-26T09:21:21.000Z</time>
      </trkpt>
      <trkpt lat="42.26381" lon="2.0684">
        <ele>1110.24</ele>
        <time>2024-09-26T09:21:28.000Z</time>
      </trkpt>
      <trkpt lat="42.26379" lon="2.06827">
        <ele>1110.75</ele>
        <time>2024-09-26T09:21:35.000Z</time>
      </trkpt>
      <trkpt lat="42.26376" lon="2.06815">
        <ele>1111.27</ele>
        <time>2024-09-26T09:21:42.000Z</time>
      </trkpt>
      <trkpt lat="42.26371" lon="2.06803">
        <ele>1111.82</ele>
        <time>2024-09-26T09:21:49.000Z</time>
      </trkpt>
      <trkpt lat="42.26364" lon="2.06793">
        <ele>1112.49</ele>
        <time>2024-09-26T09:21:57.000Z</time>
      </trkpt>
      <trkpt lat="42.26357" lon="2.06784">
        <ele>1113.07</ele>
        <time>2024-09-26T09:22:04.000Z</time>
      </trkpt>
      <trkpt lat="42.26351" lon="2.06774">
        <ele>1113.66</ele>
        <time>2024-09-26T09:22:11.000Z</time>
      </trkpt>
      <trkpt lat="42.26351" lon="2.0676">
        <ele>1114.32</ele>
        <time>2024-09-26T09:22:19.000Z</time>
      </trkpt>
      <trkpt lat="42.26359" lon="2.06751">
        <ele>1114.89</ele>
        <time>2024-09-26T09:22:26.000Z</time>
      </trkpt>
      <trkpt lat="42.26366" lon="2.06742">
        <ele>1115.47</ele>
        <time>2024-09-26T09:22:33.000Z</time>
      </trkpt>
      <trkpt lat="42.26374" lon="2.06734">
        <ele>1116.14</ele>
        <time>2024-09-26T09:22:41.000Z</time>
      </trkpt>
      <trkpt lat="42.26381" lon="2.06723">
        <ele>1116.74</ele>
        <time>2024-09-26T09:22:48.000Z</time>
      </trkpt>
      <trkpt lat="42.26385" lon="2.06712">
        <ele>1117.43</ele>
        <time>2024-09-26T09:22:56.000Z</time>
      </trkpt>
      <trkpt lat="42.26384" lon="2.06699">
        <ele>1118.01</ele>
        <time>2024-09-26T09:23:03.000Z</time>
      </trkpt>
      <trkpt lat="42.26385" lon="2.06685">
        <ele>1118.57</ele>
        <time>2024-09-26T09:23:10.000Z</time>
      </trkpt>
      <trkpt lat="42.26387" lon="2.06671">
        <ele>1119.1</ele>
        <time>2024-09-26T09:23:17.000Z</time>
      </trkpt>
      <trkpt lat="42.26388" lon="2.06658">
        <ele>1119.65</ele>
        <time>2024-09-26T09:23:24.000Z</time>
      </trkpt>
      <trkpt lat="42.26388" lon="2.06644">
        <ele>1120.27</ele>
        <time>2024-09-26T09:23:32.000Z</time>
      </trkpt>
      <trkpt lat="42.2639" lon="2.06631">
        <ele>1120.99</ele>
        <time>2024-09-26T09:23:41.000Z</time>
      </trkpt>
      <trkpt lat="42.26391" lon="2.06619">
        <ele>1121.45</ele>
        <time>2024-09-26T09:23:47.000Z</time>
      </trkpt>
      <trkpt lat="42.26394" lon="2.06607">
        <ele>1121.93</ele>
        <time>2024-09-26T09:23:53.000Z</time>
      </trkpt>
      <trkpt lat="42.26397" lon="2.06594">
        <ele>1122.5</ele>
        <time>2024-09-26T09:24:00.000Z</time>
      </trkpt>
      <trkpt lat="42.264" lon="2.06582">
        <ele>1123.09</ele>
        <time>2024-09-26T09:24:07.000Z</time>
      </trkpt>
      <trkpt lat="42.26402" lon="2.06569">
        <ele>1123.66</ele>
        <time>2024-09-26T09:24:14.000Z</time>
      </trkpt>
      <trkpt lat="42.26403" lon="2.06556">
        <ele>1124.22</ele>
        <time>2024-09-26T09:24:21.000Z</time>
      </trkpt>
      <trkpt lat="42.26402" lon="2.06543">
        <ele>1124.69</ele>
        <time>2024-09-26T09:24:27.000Z</time>
      </trkpt>
      <trkpt lat="42.26401" lon="2.0653">
        <ele>1125.17</ele>
        <time>2024-09-26T09:24:33.000Z</time>
      </trkpt>
      <trkpt lat="42.26403" lon="2.06518">
        <ele>1125.8</ele>
        <time>2024-09-26T09:24:40.000Z</time>
      </trkpt>
      <trkpt lat="42.26404" lon="2.06505">
        <ele>1126.42</ele>
        <time>2024-09-26T09:24:46.000Z</time>
      </trkpt>
      <trkpt lat="42.26398" lon="2.06494">
        <ele>1127.09</ele>
        <time>2024-09-26T09:24:52.000Z</time>
      </trkpt>
      <trkpt lat="42.26392" lon="2.06483">
        <ele>1127.78</ele>
        <time>2024-09-26T09:24:58.000Z</time>
      </trkpt>
      <trkpt lat="42.26385" lon="2.06474">
        <ele>1128.57</ele>
        <time>2024-09-26T09:25:05.000Z</time>
      </trkpt>
      <trkpt lat="42.26377" lon="2.06465">
        <ele>1129.34</ele>
        <time>2024-09-26T09:25:12.000Z</time>
      </trkpt>
      <trkpt lat="42.26368" lon="2.06458">
        <ele>1130.11</ele>
        <time>2024-09-26T09:25:19.000Z</time>
      </trkpt>
      <trkpt lat="42.26359" lon="2.06453">
        <ele>1130.88</ele>
        <time>2024-09-26T09:25:26.000Z</time>
      </trkpt>
      <trkpt lat="42.26352" lon="2.06443">
        <ele>1131.84</ele>
        <time>2024-09-26T09:25:34.000Z</time>
      </trkpt>
      <trkpt lat="42.26346" lon="2.06432">
        <ele>1132.93</ele>
        <time>2024-09-26T09:25:41.000Z</time>
      </trkpt>
      <trkpt lat="42.26339" lon="2.06421">
        <ele>1134.17</ele>
        <time>2024-09-26T09:25:48.000Z</time>
      </trkpt>
      <trkpt lat="42.26334" lon="2.06409">
        <ele>1135.29</ele>
        <time>2024-09-26T09:25:54.000Z</time>
      </trkpt>
      <trkpt lat="42.26329" lon="2.06396">
        <ele>1136.24</ele>
        <time>2024-09-26T09:25:59.000Z</time>
      </trkpt>
      <trkpt lat="42.26322" lon="2.06386">
        <ele>1137.2</ele>
        <time>2024-09-26T09:26:04.000Z</time>
      </trkpt>
      <trkpt lat="42.26316" lon="2.06374">
        <ele>1138.17</ele>
        <time>2024-09-26T09:26:09.000Z</time>
      </trkpt>
      <trkpt lat="42.2631" lon="2.06363">
        <ele>1139.13</ele>
        <time>2024-09-26T09:26:14.000Z</time>
      </trkpt>
      <trkpt lat="42.26305" lon="2.06353">
        <ele>1140.09</ele>
        <time>2024-09-26T09:26:19.000Z</time>
      </trkpt>
      <trkpt lat="42.26301" lon="2.0634">
        <ele>1141.38</ele>
        <time>2024-09-26T09:26:26.000Z</time>
      </trkpt>
      <trkpt lat="42.26299" lon="2.06327">
        <ele>1142.61</ele>
        <time>2024-09-26T09:26:33.000Z</time>
      </trkpt>
      <trkpt lat="42.26296" lon="2.06313">
        <ele>1143.79</ele>
        <time>2024-09-26T09:26:40.000Z</time>
      </trkpt>
      <trkpt lat="42.26293" lon="2.06301">
        <ele>1144.94</ele>
        <time>2024-09-26T09:26:47.000Z</time>
      </trkpt>
      <trkpt lat="42.2629" lon="2.06289">
        <ele>1145.87</ele>
        <time>2024-09-26T09:26:53.000Z</time>
      </trkpt>
      <trkpt lat="42.26289" lon="2.06276">
        <ele>1146.91</ele>
        <time>2024-09-26T09:27:00.000Z</time>
      </trkpt>
      <trkpt lat="42.26286" lon="2.06263">
        <ele>1147.88</ele>
        <time>2024-09-26T09:27:07.000Z</time>
      </trkpt>
      <trkpt lat="42.26285" lon="2.06251">
        <ele>1148.67</ele>
        <time>2024-09-26T09:27:13.000Z</time>
      </trkpt>
      <trkpt lat="42.26283" lon="2.06239">
        <ele>1149.57</ele>
        <time>2024-09-26T09:27:20.000Z</time>
      </trkpt>
      <trkpt lat="42.26281" lon="2.06225">
        <ele>1150.42</ele>
        <time>2024-09-26T09:27:27.000Z</time>
      </trkpt>
      <trkpt lat="42.26279" lon="2.06212">
        <ele>1151.23</ele>
        <time>2024-09-26T09:27:34.000Z</time>
      </trkpt>
      <trkpt lat="42.26276" lon="2.062">
        <ele>1151.89</ele>
        <time>2024-09-26T09:27:40.000Z</time>
      </trkpt>
      <trkpt lat="42.26276" lon="2.06186">
        <ele>1152.63</ele>
        <time>2024-09-26T09:27:47.000Z</time>
      </trkpt>
      <trkpt lat="42.26274" lon="2.06173">
        <ele>1153.25</ele>
        <time>2024-09-26T09:27:53.000Z</time>
      </trkpt>
      <trkpt lat="42.26273" lon="2.0616">
        <ele>1153.88</ele>
        <time>2024-09-26T09:27:59.000Z</time>
      </trkpt>
      <trkpt lat="42.26273" lon="2.06146">
        <ele>1154.6</ele>
        <time>2024-09-26T09:28:06.000Z</time>
      </trkpt>
      <trkpt lat="42.26272" lon="2.06133">
        <ele>1155.32</ele>
        <time>2024-09-26T09:28:13.000Z</time>
      </trkpt>
      <trkpt lat="42.26271" lon="2.06121">
        <ele>1156.02</ele>
        <time>2024-09-26T09:28:20.000Z</time>
      </trkpt>
      <trkpt lat="42.26268" lon="2.06108">
        <ele>1156.81</ele>
        <time>2024-09-26T09:28:28.000Z</time>
      </trkpt>
      <trkpt lat="42.26265" lon="2.06096">
        <ele>1157.49</ele>
        <time>2024-09-26T09:28:35.000Z</time>
      </trkpt>
      <trkpt lat="42.26267" lon="2.06081">
        <ele>1158.08</ele>
        <time>2024-09-26T09:28:41.000Z</time>
      </trkpt>
      <trkpt lat="42.26264" lon="2.06068">
        <ele>1158.86</ele>
        <time>2024-09-26T09:28:49.000Z</time>
      </trkpt>
      <trkpt lat="42.26263" lon="2.06055">
        <ele>1159.44</ele>
        <time>2024-09-26T09:28:55.000Z</time>
      </trkpt>
      <trkpt lat="42.26263" lon="2.06041">
        <ele>1159.92</ele>
        <time>2024-09-26T09:29:00.000Z</time>
      </trkpt>
      <trkpt lat="42.26266" lon="2.06025">
        <ele>1160.4</ele>
        <time>2024-09-26T09:29:05.000Z</time>
      </trkpt>
      <trkpt lat="42.26268" lon="2.06011">
        <ele>1160.87</ele>
        <time>2024-09-26T09:29:10.000Z</time>
      </trkpt>
      <trkpt lat="42.26268" lon="2.05998">
        <ele>1161.33</ele>
        <time>2024-09-26T09:29:15.000Z</time>
      </trkpt>
      <trkpt lat="42.26267" lon="2.05983">
        <ele>1161.77</ele>
        <time>2024-09-26T09:29:20.000Z</time>
      </trkpt>
      <trkpt lat="42.26265" lon="2.05968">
        <ele>1162.18</ele>
        <time>2024-09-26T09:29:25.000Z</time>
      </trkpt>
      <trkpt lat="42.26264" lon="2.05951">
        <ele>1162.57</ele>
        <time>2024-09-26T09:29:30.000Z</time>
      </trkpt>
      <trkpt lat="42.26264" lon="2.05933">
        <ele>1162.95</ele>
        <time>2024-09-26T09:29:35.000Z</time>
      </trkpt>
      <trkpt lat="42.26261" lon="2.05917">
        <ele>1163.34</ele>
        <time>2024-09-26T09:29:40.000Z</time>
      </trkpt>
      <trkpt lat="42.2626" lon="2.05903">
        <ele>1163.73</ele>
        <time>2024-09-26T09:29:45.000Z</time>
      </trkpt>
      <trkpt lat="42.26259" lon="2.05887">
        <ele>1164.11</ele>
        <time>2024-09-26T09:29:50.000Z</time>
      </trkpt>
      <trkpt lat="42.26256" lon="2.05871">
        <ele>1164.47</ele>
        <time>2024-09-26T09:29:55.000Z</time>
      </trkpt>
      <trkpt lat="42.26252" lon="2.05858">
        <ele>1164.81</ele>
        <time>2024-09-26T09:30:00.000Z</time>
      </trkpt>
      <trkpt lat="42.26253" lon="2.05846">
        <ele>1165.21</ele>
        <time>2024-09-26T09:30:06.000Z</time>
      </trkpt>
      <trkpt lat="42.26253" lon="2.05831">
        <ele>1165.62</ele>
        <time>2024-09-26T09:30:12.000Z</time>
      </trkpt>
      <trkpt lat="42.26253" lon="2.05818">
        <ele>1166.07</ele>
        <time>2024-09-26T09:30:18.000Z</time>
      </trkpt>
      <trkpt lat="42.26256" lon="2.05806">
        <ele>1166.48</ele>
        <time>2024-09-26T09:30:23.000Z</time>
      </trkpt>
      <trkpt lat="42.26255" lon="2.05793">
        <ele>1166.98</ele>
        <time>2024-09-26T09:30:28.999Z</time>
      </trkpt>
      <trkpt lat="42.26253" lon="2.05781">
        <ele>1167.35</ele>
        <time>2024-09-26T09:30:33.999Z</time>
      </trkpt>
      <trkpt lat="42.26243" lon="2.05774">
        <ele>1167.7</ele>
        <time>2024-09-26T09:30:38.999Z</time>
      </trkpt>
      <trkpt lat="42.26233" lon="2.05769">
        <ele>1167.98</ele>
        <time>2024-09-26T09:30:43.999Z</time>
      </trkpt>
      <trkpt lat="42.26222" lon="2.05777">
        <ele>1168.25</ele>
        <time>2024-09-26T09:30:48.999Z</time>
      </trkpt>
      <trkpt lat="42.26214" lon="2.0579">
        <ele>1168.51</ele>
        <time>2024-09-26T09:30:53.999Z</time>
      </trkpt>
      <trkpt lat="42.26206" lon="2.05802">
        <ele>1168.81</ele>
        <time>2024-09-26T09:30:58.999Z</time>
      </trkpt>
      <trkpt lat="42.26199" lon="2.05812">
        <ele>1169.2</ele>
        <time>2024-09-26T09:31:03.999Z</time>
      </trkpt>
      <trkpt lat="42.2619" lon="2.0582">
        <ele>1169.76</ele>
        <time>2024-09-26T09:31:09.999Z</time>
      </trkpt>
      <trkpt lat="42.26183" lon="2.05827">
        <ele>1170.34</ele>
        <time>2024-09-26T09:31:14.999Z</time>
      </trkpt>
      <trkpt lat="42.26174" lon="2.05825">
        <ele>1171.44</ele>
        <time>2024-09-26T09:31:21.999Z</time>
      </trkpt>
      <trkpt lat="42.26168" lon="2.05816">
        <ele>1172.79</ele>
        <time>2024-09-26T09:31:28.999Z</time>
      </trkpt>
      <trkpt lat="42.26165" lon="2.05803">
        <ele>1174.59</ele>
        <time>2024-09-26T09:31:37.999Z</time>
      </trkpt>
      <trkpt lat="42.26162" lon="2.0579">
        <ele>1175.82</ele>
        <time>2024-09-26T09:31:43.999Z</time>
      </trkpt>
      <trkpt lat="42.26159" lon="2.05778">
        <ele>1177.33</ele>
        <time>2024-09-26T09:31:50.999Z</time>
      </trkpt>
      <trkpt lat="42.26154" lon="2.05766">
        <ele>1179.15</ele>
        <time>2024-09-26T09:31:58.999Z</time>
      </trkpt>
      <trkpt lat="42.26149" lon="2.05755">
        <ele>1181.04</ele>
        <time>2024-09-26T09:32:05.999Z</time>
      </trkpt>
      <trkpt lat="42.26143" lon="2.05745">
        <ele>1183.12</ele>
        <time>2024-09-26T09:32:12.999Z</time>
      </trkpt>
      <trkpt lat="42.26138" lon="2.05734">
        <ele>1185.17</ele>
        <time>2024-09-26T09:32:19.999Z</time>
      </trkpt>
      <trkpt lat="42.26134" lon="2.05723">
        <ele>1187.13</ele>
        <time>2024-09-26T09:32:26.999Z</time>
      </trkpt>
      <trkpt lat="42.26129" lon="2.05712">
        <ele>1188.93</ele>
        <time>2024-09-26T09:32:33.999Z</time>
      </trkpt>
      <trkpt lat="42.26125" lon="2.05701">
        <ele>1190.38</ele>
        <time>2024-09-26T09:32:39.999Z</time>
      </trkpt>
      <trkpt lat="42.2612" lon="2.05689">
        <ele>1192.18</ele>
        <time>2024-09-26T09:32:47.999Z</time>
      </trkpt>
      <trkpt lat="42.26116" lon="2.05678">
        <ele>1193.44</ele>
        <time>2024-09-26T09:32:53.999Z</time>
      </trkpt>
      <trkpt lat="42.26112" lon="2.05665">
        <ele>1194.82</ele>
        <time>2024-09-26T09:33:00.999Z</time>
      </trkpt>
      <trkpt lat="42.26112" lon="2.05653">
        <ele>1196.09</ele>
        <time>2024-09-26T09:33:07.999Z</time>
      </trkpt>
      <trkpt lat="42.2611" lon="2.05641">
        <ele>1197.27</ele>
        <time>2024-09-26T09:33:14.999Z</time>
      </trkpt>
      <trkpt lat="42.26108" lon="2.05628">
        <ele>1198.34</ele>
        <time>2024-09-26T09:33:21.999Z</time>
      </trkpt>
      <trkpt lat="42.26107" lon="2.05614">
        <ele>1199.31</ele>
        <time>2024-09-26T09:33:28.999Z</time>
      </trkpt>
      <trkpt lat="42.26103" lon="2.05602">
        <ele>1200.06</ele>
        <time>2024-09-26T09:33:34.999Z</time>
      </trkpt>
      <trkpt lat="42.26098" lon="2.05591">
        <ele>1200.79</ele>
        <time>2024-09-26T09:33:40.999Z</time>
      </trkpt>
      <trkpt lat="42.26096" lon="2.05578">
        <ele>1201.48</ele>
        <time>2024-09-26T09:33:46.999Z</time>
      </trkpt>
      <trkpt lat="42.26093" lon="2.05566">
        <ele>1202.06</ele>
        <time>2024-09-26T09:33:51.999Z</time>
      </trkpt>
      <trkpt lat="42.26089" lon="2.05553">
        <ele>1202.87</ele>
        <time>2024-09-26T09:33:58.999Z</time>
      </trkpt>
      <trkpt lat="42.26085" lon="2.05542">
        <ele>1203.51</ele>
        <time>2024-09-26T09:34:04.999Z</time>
      </trkpt>
      <trkpt lat="42.26078" lon="2.05533">
        <ele>1204.02</ele>
        <time>2024-09-26T09:34:09.999Z</time>
      </trkpt>
      <trkpt lat="42.26077" lon="2.05521">
        <ele>1204.51</ele>
        <time>2024-09-26T09:34:14.999Z</time>
      </trkpt>
      <trkpt lat="42.26076" lon="2.05508">
        <ele>1205.01</ele>
        <time>2024-09-26T09:34:19.999Z</time>
      </trkpt>
      <trkpt lat="42.26069" lon="2.05498">
        <ele>1205.58</ele>
        <time>2024-09-26T09:34:25.999Z</time>
      </trkpt>
      <trkpt lat="42.26065" lon="2.05485">
        <ele>1206.13</ele>
        <time>2024-09-26T09:34:31.999Z</time>
      </trkpt>
      <trkpt lat="42.26063" lon="2.05472">
        <ele>1206.67</ele>
        <time>2024-09-26T09:34:37.999Z</time>
      </trkpt>
      <trkpt lat="42.2606" lon="2.05459">
        <ele>1207.28</ele>
        <time>2024-09-26T09:34:44.999Z</time>
      </trkpt>
      <trkpt lat="42.26056" lon="2.05448">
        <ele>1207.76</ele>
        <time>2024-09-26T09:34:50.999Z</time>
      </trkpt>
      <trkpt lat="42.2605" lon="2.05434">
        <ele>1208.15</ele>
        <time>2024-09-26T09:34:55.999Z</time>
      </trkpt>
      <trkpt lat="42.26046" lon="2.05423">
        <ele>1208.62</ele>
        <time>2024-09-26T09:35:01.999Z</time>
      </trkpt>
      <trkpt lat="42.26043" lon="2.0541">
        <ele>1209.15</ele>
        <time>2024-09-26T09:35:08.999Z</time>
      </trkpt>
      <trkpt lat="42.26038" lon="2.05398">
        <ele>1209.59</ele>
        <time>2024-09-26T09:35:14.999Z</time>
      </trkpt>
      <trkpt lat="42.26036" lon="2.05385">
        <ele>1210.12</ele>
        <time>2024-09-26T09:35:21.999Z</time>
      </trkpt>
      <trkpt lat="42.26033" lon="2.05373">
        <ele>1210.73</ele>
        <time>2024-09-26T09:35:29.999Z</time>
      </trkpt>
      <trkpt lat="42.2603" lon="2.0536">
        <ele>1211.18</ele>
        <time>2024-09-26T09:35:35.999Z</time>
      </trkpt>
      <trkpt lat="42.2603" lon="2.05347">
        <ele>1211.7</ele>
        <time>2024-09-26T09:35:42.999Z</time>
      </trkpt>
      <trkpt lat="42.26027" lon="2.05334">
        <ele>1212.22</ele>
        <time>2024-09-26T09:35:49.999Z</time>
      </trkpt>
      <trkpt lat="42.26026" lon="2.05321">
        <ele>1212.7</ele>
        <time>2024-09-26T09:35:56.999Z</time>
      </trkpt>
      <trkpt lat="42.26022" lon="2.0531">
        <ele>1213.1</ele>
        <time>2024-09-26T09:36:02.999Z</time>
      </trkpt>
      <trkpt lat="42.26019" lon="2.05296">
        <ele>1213.54</ele>
        <time>2024-09-26T09:36:09.999Z</time>
      </trkpt>
      <trkpt lat="42.26015" lon="2.05284">
        <ele>1213.96</ele>
        <time>2024-09-26T09:36:16.999Z</time>
      </trkpt>
      <trkpt lat="42.26012" lon="2.05272">
        <ele>1214.35</ele>
        <time>2024-09-26T09:36:23.999Z</time>
      </trkpt>
      <trkpt lat="42.2601" lon="2.05259">
        <ele>1214.68</ele>
        <time>2024-09-26T09:36:29.999Z</time>
      </trkpt>
      <trkpt lat="42.26006" lon="2.05247">
        <ele>1215.06</ele>
        <time>2024-09-26T09:36:36.999Z</time>
      </trkpt>
      <trkpt lat="42.26002" lon="2.05234">
        <ele>1215.44</ele>
        <time>2024-09-26T09:36:43.999Z</time>
      </trkpt>
      <trkpt lat="42.26001" lon="2.05222">
        <ele>1215.75</ele>
        <time>2024-09-26T09:36:48.999Z</time>
      </trkpt>
      <trkpt lat="42.26" lon="2.05208">
        <ele>1216.17</ele>
        <time>2024-09-26T09:36:54.999Z</time>
      </trkpt>
      <trkpt lat="42.25999" lon="2.05193">
        <ele>1216.6</ele>
        <time>2024-09-26T09:36:59.999Z</time>
      </trkpt>
      <trkpt lat="42.25998" lon="2.0518">
        <ele>1217.15</ele>
        <time>2024-09-26T09:37:05.999Z</time>
      </trkpt>
      <trkpt lat="42.25998" lon="2.05167">
        <ele>1225.25</ele>
        <time>2024-09-26T09:41:19.999Z</time>
      </trkpt>
      <trkpt lat="42.26006" lon="2.05173">
        <ele>1227.83</ele>
        <time>2024-09-26T09:44:50.000Z</time>
      </trkpt>
      <trkpt lat="42.26016" lon="2.05169">
        <ele>1228.07</ele>
        <time>2024-09-26T09:44:55.000Z</time>
      </trkpt>
      <trkpt lat="42.26025" lon="2.05165">
        <ele>1228.29</ele>
        <time>2024-09-26T09:45:00.000Z</time>
      </trkpt>
      <trkpt lat="42.26034" lon="2.05162">
        <ele>1228.5</ele>
        <time>2024-09-26T09:45:05.000Z</time>
      </trkpt>
      <trkpt lat="42.26043" lon="2.05159">
        <ele>1228.69</ele>
        <time>2024-09-26T09:45:10.000Z</time>
      </trkpt>
      <trkpt lat="42.26053" lon="2.05157">
        <ele>1228.86</ele>
        <time>2024-09-26T09:45:15.000Z</time>
      </trkpt>
      <trkpt lat="42.26061" lon="2.05161">
        <ele>1229.02</ele>
        <time>2024-09-26T09:45:20.000Z</time>
      </trkpt>
      <trkpt lat="42.26067" lon="2.05173">
        <ele>1229.23</ele>
        <time>2024-09-26T09:45:27.000Z</time>
      </trkpt>
      <trkpt lat="42.26071" lon="2.05185">
        <ele>1229.38</ele>
        <time>2024-09-26T09:45:33.000Z</time>
      </trkpt>
      <trkpt lat="42.26074" lon="2.05198">
        <ele>1229.53</ele>
        <time>2024-09-26T09:45:39.000Z</time>
      </trkpt>
      <trkpt lat="42.26078" lon="2.0521">
        <ele>1229.64</ele>
        <time>2024-09-26T09:45:44.000Z</time>
      </trkpt>
      <trkpt lat="42.26083" lon="2.05222">
        <ele>1229.76</ele>
        <time>2024-09-26T09:45:50.000Z</time>
      </trkpt>
      <trkpt lat="42.26089" lon="2.05232">
        <ele>1229.85</ele>
        <time>2024-09-26T09:45:55.000Z</time>
      </trkpt>
      <trkpt lat="42.26096" lon="2.05242">
        <ele>1229.94</ele>
        <time>2024-09-26T09:46:00.000Z</time>
      </trkpt>
      <trkpt lat="42.26104" lon="2.05246">
        <ele>1230.03</ele>
        <time>2024-09-26T09:46:05.000Z</time>
      </trkpt>
      <trkpt lat="42.26114" lon="2.05242">
        <ele>1230.11</ele>
        <time>2024-09-26T09:46:10.000Z</time>
      </trkpt>
      <trkpt lat="42.2612" lon="2.05233">
        <ele>1230.19</ele>
        <time>2024-09-26T09:46:15.000Z</time>
      </trkpt>
      <trkpt lat="42.26123" lon="2.0522">
        <ele>1230.28</ele>
        <time>2024-09-26T09:46:20.000Z</time>
      </trkpt>
      <trkpt lat="42.26124" lon="2.05207">
        <ele>1230.37</ele>
        <time>2024-09-26T09:46:25.000Z</time>
      </trkpt>
      <trkpt lat="42.26123" lon="2.05195">
        <ele>1230.45</ele>
        <time>2024-09-26T09:46:30.000Z</time>
      </trkpt>
      <trkpt lat="42.26123" lon="2.05179">
        <ele>1230.55</ele>
        <time>2024-09-26T09:46:36.000Z</time>
      </trkpt>
      <trkpt lat="42.26122" lon="2.05166">
        <ele>1230.63</ele>
        <time>2024-09-26T09:46:41.000Z</time>
      </trkpt>
      <trkpt lat="42.26122" lon="2.05153">
        <ele>1230.71</ele>
        <time>2024-09-26T09:46:46.000Z</time>
      </trkpt>
      <trkpt lat="42.26119" lon="2.05139">
        <ele>1230.78</ele>
        <time>2024-09-26T09:46:51.000Z</time>
      </trkpt>
      <trkpt lat="42.26115" lon="2.0512">
        <ele>1230.85</ele>
        <time>2024-09-26T09:46:56.000Z</time>
      </trkpt>
      <trkpt lat="42.26112" lon="2.05099">
        <ele>1230.93</ele>
        <time>2024-09-26T09:47:01.000Z</time>
      </trkpt>
      <trkpt lat="42.26107" lon="2.05076">
        <ele>1231.13</ele>
        <time>2024-09-26T09:47:06.000Z</time>
      </trkpt>
      <trkpt lat="42.26099" lon="2.05051">
        <ele>1231.41</ele>
        <time>2024-09-26T09:47:11.000Z</time>
      </trkpt>
      <trkpt lat="42.26096" lon="2.05022">
        <ele>1231.76</ele>
        <time>2024-09-26T09:47:16.000Z</time>
      </trkpt>
      <trkpt lat="42.26095" lon="2.04992">
        <ele>1231.92</ele>
        <time>2024-09-26T09:47:21.000Z</time>
      </trkpt>
      <trkpt lat="42.26107" lon="2.04963">
        <ele>1232.03</ele>
        <time>2024-09-26T09:47:26.000Z</time>
      </trkpt>
      <trkpt lat="42.26119" lon="2.04932">
        <ele>1232.09</ele>
        <time>2024-09-26T09:47:31.000Z</time>
      </trkpt>
      <trkpt lat="42.2614" lon="2.04904">
        <ele>1232.13</ele>
        <time>2024-09-26T09:47:36.000Z</time>
      </trkpt>
      <trkpt lat="42.26144" lon="2.0487">
        <ele>1232.15</ele>
        <time>2024-09-26T09:47:41.000Z</time>
      </trkpt>
      <trkpt lat="42.26134" lon="2.04828">
        <ele>1232.24</ele>
        <time>2024-09-26T09:47:46.000Z</time>
      </trkpt>
      <trkpt lat="42.2612" lon="2.04798">
        <ele>1232.35</ele>
        <time>2024-09-26T09:47:51.000Z</time>
      </trkpt>
      <trkpt lat="42.26117" lon="2.04765">
        <ele>1232.46</ele>
        <time>2024-09-26T09:47:56.000Z</time>
      </trkpt>
      <trkpt lat="42.26119" lon="2.04734">
        <ele>1232.61</ele>
        <time>2024-09-26T09:48:01.000Z</time>
      </trkpt>
      <trkpt lat="42.2614" lon="2.04742">
        <ele>1232.89</ele>
        <time>2024-09-26T09:48:06.000Z</time>
      </trkpt>
      <trkpt lat="42.26159" lon="2.04765">
        <ele>1233.2</ele>
        <time>2024-09-26T09:48:11.000Z</time>
      </trkpt>
      <trkpt lat="42.26176" lon="2.04785">
        <ele>1233.79</ele>
        <time>2024-09-26T09:48:16.000Z</time>
      </trkpt>
      <trkpt lat="42.26197" lon="2.04804">
        <ele>1234.5</ele>
        <time>2024-09-26T09:48:21.000Z</time>
      </trkpt>
      <trkpt lat="42.26217" lon="2.04817">
        <ele>1235.08</ele>
        <time>2024-09-26T09:48:26.000Z</time>
      </trkpt>
      <trkpt lat="42.26225" lon="2.0481">
        <ele>1235.36</ele>
        <time>2024-09-26T09:48:31.000Z</time>
      </trkpt>
      <trkpt lat="42.26228" lon="2.04798">
        <ele>1235.87</ele>
        <time>2024-09-26T09:48:37.000Z</time>
      </trkpt>
      <trkpt lat="42.26231" lon="2.04785">
        <ele>1236.78</ele>
        <time>2024-09-26T09:48:45.000Z</time>
      </trkpt>
      <trkpt lat="42.26233" lon="2.04771">
        <ele>1237.58</ele>
        <time>2024-09-26T09:48:51.000Z</time>
      </trkpt>
      <trkpt lat="42.26237" lon="2.04757">
        <ele>1238.44</ele>
        <time>2024-09-26T09:48:57.000Z</time>
      </trkpt>
      <trkpt lat="42.2624" lon="2.04744">
        <ele>1239.41</ele>
        <time>2024-09-26T09:49:03.000Z</time>
      </trkpt>
      <trkpt lat="42.26242" lon="2.04732">
        <ele>1240.29</ele>
        <time>2024-09-26T09:49:08.000Z</time>
      </trkpt>
      <trkpt lat="42.26245" lon="2.0472">
        <ele>1241.4</ele>
        <time>2024-09-26T09:49:14.000Z</time>
      </trkpt>
      <trkpt lat="42.26248" lon="2.04707">
        <ele>1242.52</ele>
        <time>2024-09-26T09:49:20.000Z</time>
      </trkpt>
      <trkpt lat="42.26252" lon="2.04695">
        <ele>1243.67</ele>
        <time>2024-09-26T09:49:26.000Z</time>
      </trkpt>
      <trkpt lat="42.26256" lon="2.04683">
        <ele>1244.83</ele>
        <time>2024-09-26T09:49:32.000Z</time>
      </trkpt>
      <trkpt lat="42.2626" lon="2.04671">
        <ele>1246.02</ele>
        <time>2024-09-26T09:49:38.000Z</time>
      </trkpt>
      <trkpt lat="42.26265" lon="2.0466">
        <ele>1247.23</ele>
        <time>2024-09-26T09:49:44.000Z</time>
      </trkpt>
      <trkpt lat="42.26271" lon="2.04648">
        <ele>1248.57</ele>
        <time>2024-09-26T09:49:51.000Z</time>
      </trkpt>
      <trkpt lat="42.26277" lon="2.04636">
        <ele>1249.62</ele>
        <time>2024-09-26T09:49:57.000Z</time>
      </trkpt>
      <trkpt lat="42.26283" lon="2.04625">
        <ele>1250.56</ele>
        <time>2024-09-26T09:50:03.000Z</time>
      </trkpt>
      <trkpt lat="42.26287" lon="2.04613">
        <ele>1251.4</ele>
        <time>2024-09-26T09:50:09.000Z</time>
      </trkpt>
      <trkpt lat="42.26291" lon="2.04602">
        <ele>1252.14</ele>
        <time>2024-09-26T09:50:15.000Z</time>
      </trkpt>
      <trkpt lat="42.26294" lon="2.04589">
        <ele>1252.79</ele>
        <time>2024-09-26T09:50:21.000Z</time>
      </trkpt>
      <trkpt lat="42.26296" lon="2.04576">
        <ele>1253.37</ele>
        <time>2024-09-26T09:50:27.000Z</time>
      </trkpt>
      <trkpt lat="42.26291" lon="2.04564">
        <ele>1254.05</ele>
        <time>2024-09-26T09:50:35.000Z</time>
      </trkpt>
      <trkpt lat="42.26294" lon="2.04552">
        <ele>1254.51</ele>
        <time>2024-09-26T09:50:41.000Z</time>
      </trkpt>
      <trkpt lat="42.26294" lon="2.04538">
        <ele>1254.92</ele>
        <time>2024-09-26T09:50:47.000Z</time>
      </trkpt>
      <trkpt lat="42.26295" lon="2.04524">
        <ele>1255.36</ele>
        <time>2024-09-26T09:50:54.000Z</time>
      </trkpt>
      <trkpt lat="42.26294" lon="2.04511">
        <ele>1255.72</ele>
        <time>2024-09-26T09:51:00.000Z</time>
      </trkpt>
      <trkpt lat="42.26296" lon="2.04499">
        <ele>1256.04</ele>
        <time>2024-09-26T09:51:06.000Z</time>
      </trkpt>
      <trkpt lat="42.26297" lon="2.04486">
        <ele>1256.44</ele>
        <time>2024-09-26T09:51:14.000Z</time>
      </trkpt>
      <trkpt lat="42.263" lon="2.04472">
        <ele>1256.75</ele>
        <time>2024-09-26T09:51:21.000Z</time>
      </trkpt>
      <trkpt lat="42.26306" lon="2.04462">
        <ele>1256.99</ele>
        <time>2024-09-26T09:51:27.000Z</time>
      </trkpt>
      <trkpt lat="42.26311" lon="2.04451">
        <ele>1257.2</ele>
        <time>2024-09-26T09:51:33.000Z</time>
      </trkpt>
      <trkpt lat="42.26316" lon="2.04441">
        <ele>1257.37</ele>
        <time>2024-09-26T09:51:38.000Z</time>
      </trkpt>
      <trkpt lat="42.26322" lon="2.04432">
        <ele>1257.53</ele>
        <time>2024-09-26T09:51:43.000Z</time>
      </trkpt>
      <trkpt lat="42.26328" lon="2.04422">
        <ele>1257.7</ele>
        <time>2024-09-26T09:51:49.000Z</time>
      </trkpt>
      <trkpt lat="42.26333" lon="2.04412">
        <ele>1257.87</ele>
        <time>2024-09-26T09:51:55.000Z</time>
      </trkpt>
      <trkpt lat="42.26337" lon="2.044">
        <ele>1258.07</ele>
        <time>2024-09-26T09:52:03.000Z</time>
      </trkpt>
      <trkpt lat="42.2634" lon="2.04388">
        <ele>1258.25</ele>
        <time>2024-09-26T09:52:11.000Z</time>
      </trkpt>
      <trkpt lat="42.26345" lon="2.04376">
        <ele>1258.4</ele>
        <time>2024-09-26T09:52:18.000Z</time>
      </trkpt>
      <trkpt lat="42.26348" lon="2.04365">
        <ele>1258.54</ele>
        <time>2024-09-26T09:52:25.000Z</time>
      </trkpt>
      <trkpt lat="42.26352" lon="2.04354">
        <ele>1258.67</ele>
        <time>2024-09-26T09:52:32.000Z</time>
      </trkpt>
      <trkpt lat="42.26355" lon="2.04342">
        <ele>1258.79</ele>
        <time>2024-09-26T09:52:39.000Z</time>
      </trkpt>
      <trkpt lat="42.2636" lon="2.0433">
        <ele>1258.92</ele>
        <time>2024-09-26T09:52:46.000Z</time>
      </trkpt>
      <trkpt lat="42.26364" lon="2.04318">
        <ele>1259.07</ele>
        <time>2024-09-26T09:52:54.000Z</time>
      </trkpt>
      <trkpt lat="42.26367" lon="2.04306">
        <ele>1259.19</ele>
        <time>2024-09-26T09:53:01.000Z</time>
      </trkpt>
      <trkpt lat="42.26372" lon="2.04295">
        <ele>1259.32</ele>
        <time>2024-09-26T09:53:08.000Z</time>
      </trkpt>
      <trkpt lat="42.26382" lon="2.04295">
        <ele>1259.47</ele>
        <time>2024-09-26T09:53:16.000Z</time>
      </trkpt>
      <trkpt lat="42.26395" lon="2.04308">
        <ele>1259.57</ele>
        <time>2024-09-26T09:53:21.000Z</time>
      </trkpt>
      <trkpt lat="42.26415" lon="2.04316">
        <ele>1260.36</ele>
        <time>2024-09-26T09:53:26.000Z</time>
      </trkpt>
      <trkpt lat="42.26441" lon="2.04315">
        <ele>1260.77</ele>
        <time>2024-09-26T09:53:31.000Z</time>
      </trkpt>
      <trkpt lat="42.26466" lon="2.0434">
        <ele>1260.84</ele>
        <time>2024-09-26T09:53:36.000Z</time>
      </trkpt>
      <trkpt lat="42.2649" lon="2.0437">
        <ele>1262.38</ele>
        <time>2024-09-26T09:53:41.000Z</time>
      </trkpt>
      <trkpt lat="42.26507" lon="2.04393">
        <ele>1264.4</ele>
        <time>2024-09-26T09:53:46.000Z</time>
      </trkpt>
      <trkpt lat="42.2653" lon="2.04409">
        <ele>1266.22</ele>
        <time>2024-09-26T09:53:51.000Z</time>
      </trkpt>
      <trkpt lat="42.26552" lon="2.04427">
        <ele>1267.68</ele>
        <time>2024-09-26T09:53:56.000Z</time>
      </trkpt>
      <trkpt lat="42.26569" lon="2.04451">
        <ele>1269.07</ele>
        <time>2024-09-26T09:54:01.000Z</time>
      </trkpt>
      <trkpt lat="42.26588" lon="2.04473">
        <ele>1270.22</ele>
        <time>2024-09-26T09:54:06.000Z</time>
      </trkpt>
      <trkpt lat="42.26608" lon="2.04491">
        <ele>1270.97</ele>
        <time>2024-09-26T09:54:11.000Z</time>
      </trkpt>
      <trkpt lat="42.26623" lon="2.04511">
        <ele>1271.27</ele>
        <time>2024-09-26T09:54:16.000Z</time>
      </trkpt>
      <trkpt lat="42.26641" lon="2.04525">
        <ele>1271.5</ele>
        <time>2024-09-26T09:54:21.000Z</time>
      </trkpt>
      <trkpt lat="42.26662" lon="2.04538">
        <ele>1272.22</ele>
        <time>2024-09-26T09:54:26.000Z</time>
      </trkpt>
      <trkpt lat="42.26681" lon="2.04549">
        <ele>1273.06</ele>
        <time>2024-09-26T09:54:31.000Z</time>
      </trkpt>
      <trkpt lat="42.26704" lon="2.04569">
        <ele>1274.36</ele>
        <time>2024-09-26T09:54:36.000Z</time>
      </trkpt>
      <trkpt lat="42.26715" lon="2.04605">
        <ele>1275.29</ele>
        <time>2024-09-26T09:54:41.999Z</time>
      </trkpt>
      <trkpt lat="42.26724" lon="2.04635">
        <ele>1275.84</ele>
        <time>2024-09-26T09:54:46.999Z</time>
      </trkpt>
      <trkpt lat="42.26743" lon="2.04658">
        <ele>1276.35</ele>
        <time>2024-09-26T09:54:51.999Z</time>
      </trkpt>
      <trkpt lat="42.26762" lon="2.04689">
        <ele>1276.82</ele>
        <time>2024-09-26T09:54:56.999Z</time>
      </trkpt>
      <trkpt lat="42.26775" lon="2.04718">
        <ele>1277.33</ele>
        <time>2024-09-26T09:55:01.999Z</time>
      </trkpt>
      <trkpt lat="42.26793" lon="2.04731">
        <ele>1277.64</ele>
        <time>2024-09-26T09:55:06.999Z</time>
      </trkpt>
      <trkpt lat="42.26816" lon="2.04741">
        <ele>1278.19</ele>
        <time>2024-09-26T09:55:11.999Z</time>
      </trkpt>
      <trkpt lat="42.26832" lon="2.04739">
        <ele>1278.27</ele>
        <time>2024-09-26T09:55:16.999Z</time>
      </trkpt>
      <trkpt lat="42.26831" lon="2.04712">
        <ele>1278.24</ele>
        <time>2024-09-26T09:55:21.999Z</time>
      </trkpt>
      <trkpt lat="42.26833" lon="2.04679">
        <ele>1278.33</ele>
        <time>2024-09-26T09:55:26.999Z</time>
      </trkpt>
      <trkpt lat="42.26843" lon="2.04652">
        <ele>1278.34</ele>
        <time>2024-09-26T09:55:31.999Z</time>
      </trkpt>
      <trkpt lat="42.26854" lon="2.04623">
        <ele>1278.28</ele>
        <time>2024-09-26T09:55:36.999Z</time>
      </trkpt>
      <trkpt lat="42.26864" lon="2.04587">
        <ele>1278.17</ele>
        <time>2024-09-26T09:55:41.999Z</time>
      </trkpt>
      <trkpt lat="42.26867" lon="2.04552">
        <ele>1277.88</ele>
        <time>2024-09-26T09:55:46.999Z</time>
      </trkpt>
      <trkpt lat="42.26867" lon="2.04518">
        <ele>1277.47</ele>
        <time>2024-09-26T09:55:51.999Z</time>
      </trkpt>
      <trkpt lat="42.26871" lon="2.04489">
        <ele>1277.32</ele>
        <time>2024-09-26T09:55:56.999Z</time>
      </trkpt>
      <trkpt lat="42.26889" lon="2.0447">
        <ele>1277.11</ele>
        <time>2024-09-26T09:56:01.999Z</time>
      </trkpt>
      <trkpt lat="42.26912" lon="2.04473">
        <ele>1276.95</ele>
        <time>2024-09-26T09:56:06.999Z</time>
      </trkpt>
      <trkpt lat="42.26952" lon="2.04476">
        <ele>1276.51</ele>
        <time>2024-09-26T09:56:11.999Z</time>
      </trkpt>
      <trkpt lat="42.26994" lon="2.0448">
        <ele>1276.05</ele>
        <time>2024-09-26T09:56:16.999Z</time>
      </trkpt>
      <trkpt lat="42.27033" lon="2.04487">
        <ele>1275.91</ele>
        <time>2024-09-26T09:56:21.999Z</time>
      </trkpt>
      <trkpt lat="42.27067" lon="2.04509">
        <ele>1275.67</ele>
        <time>2024-09-26T09:56:26.999Z</time>
      </trkpt>
      <trkpt lat="42.27099" lon="2.04552">
        <ele>1275.02</ele>
        <time>2024-09-26T09:56:31.999Z</time>
      </trkpt>
      <trkpt lat="42.2713" lon="2.04601">
        <ele>1274.01</ele>
        <time>2024-09-26T09:56:36.999Z</time>
      </trkpt>
      <trkpt lat="42.27159" lon="2.04651">
        <ele>1271.8</ele>
        <time>2024-09-26T09:56:41.999Z</time>
      </trkpt>
      <trkpt lat="42.27192" lon="2.04677">
        <ele>1270.56</ele>
        <time>2024-09-26T09:56:46.999Z</time>
      </trkpt>
      <trkpt lat="42.27225" lon="2.04674">
        <ele>1269.61</ele>
        <time>2024-09-26T09:56:51.999Z</time>
      </trkpt>
      <trkpt lat="42.27255" lon="2.04676">
        <ele>1267.93</ele>
        <time>2024-09-26T09:56:56.999Z</time>
      </trkpt>
      <trkpt lat="42.27254" lon="2.04636">
        <ele>1265.42</ele>
        <time>2024-09-26T09:57:01.999Z</time>
      </trkpt>
      <trkpt lat="42.27226" lon="2.04613">
        <ele>1264.99</ele>
        <time>2024-09-26T09:57:06.999Z</time>
      </trkpt>
      <trkpt lat="42.27202" lon="2.04591">
        <ele>1264.28</ele>
        <time>2024-09-26T09:57:11.999Z</time>
      </trkpt>
      <trkpt lat="42.27183" lon="2.04566">
        <ele>1262.29</ele>
        <time>2024-09-26T09:57:16.999Z</time>
      </trkpt>
      <trkpt lat="42.27177" lon="2.04535">
        <ele>1259.85</ele>
        <time>2024-09-26T09:57:21.999Z</time>
      </trkpt>
      <trkpt lat="42.27177" lon="2.045">
        <ele>1256.78</ele>
        <time>2024-09-26T09:57:26.999Z</time>
      </trkpt>
      <trkpt lat="42.27174" lon="2.0445">
        <ele>1254.47</ele>
        <time>2024-09-26T09:57:31.999Z</time>
      </trkpt>
      <trkpt lat="42.27146" lon="2.04406">
        <ele>1252.75</ele>
        <time>2024-09-26T09:57:36.999Z</time>
      </trkpt>
      <trkpt lat="42.2714" lon="2.04371">
        <ele>1251.21</ele>
        <time>2024-09-26T09:57:41.999Z</time>
      </trkpt>
      <trkpt lat="42.27172" lon="2.04356">
        <ele>1250.45</ele>
        <time>2024-09-26T09:57:46.999Z</time>
      </trkpt>
      <trkpt lat="42.27191" lon="2.04321">
        <ele>1249.08</ele>
        <time>2024-09-26T09:57:51.999Z</time>
      </trkpt>
      <trkpt lat="42.27168" lon="2.04304">
        <ele>1248.25</ele>
        <time>2024-09-26T09:57:56.999Z</time>
      </trkpt>
      <trkpt lat="42.27153" lon="2.04299">
        <ele>1247.85</ele>
        <time>2024-09-26T09:58:01.999Z</time>
      </trkpt>
      <trkpt lat="42.27144" lon="2.04301">
        <ele>1247.62</ele>
        <time>2024-09-26T09:58:06.999Z</time>
      </trkpt>
      <trkpt lat="42.27134" lon="2.04302">
        <ele>1247.51</ele>
        <time>2024-09-26T09:58:12.999Z</time>
      </trkpt>
      <trkpt lat="42.27124" lon="2.04304">
        <ele>1247.63</ele>
        <time>2024-09-26T09:58:17.999Z</time>
      </trkpt>
      <trkpt lat="42.27116" lon="2.04299">
        <ele>1247.75</ele>
        <time>2024-09-26T09:58:22.999Z</time>
      </trkpt>
      <trkpt lat="42.27112" lon="2.04285">
        <ele>1247.9</ele>
        <time>2024-09-26T09:58:28.999Z</time>
      </trkpt>
      <trkpt lat="42.27112" lon="2.04272">
        <ele>1247.99</ele>
        <time>2024-09-26T09:58:33.999Z</time>
      </trkpt>
      <trkpt lat="42.27116" lon="2.0426">
        <ele>1248</ele>
        <time>2024-09-26T09:58:38.999Z</time>
      </trkpt>
      <trkpt lat="42.27122" lon="2.0425">
        <ele>1247.91</ele>
        <time>2024-09-26T09:58:43.999Z</time>
      </trkpt>
      <trkpt lat="42.27128" lon="2.04241">
        <ele>1247.65</ele>
        <time>2024-09-26T09:58:48.999Z</time>
      </trkpt>
      <trkpt lat="42.27135" lon="2.0423">
        <ele>1247.28</ele>
        <time>2024-09-26T09:58:55.999Z</time>
      </trkpt>
      <trkpt lat="42.27142" lon="2.04221">
        <ele>1246.9</ele>
        <time>2024-09-26T09:59:03.999Z</time>
      </trkpt>
      <trkpt lat="42.27148" lon="2.04209">
        <ele>1246.79</ele>
        <time>2024-09-26T09:59:11.999Z</time>
      </trkpt>
      <trkpt lat="42.27152" lon="2.04197">
        <ele>1246.91</ele>
        <time>2024-09-26T09:59:16.999Z</time>
      </trkpt>
      <trkpt lat="42.27157" lon="2.04187">
        <ele>1247.19</ele>
        <time>2024-09-26T09:59:21.999Z</time>
      </trkpt>
      <trkpt lat="42.27163" lon="2.04175">
        <ele>1247.66</ele>
        <time>2024-09-26T09:59:29.999Z</time>
      </trkpt>
      <trkpt lat="42.27167" lon="2.04164">
        <ele>1248.16</ele>
        <time>2024-09-26T09:59:35.999Z</time>
      </trkpt>
      <trkpt lat="42.27169" lon="2.04152">
        <ele>1248.77</ele>
        <time>2024-09-26T09:59:42.999Z</time>
      </trkpt>
      <trkpt lat="42.27171" lon="2.04139">
        <ele>1249.32</ele>
        <time>2024-09-26T09:59:48.999Z</time>
      </trkpt>
      <trkpt lat="42.27173" lon="2.04125">
        <ele>1249.92</ele>
        <time>2024-09-26T09:59:54.999Z</time>
      </trkpt>
      <trkpt lat="42.27175" lon="2.04112">
        <ele>1250.7</ele>
        <time>2024-09-26T10:00:00.999Z</time>
      </trkpt>
      <trkpt lat="42.27175" lon="2.04099">
        <ele>1251.56</ele>
        <time>2024-09-26T10:00:06.999Z</time>
      </trkpt>
      <trkpt lat="42.27175" lon="2.04086">
        <ele>1252.24</ele>
        <time>2024-09-26T10:00:11.999Z</time>
      </trkpt>
      <trkpt lat="42.27176" lon="2.04073">
        <ele>1252.95</ele>
        <time>2024-09-26T10:00:16.999Z</time>
      </trkpt>
      <trkpt lat="42.27175" lon="2.0406">
        <ele>1253.86</ele>
        <time>2024-09-26T10:00:22.999Z</time>
      </trkpt>
      <trkpt lat="42.27174" lon="2.04047">
        <ele>1254.76</ele>
        <time>2024-09-26T10:00:28.999Z</time>
      </trkpt>
      <trkpt lat="42.27172" lon="2.04035">
        <ele>1255.43</ele>
        <time>2024-09-26T10:00:33.999Z</time>
      </trkpt>
      <trkpt lat="42.2717" lon="2.04023">
        <ele>1256.01</ele>
        <time>2024-09-26T10:00:38.999Z</time>
      </trkpt>
      <trkpt lat="42.27169" lon="2.04009">
        <ele>1256.54</ele>
        <time>2024-09-26T10:00:43.999Z</time>
      </trkpt>
      <trkpt lat="42.27169" lon="2.03995">
        <ele>1257.02</ele>
        <time>2024-09-26T10:00:48.999Z</time>
      </trkpt>
      <trkpt lat="42.27168" lon="2.03982">
        <ele>1257.45</ele>
        <time>2024-09-26T10:00:53.999Z</time>
      </trkpt>
      <trkpt lat="42.27166" lon="2.03968">
        <ele>1257.8</ele>
        <time>2024-09-26T10:00:58.999Z</time>
      </trkpt>
      <trkpt lat="42.27164" lon="2.03952">
        <ele>1258.11</ele>
        <time>2024-09-26T10:01:03.999Z</time>
      </trkpt>
      <trkpt lat="42.27162" lon="2.03938">
        <ele>1258.39</ele>
        <time>2024-09-26T10:01:08.999Z</time>
      </trkpt>
      <trkpt lat="42.27161" lon="2.03925">
        <ele>1258.62</ele>
        <time>2024-09-26T10:01:13.999Z</time>
      </trkpt>
      <trkpt lat="42.27159" lon="2.03911">
        <ele>1258.86</ele>
        <time>2024-09-26T10:01:18.999Z</time>
      </trkpt>
      <trkpt lat="42.27156" lon="2.03897">
        <ele>1259.08</ele>
        <time>2024-09-26T10:01:23.999Z</time>
      </trkpt>
      <trkpt lat="42.27154" lon="2.03884">
        <ele>1259.3</ele>
        <time>2024-09-26T10:01:28.999Z</time>
      </trkpt>
      <trkpt lat="42.27152" lon="2.03869">
        <ele>1259.55</ele>
        <time>2024-09-26T10:01:33.999Z</time>
      </trkpt>
      <trkpt lat="42.27149" lon="2.03854">
        <ele>1259.77</ele>
        <time>2024-09-26T10:01:38.999Z</time>
      </trkpt>
      <trkpt lat="42.27144" lon="2.0384">
        <ele>1260.06</ele>
        <time>2024-09-26T10:01:43.999Z</time>
      </trkpt>
      <trkpt lat="42.2714" lon="2.03826">
        <ele>1260.29</ele>
        <time>2024-09-26T10:01:48.999Z</time>
      </trkpt>
      <trkpt lat="42.27137" lon="2.0381">
        <ele>1260.45</ele>
        <time>2024-09-26T10:01:53.999Z</time>
      </trkpt>
      <trkpt lat="42.27133" lon="2.03792">
        <ele>1260.54</ele>
        <time>2024-09-26T10:01:58.999Z</time>
      </trkpt>
      <trkpt lat="42.2713" lon="2.03773">
        <ele>1260.62</ele>
        <time>2024-09-26T10:02:03.999Z</time>
      </trkpt>
      <trkpt lat="42.27129" lon="2.03749">
        <ele>1260.68</ele>
        <time>2024-09-26T10:02:08.999Z</time>
      </trkpt>
      <trkpt lat="42.27133" lon="2.03726">
        <ele>1260.69</ele>
        <time>2024-09-26T10:02:13.999Z</time>
      </trkpt>
      <trkpt lat="42.27125" lon="2.03698">
        <ele>1260.34</ele>
        <time>2024-09-26T10:02:18.999Z</time>
      </trkpt>
      <trkpt lat="42.27108" lon="2.03694">
        <ele>1260.08</ele>
        <time>2024-09-26T10:02:23.999Z</time>
      </trkpt>
      <trkpt lat="42.271" lon="2.03701">
        <ele>1260.01</ele>
        <time>2024-09-26T10:02:30.999Z</time>
      </trkpt>
      <trkpt lat="42.27092" lon="2.03707">
        <ele>1260.02</ele>
        <time>2024-09-26T10:02:36.999Z</time>
      </trkpt>
      <trkpt lat="42.27083" lon="2.03714">
        <ele>1260.23</ele>
        <time>2024-09-26T10:02:43.999Z</time>
      </trkpt>
      <trkpt lat="42.27076" lon="2.03722">
        <ele>1260.49</ele>
        <time>2024-09-26T10:02:48.999Z</time>
      </trkpt>
      <trkpt lat="42.27071" lon="2.03732">
        <ele>1260.81</ele>
        <time>2024-09-26T10:02:53.999Z</time>
      </trkpt>
      <trkpt lat="42.27068" lon="2.03744">
        <ele>1261.06</ele>
        <time>2024-09-26T10:02:58.999Z</time>
      </trkpt>
      <trkpt lat="42.27066" lon="2.03759">
        <ele>1261.29</ele>
        <time>2024-09-26T10:03:04.999Z</time>
      </trkpt>
      <trkpt lat="42.27065" lon="2.03772">
        <ele>1261.52</ele>
        <time>2024-09-26T10:03:10.999Z</time>
      </trkpt>
      <trkpt lat="42.27065" lon="2.03787">
        <ele>1261.76</ele>
        <time>2024-09-26T10:03:16.999Z</time>
      </trkpt>
      <trkpt lat="42.27065" lon="2.038">
        <ele>1261.97</ele>
        <time>2024-09-26T10:03:21.999Z</time>
      </trkpt>
      <trkpt lat="42.27064" lon="2.03813">
        <ele>1262.2</ele>
        <time>2024-09-26T10:03:26.999Z</time>
      </trkpt>
      <trkpt lat="42.27062" lon="2.03825">
        <ele>1262.54</ele>
        <time>2024-09-26T10:03:33.999Z</time>
      </trkpt>
      <trkpt lat="42.27062" lon="2.03838">
        <ele>1262.83</ele>
        <time>2024-09-26T10:03:39.999Z</time>
      </trkpt>
      <trkpt lat="42.27061" lon="2.03851">
        <ele>1263.15</ele>
        <time>2024-09-26T10:03:46.999Z</time>
      </trkpt>
      <trkpt lat="42.2706" lon="2.03864">
        <ele>1263.47</ele>
        <time>2024-09-26T10:03:53.999Z</time>
      </trkpt>
      <trkpt lat="42.27059" lon="2.03877">
        <ele>1263.83</ele>
        <time>2024-09-26T10:04:01.999Z</time>
      </trkpt>
      <trkpt lat="42.27056" lon="2.0389">
        <ele>1264.15</ele>
        <time>2024-09-26T10:04:08.999Z</time>
      </trkpt>
      <trkpt lat="42.27056" lon="2.03902">
        <ele>1264.4</ele>
        <time>2024-09-26T10:04:14.999Z</time>
      </trkpt>
      <trkpt lat="42.27054" lon="2.03916">
        <ele>1264.7</ele>
        <time>2024-09-26T10:04:21.999Z</time>
      </trkpt>
      <trkpt lat="42.2705" lon="2.03927">
        <ele>1264.99</ele>
        <time>2024-09-26T10:04:28.999Z</time>
      </trkpt>
      <trkpt lat="42.27048" lon="2.0394">
        <ele>1265.32</ele>
        <time>2024-09-26T10:04:36.999Z</time>
      </trkpt>
      <trkpt lat="42.27045" lon="2.03953">
        <ele>1265.65</ele>
        <time>2024-09-26T10:04:44.999Z</time>
      </trkpt>
      <trkpt lat="42.27045" lon="2.03967">
        <ele>1265.95</ele>
        <time>2024-09-26T10:04:51.999Z</time>
      </trkpt>
      <trkpt lat="42.27041" lon="2.03979">
        <ele>1266.26</ele>
        <time>2024-09-26T10:04:58.999Z</time>
      </trkpt>
      <trkpt lat="42.27033" lon="2.03985">
        <ele>1266.59</ele>
        <time>2024-09-26T10:05:05.999Z</time>
      </trkpt>
      <trkpt lat="42.27025" lon="2.03977">
        <ele>1266.92</ele>
        <time>2024-09-26T10:05:12.999Z</time>
      </trkpt>
      <trkpt lat="42.27022" lon="2.03965">
        <ele>1267.23</ele>
        <time>2024-09-26T10:05:19.999Z</time>
      </trkpt>
      <trkpt lat="42.27018" lon="2.03954">
        <ele>1267.45</ele>
        <time>2024-09-26T10:05:24.999Z</time>
      </trkpt>
      <trkpt lat="42.27016" lon="2.03941">
        <ele>1267.73</ele>
        <time>2024-09-26T10:05:30.999Z</time>
      </trkpt>
      <trkpt lat="42.27011" lon="2.03929">
        <ele>1268.04</ele>
        <time>2024-09-26T10:05:37.999Z</time>
      </trkpt>
      <trkpt lat="42.27006" lon="2.03918">
        <ele>1268.3</ele>
        <time>2024-09-26T10:05:43.999Z</time>
      </trkpt>
      <trkpt lat="42.27001" lon="2.03907">
        <ele>1268.58</ele>
        <time>2024-09-26T10:05:49.999Z</time>
      </trkpt>
      <trkpt lat="42.26992" lon="2.03901">
        <ele>1271.99</ele>
        <time>2024-09-26T10:08:55.000Z</time>
      </trkpt>
      <trkpt lat="42.26986" lon="2.03892">
        <ele>1272.65</ele>
        <time>2024-09-26T10:09:02.000Z</time>
      </trkpt>
      <trkpt lat="42.26983" lon="2.0388">
        <ele>1273.31</ele>
        <time>2024-09-26T10:09:10.000Z</time>
      </trkpt>
      <trkpt lat="42.26981" lon="2.03867">
        <ele>1273.83</ele>
        <time>2024-09-26T10:09:17.000Z</time>
      </trkpt>
      <trkpt lat="42.26981" lon="2.03854">
        <ele>1274.35</ele>
        <time>2024-09-26T10:09:25.000Z</time>
      </trkpt>
      <trkpt lat="42.26981" lon="2.03841">
        <ele>1274.87</ele>
        <time>2024-09-26T10:09:34.000Z</time>
      </trkpt>
      <trkpt lat="42.26982" lon="2.03827">
        <ele>1275.24</ele>
        <time>2024-09-26T10:09:41.000Z</time>
      </trkpt>
      <trkpt lat="42.26982" lon="2.03814">
        <ele>1275.53</ele>
        <time>2024-09-26T10:09:47.000Z</time>
      </trkpt>
      <trkpt lat="42.2698" lon="2.03803">
        <ele>1275.76</ele>
        <time>2024-09-26T10:09:52.000Z</time>
      </trkpt>
      <trkpt lat="42.26978" lon="2.03789">
        <ele>1276.07</ele>
        <time>2024-09-26T10:09:59.000Z</time>
      </trkpt>
      <trkpt lat="42.26977" lon="2.03776">
        <ele>1276.36</ele>
        <time>2024-09-26T10:10:06.000Z</time>
      </trkpt>
      <trkpt lat="42.26978" lon="2.03762">
        <ele>1276.69</ele>
        <time>2024-09-26T10:10:14.000Z</time>
      </trkpt>
      <trkpt lat="42.26978" lon="2.03748">
        <ele>1276.93</ele>
        <time>2024-09-26T10:10:20.000Z</time>
      </trkpt>
      <trkpt lat="42.26979" lon="2.03736">
        <ele>1277.26</ele>
        <time>2024-09-26T10:10:28.000Z</time>
      </trkpt>
      <trkpt lat="42.26982" lon="2.03723">
        <ele>1277.5</ele>
        <time>2024-09-26T10:10:34.000Z</time>
      </trkpt>
      <trkpt lat="42.26983" lon="2.03711">
        <ele>1277.81</ele>
        <time>2024-09-26T10:10:41.000Z</time>
      </trkpt>
      <trkpt lat="42.26981" lon="2.03699">
        <ele>1278.22</ele>
        <time>2024-09-26T10:10:50.000Z</time>
      </trkpt>
      <trkpt lat="42.2698" lon="2.03686">
        <ele>1278.59</ele>
        <time>2024-09-26T10:10:58.000Z</time>
      </trkpt>
      <trkpt lat="42.26978" lon="2.03674">
        <ele>1278.89</ele>
        <time>2024-09-26T10:11:05.000Z</time>
      </trkpt>
      <trkpt lat="42.26973" lon="2.03661">
        <ele>1279.13</ele>
        <time>2024-09-26T10:11:11.000Z</time>
      </trkpt>
      <trkpt lat="42.2697" lon="2.03646">
        <ele>1279.41</ele>
        <time>2024-09-26T10:11:18.000Z</time>
      </trkpt>
      <trkpt lat="42.26967" lon="2.03634">
        <ele>1279.59</ele>
        <time>2024-09-26T10:11:23.000Z</time>
      </trkpt>
      <trkpt lat="42.26964" lon="2.03622">
        <ele>1279.95</ele>
        <time>2024-09-26T10:11:32.000Z</time>
      </trkpt>
      <trkpt lat="42.26964" lon="2.03608">
        <ele>1280.18</ele>
        <time>2024-09-26T10:11:37.000Z</time>
      </trkpt>
      <trkpt lat="42.2696" lon="2.03595">
        <ele>1280.54</ele>
        <time>2024-09-26T10:11:43.000Z</time>
      </trkpt>
      <trkpt lat="42.2696" lon="2.03582">
        <ele>1281.09</ele>
        <time>2024-09-26T10:11:50.000Z</time>
      </trkpt>
      <trkpt lat="42.26963" lon="2.0357">
        <ele>1281.78</ele>
        <time>2024-09-26T10:11:57.000Z</time>
      </trkpt>
      <trkpt lat="42.26969" lon="2.03561">
        <ele>1282.62</ele>
        <time>2024-09-26T10:12:04.000Z</time>
      </trkpt>
      <trkpt lat="42.26979" lon="2.0355">
        <ele>1283.36</ele>
        <time>2024-09-26T10:12:10.000Z</time>
      </trkpt>
      <trkpt lat="42.2699" lon="2.03539">
        <ele>1284.13</ele>
        <time>2024-09-26T10:12:15.000Z</time>
      </trkpt>
      <trkpt lat="42.26997" lon="2.03531">
        <ele>1285.2</ele>
        <time>2024-09-26T10:12:21.000Z</time>
      </trkpt>
      <trkpt lat="42.27002" lon="2.03521">
        <ele>1286.45</ele>
        <time>2024-09-26T10:12:28.000Z</time>
      </trkpt>
      <trkpt lat="42.2701" lon="2.03514">
        <ele>1287.37</ele>
        <time>2024-09-26T10:12:33.000Z</time>
      </trkpt>
      <trkpt lat="42.27019" lon="2.03511">
        <ele>1288.32</ele>
        <time>2024-09-26T10:12:38.000Z</time>
      </trkpt>
      <trkpt lat="42.27029" lon="2.03505">
        <ele>1289.5</ele>
        <time>2024-09-26T10:12:44.000Z</time>
      </trkpt>
      <trkpt lat="42.27038" lon="2.035">
        <ele>1290.95</ele>
        <time>2024-09-26T10:12:51.000Z</time>
      </trkpt>
      <trkpt lat="42.27047" lon="2.035">
        <ele>1292.17</ele>
        <time>2024-09-26T10:12:57.000Z</time>
      </trkpt>
      <trkpt lat="42.27057" lon="2.035">
        <ele>1293.57</ele>
        <time>2024-09-26T10:13:04.000Z</time>
      </trkpt>
      <trkpt lat="42.27066" lon="2.03494">
        <ele>1294.74</ele>
        <time>2024-09-26T10:13:10.000Z</time>
      </trkpt>
      <trkpt lat="42.27071" lon="2.03481">
        <ele>1295.7</ele>
        <time>2024-09-26T10:13:15.000Z</time>
      </trkpt>
      <trkpt lat="42.27076" lon="2.03468">
        <ele>1296.61</ele>
        <time>2024-09-26T10:13:20.000Z</time>
      </trkpt>
      <trkpt lat="42.27082" lon="2.03452">
        <ele>1297.49</ele>
        <time>2024-09-26T10:13:25.000Z</time>
      </trkpt>
      <trkpt lat="42.2709" lon="2.03444">
        <ele>1298.49</ele>
        <time>2024-09-26T10:13:31.000Z</time>
      </trkpt>
      <trkpt lat="42.27097" lon="2.03435">
        <ele>1299.63</ele>
        <time>2024-09-26T10:13:38.000Z</time>
      </trkpt>
      <trkpt lat="42.271" lon="2.03423">
        <ele>1300.4</ele>
        <time>2024-09-26T10:13:43.000Z</time>
      </trkpt>
      <trkpt lat="42.27107" lon="2.03413">
        <ele>1301.28</ele>
        <time>2024-09-26T10:13:49.000Z</time>
      </trkpt>
      <trkpt lat="42.27119" lon="2.03409">
        <ele>1301.97</ele>
        <time>2024-09-26T10:13:54.000Z</time>
      </trkpt>
      <trkpt lat="42.27129" lon="2.03403">
        <ele>1302.94</ele>
        <time>2024-09-26T10:14:01.000Z</time>
      </trkpt>
      <trkpt lat="42.27138" lon="2.03396">
        <ele>1304.02</ele>
        <time>2024-09-26T10:14:09.000Z</time>
      </trkpt>
      <trkpt lat="42.27146" lon="2.03388">
        <ele>1304.92</ele>
        <time>2024-09-26T10:14:16.000Z</time>
      </trkpt>
      <trkpt lat="42.27153" lon="2.03379">
        <ele>1305.67</ele>
        <time>2024-09-26T10:14:22.000Z</time>
      </trkpt>
      <trkpt lat="42.27161" lon="2.03372">
        <ele>1306.29</ele>
        <time>2024-09-26T10:14:27.000Z</time>
      </trkpt>
      <trkpt lat="42.27168" lon="2.03364">
        <ele>1307.02</ele>
        <time>2024-09-26T10:14:33.000Z</time>
      </trkpt>
      <trkpt lat="42.27176" lon="2.03355">
        <ele>1307.74</ele>
        <time>2024-09-26T10:14:39.000Z</time>
      </trkpt>
      <trkpt lat="42.27182" lon="2.03345">
        <ele>1308.45</ele>
        <time>2024-09-26T10:14:45.000Z</time>
      </trkpt>
      <trkpt lat="42.27185" lon="2.03333">
        <ele>1309.14</ele>
        <time>2024-09-26T10:14:51.000Z</time>
      </trkpt>
      <trkpt lat="42.27183" lon="2.0332">
        <ele>1309.94</ele>
        <time>2024-09-26T10:14:58.000Z</time>
      </trkpt>
      <trkpt lat="42.2718" lon="2.03307">
        <ele>1310.64</ele>
        <time>2024-09-26T10:15:04.000Z</time>
      </trkpt>
      <trkpt lat="42.27178" lon="2.03292">
        <ele>1311.22</ele>
        <time>2024-09-26T10:15:09.000Z</time>
      </trkpt>
      <trkpt lat="42.27178" lon="2.03278">
        <ele>1311.79</ele>
        <time>2024-09-26T10:15:14.000Z</time>
      </trkpt>
      <trkpt lat="42.27183" lon="2.03256">
        <ele>1312.35</ele>
        <time>2024-09-26T10:15:19.000Z</time>
      </trkpt>
      <trkpt lat="42.27184" lon="2.03238">
        <ele>1312.9</ele>
        <time>2024-09-26T10:15:24.000Z</time>
      </trkpt>
      <trkpt lat="42.27191" lon="2.03223">
        <ele>1313.41</ele>
        <time>2024-09-26T10:15:29.000Z</time>
      </trkpt>
      <trkpt lat="42.27201" lon="2.03212">
        <ele>1313.9</ele>
        <time>2024-09-26T10:15:34.000Z</time>
      </trkpt>
      <trkpt lat="42.27207" lon="2.032">
        <ele>1314.38</ele>
        <time>2024-09-26T10:15:39.000Z</time>
      </trkpt>
      <trkpt lat="42.27209" lon="2.03186">
        <ele>1314.84</ele>
        <time>2024-09-26T10:15:44.000Z</time>
      </trkpt>
      <trkpt lat="42.27214" lon="2.03172">
        <ele>1315.27</ele>
        <time>2024-09-26T10:15:49.000Z</time>
      </trkpt>
      <trkpt lat="42.27227" lon="2.03164">
        <ele>1315.68</ele>
        <time>2024-09-26T10:15:54.000Z</time>
      </trkpt>
      <trkpt lat="42.27242" lon="2.03157">
        <ele>1316.06</ele>
        <time>2024-09-26T10:15:59.000Z</time>
      </trkpt>
      <trkpt lat="42.27254" lon="2.03146">
        <ele>1316.45</ele>
        <time>2024-09-26T10:16:04.000Z</time>
      </trkpt>
      <trkpt lat="42.27264" lon="2.03134">
        <ele>1316.86</ele>
        <time>2024-09-26T10:16:09.000Z</time>
      </trkpt>
      <trkpt lat="42.27271" lon="2.03121">
        <ele>1317.27</ele>
        <time>2024-09-26T10:16:14.000Z</time>
      </trkpt>
      <trkpt lat="42.27275" lon="2.03107">
        <ele>1317.68</ele>
        <time>2024-09-26T10:16:19.000Z</time>
      </trkpt>
      <trkpt lat="42.27276" lon="2.03093">
        <ele>1318.1</ele>
        <time>2024-09-26T10:16:24.000Z</time>
      </trkpt>
      <trkpt lat="42.27275" lon="2.03078">
        <ele>1318.5</ele>
        <time>2024-09-26T10:16:29.000Z</time>
      </trkpt>
      <trkpt lat="42.27271" lon="2.03061">
        <ele>1318.89</ele>
        <time>2024-09-26T10:16:34.000Z</time>
      </trkpt>
      <trkpt lat="42.27267" lon="2.03044">
        <ele>1319.26</ele>
        <time>2024-09-26T10:16:39.000Z</time>
      </trkpt>
      <trkpt lat="42.27272" lon="2.0303">
        <ele>1319.64</ele>
        <time>2024-09-26T10:16:44.000Z</time>
      </trkpt>
      <trkpt lat="42.27282" lon="2.03025">
        <ele>1320.01</ele>
        <time>2024-09-26T10:16:49.000Z</time>
      </trkpt>
      <trkpt lat="42.27293" lon="2.03022">
        <ele>1320.38</ele>
        <time>2024-09-26T10:16:54.000Z</time>
      </trkpt>
      <trkpt lat="42.27302" lon="2.03017">
        <ele>1320.77</ele>
        <time>2024-09-26T10:16:59.000Z</time>
      </trkpt>
      <trkpt lat="42.27312" lon="2.0301">
        <ele>1321.22</ele>
        <time>2024-09-26T10:17:04.000Z</time>
      </trkpt>
      <trkpt lat="42.27321" lon="2.03001">
        <ele>1321.81</ele>
        <time>2024-09-26T10:17:10.000Z</time>
      </trkpt>
      <trkpt lat="42.27328" lon="2.02991">
        <ele>1322.43</ele>
        <time>2024-09-26T10:17:16.000Z</time>
      </trkpt>
      <trkpt lat="42.27331" lon="2.02978">
        <ele>1323.27</ele>
        <time>2024-09-26T10:17:24.000Z</time>
      </trkpt>
      <trkpt lat="42.27332" lon="2.02966">
        <ele>1323.98</ele>
        <time>2024-09-26T10:17:31.000Z</time>
      </trkpt>
      <trkpt lat="42.27335" lon="2.02954">
        <ele>1324.52</ele>
        <time>2024-09-26T10:17:37.000Z</time>
      </trkpt>
      <trkpt lat="42.27335" lon="2.02941">
        <ele>1325.11</ele>
        <time>2024-09-26T10:17:44.000Z</time>
      </trkpt>
      <trkpt lat="42.27336" lon="2.02928">
        <ele>1325.68</ele>
        <time>2024-09-26T10:17:51.000Z</time>
      </trkpt>
      <trkpt lat="42.27339" lon="2.0291">
        <ele>1326.04</ele>
        <time>2024-09-26T10:17:56.000Z</time>
      </trkpt>
      <trkpt lat="42.27349" lon="2.02899">
        <ele>1326.43</ele>
        <time>2024-09-26T10:18:01.000Z</time>
      </trkpt>
      <trkpt lat="42.27359" lon="2.02888">
        <ele>1326.91</ele>
        <time>2024-09-26T10:18:06.000Z</time>
      </trkpt>
      <trkpt lat="42.27367" lon="2.02879">
        <ele>1327.56</ele>
        <time>2024-09-26T10:18:11.000Z</time>
      </trkpt>
      <trkpt lat="42.27375" lon="2.02871">
        <ele>1328.66</ele>
        <time>2024-09-26T10:18:18.000Z</time>
      </trkpt>
      <trkpt lat="42.27384" lon="2.02866">
        <ele>1329.83</ele>
        <time>2024-09-26T10:18:25.000Z</time>
      </trkpt>
      <trkpt lat="42.27392" lon="2.0286">
        <ele>1331.04</ele>
        <time>2024-09-26T10:18:32.000Z</time>
      </trkpt>
      <trkpt lat="42.27399" lon="2.02852">
        <ele>1332.33</ele>
        <time>2024-09-26T10:18:39.000Z</time>
      </trkpt>
      <trkpt lat="42.27406" lon="2.02843">
        <ele>1333.61</ele>
        <time>2024-09-26T10:18:46.000Z</time>
      </trkpt>
      <trkpt lat="42.27413" lon="2.02833">
        <ele>1334.73</ele>
        <time>2024-09-26T10:18:51.999Z</time>
      </trkpt>
      <trkpt lat="42.27416" lon="2.02822">
        <ele>1335.88</ele>
        <time>2024-09-26T10:18:57.999Z</time>
      </trkpt>
      <trkpt lat="42.27419" lon="2.0281">
        <ele>1336.84</ele>
        <time>2024-09-26T10:19:02.999Z</time>
      </trkpt>
      <trkpt lat="42.27424" lon="2.02797">
        <ele>1337.8</ele>
        <time>2024-09-26T10:19:07.999Z</time>
      </trkpt>
      <trkpt lat="42.27432" lon="2.0279">
        <ele>1338.91</ele>
        <time>2024-09-26T10:19:13.999Z</time>
      </trkpt>
      <trkpt lat="42.27442" lon="2.02787">
        <ele>1340.18</ele>
        <time>2024-09-26T10:19:20.999Z</time>
      </trkpt>
      <trkpt lat="42.27451" lon="2.02783">
        <ele>1341.39</ele>
        <time>2024-09-26T10:19:27.999Z</time>
      </trkpt>
      <trkpt lat="42.27459" lon="2.02775">
        <ele>1342.54</ele>
        <time>2024-09-26T10:19:34.999Z</time>
      </trkpt>
      <trkpt lat="42.27464" lon="2.02764">
        <ele>1343.62</ele>
        <time>2024-09-26T10:19:41.999Z</time>
      </trkpt>
      <trkpt lat="42.27468" lon="2.02752">
        <ele>1344.66</ele>
        <time>2024-09-26T10:19:48.999Z</time>
      </trkpt>
      <trkpt lat="42.27469" lon="2.02739">
        <ele>1345.65</ele>
        <time>2024-09-26T10:19:55.999Z</time>
      </trkpt>
      <trkpt lat="42.27468" lon="2.02726">
        <ele>1346.56</ele>
        <time>2024-09-26T10:20:02.999Z</time>
      </trkpt>
      <trkpt lat="42.27465" lon="2.02714">
        <ele>1347.28</ele>
        <time>2024-09-26T10:20:08.999Z</time>
      </trkpt>
      <trkpt lat="42.27463" lon="2.02701">
        <ele>1347.85</ele>
        <time>2024-09-26T10:20:13.999Z</time>
      </trkpt>
      <trkpt lat="42.27462" lon="2.02689">
        <ele>1348.38</ele>
        <time>2024-09-26T10:20:18.999Z</time>
      </trkpt>
      <trkpt lat="42.27464" lon="2.02673">
        <ele>1348.9</ele>
        <time>2024-09-26T10:20:23.999Z</time>
      </trkpt>
      <trkpt lat="42.2747" lon="2.02664">
        <ele>1349.52</ele>
        <time>2024-09-26T10:20:29.999Z</time>
      </trkpt>
      <trkpt lat="42.27477" lon="2.02655">
        <ele>1350.23</ele>
        <time>2024-09-26T10:20:36.999Z</time>
      </trkpt>
      <trkpt lat="42.27483" lon="2.02644">
        <ele>1350.93</ele>
        <time>2024-09-26T10:20:43.999Z</time>
      </trkpt>
      <trkpt lat="42.27485" lon="2.02631">
        <ele>1351.62</ele>
        <time>2024-09-26T10:20:50.999Z</time>
      </trkpt>
      <trkpt lat="42.27488" lon="2.02618">
        <ele>1352.38</ele>
        <time>2024-09-26T10:20:58.999Z</time>
      </trkpt>
      <trkpt lat="42.27495" lon="2.02609">
        <ele>1353</ele>
        <time>2024-09-26T10:21:05.999Z</time>
      </trkpt>
      <trkpt lat="42.275" lon="2.02599">
        <ele>1353.5</ele>
        <time>2024-09-26T10:21:11.999Z</time>
      </trkpt>
      <trkpt lat="42.27504" lon="2.02587">
        <ele>1354.07</ele>
        <time>2024-09-26T10:21:18.999Z</time>
      </trkpt>
      <trkpt lat="42.27508" lon="2.02576">
        <ele>1354.61</ele>
        <time>2024-09-26T10:21:25.999Z</time>
      </trkpt>
      <trkpt lat="42.2751" lon="2.02563">
        <ele>1355.06</ele>
        <time>2024-09-26T10:21:31.999Z</time>
      </trkpt>
      <trkpt lat="42.2751" lon="2.02551">
        <ele>1355.54</ele>
        <time>2024-09-26T10:21:37.999Z</time>
      </trkpt>
      <trkpt lat="42.27513" lon="2.02538">
        <ele>1356.18</ele>
        <time>2024-09-26T10:21:45.999Z</time>
      </trkpt>
      <trkpt lat="42.27519" lon="2.02528">
        <ele>1356.71</ele>
        <time>2024-09-26T10:21:52.999Z</time>
      </trkpt>
      <trkpt lat="42.27527" lon="2.0252">
        <ele>1357.14</ele>
        <time>2024-09-26T10:21:58.999Z</time>
      </trkpt>
      <trkpt lat="42.27534" lon="2.02513">
        <ele>1357.56</ele>
        <time>2024-09-26T10:22:04.999Z</time>
      </trkpt>
      <trkpt lat="42.27542" lon="2.02505">
        <ele>1357.99</ele>
        <time>2024-09-26T10:22:10.999Z</time>
      </trkpt>
      <trkpt lat="42.27549" lon="2.02497">
        <ele>1358.43</ele>
        <time>2024-09-26T10:22:16.999Z</time>
      </trkpt>
      <trkpt lat="42.27555" lon="2.02487">
        <ele>1361.09</ele>
        <time>2024-09-26T10:23:48.999Z</time>
      </trkpt>
      <trkpt lat="42.27563" lon="2.02478">
        <ele>1361.81</ele>
        <time>2024-09-26T10:23:54.999Z</time>
      </trkpt>
      <trkpt lat="42.27571" lon="2.0247">
        <ele>1362.61</ele>
        <time>2024-09-26T10:24:01.999Z</time>
      </trkpt>
      <trkpt lat="42.27582" lon="2.02466">
        <ele>1363.48</ele>
        <time>2024-09-26T10:24:09.999Z</time>
      </trkpt>
      <trkpt lat="42.27591" lon="2.02462">
        <ele>1364.2</ele>
        <time>2024-09-26T10:24:16.999Z</time>
      </trkpt>
      <trkpt lat="42.27599" lon="2.02458">
        <ele>1364.88</ele>
        <time>2024-09-26T10:24:23.999Z</time>
      </trkpt>
      <trkpt lat="42.2761" lon="2.02458">
        <ele>1365.44</ele>
        <time>2024-09-26T10:24:29.999Z</time>
      </trkpt>
      <trkpt lat="42.27619" lon="2.02458">
        <ele>1365.99</ele>
        <time>2024-09-26T10:24:35.999Z</time>
      </trkpt>
      <trkpt lat="42.27628" lon="2.02456">
        <ele>1366.61</ele>
        <time>2024-09-26T10:24:42.999Z</time>
      </trkpt>
      <trkpt lat="42.27637" lon="2.02449">
        <ele>1367.12</ele>
        <time>2024-09-26T10:24:48.999Z</time>
      </trkpt>
      <trkpt lat="42.27645" lon="2.0244">
        <ele>1367.79</ele>
        <time>2024-09-26T10:24:56.999Z</time>
      </trkpt>
      <trkpt lat="42.27654" lon="2.02434">
        <ele>1368.35</ele>
        <time>2024-09-26T10:25:03.999Z</time>
      </trkpt>
      <trkpt lat="42.27663" lon="2.02429">
        <ele>1369.14</ele>
        <time>2024-09-26T10:25:13.999Z</time>
      </trkpt>
      <trkpt lat="42.27673" lon="2.02427">
        <ele>1369.61</ele>
        <time>2024-09-26T10:25:19.999Z</time>
      </trkpt>
      <trkpt lat="42.27682" lon="2.02425">
        <ele>1370.22</ele>
        <time>2024-09-26T10:25:27.999Z</time>
      </trkpt>
      <trkpt lat="42.27692" lon="2.02422">
        <ele>1370.94</ele>
        <time>2024-09-26T10:25:37.999Z</time>
      </trkpt>
      <trkpt lat="42.27702" lon="2.02425">
        <ele>1372.17</ele>
        <time>2024-09-26T10:26:34.999Z</time>
      </trkpt>
      <trkpt lat="42.27711" lon="2.02428">
        <ele>1372.64</ele>
        <time>2024-09-26T10:26:39.999Z</time>
      </trkpt>
      <trkpt lat="42.27724" lon="2.02433">
        <ele>1373.06</ele>
        <time>2024-09-26T10:26:44.999Z</time>
      </trkpt>
      <trkpt lat="42.27738" lon="2.02441">
        <ele>1373.46</ele>
        <time>2024-09-26T10:26:49.999Z</time>
      </trkpt>
      <trkpt lat="42.27746" lon="2.02446">
        <ele>1373.83</ele>
        <time>2024-09-26T10:26:54.999Z</time>
      </trkpt>
      <trkpt lat="42.27756" lon="2.02452">
        <ele>1374.18</ele>
        <time>2024-09-26T10:26:59.999Z</time>
      </trkpt>
      <trkpt lat="42.27764" lon="2.02459">
        <ele>1374.6</ele>
        <time>2024-09-26T10:27:05.999Z</time>
      </trkpt>
      <trkpt lat="42.27771" lon="2.02468">
        <ele>1375.06</ele>
        <time>2024-09-26T10:27:12.999Z</time>
      </trkpt>
      <trkpt lat="42.2778" lon="2.02469">
        <ele>1375.46</ele>
        <time>2024-09-26T10:27:18.999Z</time>
      </trkpt>
      <trkpt lat="42.2779" lon="2.02467">
        <ele>1375.97</ele>
        <time>2024-09-26T10:27:26.999Z</time>
      </trkpt>
      <trkpt lat="42.27799" lon="2.02463">
        <ele>1376.27</ele>
        <time>2024-09-26T10:27:31.999Z</time>
      </trkpt>
      <trkpt lat="42.2781" lon="2.02458">
        <ele>1376.63</ele>
        <time>2024-09-26T10:27:37.999Z</time>
      </trkpt>
      <trkpt lat="42.27818" lon="2.02451">
        <ele>1376.98</ele>
        <time>2024-09-26T10:27:43.999Z</time>
      </trkpt>
      <trkpt lat="42.27826" lon="2.02445">
        <ele>1377.27</ele>
        <time>2024-09-26T10:27:48.999Z</time>
      </trkpt>
      <trkpt lat="42.27836" lon="2.02433">
        <ele>1377.57</ele>
        <time>2024-09-26T10:27:53.999Z</time>
      </trkpt>
      <trkpt lat="42.27844" lon="2.02426">
        <ele>1377.95</ele>
        <time>2024-09-26T10:27:59.999Z</time>
      </trkpt>
      <trkpt lat="42.27853" lon="2.02419">
        <ele>1378.4</ele>
        <time>2024-09-26T10:28:06.999Z</time>
      </trkpt>
      <trkpt lat="42.27857" lon="2.02407">
        <ele>1378.79</ele>
        <time>2024-09-26T10:28:12.999Z</time>
      </trkpt>
      <trkpt lat="42.27861" lon="2.02395">
        <ele>1379.12</ele>
        <time>2024-09-26T10:28:17.999Z</time>
      </trkpt>
      <trkpt lat="42.27864" lon="2.02382">
        <ele>1379.64</ele>
        <time>2024-09-26T10:28:25.999Z</time>
      </trkpt>
      <trkpt lat="42.27867" lon="2.0237">
        <ele>1380.04</ele>
        <time>2024-09-26T10:28:31.999Z</time>
      </trkpt>
      <trkpt lat="42.27871" lon="2.02357">
        <ele>1380.52</ele>
        <time>2024-09-26T10:28:38.999Z</time>
      </trkpt>
      <trkpt lat="42.27877" lon="2.02344">
        <ele>1380.93</ele>
        <time>2024-09-26T10:28:44.999Z</time>
      </trkpt>
      <trkpt lat="42.27887" lon="2.02333">
        <ele>1381.28</ele>
        <time>2024-09-26T10:28:49.999Z</time>
      </trkpt>
      <trkpt lat="42.27896" lon="2.02321">
        <ele>1381.62</ele>
        <time>2024-09-26T10:28:54.999Z</time>
      </trkpt>
      <trkpt lat="42.27902" lon="2.02305">
        <ele>1381.96</ele>
        <time>2024-09-26T10:28:59.999Z</time>
      </trkpt>
      <trkpt lat="42.27903" lon="2.02291">
        <ele>1382.38</ele>
        <time>2024-09-26T10:29:05.999Z</time>
      </trkpt>
      <trkpt lat="42.27904" lon="2.02278">
        <ele>1382.95</ele>
        <time>2024-09-26T10:29:13.999Z</time>
      </trkpt>
      <trkpt lat="42.27904" lon="2.02265">
        <ele>1383.45</ele>
        <time>2024-09-26T10:29:20.999Z</time>
      </trkpt>
      <trkpt lat="42.27907" lon="2.02252">
        <ele>1383.9</ele>
        <time>2024-09-26T10:29:26.999Z</time>
      </trkpt>
      <trkpt lat="42.27911" lon="2.0224">
        <ele>1384.36</ele>
        <time>2024-09-26T10:29:32.999Z</time>
      </trkpt>
      <trkpt lat="42.27915" lon="2.02228">
        <ele>1384.84</ele>
        <time>2024-09-26T10:29:38.999Z</time>
      </trkpt>
      <trkpt lat="42.2792" lon="2.02216">
        <ele>1385.4</ele>
        <time>2024-09-26T10:29:45.999Z</time>
      </trkpt>
      <trkpt lat="42.27925" lon="2.02206">
        <ele>1385.96</ele>
        <time>2024-09-26T10:29:52.999Z</time>
      </trkpt>
      <trkpt lat="42.2793" lon="2.02193">
        <ele>1386.44</ele>
        <time>2024-09-26T10:29:58.999Z</time>
      </trkpt>
      <trkpt lat="42.27938" lon="2.0218">
        <ele>1386.84</ele>
        <time>2024-09-26T10:30:03.999Z</time>
      </trkpt>
      <trkpt lat="42.27946" lon="2.02172">
        <ele>1387.23</ele>
        <time>2024-09-26T10:30:08.999Z</time>
      </trkpt>
      <trkpt lat="42.27952" lon="2.02162">
        <ele>1387.63</ele>
        <time>2024-09-26T10:30:13.999Z</time>
      </trkpt>
      <trkpt lat="42.27954" lon="2.0215">
        <ele>1388.02</ele>
        <time>2024-09-26T10:30:18.999Z</time>
      </trkpt>
      <trkpt lat="42.27958" lon="2.02138">
        <ele>1388.49</ele>
        <time>2024-09-26T10:30:24.999Z</time>
      </trkpt>
      <trkpt lat="42.27962" lon="2.02127">
        <ele>1388.96</ele>
        <time>2024-09-26T10:30:30.999Z</time>
      </trkpt>
      <trkpt lat="42.27967" lon="2.02116">
        <ele>1389.52</ele>
        <time>2024-09-26T10:30:37.999Z</time>
      </trkpt>
      <trkpt lat="42.27972" lon="2.02106">
        <ele>1390.07</ele>
        <time>2024-09-26T10:30:44.999Z</time>
      </trkpt>
      <trkpt lat="42.27976" lon="2.02095">
        <ele>1390.55</ele>
        <time>2024-09-26T10:30:50.999Z</time>
      </trkpt>
      <trkpt lat="42.27982" lon="2.02084">
        <ele>1391.1</ele>
        <time>2024-09-26T10:30:57.999Z</time>
      </trkpt>
      <trkpt lat="42.2799" lon="2.02076">
        <ele>1391.66</ele>
        <time>2024-09-26T10:31:05.000Z</time>
      </trkpt>
      <trkpt lat="42.28001" lon="2.02076">
        <ele>1392.87</ele>
        <time>2024-09-26T10:31:42.000Z</time>
      </trkpt>
      <trkpt lat="42.2801" lon="2.02068">
        <ele>1393.44</ele>
        <time>2024-09-26T10:31:47.000Z</time>
      </trkpt>
      <trkpt lat="42.28019" lon="2.02054">
        <ele>1393.99</ele>
        <time>2024-09-26T10:31:52.000Z</time>
      </trkpt>
      <trkpt lat="42.28031" lon="2.02036">
        <ele>1394.55</ele>
        <time>2024-09-26T10:31:57.000Z</time>
      </trkpt>
      <trkpt lat="42.28036" lon="2.02026">
        <ele>1395.12</ele>
        <time>2024-09-26T10:32:02.000Z</time>
      </trkpt>
      <trkpt lat="42.28041" lon="2.02015">
        <ele>1395.79</ele>
        <time>2024-09-26T10:32:08.000Z</time>
      </trkpt>
      <trkpt lat="42.28043" lon="2.02003">
        <ele>1397.72</ele>
        <time>2024-09-26T10:33:15.000Z</time>
      </trkpt>
      <trkpt lat="42.28046" lon="2.0199">
        <ele>1398.62</ele>
        <time>2024-09-26T10:33:21.000Z</time>
      </trkpt>
      <trkpt lat="42.2805" lon="2.01978">
        <ele>1399.32</ele>
        <time>2024-09-26T10:33:26.000Z</time>
      </trkpt>
      <trkpt lat="42.28052" lon="2.01967">
        <ele>1399.99</ele>
        <time>2024-09-26T10:33:31.000Z</time>
      </trkpt>
      <trkpt lat="42.28056" lon="2.01955">
        <ele>1400.62</ele>
        <time>2024-09-26T10:33:36.000Z</time>
      </trkpt>
      <trkpt lat="42.28061" lon="2.01944">
        <ele>1401.36</ele>
        <time>2024-09-26T10:33:42.000Z</time>
      </trkpt>
      <trkpt lat="42.28063" lon="2.01931">
        <ele>1402.17</ele>
        <time>2024-09-26T10:33:49.000Z</time>
      </trkpt>
      <trkpt lat="42.28068" lon="2.01943">
        <ele>1403.33</ele>
        <time>2024-09-26T10:34:00.000Z</time>
      </trkpt>
      <trkpt lat="42.28067" lon="2.01956">
        <ele>1403.92</ele>
        <time>2024-09-26T10:34:06.000Z</time>
      </trkpt>
      <trkpt lat="42.28067" lon="2.01969">
        <ele>1404.57</ele>
        <time>2024-09-26T10:34:13.000Z</time>
      </trkpt>
      <trkpt lat="42.28067" lon="2.01981">
        <ele>1405.19</ele>
        <time>2024-09-26T10:34:20.000Z</time>
      </trkpt>
      <trkpt lat="42.28066" lon="2.01995">
        <ele>1405.78</ele>
        <time>2024-09-26T10:34:27.000Z</time>
      </trkpt>
      <trkpt lat="42.28075" lon="2.01997">
        <ele>1407.17</ele>
        <time>2024-09-26T10:34:56.000Z</time>
      </trkpt>
      <trkpt lat="42.28078" lon="2.01986">
        <ele>1407.71</ele>
        <time>2024-09-26T10:35:02.000Z</time>
      </trkpt>
      <trkpt lat="42.28082" lon="2.01975">
        <ele>1408.25</ele>
        <time>2024-09-26T10:35:08.000Z</time>
      </trkpt>
      <trkpt lat="42.28087" lon="2.01964">
        <ele>1408.87</ele>
        <time>2024-09-26T10:35:15.000Z</time>
      </trkpt>
      <trkpt lat="42.28092" lon="2.01955">
        <ele>1409.48</ele>
        <time>2024-09-26T10:35:22.000Z</time>
      </trkpt>
      <trkpt lat="42.28098" lon="2.01944">
        <ele>1410.13</ele>
        <time>2024-09-26T10:35:29.000Z</time>
      </trkpt>
      <trkpt lat="42.28099" lon="2.01931">
        <ele>1410.91</ele>
        <time>2024-09-26T10:35:36.000Z</time>
      </trkpt>
      <trkpt lat="42.28102" lon="2.01918">
        <ele>1411.67</ele>
        <time>2024-09-26T10:35:42.000Z</time>
      </trkpt>
      <trkpt lat="42.28104" lon="2.01905">
        <ele>1412.35</ele>
        <time>2024-09-26T10:35:47.000Z</time>
      </trkpt>
      <trkpt lat="42.28106" lon="2.01891">
        <ele>1413.05</ele>
        <time>2024-09-26T10:35:52.000Z</time>
      </trkpt>
      <trkpt lat="42.28113" lon="2.01877">
        <ele>1413.75</ele>
        <time>2024-09-26T10:35:57.000Z</time>
      </trkpt>
      <trkpt lat="42.28125" lon="2.01857">
        <ele>1417.26</ele>
        <time>2024-09-26T10:36:02.000Z</time>
      </trkpt>
      <trkpt lat="42.28138" lon="2.0183">
        <ele>1420.33</ele>
        <time>2024-09-26T10:36:07.000Z</time>
      </trkpt>
      <trkpt lat="42.28146" lon="2.01814">
        <ele>1420.67</ele>
        <time>2024-09-26T10:36:12.000Z</time>
      </trkpt>
      <trkpt lat="42.28147" lon="2.01801">
        <ele>1421.03</ele>
        <time>2024-09-26T10:36:23.000Z</time>
      </trkpt>
      <trkpt lat="42.28143" lon="2.0179">
        <ele>1421.41</ele>
        <time>2024-09-26T10:36:54.000Z</time>
      </trkpt>
      <trkpt lat="42.2815" lon="2.01782">
        <ele>1424.84</ele>
        <time>2024-09-26T10:38:42.000Z</time>
      </trkpt>
      <trkpt lat="42.28149" lon="2.01768">
        <ele>1425.5</ele>
        <time>2024-09-26T10:38:47.000Z</time>
      </trkpt>
      <trkpt lat="42.28143" lon="2.01753">
        <ele>1426.11</ele>
        <time>2024-09-26T10:38:52.000Z</time>
      </trkpt>
      <trkpt lat="42.28141" lon="2.01734">
        <ele>1426.65</ele>
        <time>2024-09-26T10:38:57.000Z</time>
      </trkpt>
      <trkpt lat="42.28135" lon="2.01725">
        <ele>1428.17</ele>
        <time>2024-09-26T10:39:41.000Z</time>
      </trkpt>
      <trkpt lat="42.28126" lon="2.01732">
        <ele>1428.63</ele>
        <time>2024-09-26T10:39:48.000Z</time>
      </trkpt>
      <trkpt lat="42.28134" lon="2.01725">
        <ele>1429.55</ele>
        <time>2024-09-26T10:40:43.000Z</time>
      </trkpt>
      <trkpt lat="42.28125" lon="2.01726">
        <ele>1429.97</ele>
        <time>2024-09-26T10:41:21.000Z</time>
      </trkpt>
      <trkpt lat="42.28123" lon="2.01713">
        <ele>1434.07</ele>
        <time>2024-09-26T11:06:45.000Z</time>
      </trkpt>
      <trkpt lat="42.28125" lon="2.01725">
        <ele>1434.35</ele>
        <time>2024-09-26T11:08:25.999Z</time>
      </trkpt>
      <trkpt lat="42.2812" lon="2.01739">
        <ele>1432.18</ele>
        <time>2024-09-26T11:47:39.000Z</time>
      </trkpt>
      <trkpt lat="42.28113" lon="2.01762">
        <ele>1432.35</ele>
        <time>2024-09-26T11:47:44.000Z</time>
      </trkpt>
      <trkpt lat="42.28101" lon="2.0179">
        <ele>1432.43</ele>
        <time>2024-09-26T11:47:49.000Z</time>
      </trkpt>
      <trkpt lat="42.28089" lon="2.01816">
        <ele>1432.51</ele>
        <time>2024-09-26T11:47:54.000Z</time>
      </trkpt>
      <trkpt lat="42.2808" lon="2.01837">
        <ele>1432.52</ele>
        <time>2024-09-26T11:47:59.000Z</time>
      </trkpt>
      <trkpt lat="42.28074" lon="2.01849">
        <ele>1432.52</ele>
        <time>2024-09-26T11:48:04.000Z</time>
      </trkpt>
      <trkpt lat="42.2807" lon="2.01861">
        <ele>1432.51</ele>
        <time>2024-09-26T11:48:12.000Z</time>
      </trkpt>
      <trkpt lat="42.28069" lon="2.01875">
        <ele>1432.51</ele>
        <time>2024-09-26T11:48:20.000Z</time>
      </trkpt>
      <trkpt lat="42.28067" lon="2.01888">
        <ele>1432.51</ele>
        <time>2024-09-26T11:48:27.000Z</time>
      </trkpt>
      <trkpt lat="42.28066" lon="2.01901">
        <ele>1432.5</ele>
        <time>2024-09-26T11:48:34.000Z</time>
      </trkpt>
      <trkpt lat="42.28061" lon="2.01914">
        <ele>1432.5</ele>
        <time>2024-09-26T11:48:40.000Z</time>
      </trkpt>
      <trkpt lat="42.28059" lon="2.01926">
        <ele>1432.49</ele>
        <time>2024-09-26T11:48:45.000Z</time>
      </trkpt>
      <trkpt lat="42.28055" lon="2.0194">
        <ele>1432.49</ele>
        <time>2024-09-26T11:48:50.000Z</time>
      </trkpt>
      <trkpt lat="42.28046" lon="2.01973">
        <ele>1432.46</ele>
        <time>2024-09-26T11:48:55.000Z</time>
      </trkpt>
      <trkpt lat="42.28037" lon="2.02015">
        <ele>1432.47</ele>
        <time>2024-09-26T11:49:00.000Z</time>
      </trkpt>
      <trkpt lat="42.28011" lon="2.02049">
        <ele>1432.6</ele>
        <time>2024-09-26T11:49:05.000Z</time>
      </trkpt>
      <trkpt lat="42.27995" lon="2.02074">
        <ele>1432.85</ele>
        <time>2024-09-26T11:49:10.000Z</time>
      </trkpt>
      <trkpt lat="42.27985" lon="2.0209">
        <ele>1432.86</ele>
        <time>2024-09-26T11:49:15.000Z</time>
      </trkpt>
      <trkpt lat="42.2798" lon="2.02103">
        <ele>1432.83</ele>
        <time>2024-09-26T11:49:20.000Z</time>
      </trkpt>
      <trkpt lat="42.27975" lon="2.02117">
        <ele>1432.81</ele>
        <time>2024-09-26T11:49:25.000Z</time>
      </trkpt>
      <trkpt lat="42.27971" lon="2.0213">
        <ele>1432.78</ele>
        <time>2024-09-26T11:49:30.000Z</time>
      </trkpt>
      <trkpt lat="42.27968" lon="2.02143">
        <ele>1432.74</ele>
        <time>2024-09-26T11:49:36.000Z</time>
      </trkpt>
      <trkpt lat="42.27965" lon="2.02156">
        <ele>1432.71</ele>
        <time>2024-09-26T11:49:42.000Z</time>
      </trkpt>
      <trkpt lat="42.27962" lon="2.02169">
        <ele>1432.71</ele>
        <time>2024-09-26T11:49:48.000Z</time>
      </trkpt>
      <trkpt lat="42.27959" lon="2.02181">
        <ele>1432.7</ele>
        <time>2024-09-26T11:49:54.000Z</time>
      </trkpt>
      <trkpt lat="42.27955" lon="2.02194">
        <ele>1432.62</ele>
        <time>2024-09-26T11:50:02.000Z</time>
      </trkpt>
      <trkpt lat="42.27951" lon="2.02206">
        <ele>1432.52</ele>
        <time>2024-09-26T11:50:09.000Z</time>
      </trkpt>
      <trkpt lat="42.27949" lon="2.02219">
        <ele>1432.4</ele>
        <time>2024-09-26T11:50:17.000Z</time>
      </trkpt>
      <trkpt lat="42.27946" lon="2.02231">
        <ele>1432.35</ele>
        <time>2024-09-26T11:50:24.000Z</time>
      </trkpt>
      <trkpt lat="42.27944" lon="2.02244">
        <ele>1432.37</ele>
        <time>2024-09-26T11:50:32.000Z</time>
      </trkpt>
      <trkpt lat="42.27942" lon="2.02258">
        <ele>1432.4</ele>
        <time>2024-09-26T11:50:40.000Z</time>
      </trkpt>
      <trkpt lat="42.27943" lon="2.02271">
        <ele>1432.48</ele>
        <time>2024-09-26T11:50:47.000Z</time>
      </trkpt>
      <trkpt lat="42.27945" lon="2.02284">
        <ele>1432.67</ele>
        <time>2024-09-26T11:50:55.000Z</time>
      </trkpt>
      <trkpt lat="42.27947" lon="2.02295">
        <ele>1432.93</ele>
        <time>2024-09-26T11:51:02.000Z</time>
      </trkpt>
      <trkpt lat="42.27949" lon="2.02309">
        <ele>1433.33</ele>
        <time>2024-09-26T11:51:10.000Z</time>
      </trkpt>
      <trkpt lat="42.27946" lon="2.02322">
        <ele>1433.78</ele>
        <time>2024-09-26T11:51:18.000Z</time>
      </trkpt>
      <trkpt lat="42.27942" lon="2.02333">
        <ele>1434.2</ele>
        <time>2024-09-26T11:51:25.000Z</time>
      </trkpt>
      <trkpt lat="42.27937" lon="2.02344">
        <ele>1434.58</ele>
        <time>2024-09-26T11:51:32.000Z</time>
      </trkpt>
      <trkpt lat="42.27931" lon="2.02353">
        <ele>1434.92</ele>
        <time>2024-09-26T11:51:38.000Z</time>
      </trkpt>
      <trkpt lat="42.27926" lon="2.02364">
        <ele>1435.39</ele>
        <time>2024-09-26T11:51:45.000Z</time>
      </trkpt>
      <trkpt lat="42.2792" lon="2.02375">
        <ele>1435.94</ele>
        <time>2024-09-26T11:51:52.000Z</time>
      </trkpt>
      <trkpt lat="42.27916" lon="2.02388">
        <ele>1436.48</ele>
        <time>2024-09-26T11:51:59.000Z</time>
      </trkpt>
      <trkpt lat="42.27915" lon="2.02401">
        <ele>1437</ele>
        <time>2024-09-26T11:52:06.000Z</time>
      </trkpt>
      <trkpt lat="42.27916" lon="2.02414">
        <ele>1437.43</ele>
        <time>2024-09-26T11:52:12.000Z</time>
      </trkpt>
      <trkpt lat="42.27919" lon="2.02427">
        <ele>1437.87</ele>
        <time>2024-09-26T11:52:18.000Z</time>
      </trkpt>
      <trkpt lat="42.27924" lon="2.02439">
        <ele>1438.33</ele>
        <time>2024-09-26T11:52:24.000Z</time>
      </trkpt>
      <trkpt lat="42.2793" lon="2.02451">
        <ele>1438.81</ele>
        <time>2024-09-26T11:52:30.000Z</time>
      </trkpt>
      <trkpt lat="42.27934" lon="2.02463">
        <ele>1439.27</ele>
        <time>2024-09-26T11:52:36.000Z</time>
      </trkpt>
      <trkpt lat="42.27933" lon="2.02477">
        <ele>1439.63</ele>
        <time>2024-09-26T11:52:41.000Z</time>
      </trkpt>
      <trkpt lat="42.27928" lon="2.02492">
        <ele>1440</ele>
        <time>2024-09-26T11:52:46.000Z</time>
      </trkpt>
      <trkpt lat="42.27916" lon="2.02502">
        <ele>1440.35</ele>
        <time>2024-09-26T11:52:51.000Z</time>
      </trkpt>
      <trkpt lat="42.27902" lon="2.02508">
        <ele>1440.69</ele>
        <time>2024-09-26T11:52:56.000Z</time>
      </trkpt>
      <trkpt lat="42.27889" lon="2.02515">
        <ele>1441.03</ele>
        <time>2024-09-26T11:53:01.000Z</time>
      </trkpt>
      <trkpt lat="42.27876" lon="2.02524">
        <ele>1441.37</ele>
        <time>2024-09-26T11:53:06.000Z</time>
      </trkpt>
      <trkpt lat="42.27864" lon="2.02533">
        <ele>1441.72</ele>
        <time>2024-09-26T11:53:11.000Z</time>
      </trkpt>
      <trkpt lat="42.27851" lon="2.02543">
        <ele>1442.07</ele>
        <time>2024-09-26T11:53:16.000Z</time>
      </trkpt>
      <trkpt lat="42.27839" lon="2.02558">
        <ele>1442.42</ele>
        <time>2024-09-26T11:53:21.000Z</time>
      </trkpt>
      <trkpt lat="42.27828" lon="2.02577">
        <ele>1444.09</ele>
        <time>2024-09-26T11:53:26.000Z</time>
      </trkpt>
      <trkpt lat="42.27816" lon="2.02599">
        <ele>1445.47</ele>
        <time>2024-09-26T11:53:31.000Z</time>
      </trkpt>
      <trkpt lat="42.27803" lon="2.02623">
        <ele>1446.04</ele>
        <time>2024-09-26T11:53:36.000Z</time>
      </trkpt>
      <trkpt lat="42.27789" lon="2.02648">
        <ele>1446.35</ele>
        <time>2024-09-26T11:53:41.000Z</time>
      </trkpt>
      <trkpt lat="42.27777" lon="2.02675">
        <ele>1446.56</ele>
        <time>2024-09-26T11:53:46.000Z</time>
      </trkpt>
      <trkpt lat="42.27769" lon="2.02698">
        <ele>1446.71</ele>
        <time>2024-09-26T11:53:51.000Z</time>
      </trkpt>
      <trkpt lat="42.27764" lon="2.0272">
        <ele>1446.75</ele>
        <time>2024-09-26T11:53:56.000Z</time>
      </trkpt>
      <trkpt lat="42.27762" lon="2.02743">
        <ele>1446.81</ele>
        <time>2024-09-26T11:54:01.000Z</time>
      </trkpt>
      <trkpt lat="42.27762" lon="2.02765">
        <ele>1446.88</ele>
        <time>2024-09-26T11:54:06.000Z</time>
      </trkpt>
      <trkpt lat="42.27763" lon="2.02787">
        <ele>1446.96</ele>
        <time>2024-09-26T11:54:11.000Z</time>
      </trkpt>
      <trkpt lat="42.27763" lon="2.02808">
        <ele>1447.07</ele>
        <time>2024-09-26T11:54:16.000Z</time>
      </trkpt>
      <trkpt lat="42.27763" lon="2.02829">
        <ele>1447.19</ele>
        <time>2024-09-26T11:54:21.000Z</time>
      </trkpt>
      <trkpt lat="42.27763" lon="2.02849">
        <ele>1447.32</ele>
        <time>2024-09-26T11:54:26.000Z</time>
      </trkpt>
      <trkpt lat="42.27764" lon="2.02866">
        <ele>1447.47</ele>
        <time>2024-09-26T11:54:31.000Z</time>
      </trkpt>
      <trkpt lat="42.27764" lon="2.0288">
        <ele>1447.63</ele>
        <time>2024-09-26T11:54:36.000Z</time>
      </trkpt>
      <trkpt lat="42.27765" lon="2.02896">
        <ele>1447.81</ele>
        <time>2024-09-26T11:54:41.000Z</time>
      </trkpt>
      <trkpt lat="42.27768" lon="2.02907">
        <ele>1447.99</ele>
        <time>2024-09-26T11:54:46.000Z</time>
      </trkpt>
      <trkpt lat="42.27773" lon="2.02919">
        <ele>1448.19</ele>
        <time>2024-09-26T11:54:51.000Z</time>
      </trkpt>
      <trkpt lat="42.27777" lon="2.02931">
        <ele>1449.47</ele>
        <time>2024-09-26T11:55:50.999Z</time>
      </trkpt>
      <trkpt lat="42.27785" lon="2.02937">
        <ele>1449.91</ele>
        <time>2024-09-26T11:55:56.999Z</time>
      </trkpt>
      <trkpt lat="42.27794" lon="2.02936">
        <ele>1450.26</ele>
        <time>2024-09-26T11:56:01.999Z</time>
      </trkpt>
      <trkpt lat="42.27807" lon="2.0293">
        <ele>1450.6</ele>
        <time>2024-09-26T11:56:06.999Z</time>
      </trkpt>
      <trkpt lat="42.2782" lon="2.0292">
        <ele>1450.94</ele>
        <time>2024-09-26T11:56:11.999Z</time>
      </trkpt>
      <trkpt lat="42.27829" lon="2.02907">
        <ele>1451.28</ele>
        <time>2024-09-26T11:56:16.999Z</time>
      </trkpt>
      <trkpt lat="42.27834" lon="2.02894">
        <ele>1451.62</ele>
        <time>2024-09-26T11:56:21.999Z</time>
      </trkpt>
      <trkpt lat="42.27838" lon="2.02878">
        <ele>1451.95</ele>
        <time>2024-09-26T11:56:26.999Z</time>
      </trkpt>
      <trkpt lat="42.27843" lon="2.02864">
        <ele>1452.3</ele>
        <time>2024-09-26T11:56:31.999Z</time>
      </trkpt>
      <trkpt lat="42.27848" lon="2.02851">
        <ele>1452.65</ele>
        <time>2024-09-26T11:56:36.999Z</time>
      </trkpt>
      <trkpt lat="42.27853" lon="2.0284">
        <ele>1452.99</ele>
        <time>2024-09-26T11:56:41.999Z</time>
      </trkpt>
      <trkpt lat="42.27858" lon="2.02828">
        <ele>1453.32</ele>
        <time>2024-09-26T11:56:46.999Z</time>
      </trkpt>
      <trkpt lat="42.27863" lon="2.02816">
        <ele>1453.66</ele>
        <time>2024-09-26T11:56:51.999Z</time>
      </trkpt>
      <trkpt lat="42.27866" lon="2.02804">
        <ele>1454.01</ele>
        <time>2024-09-26T11:56:56.999Z</time>
      </trkpt>
      <trkpt lat="42.27871" lon="2.02791">
        <ele>1454.43</ele>
        <time>2024-09-26T11:57:02.999Z</time>
      </trkpt>
      <trkpt lat="42.27876" lon="2.0278">
        <ele>1454.86</ele>
        <time>2024-09-26T11:57:08.999Z</time>
      </trkpt>
      <trkpt lat="42.27881" lon="2.02768">
        <ele>1455.21</ele>
        <time>2024-09-26T11:57:13.999Z</time>
      </trkpt>
      <trkpt lat="42.27886" lon="2.02757">
        <ele>1455.64</ele>
        <time>2024-09-26T11:57:19.999Z</time>
      </trkpt>
      <trkpt lat="42.27892" lon="2.02745">
        <ele>1456.07</ele>
        <time>2024-09-26T11:57:25.999Z</time>
      </trkpt>
      <trkpt lat="42.27898" lon="2.02735">
        <ele>1456.43</ele>
        <time>2024-09-26T11:57:30.999Z</time>
      </trkpt>
      <trkpt lat="42.27905" lon="2.02724">
        <ele>1456.84</ele>
        <time>2024-09-26T11:57:36.999Z</time>
      </trkpt>
      <trkpt lat="42.27911" lon="2.02716">
        <ele>1457.17</ele>
        <time>2024-09-26T11:57:41.999Z</time>
      </trkpt>
      <trkpt lat="42.27919" lon="2.02705">
        <ele>1457.54</ele>
        <time>2024-09-26T11:57:47.999Z</time>
      </trkpt>
      <trkpt lat="42.27928" lon="2.02698">
        <ele>1457.85</ele>
        <time>2024-09-26T11:57:52.999Z</time>
      </trkpt>
      <trkpt lat="42.27937" lon="2.02691">
        <ele>1458.22</ele>
        <time>2024-09-26T11:57:58.999Z</time>
      </trkpt>
      <trkpt lat="42.27945" lon="2.02685">
        <ele>1458.57</ele>
        <time>2024-09-26T11:58:04.999Z</time>
      </trkpt>
      <trkpt lat="42.27955" lon="2.0268">
        <ele>1458.93</ele>
        <time>2024-09-26T11:58:10.999Z</time>
      </trkpt>
      <trkpt lat="42.27965" lon="2.02676">
        <ele>1459.28</ele>
        <time>2024-09-26T11:58:16.999Z</time>
      </trkpt>
      <trkpt lat="42.27974" lon="2.02674">
        <ele>1459.62</ele>
        <time>2024-09-26T11:58:22.999Z</time>
      </trkpt>
      <trkpt lat="42.27983" lon="2.02671">
        <ele>1460.03</ele>
        <time>2024-09-26T11:58:29.999Z</time>
      </trkpt>
      <trkpt lat="42.27992" lon="2.02667">
        <ele>1460.43</ele>
        <time>2024-09-26T11:58:36.999Z</time>
      </trkpt>
      <trkpt lat="42.28" lon="2.02661">
        <ele>1460.84</ele>
        <time>2024-09-26T11:58:43.999Z</time>
      </trkpt>
      <trkpt lat="42.28008" lon="2.02653">
        <ele>1461.25</ele>
        <time>2024-09-26T11:58:50.999Z</time>
      </trkpt>
      <trkpt lat="42.28015" lon="2.02643">
        <ele>1461.66</ele>
        <time>2024-09-26T11:58:57.999Z</time>
      </trkpt>
      <trkpt lat="42.28021" lon="2.02634">
        <ele>1462.07</ele>
        <time>2024-09-26T11:59:04.999Z</time>
      </trkpt>
      <trkpt lat="42.28027" lon="2.02625">
        <ele>1462.48</ele>
        <time>2024-09-26T11:59:11.999Z</time>
      </trkpt>
      <trkpt lat="42.28034" lon="2.02616">
        <ele>1462.84</ele>
        <time>2024-09-26T11:59:17.999Z</time>
      </trkpt>
      <trkpt lat="42.28041" lon="2.02607">
        <ele>1463.26</ele>
        <time>2024-09-26T11:59:24.999Z</time>
      </trkpt>
      <trkpt lat="42.28048" lon="2.02598">
        <ele>1463.69</ele>
        <time>2024-09-26T11:59:31.999Z</time>
      </trkpt>
      <trkpt lat="42.28057" lon="2.02592">
        <ele>1464.12</ele>
        <time>2024-09-26T11:59:38.999Z</time>
      </trkpt>
      <trkpt lat="42.28066" lon="2.02588">
        <ele>1464.56</ele>
        <time>2024-09-26T11:59:45.999Z</time>
      </trkpt>
      <trkpt lat="42.28076" lon="2.02587">
        <ele>1465.06</ele>
        <time>2024-09-26T11:59:53.999Z</time>
      </trkpt>
      <trkpt lat="42.28086" lon="2.02591">
        <ele>1465.55</ele>
        <time>2024-09-26T12:00:01.999Z</time>
      </trkpt>
      <trkpt lat="42.28095" lon="2.02598">
        <ele>1466.02</ele>
        <time>2024-09-26T12:00:09.999Z</time>
      </trkpt>
      <trkpt lat="42.28104" lon="2.02605">
        <ele>1466.46</ele>
        <time>2024-09-26T12:00:17.999Z</time>
      </trkpt>
      <trkpt lat="42.28112" lon="2.02612">
        <ele>1466.84</ele>
        <time>2024-09-26T12:00:24.999Z</time>
      </trkpt>
      <trkpt lat="42.2812" lon="2.02618">
        <ele>1467.25</ele>
        <time>2024-09-26T12:00:32.999Z</time>
      </trkpt>
      <trkpt lat="42.28129" lon="2.02625">
        <ele>1467.6</ele>
        <time>2024-09-26T12:00:39.999Z</time>
      </trkpt>
      <trkpt lat="42.28137" lon="2.02632">
        <ele>1467.88</ele>
        <time>2024-09-26T12:00:45.999Z</time>
      </trkpt>
      <trkpt lat="42.28145" lon="2.02638">
        <ele>1468.15</ele>
        <time>2024-09-26T12:00:51.999Z</time>
      </trkpt>
      <trkpt lat="42.28153" lon="2.02645">
        <ele>1468.42</ele>
        <time>2024-09-26T12:00:57.999Z</time>
      </trkpt>
      <trkpt lat="42.28161" lon="2.02652">
        <ele>1468.69</ele>
        <time>2024-09-26T12:01:03.999Z</time>
      </trkpt>
      <trkpt lat="42.28169" lon="2.02658">
        <ele>1468.94</ele>
        <time>2024-09-26T12:01:09.999Z</time>
      </trkpt>
      <trkpt lat="42.28178" lon="2.02663">
        <ele>1469.2</ele>
        <time>2024-09-26T12:01:15.999Z</time>
      </trkpt>
      <trkpt lat="42.28187" lon="2.02666">
        <ele>1469.45</ele>
        <time>2024-09-26T12:01:21.999Z</time>
      </trkpt>
      <trkpt lat="42.28196" lon="2.02665">
        <ele>1469.66</ele>
        <time>2024-09-26T12:01:26.999Z</time>
      </trkpt>
      <trkpt lat="42.28209" lon="2.0266">
        <ele>1469.87</ele>
        <time>2024-09-26T12:01:31.999Z</time>
      </trkpt>
      <trkpt lat="42.28221" lon="2.02655">
        <ele>1470.1</ele>
        <time>2024-09-26T12:01:36.999Z</time>
      </trkpt>
      <trkpt lat="42.28235" lon="2.02648">
        <ele>1470.34</ele>
        <time>2024-09-26T12:01:41.999Z</time>
      </trkpt>
      <trkpt lat="42.28249" lon="2.02645">
        <ele>1470.59</ele>
        <time>2024-09-26T12:01:46.999Z</time>
      </trkpt>
      <trkpt lat="42.28262" lon="2.02649">
        <ele>1470.85</ele>
        <time>2024-09-26T12:01:51.999Z</time>
      </trkpt>
      <trkpt lat="42.28271" lon="2.02658">
        <ele>1471.11</ele>
        <time>2024-09-26T12:01:56.999Z</time>
      </trkpt>
      <trkpt lat="42.2828" lon="2.02668">
        <ele>1471.38</ele>
        <time>2024-09-26T12:02:01.999Z</time>
      </trkpt>
      <trkpt lat="42.28289" lon="2.0268">
        <ele>1471.64</ele>
        <time>2024-09-26T12:02:06.999Z</time>
      </trkpt>
      <trkpt lat="42.28297" lon="2.02692">
        <ele>1471.9</ele>
        <time>2024-09-26T12:02:11.999Z</time>
      </trkpt>
      <trkpt lat="42.28304" lon="2.02707">
        <ele>1472.17</ele>
        <time>2024-09-26T12:02:16.999Z</time>
      </trkpt>
      <trkpt lat="42.2831" lon="2.02723">
        <ele>1472.46</ele>
        <time>2024-09-26T12:02:21.999Z</time>
      </trkpt>
      <trkpt lat="42.28312" lon="2.02738">
        <ele>1472.76</ele>
        <time>2024-09-26T12:02:26.999Z</time>
      </trkpt>
      <trkpt lat="42.28311" lon="2.02753">
        <ele>1473.07</ele>
        <time>2024-09-26T12:02:31.999Z</time>
      </trkpt>
      <trkpt lat="42.28308" lon="2.02767">
        <ele>1473.44</ele>
        <time>2024-09-26T12:02:37.999Z</time>
      </trkpt>
      <trkpt lat="42.28307" lon="2.0278">
        <ele>1473.79</ele>
        <time>2024-09-26T12:02:43.999Z</time>
      </trkpt>
      <trkpt lat="42.28305" lon="2.02794">
        <ele>1474.14</ele>
        <time>2024-09-26T12:02:49.999Z</time>
      </trkpt>
      <trkpt lat="42.28304" lon="2.02807">
        <ele>1474.48</ele>
        <time>2024-09-26T12:02:55.999Z</time>
      </trkpt>
      <trkpt lat="42.28304" lon="2.0282">
        <ele>1474.81</ele>
        <time>2024-09-26T12:03:01.999Z</time>
      </trkpt>
      <trkpt lat="42.28304" lon="2.02833">
        <ele>1475.12</ele>
        <time>2024-09-26T12:03:07.999Z</time>
      </trkpt>
      <trkpt lat="42.28303" lon="2.02849">
        <ele>1475.47</ele>
        <time>2024-09-26T12:03:14.999Z</time>
      </trkpt>
      <trkpt lat="42.28302" lon="2.02862">
        <ele>1475.78</ele>
        <time>2024-09-26T12:03:20.999Z</time>
      </trkpt>
      <trkpt lat="42.28301" lon="2.02874">
        <ele>1476.07</ele>
        <time>2024-09-26T12:03:26.999Z</time>
      </trkpt>
      <trkpt lat="42.28301" lon="2.02888">
        <ele>1476.4</ele>
        <time>2024-09-26T12:03:32.999Z</time>
      </trkpt>
      <trkpt lat="42.28298" lon="2.029">
        <ele>1476.77</ele>
        <time>2024-09-26T12:03:38.999Z</time>
      </trkpt>
      <trkpt lat="42.28295" lon="2.02912">
        <ele>1477.17</ele>
        <time>2024-09-26T12:03:44.999Z</time>
      </trkpt>
      <trkpt lat="42.2829" lon="2.02924">
        <ele>1477.6</ele>
        <time>2024-09-26T12:03:50.999Z</time>
      </trkpt>
      <trkpt lat="42.28286" lon="2.02936">
        <ele>1478.06</ele>
        <time>2024-09-26T12:03:56.999Z</time>
      </trkpt>
      <trkpt lat="42.28282" lon="2.02947">
        <ele>1478.57</ele>
        <time>2024-09-26T12:04:02.999Z</time>
      </trkpt>
      <trkpt lat="42.28277" lon="2.02957">
        <ele>1479.03</ele>
        <time>2024-09-26T12:04:07.999Z</time>
      </trkpt>
      <trkpt lat="42.28274" lon="2.0297">
        <ele>1479.6</ele>
        <time>2024-09-26T12:04:13.999Z</time>
      </trkpt>
      <trkpt lat="42.28272" lon="2.02983">
        <ele>1480.31</ele>
        <time>2024-09-26T12:04:20.999Z</time>
      </trkpt>
      <trkpt lat="42.28275" lon="2.02995">
        <ele>1480.92</ele>
        <time>2024-09-26T12:04:26.999Z</time>
      </trkpt>
      <trkpt lat="42.2828" lon="2.03008">
        <ele>1481.66</ele>
        <time>2024-09-26T12:04:33.999Z</time>
      </trkpt>
      <trkpt lat="42.28287" lon="2.03017">
        <ele>1482.51</ele>
        <time>2024-09-26T12:04:41.999Z</time>
      </trkpt>
      <trkpt lat="42.28294" lon="2.03026">
        <ele>1483.35</ele>
        <time>2024-09-26T12:04:49.999Z</time>
      </trkpt>
      <trkpt lat="42.28301" lon="2.03033">
        <ele>1484.17</ele>
        <time>2024-09-26T12:04:57.999Z</time>
      </trkpt>
      <trkpt lat="42.2831" lon="2.03038">
        <ele>1484.88</ele>
        <time>2024-09-26T12:05:04.999Z</time>
      </trkpt>
      <trkpt lat="42.2832" lon="2.03041">
        <ele>1485.57</ele>
        <time>2024-09-26T12:05:11.999Z</time>
      </trkpt>
      <trkpt lat="42.28329" lon="2.03041">
        <ele>1486.17</ele>
        <time>2024-09-26T12:05:17.999Z</time>
      </trkpt>
      <trkpt lat="42.28338" lon="2.03046">
        <ele>1486.85</ele>
        <time>2024-09-26T12:05:24.999Z</time>
      </trkpt>
      <trkpt lat="42.28347" lon="2.03052">
        <ele>1487.52</ele>
        <time>2024-09-26T12:05:31.999Z</time>
      </trkpt>
      <trkpt lat="42.28354" lon="2.0306">
        <ele>1488.09</ele>
        <time>2024-09-26T12:05:37.999Z</time>
      </trkpt>
      <trkpt lat="42.2836" lon="2.03069">
        <ele>1488.66</ele>
        <time>2024-09-26T12:05:43.999Z</time>
      </trkpt>
      <trkpt lat="42.28367" lon="2.03079">
        <ele>1489.25</ele>
        <time>2024-09-26T12:05:49.999Z</time>
      </trkpt>
      <trkpt lat="42.28371" lon="2.03089">
        <ele>1489.88</ele>
        <time>2024-09-26T12:05:55.999Z</time>
      </trkpt>
      <trkpt lat="42.28371" lon="2.03102">
        <ele>1490.64</ele>
        <time>2024-09-26T12:06:02.999Z</time>
      </trkpt>
      <trkpt lat="42.28369" lon="2.03114">
        <ele>1491.29</ele>
        <time>2024-09-26T12:06:08.999Z</time>
      </trkpt>
      <trkpt lat="42.28365" lon="2.03127">
        <ele>1491.91</ele>
        <time>2024-09-26T12:06:14.999Z</time>
      </trkpt>
      <trkpt lat="42.28363" lon="2.03139">
        <ele>1492.51</ele>
        <time>2024-09-26T12:06:20.999Z</time>
      </trkpt>
      <trkpt lat="42.28361" lon="2.0315">
        <ele>1493.1</ele>
        <time>2024-09-26T12:06:26.999Z</time>
      </trkpt>
      <trkpt lat="42.28359" lon="2.03164">
        <ele>1493.75</ele>
        <time>2024-09-26T12:06:33.999Z</time>
      </trkpt>
      <trkpt lat="42.28362" lon="2.03176">
        <ele>1502.97</ele>
        <time>2024-09-26T12:10:55.000Z</time>
      </trkpt>
      <trkpt lat="42.28361" lon="2.0319">
        <ele>1504.28</ele>
        <time>2024-09-26T12:11:02.000Z</time>
      </trkpt>
      <trkpt lat="42.28357" lon="2.03202">
        <ele>1505.31</ele>
        <time>2024-09-26T12:11:08.000Z</time>
      </trkpt>
      <trkpt lat="42.28354" lon="2.03214">
        <ele>1506.25</ele>
        <time>2024-09-26T12:11:14.000Z</time>
      </trkpt>
      <trkpt lat="42.28352" lon="2.03227">
        <ele>1507.24</ele>
        <time>2024-09-26T12:11:21.000Z</time>
      </trkpt>
      <trkpt lat="42.28349" lon="2.03239">
        <ele>1508.14</ele>
        <time>2024-09-26T12:11:28.000Z</time>
      </trkpt>
      <trkpt lat="42.28349" lon="2.03252">
        <ele>1508.98</ele>
        <time>2024-09-26T12:11:35.000Z</time>
      </trkpt>
      <trkpt lat="42.28342" lon="2.0326">
        <ele>1509.76</ele>
        <time>2024-09-26T12:11:42.000Z</time>
      </trkpt>
      <trkpt lat="42.28332" lon="2.03266">
        <ele>1510.38</ele>
        <time>2024-09-26T12:11:48.000Z</time>
      </trkpt>
      <trkpt lat="42.28325" lon="2.03273">
        <ele>1510.96</ele>
        <time>2024-09-26T12:11:54.000Z</time>
      </trkpt>
      <trkpt lat="42.28321" lon="2.03287">
        <ele>1511.67</ele>
        <time>2024-09-26T12:12:02.000Z</time>
      </trkpt>
      <trkpt lat="42.28317" lon="2.03299">
        <ele>1512.18</ele>
        <time>2024-09-26T12:12:08.000Z</time>
      </trkpt>
      <trkpt lat="42.28315" lon="2.03312">
        <ele>1512.74</ele>
        <time>2024-09-26T12:12:15.000Z</time>
      </trkpt>
      <trkpt lat="42.28316" lon="2.03325">
        <ele>1513.42</ele>
        <time>2024-09-26T12:12:24.000Z</time>
      </trkpt>
      <trkpt lat="42.2831" lon="2.03336">
        <ele>1513.96</ele>
        <time>2024-09-26T12:12:31.000Z</time>
      </trkpt>
      <trkpt lat="42.283" lon="2.03342">
        <ele>1514.4</ele>
        <time>2024-09-26T12:12:37.000Z</time>
      </trkpt>
      <trkpt lat="42.28291" lon="2.03347">
        <ele>1514.84</ele>
        <time>2024-09-26T12:12:43.000Z</time>
      </trkpt>
      <trkpt lat="42.28283" lon="2.03351">
        <ele>1515.19</ele>
        <time>2024-09-26T12:12:48.000Z</time>
      </trkpt>
      <trkpt lat="42.28273" lon="2.03354">
        <ele>1515.53</ele>
        <time>2024-09-26T12:12:53.000Z</time>
      </trkpt>
      <trkpt lat="42.28264" lon="2.03358">
        <ele>1515.93</ele>
        <time>2024-09-26T12:12:59.000Z</time>
      </trkpt>
      <trkpt lat="42.28256" lon="2.03363">
        <ele>1516.38</ele>
        <time>2024-09-26T12:13:06.000Z</time>
      </trkpt>
      <trkpt lat="42.28251" lon="2.03374">
        <ele>1516.82</ele>
        <time>2024-09-26T12:13:13.000Z</time>
      </trkpt>
      <trkpt lat="42.28247" lon="2.03386">
        <ele>1517.19</ele>
        <time>2024-09-26T12:13:19.000Z</time>
      </trkpt>
      <trkpt lat="42.28242" lon="2.03397">
        <ele>1517.56</ele>
        <time>2024-09-26T12:13:25.000Z</time>
      </trkpt>
      <trkpt lat="42.28238" lon="2.03409">
        <ele>1517.99</ele>
        <time>2024-09-26T12:13:32.000Z</time>
      </trkpt>
      <trkpt lat="42.28236" lon="2.03422">
        <ele>1518.41</ele>
        <time>2024-09-26T12:13:39.000Z</time>
      </trkpt>
      <trkpt lat="42.28237" lon="2.03436">
        <ele>1518.77</ele>
        <time>2024-09-26T12:13:45.000Z</time>
      </trkpt>
      <trkpt lat="42.28239" lon="2.03448">
        <ele>1519.18</ele>
        <time>2024-09-26T12:13:52.000Z</time>
      </trkpt>
      <trkpt lat="42.28243" lon="2.0346">
        <ele>1519.6</ele>
        <time>2024-09-26T12:13:59.000Z</time>
      </trkpt>
      <trkpt lat="42.28252" lon="2.0347">
        <ele>1519.92</ele>
        <time>2024-09-26T12:14:04.000Z</time>
      </trkpt>
      <trkpt lat="42.28259" lon="2.03477">
        <ele>1520.29</ele>
        <time>2024-09-26T12:14:09.000Z</time>
      </trkpt>
      <trkpt lat="42.28264" lon="2.03487">
        <ele>1521.03</ele>
        <time>2024-09-26T12:14:18.000Z</time>
      </trkpt>
      <trkpt lat="42.28273" lon="2.03488">
        <ele>1521.56</ele>
        <time>2024-09-26T12:14:24.000Z</time>
      </trkpt>
      <trkpt lat="42.28287" lon="2.03483">
        <ele>1522.04</ele>
        <time>2024-09-26T12:14:29.000Z</time>
      </trkpt>
      <trkpt lat="42.28294" lon="2.03475">
        <ele>1522.69</ele>
        <time>2024-09-26T12:14:35.000Z</time>
      </trkpt>
      <trkpt lat="42.28302" lon="2.03467">
        <ele>1523.53</ele>
        <time>2024-09-26T12:14:42.000Z</time>
      </trkpt>
      <trkpt lat="42.28309" lon="2.03458">
        <ele>1524.63</ele>
        <time>2024-09-26T12:14:50.000Z</time>
      </trkpt>
      <trkpt lat="42.28316" lon="2.0345">
        <ele>1525.73</ele>
        <time>2024-09-26T12:14:57.000Z</time>
      </trkpt>
      <trkpt lat="42.28322" lon="2.0344">
        <ele>1526.87</ele>
        <time>2024-09-26T12:15:04.000Z</time>
      </trkpt>
      <trkpt lat="42.28329" lon="2.03432">
        <ele>1528.16</ele>
        <time>2024-09-26T12:15:12.000Z</time>
      </trkpt>
      <trkpt lat="42.28336" lon="2.0342">
        <ele>1529.29</ele>
        <time>2024-09-26T12:15:19.000Z</time>
      </trkpt>
      <trkpt lat="42.28342" lon="2.03409">
        <ele>1530.73</ele>
        <time>2024-09-26T12:15:28.000Z</time>
      </trkpt>
      <trkpt lat="42.28347" lon="2.03398">
        <ele>1531.7</ele>
        <time>2024-09-26T12:15:34.000Z</time>
      </trkpt>
      <trkpt lat="42.28351" lon="2.03386">
        <ele>1532.73</ele>
        <time>2024-09-26T12:15:40.000Z</time>
      </trkpt>
      <trkpt lat="42.28356" lon="2.03374">
        <ele>1533.79</ele>
        <time>2024-09-26T12:15:46.000Z</time>
      </trkpt>
      <trkpt lat="42.28361" lon="2.03364">
        <ele>1535.05</ele>
        <time>2024-09-26T12:15:53.000Z</time>
      </trkpt>
      <trkpt lat="42.28365" lon="2.03352">
        <ele>1536.34</ele>
        <time>2024-09-26T12:16:00.000Z</time>
      </trkpt>
      <trkpt lat="42.28374" lon="2.03345">
        <ele>1537.8</ele>
        <time>2024-09-26T12:16:08.000Z</time>
      </trkpt>
      <trkpt lat="42.28383" lon="2.0334">
        <ele>1539.04</ele>
        <time>2024-09-26T12:16:15.000Z</time>
      </trkpt>
      <trkpt lat="42.28392" lon="2.0334">
        <ele>1541.06</ele>
        <time>2024-09-26T12:16:27.000Z</time>
      </trkpt>
      <trkpt lat="42.28403" lon="2.03342">
        <ele>1542.3</ele>
        <time>2024-09-26T12:16:35.000Z</time>
      </trkpt>
      <trkpt lat="42.28414" lon="2.03339">
        <ele>1543.32</ele>
        <time>2024-09-26T12:16:42.000Z</time>
      </trkpt>
      <trkpt lat="42.28423" lon="2.03337">
        <ele>1544.06</ele>
        <time>2024-09-26T12:16:47.000Z</time>
      </trkpt>
      <trkpt lat="42.28433" lon="2.03334">
        <ele>1544.96</ele>
        <time>2024-09-26T12:16:53.000Z</time>
      </trkpt>
      <trkpt lat="42.28442" lon="2.03331">
        <ele>1546.03</ele>
        <time>2024-09-26T12:17:00.000Z</time>
      </trkpt>
      <trkpt lat="42.28452" lon="2.03328">
        <ele>1547.28</ele>
        <time>2024-09-26T12:17:08.000Z</time>
      </trkpt>
      <trkpt lat="42.28461" lon="2.03325">
        <ele>1548.22</ele>
        <time>2024-09-26T12:17:14.000Z</time>
      </trkpt>
      <trkpt lat="42.2847" lon="2.03323">
        <ele>1549.3</ele>
        <time>2024-09-26T12:17:21.000Z</time>
      </trkpt>
      <trkpt lat="42.28479" lon="2.0332">
        <ele>1550.69</ele>
        <time>2024-09-26T12:17:30.000Z</time>
      </trkpt>
      <trkpt lat="42.2849" lon="2.03318">
        <ele>1552.01</ele>
        <time>2024-09-26T12:17:39.000Z</time>
      </trkpt>
      <trkpt lat="42.285" lon="2.03315">
        <ele>1552.86</ele>
        <time>2024-09-26T12:17:45.000Z</time>
      </trkpt>
      <trkpt lat="42.28511" lon="2.03312">
        <ele>1553.7</ele>
        <time>2024-09-26T12:17:51.000Z</time>
      </trkpt>
      <trkpt lat="42.28519" lon="2.03316">
        <ele>1554.92</ele>
        <time>2024-09-26T12:18:00.000Z</time>
      </trkpt>
      <trkpt lat="42.28528" lon="2.03324">
        <ele>1555.78</ele>
        <time>2024-09-26T12:18:07.000Z</time>
      </trkpt>
      <trkpt lat="42.28534" lon="2.03334">
        <ele>1556.94</ele>
        <time>2024-09-26T12:18:17.000Z</time>
      </trkpt>
      <trkpt lat="42.2854" lon="2.03345">
        <ele>1557.83</ele>
        <time>2024-09-26T12:18:25.000Z</time>
      </trkpt>
      <trkpt lat="42.28545" lon="2.03356">
        <ele>1558.57</ele>
        <time>2024-09-26T12:18:32.000Z</time>
      </trkpt>
      <trkpt lat="42.28551" lon="2.03366">
        <ele>1559.18</ele>
        <time>2024-09-26T12:18:38.000Z</time>
      </trkpt>
      <trkpt lat="42.28556" lon="2.03378">
        <ele>1559.95</ele>
        <time>2024-09-26T12:18:46.000Z</time>
      </trkpt>
      <trkpt lat="42.28562" lon="2.03388">
        <ele>1560.58</ele>
        <time>2024-09-26T12:18:53.000Z</time>
      </trkpt>
      <trkpt lat="42.28568" lon="2.03397">
        <ele>1561.11</ele>
        <time>2024-09-26T12:18:59.000Z</time>
      </trkpt>
      <trkpt lat="42.28574" lon="2.03408">
        <ele>1561.88</ele>
        <time>2024-09-26T12:19:08.000Z</time>
      </trkpt>
      <trkpt lat="42.28581" lon="2.03418">
        <ele>1562.39</ele>
        <time>2024-09-26T12:19:14.000Z</time>
      </trkpt>
      <trkpt lat="42.28588" lon="2.03426">
        <ele>1563</ele>
        <time>2024-09-26T12:19:21.000Z</time>
      </trkpt>
      <trkpt lat="42.28595" lon="2.03437">
        <ele>1563.62</ele>
        <time>2024-09-26T12:19:28.000Z</time>
      </trkpt>
      <trkpt lat="42.28602" lon="2.03444">
        <ele>1564.25</ele>
        <time>2024-09-26T12:19:35.000Z</time>
      </trkpt>
      <trkpt lat="42.2861" lon="2.03453">
        <ele>1564.89</ele>
        <time>2024-09-26T12:19:41.999Z</time>
      </trkpt>
      <trkpt lat="42.28617" lon="2.03463">
        <ele>1565.64</ele>
        <time>2024-09-26T12:19:49.999Z</time>
      </trkpt>
      <trkpt lat="42.28625" lon="2.03471">
        <ele>1566.2</ele>
        <time>2024-09-26T12:19:55.999Z</time>
      </trkpt>
      <trkpt lat="42.28634" lon="2.03479">
        <ele>1566.87</ele>
        <time>2024-09-26T12:20:02.999Z</time>
      </trkpt>
      <trkpt lat="42.28643" lon="2.03484">
        <ele>1567.56</ele>
        <time>2024-09-26T12:20:09.999Z</time>
      </trkpt>
      <trkpt lat="42.28652" lon="2.03484">
        <ele>1568.47</ele>
        <time>2024-09-26T12:20:17.999Z</time>
      </trkpt>
      <trkpt lat="42.28661" lon="2.03479">
        <ele>1569.1</ele>
        <time>2024-09-26T12:20:22.999Z</time>
      </trkpt>
      <trkpt lat="42.2867" lon="2.03475">
        <ele>1569.78</ele>
        <time>2024-09-26T12:20:27.999Z</time>
      </trkpt>
      <trkpt lat="42.28679" lon="2.0347">
        <ele>1570.67</ele>
        <time>2024-09-26T12:20:33.999Z</time>
      </trkpt>
      <trkpt lat="42.28688" lon="2.03467">
        <ele>1571.62</ele>
        <time>2024-09-26T12:20:39.999Z</time>
      </trkpt>
      <trkpt lat="42.28696" lon="2.03462">
        <ele>1572.77</ele>
        <time>2024-09-26T12:20:46.999Z</time>
      </trkpt>
      <trkpt lat="42.28704" lon="2.03452">
        <ele>1573.77</ele>
        <time>2024-09-26T12:20:52.999Z</time>
      </trkpt>
      <trkpt lat="42.28712" lon="2.03442">
        <ele>1574.78</ele>
        <time>2024-09-26T12:20:58.999Z</time>
      </trkpt>
      <trkpt lat="42.28716" lon="2.03431">
        <ele>1575.97</ele>
        <time>2024-09-26T12:21:05.999Z</time>
      </trkpt>
      <trkpt lat="42.2872" lon="2.03419">
        <ele>1577.02</ele>
        <time>2024-09-26T12:21:11.999Z</time>
      </trkpt>
      <trkpt lat="42.28725" lon="2.03407">
        <ele>1578.4</ele>
        <time>2024-09-26T12:21:19.999Z</time>
      </trkpt>
      <trkpt lat="42.28728" lon="2.03396">
        <ele>1579.55</ele>
        <time>2024-09-26T12:21:26.999Z</time>
      </trkpt>
      <trkpt lat="42.28731" lon="2.03384">
        <ele>1580.81</ele>
        <time>2024-09-26T12:21:34.999Z</time>
      </trkpt>
      <trkpt lat="42.28734" lon="2.03371">
        <ele>1581.58</ele>
        <time>2024-09-26T12:21:39.999Z</time>
      </trkpt>
      <trkpt lat="42.28736" lon="2.03359">
        <ele>1582.36</ele>
        <time>2024-09-26T12:21:44.999Z</time>
      </trkpt>
      <trkpt lat="42.28739" lon="2.03345">
        <ele>1583.3</ele>
        <time>2024-09-26T12:21:50.999Z</time>
      </trkpt>
      <trkpt lat="42.28741" lon="2.03333">
        <ele>1584.23</ele>
        <time>2024-09-26T12:21:56.999Z</time>
      </trkpt>
      <trkpt lat="42.28744" lon="2.03321">
        <ele>1585.33</ele>
        <time>2024-09-26T12:22:03.999Z</time>
      </trkpt>
      <trkpt lat="42.28747" lon="2.03308">
        <ele>1586.43</ele>
        <time>2024-09-26T12:22:10.999Z</time>
      </trkpt>
      <trkpt lat="42.28749" lon="2.03295">
        <ele>1587.37</ele>
        <time>2024-09-26T12:22:16.999Z</time>
      </trkpt>
      <trkpt lat="42.28752" lon="2.03282">
        <ele>1588.48</ele>
        <time>2024-09-26T12:22:23.999Z</time>
      </trkpt>
      <trkpt lat="42.28755" lon="2.03269">
        <ele>1589.76</ele>
        <time>2024-09-26T12:22:31.999Z</time>
      </trkpt>
      <trkpt lat="42.28759" lon="2.03259">
        <ele>1590.7</ele>
        <time>2024-09-26T12:22:37.999Z</time>
      </trkpt>
      <trkpt lat="42.28767" lon="2.03251">
        <ele>1591.63</ele>
        <time>2024-09-26T12:22:43.999Z</time>
      </trkpt>
      <trkpt lat="42.28776" lon="2.03243">
        <ele>1592.54</ele>
        <time>2024-09-26T12:22:49.999Z</time>
      </trkpt>
      <trkpt lat="42.28786" lon="2.03239">
        <ele>1593.58</ele>
        <time>2024-09-26T12:22:56.999Z</time>
      </trkpt>
      <trkpt lat="42.28795" lon="2.03238">
        <ele>1594.74</ele>
        <time>2024-09-26T12:23:04.999Z</time>
      </trkpt>
      <trkpt lat="42.28805" lon="2.03239">
        <ele>1595.69</ele>
        <time>2024-09-26T12:23:11.999Z</time>
      </trkpt>
      <trkpt lat="42.28814" lon="2.03242">
        <ele>1596.34</ele>
        <time>2024-09-26T12:23:16.999Z</time>
      </trkpt>
      <trkpt lat="42.28824" lon="2.03246">
        <ele>1597.07</ele>
        <time>2024-09-26T12:23:22.999Z</time>
      </trkpt>
      <trkpt lat="42.28833" lon="2.0325">
        <ele>1597.65</ele>
        <time>2024-09-26T12:23:27.999Z</time>
      </trkpt>
      <trkpt lat="42.28841" lon="2.03257">
        <ele>1598.3</ele>
        <time>2024-09-26T12:23:33.999Z</time>
      </trkpt>
      <trkpt lat="42.2885" lon="2.03266">
        <ele>1598.92</ele>
        <time>2024-09-26T12:23:39.999Z</time>
      </trkpt>
      <trkpt lat="42.28856" lon="2.03278">
        <ele>1599.43</ele>
        <time>2024-09-26T12:23:44.999Z</time>
      </trkpt>
      <trkpt lat="42.28862" lon="2.03291">
        <ele>1599.94</ele>
        <time>2024-09-26T12:23:49.999Z</time>
      </trkpt>
      <trkpt lat="42.28868" lon="2.03305">
        <ele>1600.42</ele>
        <time>2024-09-26T12:23:54.999Z</time>
      </trkpt>
      <trkpt lat="42.28875" lon="2.0332">
        <ele>1600.9</ele>
        <time>2024-09-26T12:23:59.999Z</time>
      </trkpt>
      <trkpt lat="42.28882" lon="2.03335">
        <ele>1601.36</ele>
        <time>2024-09-26T12:24:04.999Z</time>
      </trkpt>
      <trkpt lat="42.28889" lon="2.03349">
        <ele>1601.81</ele>
        <time>2024-09-26T12:24:09.999Z</time>
      </trkpt>
      <trkpt lat="42.28897" lon="2.03363">
        <ele>1602.24</ele>
        <time>2024-09-26T12:24:14.999Z</time>
      </trkpt>
      <trkpt lat="42.28904" lon="2.03373">
        <ele>1602.65</ele>
        <time>2024-09-26T12:24:19.999Z</time>
      </trkpt>
      <trkpt lat="42.28913" lon="2.03381">
        <ele>1603.05</ele>
        <time>2024-09-26T12:24:24.999Z</time>
      </trkpt>
      <trkpt lat="42.28922" lon="2.03389">
        <ele>1603.43</ele>
        <time>2024-09-26T12:24:29.999Z</time>
      </trkpt>
      <trkpt lat="42.28931" lon="2.03395">
        <ele>1603.78</ele>
        <time>2024-09-26T12:24:34.999Z</time>
      </trkpt>
      <trkpt lat="42.28941" lon="2.03397">
        <ele>1604.12</ele>
        <time>2024-09-26T12:24:39.999Z</time>
      </trkpt>
      <trkpt lat="42.28947" lon="2.03389">
        <ele>1605.06</ele>
        <time>2024-09-26T12:25:28.999Z</time>
      </trkpt>
      <trkpt lat="42.28955" lon="2.03378">
        <ele>1605.62</ele>
        <time>2024-09-26T12:25:33.999Z</time>
      </trkpt>
      <trkpt lat="42.28962" lon="2.0335">
        <ele>1608.82</ele>
        <time>2024-09-26T12:25:38.999Z</time>
      </trkpt>
      <trkpt lat="42.28962" lon="2.03318">
        <ele>1610.62</ele>
        <time>2024-09-26T12:25:43.999Z</time>
      </trkpt>
      <trkpt lat="42.28961" lon="2.0328">
        <ele>1611.5</ele>
        <time>2024-09-26T12:25:48.999Z</time>
      </trkpt>
      <trkpt lat="42.2896" lon="2.03239">
        <ele>1612.1</ele>
        <time>2024-09-26T12:25:53.999Z</time>
      </trkpt>
      <trkpt lat="42.28961" lon="2.03197">
        <ele>1612.64</ele>
        <time>2024-09-26T12:25:58.999Z</time>
      </trkpt>
      <trkpt lat="42.28976" lon="2.03166">
        <ele>1613.71</ele>
        <time>2024-09-26T12:26:03.999Z</time>
      </trkpt>
      <trkpt lat="42.28993" lon="2.03153">
        <ele>1614.51</ele>
        <time>2024-09-26T12:26:08.999Z</time>
      </trkpt>
      <trkpt lat="42.29008" lon="2.03147">
        <ele>1614.8</ele>
        <time>2024-09-26T12:26:13.999Z</time>
      </trkpt>
      <trkpt lat="42.29019" lon="2.03146">
        <ele>1615.26</ele>
        <time>2024-09-26T12:26:18.999Z</time>
      </trkpt>
      <trkpt lat="42.29029" lon="2.03146">
        <ele>1615.86</ele>
        <time>2024-09-26T12:26:23.999Z</time>
      </trkpt>
      <trkpt lat="42.29039" lon="2.03145">
        <ele>1616.57</ele>
        <time>2024-09-26T12:26:28.999Z</time>
      </trkpt>
      <trkpt lat="42.29048" lon="2.03145">
        <ele>1617.41</ele>
        <time>2024-09-26T12:26:33.999Z</time>
      </trkpt>
      <trkpt lat="42.29058" lon="2.03145">
        <ele>1618.38</ele>
        <time>2024-09-26T12:26:38.999Z</time>
      </trkpt>
      <trkpt lat="42.29067" lon="2.03143">
        <ele>1619.42</ele>
        <time>2024-09-26T12:26:43.999Z</time>
      </trkpt>
      <trkpt lat="42.29076" lon="2.0314">
        <ele>1620.84</ele>
        <time>2024-09-26T12:26:49.999Z</time>
      </trkpt>
      <trkpt lat="42.29087" lon="2.03138">
        <ele>1622.81</ele>
        <time>2024-09-26T12:26:56.999Z</time>
      </trkpt>
      <trkpt lat="42.29096" lon="2.03135">
        <ele>1624.79</ele>
        <time>2024-09-26T12:27:02.999Z</time>
      </trkpt>
      <trkpt lat="42.29105" lon="2.03133">
        <ele>1627.4</ele>
        <time>2024-09-26T12:27:10.999Z</time>
      </trkpt>
      <trkpt lat="42.29119" lon="2.03139">
        <ele>1628.92</ele>
        <time>2024-09-26T12:27:15.999Z</time>
      </trkpt>
      <trkpt lat="42.2913" lon="2.03146">
        <ele>1630.36</ele>
        <time>2024-09-26T12:27:20.999Z</time>
      </trkpt>
      <trkpt lat="42.2914" lon="2.03149">
        <ele>1632.24</ele>
        <time>2024-09-26T12:27:27.999Z</time>
      </trkpt>
      <trkpt lat="42.29149" lon="2.0315">
        <ele>1633.95</ele>
        <time>2024-09-26T12:27:34.999Z</time>
      </trkpt>
      <trkpt lat="42.29159" lon="2.03148">
        <ele>1635.29</ele>
        <time>2024-09-26T12:27:40.999Z</time>
      </trkpt>
      <trkpt lat="42.29169" lon="2.0315">
        <ele>1636.68</ele>
        <time>2024-09-26T12:27:47.999Z</time>
      </trkpt>
      <trkpt lat="42.29179" lon="2.0315">
        <ele>1637.79</ele>
        <time>2024-09-26T12:27:53.999Z</time>
      </trkpt>
      <trkpt lat="42.29188" lon="2.0315">
        <ele>1638.77</ele>
        <time>2024-09-26T12:27:59.999Z</time>
      </trkpt>
      <trkpt lat="42.29197" lon="2.03154">
        <ele>1639.64</ele>
        <time>2024-09-26T12:28:05.999Z</time>
      </trkpt>
      <trkpt lat="42.29206" lon="2.03159">
        <ele>1640.53</ele>
        <time>2024-09-26T12:28:12.999Z</time>
      </trkpt>
      <trkpt lat="42.29215" lon="2.03163">
        <ele>1641.38</ele>
        <time>2024-09-26T12:28:19.999Z</time>
      </trkpt>
      <trkpt lat="42.29224" lon="2.03168">
        <ele>1642.22</ele>
        <time>2024-09-26T12:28:26.999Z</time>
      </trkpt>
      <trkpt lat="42.29232" lon="2.03173">
        <ele>1643.02</ele>
        <time>2024-09-26T12:28:33.999Z</time>
      </trkpt>
      <trkpt lat="42.29241" lon="2.03177">
        <ele>1643.69</ele>
        <time>2024-09-26T12:28:39.999Z</time>
      </trkpt>
      <trkpt lat="42.29251" lon="2.03179">
        <ele>1644.32</ele>
        <time>2024-09-26T12:28:45.999Z</time>
      </trkpt>
      <trkpt lat="42.2926" lon="2.03178">
        <ele>1644.91</ele>
        <time>2024-09-26T12:28:51.999Z</time>
      </trkpt>
      <trkpt lat="42.2927" lon="2.03175">
        <ele>1645.53</ele>
        <time>2024-09-26T12:28:58.999Z</time>
      </trkpt>
      <trkpt lat="42.29279" lon="2.0317">
        <ele>1646.15</ele>
        <time>2024-09-26T12:29:05.999Z</time>
      </trkpt>
      <trkpt lat="42.29288" lon="2.03164">
        <ele>1646.76</ele>
        <time>2024-09-26T12:29:11.999Z</time>
      </trkpt>
      <trkpt lat="42.29296" lon="2.03159">
        <ele>1647.44</ele>
        <time>2024-09-26T12:29:17.999Z</time>
      </trkpt>
      <trkpt lat="42.29305" lon="2.03155">
        <ele>1648.27</ele>
        <time>2024-09-26T12:29:24.999Z</time>
      </trkpt>
      <trkpt lat="42.29314" lon="2.0315">
        <ele>1649.02</ele>
        <time>2024-09-26T12:29:30.999Z</time>
      </trkpt>
      <trkpt lat="42.29324" lon="2.03148">
        <ele>1649.89</ele>
        <time>2024-09-26T12:29:37.999Z</time>
      </trkpt>
      <trkpt lat="42.29334" lon="2.03145">
        <ele>1650.74</ele>
        <time>2024-09-26T12:29:44.999Z</time>
      </trkpt>
      <trkpt lat="42.29343" lon="2.03145">
        <ele>1651.43</ele>
        <time>2024-09-26T12:29:50.999Z</time>
      </trkpt>
      <trkpt lat="42.29353" lon="2.03145">
        <ele>1652.12</ele>
        <time>2024-09-26T12:29:56.999Z</time>
      </trkpt>
      <trkpt lat="42.29362" lon="2.03148">
        <ele>1652.92</ele>
        <time>2024-09-26T12:30:03.999Z</time>
      </trkpt>
      <trkpt lat="42.2937" lon="2.03152">
        <ele>1653.69</ele>
        <time>2024-09-26T12:30:10.999Z</time>
      </trkpt>
      <trkpt lat="42.29379" lon="2.03157">
        <ele>1654.45</ele>
        <time>2024-09-26T12:30:17.999Z</time>
      </trkpt>
      <trkpt lat="42.29388" lon="2.03163">
        <ele>1655.26</ele>
        <time>2024-09-26T12:30:24.999Z</time>
      </trkpt>
      <trkpt lat="42.29397" lon="2.0317">
        <ele>1656.15</ele>
        <time>2024-09-26T12:30:31.999Z</time>
      </trkpt>
      <trkpt lat="42.29405" lon="2.03176">
        <ele>1656.97</ele>
        <time>2024-09-26T12:30:37.999Z</time>
      </trkpt>
      <trkpt lat="42.29415" lon="2.03183">
        <ele>1657.96</ele>
        <time>2024-09-26T12:30:44.999Z</time>
      </trkpt>
      <trkpt lat="42.29422" lon="2.03191">
        <ele>1658.98</ele>
        <time>2024-09-26T12:30:51.999Z</time>
      </trkpt>
      <trkpt lat="42.2943" lon="2.03198">
        <ele>1659.99</ele>
        <time>2024-09-26T12:30:58.999Z</time>
      </trkpt>
      <trkpt lat="42.29439" lon="2.03204">
        <ele>1660.66</ele>
        <time>2024-09-26T12:31:03.999Z</time>
      </trkpt>
      <trkpt lat="42.29446" lon="2.03211">
        <ele>1661.38</ele>
        <time>2024-09-26T12:31:09.999Z</time>
      </trkpt>
      <trkpt lat="42.29454" lon="2.03217">
        <ele>1662.16</ele>
        <time>2024-09-26T12:31:16.999Z</time>
      </trkpt>
      <trkpt lat="42.29463" lon="2.03222">
        <ele>1662.86</ele>
        <time>2024-09-26T12:31:23.999Z</time>
      </trkpt>
      <trkpt lat="42.29473" lon="2.03224">
        <ele>1663.55</ele>
        <time>2024-09-26T12:31:31.999Z</time>
      </trkpt>
      <trkpt lat="42.29482" lon="2.03227">
        <ele>1664.02</ele>
        <time>2024-09-26T12:31:37.999Z</time>
      </trkpt>
      <trkpt lat="42.29492" lon="2.03229">
        <ele>1664.57</ele>
        <time>2024-09-26T12:31:44.999Z</time>
      </trkpt>
      <trkpt lat="42.29503" lon="2.03231">
        <ele>1665.1</ele>
        <time>2024-09-26T12:31:52.000Z</time>
      </trkpt>
      <trkpt lat="42.29512" lon="2.03235">
        <ele>1665.65</ele>
        <time>2024-09-26T12:31:59.000Z</time>
      </trkpt>
      <trkpt lat="42.2952" lon="2.03242">
        <ele>1666.21</ele>
        <time>2024-09-26T12:32:06.000Z</time>
      </trkpt>
      <trkpt lat="42.29529" lon="2.03246">
        <ele>1666.69</ele>
        <time>2024-09-26T12:32:12.000Z</time>
      </trkpt>
      <trkpt lat="42.29537" lon="2.03251">
        <ele>1667.15</ele>
        <time>2024-09-26T12:32:18.000Z</time>
      </trkpt>
      <trkpt lat="42.29547" lon="2.03256">
        <ele>1667.61</ele>
        <time>2024-09-26T12:32:24.000Z</time>
      </trkpt>
      <trkpt lat="42.29555" lon="2.03262">
        <ele>1668.12</ele>
        <time>2024-09-26T12:32:31.000Z</time>
      </trkpt>
      <trkpt lat="42.29564" lon="2.03268">
        <ele>1668.64</ele>
        <time>2024-09-26T12:32:38.000Z</time>
      </trkpt>
      <trkpt lat="42.29573" lon="2.03274">
        <ele>1669.18</ele>
        <time>2024-09-26T12:32:45.000Z</time>
      </trkpt>
      <trkpt lat="42.29581" lon="2.0328">
        <ele>1669.67</ele>
        <time>2024-09-26T12:32:51.000Z</time>
      </trkpt>
      <trkpt lat="42.2959" lon="2.03288">
        <ele>1670.26</ele>
        <time>2024-09-26T12:32:58.000Z</time>
      </trkpt>
      <trkpt lat="42.29598" lon="2.03295">
        <ele>1670.86</ele>
        <time>2024-09-26T12:33:05.000Z</time>
      </trkpt>
      <trkpt lat="42.29607" lon="2.03301">
        <ele>1671.48</ele>
        <time>2024-09-26T12:33:12.000Z</time>
      </trkpt>
      <trkpt lat="42.29615" lon="2.03307">
        <ele>1672.01</ele>
        <time>2024-09-26T12:33:18.000Z</time>
      </trkpt>
      <trkpt lat="42.29623" lon="2.03314">
        <ele>1672.53</ele>
        <time>2024-09-26T12:33:24.000Z</time>
      </trkpt>
      <trkpt lat="42.29631" lon="2.0332">
        <ele>1673.13</ele>
        <time>2024-09-26T12:33:31.000Z</time>
      </trkpt>
      <trkpt lat="42.2964" lon="2.03325">
        <ele>1673.73</ele>
        <time>2024-09-26T12:33:38.000Z</time>
      </trkpt>
      <trkpt lat="42.29648" lon="2.03331">
        <ele>1674.26</ele>
        <time>2024-09-26T12:33:44.000Z</time>
      </trkpt>
      <trkpt lat="42.29656" lon="2.03337">
        <ele>1674.87</ele>
        <time>2024-09-26T12:33:51.000Z</time>
      </trkpt>
      <trkpt lat="42.29665" lon="2.03345">
        <ele>1675.48</ele>
        <time>2024-09-26T12:33:58.000Z</time>
      </trkpt>
      <trkpt lat="42.29673" lon="2.03352">
        <ele>1676.07</ele>
        <time>2024-09-26T12:34:05.000Z</time>
      </trkpt>
      <trkpt lat="42.29682" lon="2.03357">
        <ele>1676.72</ele>
        <time>2024-09-26T12:34:13.000Z</time>
      </trkpt>
      <trkpt lat="42.29691" lon="2.03355">
        <ele>1677.19</ele>
        <time>2024-09-26T12:34:19.000Z</time>
      </trkpt>
      <trkpt lat="42.29698" lon="2.03345">
        <ele>1677.68</ele>
        <time>2024-09-26T12:34:25.000Z</time>
      </trkpt>
      <trkpt lat="42.29703" lon="2.03334">
        <ele>1678.21</ele>
        <time>2024-09-26T12:34:31.000Z</time>
      </trkpt>
      <trkpt lat="42.29702" lon="2.03321">
        <ele>1678.84</ele>
        <time>2024-09-26T12:34:38.000Z</time>
      </trkpt>
      <trkpt lat="42.29699" lon="2.03308">
        <ele>1679.44</ele>
        <time>2024-09-26T12:34:45.000Z</time>
      </trkpt>
      <trkpt lat="42.29697" lon="2.03296">
        <ele>1679.92</ele>
        <time>2024-09-26T12:34:51.000Z</time>
      </trkpt>
      <trkpt lat="42.29694" lon="2.03283">
        <ele>1680.45</ele>
        <time>2024-09-26T12:34:58.000Z</time>
      </trkpt>
      <trkpt lat="42.29691" lon="2.0327">
        <ele>1680.95</ele>
        <time>2024-09-26T12:35:05.000Z</time>
      </trkpt>
      <trkpt lat="42.29688" lon="2.03257">
        <ele>1681.42</ele>
        <time>2024-09-26T12:35:12.000Z</time>
      </trkpt>
      <trkpt lat="42.29686" lon="2.03245">
        <ele>1681.85</ele>
        <time>2024-09-26T12:35:19.000Z</time>
      </trkpt>
      <trkpt lat="42.29686" lon="2.03231">
        <ele>1682.26</ele>
        <time>2024-09-26T12:35:26.000Z</time>
      </trkpt>
      <trkpt lat="42.29688" lon="2.03219">
        <ele>1682.74</ele>
        <time>2024-09-26T12:35:34.000Z</time>
      </trkpt>
      <trkpt lat="42.29697" lon="2.03213">
        <ele>1683.17</ele>
        <time>2024-09-26T12:35:41.000Z</time>
      </trkpt>
      <trkpt lat="42.29706" lon="2.03209">
        <ele>1683.6</ele>
        <time>2024-09-26T12:35:48.000Z</time>
      </trkpt>
      <trkpt lat="42.29716" lon="2.03205">
        <ele>1684.03</ele>
        <time>2024-09-26T12:35:55.000Z</time>
      </trkpt>
      <trkpt lat="42.29726" lon="2.03201">
        <ele>1684.45</ele>
        <time>2024-09-26T12:36:02.000Z</time>
      </trkpt>
      <trkpt lat="42.29734" lon="2.03196">
        <ele>1684.82</ele>
        <time>2024-09-26T12:36:08.000Z</time>
      </trkpt>
      <trkpt lat="42.29742" lon="2.0319">
        <ele>1685.19</ele>
        <time>2024-09-26T12:36:14.000Z</time>
      </trkpt>
      <trkpt lat="42.29751" lon="2.03185">
        <ele>1685.64</ele>
        <time>2024-09-26T12:36:21.000Z</time>
      </trkpt>
      <trkpt lat="42.29759" lon="2.03179">
        <ele>1686.04</ele>
        <time>2024-09-26T12:36:27.000Z</time>
      </trkpt>
      <trkpt lat="42.29769" lon="2.03174">
        <ele>1686.52</ele>
        <time>2024-09-26T12:36:34.000Z</time>
      </trkpt>
      <trkpt lat="42.29778" lon="2.0317">
        <ele>1687.03</ele>
        <time>2024-09-26T12:36:41.000Z</time>
      </trkpt>
      <trkpt lat="42.29787" lon="2.03165">
        <ele>1687.56</ele>
        <time>2024-09-26T12:36:48.000Z</time>
      </trkpt>
      <trkpt lat="42.29797" lon="2.03161">
        <ele>1688.08</ele>
        <time>2024-09-26T12:36:55.000Z</time>
      </trkpt>
      <trkpt lat="42.29806" lon="2.03154">
        <ele>1688.53</ele>
        <time>2024-09-26T12:37:01.000Z</time>
      </trkpt>
      <trkpt lat="42.29812" lon="2.03145">
        <ele>1688.89</ele>
        <time>2024-09-26T12:37:06.000Z</time>
      </trkpt>
      <trkpt lat="42.29815" lon="2.03133">
        <ele>1689.34</ele>
        <time>2024-09-26T12:37:12.000Z</time>
      </trkpt>
      <trkpt lat="42.29814" lon="2.0312">
        <ele>1689.72</ele>
        <time>2024-09-26T12:37:17.000Z</time>
      </trkpt>
      <trkpt lat="42.29811" lon="2.03107">
        <ele>1690.24</ele>
        <time>2024-09-26T12:37:24.000Z</time>
      </trkpt>
      <trkpt lat="42.29806" lon="2.03097">
        <ele>1690.72</ele>
        <time>2024-09-26T12:37:30.000Z</time>
      </trkpt>
      <trkpt lat="42.298" lon="2.03086">
        <ele>1691.39</ele>
        <time>2024-09-26T12:37:37.000Z</time>
      </trkpt>
      <trkpt lat="42.29793" lon="2.03077">
        <ele>1692.04</ele>
        <time>2024-09-26T12:37:43.000Z</time>
      </trkpt>
      <trkpt lat="42.29785" lon="2.03069">
        <ele>1692.89</ele>
        <time>2024-09-26T12:37:50.000Z</time>
      </trkpt>
      <trkpt lat="42.29776" lon="2.03061">
        <ele>1693.72</ele>
        <time>2024-09-26T12:37:57.000Z</time>
      </trkpt>
      <trkpt lat="42.29767" lon="2.03057">
        <ele>1694.39</ele>
        <time>2024-09-26T12:38:03.000Z</time>
      </trkpt>
      <trkpt lat="42.29757" lon="2.03056">
        <ele>1695.06</ele>
        <time>2024-09-26T12:38:09.000Z</time>
      </trkpt>
      <trkpt lat="42.29747" lon="2.03055">
        <ele>1695.8</ele>
        <time>2024-09-26T12:38:15.000Z</time>
      </trkpt>
      <trkpt lat="42.29738" lon="2.03053">
        <ele>1696.55</ele>
        <time>2024-09-26T12:38:21.000Z</time>
      </trkpt>
      <trkpt lat="42.29728" lon="2.03049">
        <ele>1697.47</ele>
        <time>2024-09-26T12:38:28.000Z</time>
      </trkpt>
      <trkpt lat="42.2972" lon="2.03043">
        <ele>1701.26</ele>
        <time>2024-09-26T12:39:44.000Z</time>
      </trkpt>
      <trkpt lat="42.29711" lon="2.03037">
        <ele>1702.16</ele>
        <time>2024-09-26T12:39:50.000Z</time>
      </trkpt>
      <trkpt lat="42.29701" lon="2.03031">
        <ele>1702.96</ele>
        <time>2024-09-26T12:39:56.000Z</time>
      </trkpt>
      <trkpt lat="42.29692" lon="2.03026">
        <ele>1703.83</ele>
        <time>2024-09-26T12:40:03.000Z</time>
      </trkpt>
      <trkpt lat="42.29683" lon="2.03022">
        <ele>1704.57</ele>
        <time>2024-09-26T12:40:09.000Z</time>
      </trkpt>
      <trkpt lat="42.29675" lon="2.03017">
        <ele>1705.29</ele>
        <time>2024-09-26T12:40:15.000Z</time>
      </trkpt>
      <trkpt lat="42.29665" lon="2.03014">
        <ele>1706.1</ele>
        <time>2024-09-26T12:40:22.000Z</time>
      </trkpt>
      <trkpt lat="42.29655" lon="2.03013">
        <ele>1706.9</ele>
        <time>2024-09-26T12:40:29.000Z</time>
      </trkpt>
      <trkpt lat="42.29646" lon="2.03009">
        <ele>1707.55</ele>
        <time>2024-09-26T12:40:35.000Z</time>
      </trkpt>
      <trkpt lat="42.29637" lon="2.03008">
        <ele>1708.16</ele>
        <time>2024-09-26T12:40:41.000Z</time>
      </trkpt>
      <trkpt lat="42.29627" lon="2.03005">
        <ele>1708.83</ele>
        <time>2024-09-26T12:40:48.000Z</time>
      </trkpt>
      <trkpt lat="42.29618" lon="2.03001">
        <ele>1709.28</ele>
        <time>2024-09-26T12:40:53.000Z</time>
      </trkpt>
      <trkpt lat="42.2961" lon="2.02998">
        <ele>1709.71</ele>
        <time>2024-09-26T12:40:58.000Z</time>
      </trkpt>
      <trkpt lat="42.296" lon="2.02993">
        <ele>1710.34</ele>
        <time>2024-09-26T12:41:06.000Z</time>
      </trkpt>
      <trkpt lat="42.29591" lon="2.02988">
        <ele>1710.96</ele>
        <time>2024-09-26T12:41:14.000Z</time>
      </trkpt>
      <trkpt lat="42.29584" lon="2.02981">
        <ele>1711.38</ele>
        <time>2024-09-26T12:41:20.000Z</time>
      </trkpt>
      <trkpt lat="42.29577" lon="2.02973">
        <ele>1711.86</ele>
        <time>2024-09-26T12:41:27.000Z</time>
      </trkpt>
      <trkpt lat="42.29571" lon="2.02962">
        <ele>1712.26</ele>
        <time>2024-09-26T12:41:33.000Z</time>
      </trkpt>
      <trkpt lat="42.29566" lon="2.0295">
        <ele>1712.7</ele>
        <time>2024-09-26T12:41:40.000Z</time>
      </trkpt>
      <trkpt lat="42.29562" lon="2.02937">
        <ele>1713.02</ele>
        <time>2024-09-26T12:41:45.000Z</time>
      </trkpt>
      <trkpt lat="42.2956" lon="2.02923">
        <ele>1713.49</ele>
        <time>2024-09-26T12:41:52.000Z</time>
      </trkpt>
      <trkpt lat="42.29557" lon="2.0291">
        <ele>1713.88</ele>
        <time>2024-09-26T12:41:58.000Z</time>
      </trkpt>
      <trkpt lat="42.29554" lon="2.02898">
        <ele>1714.25</ele>
        <time>2024-09-26T12:42:04.000Z</time>
      </trkpt>
      <trkpt lat="42.2955" lon="2.02885">
        <ele>1714.61</ele>
        <time>2024-09-26T12:42:10.000Z</time>
      </trkpt>
      <trkpt lat="42.29546" lon="2.02873">
        <ele>1715.03</ele>
        <time>2024-09-26T12:42:17.000Z</time>
      </trkpt>
      <trkpt lat="42.29543" lon="2.02862">
        <ele>1715.4</ele>
        <time>2024-09-26T12:42:23.000Z</time>
      </trkpt>
      <trkpt lat="42.29538" lon="2.02851">
        <ele>1715.77</ele>
        <time>2024-09-26T12:42:29.000Z</time>
      </trkpt>
      <trkpt lat="42.29533" lon="2.02839">
        <ele>1716.2</ele>
        <time>2024-09-26T12:42:36.000Z</time>
      </trkpt>
      <trkpt lat="42.29528" lon="2.02826">
        <ele>1716.56</ele>
        <time>2024-09-26T12:42:42.000Z</time>
      </trkpt>
      <trkpt lat="42.29521" lon="2.02815">
        <ele>1716.99</ele>
        <time>2024-09-26T12:42:49.000Z</time>
      </trkpt>
      <trkpt lat="42.29516" lon="2.02803">
        <ele>1717.45</ele>
        <time>2024-09-26T12:42:56.000Z</time>
      </trkpt>
      <trkpt lat="42.2951" lon="2.02794">
        <ele>1717.87</ele>
        <time>2024-09-26T12:43:02.000Z</time>
      </trkpt>
      <trkpt lat="42.29502" lon="2.02785">
        <ele>1718.39</ele>
        <time>2024-09-26T12:43:09.000Z</time>
      </trkpt>
      <trkpt lat="42.29495" lon="2.02776">
        <ele>1718.86</ele>
        <time>2024-09-26T12:43:15.000Z</time>
      </trkpt>
      <trkpt lat="42.29486" lon="2.02769">
        <ele>1719.45</ele>
        <time>2024-09-26T12:43:22.000Z</time>
      </trkpt>
      <trkpt lat="42.29479" lon="2.02761">
        <ele>1719.98</ele>
        <time>2024-09-26T12:43:28.000Z</time>
      </trkpt>
      <trkpt lat="42.29474" lon="2.02751">
        <ele>1720.69</ele>
        <time>2024-09-26T12:43:36.000Z</time>
      </trkpt>
      <trkpt lat="42.29474" lon="2.02738">
        <ele>1721.18</ele>
        <time>2024-09-26T12:43:42.000Z</time>
      </trkpt>
      <trkpt lat="42.29474" lon="2.02724">
        <ele>1721.73</ele>
        <time>2024-09-26T12:43:49.000Z</time>
      </trkpt>
      <trkpt lat="42.29475" lon="2.02711">
        <ele>1722.28</ele>
        <time>2024-09-26T12:43:55.999Z</time>
      </trkpt>
      <trkpt lat="42.29474" lon="2.02698">
        <ele>1722.82</ele>
        <time>2024-09-26T12:44:02.999Z</time>
      </trkpt>
      <trkpt lat="42.29474" lon="2.02684">
        <ele>1723.34</ele>
        <time>2024-09-26T12:44:09.999Z</time>
      </trkpt>
      <trkpt lat="42.29475" lon="2.02672">
        <ele>1723.83</ele>
        <time>2024-09-26T12:44:16.999Z</time>
      </trkpt>
      <trkpt lat="42.29475" lon="2.02659">
        <ele>1724.31</ele>
        <time>2024-09-26T12:44:23.999Z</time>
      </trkpt>
      <trkpt lat="42.29476" lon="2.02646">
        <ele>1724.8</ele>
        <time>2024-09-26T12:44:30.999Z</time>
      </trkpt>
      <trkpt lat="42.29476" lon="2.02632">
        <ele>1725.29</ele>
        <time>2024-09-26T12:44:37.999Z</time>
      </trkpt>
      <trkpt lat="42.29477" lon="2.0262">
        <ele>1725.71</ele>
        <time>2024-09-26T12:44:43.999Z</time>
      </trkpt>
      <trkpt lat="42.29477" lon="2.02607">
        <ele>1726.21</ele>
        <time>2024-09-26T12:44:50.999Z</time>
      </trkpt>
      <trkpt lat="42.2948" lon="2.02594">
        <ele>1726.65</ele>
        <time>2024-09-26T12:44:56.999Z</time>
      </trkpt>
      <trkpt lat="42.29484" lon="2.02583">
        <ele>1727.02</ele>
        <time>2024-09-26T12:45:01.999Z</time>
      </trkpt>
      <trkpt lat="42.29491" lon="2.02573">
        <ele>1727.4</ele>
        <time>2024-09-26T12:45:06.999Z</time>
      </trkpt>
      <trkpt lat="42.29497" lon="2.02565">
        <ele>1727.88</ele>
        <time>2024-09-26T12:45:12.999Z</time>
      </trkpt>
      <trkpt lat="42.29503" lon="2.02555">
        <ele>1728.54</ele>
        <time>2024-09-26T12:45:20.999Z</time>
      </trkpt>
      <trkpt lat="42.2951" lon="2.02544">
        <ele>1729.3</ele>
        <time>2024-09-26T12:45:29.999Z</time>
      </trkpt>
      <trkpt lat="42.29516" lon="2.02534">
        <ele>1729.92</ele>
        <time>2024-09-26T12:45:36.999Z</time>
      </trkpt>
      <trkpt lat="42.29522" lon="2.02523">
        <ele>1730.66</ele>
        <time>2024-09-26T12:45:44.999Z</time>
      </trkpt>
      <trkpt lat="42.29526" lon="2.02512">
        <ele>1731.15</ele>
        <time>2024-09-26T12:45:49.999Z</time>
      </trkpt>
      <trkpt lat="42.29531" lon="2.02502">
        <ele>1731.77</ele>
        <time>2024-09-26T12:45:55.999Z</time>
      </trkpt>
      <trkpt lat="42.29538" lon="2.02493">
        <ele>1732.7</ele>
        <time>2024-09-26T12:46:04.999Z</time>
      </trkpt>
      <trkpt lat="42.29544" lon="2.02482">
        <ele>1733.49</ele>
        <time>2024-09-26T12:46:12.999Z</time>
      </trkpt>
      <trkpt lat="42.2955" lon="2.0247">
        <ele>1734.27</ele>
        <time>2024-09-26T12:46:20.999Z</time>
      </trkpt>
      <trkpt lat="42.29554" lon="2.02459">
        <ele>1735.15</ele>
        <time>2024-09-26T12:46:29.999Z</time>
      </trkpt>
      <trkpt lat="42.29561" lon="2.02448">
        <ele>1736</ele>
        <time>2024-09-26T12:46:38.999Z</time>
      </trkpt>
      <trkpt lat="42.29566" lon="2.02438">
        <ele>1736.66</ele>
        <time>2024-09-26T12:46:45.999Z</time>
      </trkpt>
      <trkpt lat="42.29571" lon="2.02428">
        <ele>1737.22</ele>
        <time>2024-09-26T12:46:51.999Z</time>
      </trkpt>
      <trkpt lat="42.29576" lon="2.02415">
        <ele>1737.82</ele>
        <time>2024-09-26T12:46:57.999Z</time>
      </trkpt>
      <trkpt lat="42.29582" lon="2.02406">
        <ele>1738.46</ele>
        <time>2024-09-26T12:47:03.999Z</time>
      </trkpt>
      <trkpt lat="42.29588" lon="2.02396">
        <ele>1739.45</ele>
        <time>2024-09-26T12:47:12.999Z</time>
      </trkpt>
      <trkpt lat="42.29594" lon="2.02385">
        <ele>1740.18</ele>
        <time>2024-09-26T12:47:19.999Z</time>
      </trkpt>
      <trkpt lat="42.29598" lon="2.02372">
        <ele>1740.81</ele>
        <time>2024-09-26T12:47:25.999Z</time>
      </trkpt>
      <trkpt lat="42.29601" lon="2.02359">
        <ele>1741.44</ele>
        <time>2024-09-26T12:47:31.999Z</time>
      </trkpt>
      <trkpt lat="42.296" lon="2.02346">
        <ele>1742.15</ele>
        <time>2024-09-26T12:47:38.999Z</time>
      </trkpt>
      <trkpt lat="42.29596" lon="2.02334">
        <ele>1742.82</ele>
        <time>2024-09-26T12:47:45.999Z</time>
      </trkpt>
      <trkpt lat="42.2959" lon="2.02322">
        <ele>1743.38</ele>
        <time>2024-09-26T12:47:51.999Z</time>
      </trkpt>
      <trkpt lat="42.29581" lon="2.02314">
        <ele>1744.02</ele>
        <time>2024-09-26T12:47:58.999Z</time>
      </trkpt>
      <trkpt lat="42.29571" lon="2.02308">
        <ele>1744.56</ele>
        <time>2024-09-26T12:48:04.999Z</time>
      </trkpt>
      <trkpt lat="42.29562" lon="2.02306">
        <ele>1745.01</ele>
        <time>2024-09-26T12:48:09.999Z</time>
      </trkpt>
      <trkpt lat="42.29553" lon="2.02305">
        <ele>1745.65</ele>
        <time>2024-09-26T12:48:16.999Z</time>
      </trkpt>
      <trkpt lat="42.29543" lon="2.02304">
        <ele>1746.11</ele>
        <time>2024-09-26T12:48:21.999Z</time>
      </trkpt>
      <trkpt lat="42.29533" lon="2.02302">
        <ele>1746.84</ele>
        <time>2024-09-26T12:48:29.999Z</time>
      </trkpt>
      <trkpt lat="42.29523" lon="2.02299">
        <ele>1747.38</ele>
        <time>2024-09-26T12:48:35.999Z</time>
      </trkpt>
      <trkpt lat="42.29513" lon="2.02297">
        <ele>1747.9</ele>
        <time>2024-09-26T12:48:41.999Z</time>
      </trkpt>
      <trkpt lat="42.29504" lon="2.02293">
        <ele>1748.48</ele>
        <time>2024-09-26T12:48:48.999Z</time>
      </trkpt>
      <trkpt lat="42.29495" lon="2.02289">
        <ele>1749.06</ele>
        <time>2024-09-26T12:48:55.999Z</time>
      </trkpt>
      <trkpt lat="42.29485" lon="2.02285">
        <ele>1749.98</ele>
        <time>2024-09-26T12:49:06.999Z</time>
      </trkpt>
      <trkpt lat="42.29477" lon="2.0228">
        <ele>1750.47</ele>
        <time>2024-09-26T12:49:12.999Z</time>
      </trkpt>
      <trkpt lat="42.29469" lon="2.02273">
        <ele>1751.11</ele>
        <time>2024-09-26T12:49:20.999Z</time>
      </trkpt>
      <trkpt lat="42.29461" lon="2.02264">
        <ele>1751.57</ele>
        <time>2024-09-26T12:49:26.999Z</time>
      </trkpt>
      <trkpt lat="42.29454" lon="2.02255">
        <ele>1752.12</ele>
        <time>2024-09-26T12:49:32.999Z</time>
      </trkpt>
      <trkpt lat="42.29448" lon="2.02244">
        <ele>1753.01</ele>
        <time>2024-09-26T12:49:39.999Z</time>
      </trkpt>
      <trkpt lat="42.29443" lon="2.02233">
        <ele>1753.85</ele>
        <time>2024-09-26T12:49:45.999Z</time>
      </trkpt>
      <trkpt lat="42.29438" lon="2.02221">
        <ele>1754.92</ele>
        <time>2024-09-26T12:49:52.999Z</time>
      </trkpt>
      <trkpt lat="42.29434" lon="2.02209">
        <ele>1755.94</ele>
        <time>2024-09-26T12:49:58.999Z</time>
      </trkpt>
      <trkpt lat="42.29431" lon="2.02197">
        <ele>1757.05</ele>
        <time>2024-09-26T12:50:04.999Z</time>
      </trkpt>
      <trkpt lat="42.29428" lon="2.02184">
        <ele>1758.24</ele>
        <time>2024-09-26T12:50:10.999Z</time>
      </trkpt>
      <trkpt lat="42.29425" lon="2.02171">
        <ele>1759.68</ele>
        <time>2024-09-26T12:50:17.999Z</time>
      </trkpt>
      <trkpt lat="42.29421" lon="2.02159">
        <ele>1760.93</ele>
        <time>2024-09-26T12:50:23.999Z</time>
      </trkpt>
      <trkpt lat="42.29419" lon="2.02146">
        <ele>1762.17</ele>
        <time>2024-09-26T12:50:29.999Z</time>
      </trkpt>
      <trkpt lat="42.29418" lon="2.02133">
        <ele>1763.41</ele>
        <time>2024-09-26T12:50:35.999Z</time>
      </trkpt>
      <trkpt lat="42.29418" lon="2.0212">
        <ele>1764.62</ele>
        <time>2024-09-26T12:50:41.999Z</time>
      </trkpt>
      <trkpt lat="42.29417" lon="2.02107">
        <ele>1765.8</ele>
        <time>2024-09-26T12:50:47.999Z</time>
      </trkpt>
      <trkpt lat="42.29417" lon="2.02095">
        <ele>1767</ele>
        <time>2024-09-26T12:50:53.999Z</time>
      </trkpt>
      <trkpt lat="42.29418" lon="2.02082">
        <ele>1768.17</ele>
        <time>2024-09-26T12:50:59.999Z</time>
      </trkpt>
      <trkpt lat="42.29422" lon="2.02069">
        <ele>1769.7</ele>
        <time>2024-09-26T12:51:07.999Z</time>
      </trkpt>
      <trkpt lat="42.29427" lon="2.02057">
        <ele>1770.61</ele>
        <time>2024-09-26T12:51:12.999Z</time>
      </trkpt>
      <trkpt lat="42.29431" lon="2.02046">
        <ele>1772.21</ele>
        <time>2024-09-26T12:51:21.999Z</time>
      </trkpt>
      <trkpt lat="42.29435" lon="2.02034">
        <ele>1773.64</ele>
        <time>2024-09-26T12:51:29.999Z</time>
      </trkpt>
      <trkpt lat="42.29441" lon="2.02024">
        <ele>1774.9</ele>
        <time>2024-09-26T12:51:36.999Z</time>
      </trkpt>
      <trkpt lat="42.29448" lon="2.02016">
        <ele>1776.13</ele>
        <time>2024-09-26T12:51:43.999Z</time>
      </trkpt>
      <trkpt lat="42.29456" lon="2.02008">
        <ele>1777.51</ele>
        <time>2024-09-26T12:51:51.999Z</time>
      </trkpt>
      <trkpt lat="42.29465" lon="2.02001">
        <ele>1778.67</ele>
        <time>2024-09-26T12:51:58.999Z</time>
      </trkpt>
      <trkpt lat="42.29473" lon="2.01995">
        <ele>1779.8</ele>
        <time>2024-09-26T12:52:05.999Z</time>
      </trkpt>
      <trkpt lat="42.29483" lon="2.01992">
        <ele>1780.76</ele>
        <time>2024-09-26T12:52:11.999Z</time>
      </trkpt>
      <trkpt lat="42.29492" lon="2.01991">
        <ele>1781.82</ele>
        <time>2024-09-26T12:52:18.999Z</time>
      </trkpt>
      <trkpt lat="42.29502" lon="2.01994">
        <ele>1783.94</ele>
        <time>2024-09-26T12:53:17.999Z</time>
      </trkpt>
      <trkpt lat="42.29512" lon="2.01996">
        <ele>1784.95</ele>
        <time>2024-09-26T12:53:23.999Z</time>
      </trkpt>
      <trkpt lat="42.29522" lon="2.01998">
        <ele>1785.87</ele>
        <time>2024-09-26T12:53:29.999Z</time>
      </trkpt>
      <trkpt lat="42.29532" lon="2.02">
        <ele>1786.84</ele>
        <time>2024-09-26T12:53:36.999Z</time>
      </trkpt>
      <trkpt lat="42.29541" lon="2.02002">
        <ele>1787.59</ele>
        <time>2024-09-26T12:53:42.999Z</time>
      </trkpt>
      <trkpt lat="42.2955" lon="2.02004">
        <ele>1788.27</ele>
        <time>2024-09-26T12:53:48.999Z</time>
      </trkpt>
      <trkpt lat="42.29561" lon="2.02005">
        <ele>1788.91</ele>
        <time>2024-09-26T12:53:54.999Z</time>
      </trkpt>
      <trkpt lat="42.29569" lon="2.0201">
        <ele>1789.52</ele>
        <time>2024-09-26T12:54:00.999Z</time>
      </trkpt>
      <trkpt lat="42.29579" lon="2.02015">
        <ele>1790.11</ele>
        <time>2024-09-26T12:54:06.999Z</time>
      </trkpt>
      <trkpt lat="42.29588" lon="2.0202">
        <ele>1790.67</ele>
        <time>2024-09-26T12:54:12.999Z</time>
      </trkpt>
      <trkpt lat="42.29599" lon="2.02024">
        <ele>1791.23</ele>
        <time>2024-09-26T12:54:18.999Z</time>
      </trkpt>
      <trkpt lat="42.2961" lon="2.02025">
        <ele>1791.66</ele>
        <time>2024-09-26T12:54:23.999Z</time>
      </trkpt>
      <trkpt lat="42.29619" lon="2.02028">
        <ele>1792.07</ele>
        <time>2024-09-26T12:54:28.999Z</time>
      </trkpt>
      <trkpt lat="42.29628" lon="2.02033">
        <ele>1792.54</ele>
        <time>2024-09-26T12:54:34.999Z</time>
      </trkpt>
      <trkpt lat="42.29637" lon="2.02034">
        <ele>1792.91</ele>
        <time>2024-09-26T12:54:39.999Z</time>
      </trkpt>
      <trkpt lat="42.29647" lon="2.02038">
        <ele>1793.33</ele>
        <time>2024-09-26T12:54:45.999Z</time>
      </trkpt>
      <trkpt lat="42.29657" lon="2.02041">
        <ele>1793.73</ele>
        <time>2024-09-26T12:54:51.999Z</time>
      </trkpt>
      <trkpt lat="42.29667" lon="2.02045">
        <ele>1794.18</ele>
        <time>2024-09-26T12:54:58.999Z</time>
      </trkpt>
      <trkpt lat="42.29676" lon="2.02048">
        <ele>1794.54</ele>
        <time>2024-09-26T12:55:04.999Z</time>
      </trkpt>
      <trkpt lat="42.29686" lon="2.0205">
        <ele>1794.9</ele>
        <time>2024-09-26T12:55:10.999Z</time>
      </trkpt>
      <trkpt lat="42.29695" lon="2.0205">
        <ele>1795.19</ele>
        <time>2024-09-26T12:55:15.999Z</time>
      </trkpt>
      <trkpt lat="42.29705" lon="2.02052">
        <ele>1795.47</ele>
        <time>2024-09-26T12:55:20.999Z</time>
      </trkpt>
      <trkpt lat="42.29714" lon="2.02052">
        <ele>1795.75</ele>
        <time>2024-09-26T12:55:25.999Z</time>
      </trkpt>
      <trkpt lat="42.29724" lon="2.02053">
        <ele>1796.03</ele>
        <time>2024-09-26T12:55:30.999Z</time>
      </trkpt>
      <trkpt lat="42.29734" lon="2.02054">
        <ele>1796.35</ele>
        <time>2024-09-26T12:55:36.999Z</time>
      </trkpt>
      <trkpt lat="42.29744" lon="2.02058">
        <ele>1796.72</ele>
        <time>2024-09-26T12:55:43.999Z</time>
      </trkpt>
      <trkpt lat="42.29753" lon="2.02059">
        <ele>1797</ele>
        <time>2024-09-26T12:55:48.999Z</time>
      </trkpt>
      <trkpt lat="42.29763" lon="2.0206">
        <ele>1797.35</ele>
        <time>2024-09-26T12:55:54.999Z</time>
      </trkpt>
      <trkpt lat="42.29773" lon="2.0206">
        <ele>1797.65</ele>
        <time>2024-09-26T12:55:59.999Z</time>
      </trkpt>
      <trkpt lat="42.29784" lon="2.02057">
        <ele>1798.04</ele>
        <time>2024-09-26T12:56:05.999Z</time>
      </trkpt>
      <trkpt lat="42.29794" lon="2.02056">
        <ele>1798.54</ele>
        <time>2024-09-26T12:56:13.000Z</time>
      </trkpt>
      <trkpt lat="42.29803" lon="2.02053">
        <ele>1799.09</ele>
        <time>2024-09-26T12:56:20.000Z</time>
      </trkpt>
      <trkpt lat="42.29813" lon="2.02052">
        <ele>1799.77</ele>
        <time>2024-09-26T12:56:28.000Z</time>
      </trkpt>
      <trkpt lat="42.29822" lon="2.02053">
        <ele>1800.49</ele>
        <time>2024-09-26T12:56:35.000Z</time>
      </trkpt>
      <trkpt lat="42.29831" lon="2.02054">
        <ele>1801.2</ele>
        <time>2024-09-26T12:56:41.000Z</time>
      </trkpt>
      <trkpt lat="42.29841" lon="2.02055">
        <ele>1801.98</ele>
        <time>2024-09-26T12:56:47.000Z</time>
      </trkpt>
      <trkpt lat="42.29851" lon="2.02058">
        <ele>1803.08</ele>
        <time>2024-09-26T12:56:55.000Z</time>
      </trkpt>
      <trkpt lat="42.2986" lon="2.02061">
        <ele>1803.96</ele>
        <time>2024-09-26T12:57:01.000Z</time>
      </trkpt>
      <trkpt lat="42.2987" lon="2.02065">
        <ele>1805.07</ele>
        <time>2024-09-26T12:57:08.000Z</time>
      </trkpt>
      <trkpt lat="42.29879" lon="2.02069">
        <ele>1806.05</ele>
        <time>2024-09-26T12:57:14.000Z</time>
      </trkpt>
      <trkpt lat="42.29888" lon="2.02075">
        <ele>1806.84</ele>
        <time>2024-09-26T12:57:19.000Z</time>
      </trkpt>
      <trkpt lat="42.299" lon="2.0208">
        <ele>1807.63</ele>
        <time>2024-09-26T12:57:24.000Z</time>
      </trkpt>
      <trkpt lat="42.29912" lon="2.02083">
        <ele>1808.4</ele>
        <time>2024-09-26T12:57:29.000Z</time>
      </trkpt>
      <trkpt lat="42.29928" lon="2.02086">
        <ele>1809.18</ele>
        <time>2024-09-26T12:57:34.000Z</time>
      </trkpt>
      <trkpt lat="42.29943" lon="2.0209">
        <ele>1810.01</ele>
        <time>2024-09-26T12:57:39.000Z</time>
      </trkpt>
      <trkpt lat="42.29955" lon="2.02092">
        <ele>1810.94</ele>
        <time>2024-09-26T12:57:44.000Z</time>
      </trkpt>
      <trkpt lat="42.29969" lon="2.02093">
        <ele>1811.89</ele>
        <time>2024-09-26T12:57:49.000Z</time>
      </trkpt>
      <trkpt lat="42.29985" lon="2.02086">
        <ele>1815.55</ele>
        <time>2024-09-26T12:57:54.000Z</time>
      </trkpt>
      <trkpt lat="42.30006" lon="2.02076">
        <ele>1819.73</ele>
        <time>2024-09-26T12:57:59.000Z</time>
      </trkpt>
      <trkpt lat="42.30027" lon="2.02066">
        <ele>1823.33</ele>
        <time>2024-09-26T12:58:04.000Z</time>
      </trkpt>
      <trkpt lat="42.30046" lon="2.0206">
        <ele>1825.13</ele>
        <time>2024-09-26T12:58:09.000Z</time>
      </trkpt>
      <trkpt lat="42.30064" lon="2.02044">
        <ele>1826.49</ele>
        <time>2024-09-26T12:58:14.000Z</time>
      </trkpt>
      <trkpt lat="42.30068" lon="2.02013">
        <ele>1827.78</ele>
        <time>2024-09-26T12:58:19.000Z</time>
      </trkpt>
      <trkpt lat="42.30056" lon="2.01995">
        <ele>1828.02</ele>
        <time>2024-09-26T12:58:24.000Z</time>
      </trkpt>
      <trkpt lat="42.30049" lon="2.01984">
        <ele>1828.36</ele>
        <time>2024-09-26T12:58:29.000Z</time>
      </trkpt>
      <trkpt lat="42.30042" lon="2.01976">
        <ele>1828.89</ele>
        <time>2024-09-26T12:58:35.000Z</time>
      </trkpt>
      <trkpt lat="42.30033" lon="2.01969">
        <ele>1829.47</ele>
        <time>2024-09-26T12:58:41.000Z</time>
      </trkpt>
      <trkpt lat="42.30027" lon="2.01959">
        <ele>1830.05</ele>
        <time>2024-09-26T12:58:47.000Z</time>
      </trkpt>
      <trkpt lat="42.30025" lon="2.01947">
        <ele>1830.63</ele>
        <time>2024-09-26T12:58:53.000Z</time>
      </trkpt>
      <trkpt lat="42.30029" lon="2.01935">
        <ele>1831.21</ele>
        <time>2024-09-26T12:58:59.000Z</time>
      </trkpt>
      <trkpt lat="42.30037" lon="2.01925">
        <ele>1831.8</ele>
        <time>2024-09-26T12:59:05.000Z</time>
      </trkpt>
      <trkpt lat="42.30043" lon="2.01916">
        <ele>1832.36</ele>
        <time>2024-09-26T12:59:11.000Z</time>
      </trkpt>
      <trkpt lat="42.30051" lon="2.01907">
        <ele>1832.91</ele>
        <time>2024-09-26T12:59:17.000Z</time>
      </trkpt>
      <trkpt lat="42.30058" lon="2.01899">
        <ele>1833.53</ele>
        <time>2024-09-26T12:59:24.000Z</time>
      </trkpt>
      <trkpt lat="42.30064" lon="2.0189">
        <ele>1834.24</ele>
        <time>2024-09-26T12:59:32.000Z</time>
      </trkpt>
      <trkpt lat="42.30071" lon="2.0188">
        <ele>1834.85</ele>
        <time>2024-09-26T12:59:39.000Z</time>
      </trkpt>
      <trkpt lat="42.30077" lon="2.0187">
        <ele>1835.36</ele>
        <time>2024-09-26T12:59:45.000Z</time>
      </trkpt>
      <trkpt lat="42.30083" lon="2.0186">
        <ele>1835.85</ele>
        <time>2024-09-26T12:59:51.000Z</time>
      </trkpt>
      <trkpt lat="42.30087" lon="2.01849">
        <ele>1836.41</ele>
        <time>2024-09-26T12:59:58.000Z</time>
      </trkpt>
      <trkpt lat="42.30089" lon="2.01836">
        <ele>1836.89</ele>
        <time>2024-09-26T13:00:04.000Z</time>
      </trkpt>
      <trkpt lat="42.30086" lon="2.01823">
        <ele>1837.48</ele>
        <time>2024-09-26T13:00:11.000Z</time>
      </trkpt>
      <trkpt lat="42.3008" lon="2.01812">
        <ele>1837.99</ele>
        <time>2024-09-26T13:00:17.000Z</time>
      </trkpt>
      <trkpt lat="42.30071" lon="2.01806">
        <ele>1838.47</ele>
        <time>2024-09-26T13:00:23.000Z</time>
      </trkpt>
      <trkpt lat="42.30061" lon="2.01802">
        <ele>1838.88</ele>
        <time>2024-09-26T13:00:28.000Z</time>
      </trkpt>
      <trkpt lat="42.30049" lon="2.01801">
        <ele>1839.29</ele>
        <time>2024-09-26T13:00:33.000Z</time>
      </trkpt>
      <trkpt lat="42.30038" lon="2.01802">
        <ele>1839.71</ele>
        <time>2024-09-26T13:00:38.000Z</time>
      </trkpt>
      <trkpt lat="42.30027" lon="2.01801">
        <ele>1840.12</ele>
        <time>2024-09-26T13:00:43.000Z</time>
      </trkpt>
      <trkpt lat="42.30017" lon="2.01802">
        <ele>1840.52</ele>
        <time>2024-09-26T13:00:48.000Z</time>
      </trkpt>
      <trkpt lat="42.30007" lon="2.01799">
        <ele>1840.92</ele>
        <time>2024-09-26T13:00:53.000Z</time>
      </trkpt>
      <trkpt lat="42.29997" lon="2.01797">
        <ele>1841.32</ele>
        <time>2024-09-26T13:00:58.000Z</time>
      </trkpt>
      <trkpt lat="42.29986" lon="2.01797">
        <ele>1841.71</ele>
        <time>2024-09-26T13:01:03.000Z</time>
      </trkpt>
      <trkpt lat="42.29974" lon="2.01799">
        <ele>1842.08</ele>
        <time>2024-09-26T13:01:08.000Z</time>
      </trkpt>
      <trkpt lat="42.29963" lon="2.01799">
        <ele>1842.43</ele>
        <time>2024-09-26T13:01:13.000Z</time>
      </trkpt>
      <trkpt lat="42.29951" lon="2.01797">
        <ele>1842.76</ele>
        <time>2024-09-26T13:01:18.000Z</time>
      </trkpt>
      <trkpt lat="42.2994" lon="2.01793">
        <ele>1843.09</ele>
        <time>2024-09-26T13:01:23.000Z</time>
      </trkpt>
      <trkpt lat="42.29929" lon="2.01788">
        <ele>1843.41</ele>
        <time>2024-09-26T13:01:28.000Z</time>
      </trkpt>
      <trkpt lat="42.29919" lon="2.0178">
        <ele>1843.71</ele>
        <time>2024-09-26T13:01:33.000Z</time>
      </trkpt>
      <trkpt lat="42.2991" lon="2.01772">
        <ele>1844</ele>
        <time>2024-09-26T13:01:38.000Z</time>
      </trkpt>
      <trkpt lat="42.29904" lon="2.01763">
        <ele>1844.29</ele>
        <time>2024-09-26T13:01:43.000Z</time>
      </trkpt>
      <trkpt lat="42.29896" lon="2.01753">
        <ele>1844.58</ele>
        <time>2024-09-26T13:01:48.000Z</time>
      </trkpt>
      <trkpt lat="42.29888" lon="2.01745">
        <ele>1844.86</ele>
        <time>2024-09-26T13:01:53.000Z</time>
      </trkpt>
      <trkpt lat="42.29879" lon="2.01736">
        <ele>1845.14</ele>
        <time>2024-09-26T13:01:58.000Z</time>
      </trkpt>
      <trkpt lat="42.29869" lon="2.01728">
        <ele>1845.42</ele>
        <time>2024-09-26T13:02:03.000Z</time>
      </trkpt>
      <trkpt lat="42.29859" lon="2.0172">
        <ele>1845.69</ele>
        <time>2024-09-26T13:02:08.000Z</time>
      </trkpt>
      <trkpt lat="42.2985" lon="2.01711">
        <ele>1845.95</ele>
        <time>2024-09-26T13:02:13.000Z</time>
      </trkpt>
      <trkpt lat="42.29842" lon="2.01701">
        <ele>1846.22</ele>
        <time>2024-09-26T13:02:18.000Z</time>
      </trkpt>
      <trkpt lat="42.29834" lon="2.01691">
        <ele>1846.47</ele>
        <time>2024-09-26T13:02:23.000Z</time>
      </trkpt>
      <trkpt lat="42.29827" lon="2.01681">
        <ele>1846.73</ele>
        <time>2024-09-26T13:02:28.000Z</time>
      </trkpt>
      <trkpt lat="42.29819" lon="2.0167">
        <ele>1846.98</ele>
        <time>2024-09-26T13:02:33.000Z</time>
      </trkpt>
      <trkpt lat="42.29811" lon="2.01661">
        <ele>1847.23</ele>
        <time>2024-09-26T13:02:38.000Z</time>
      </trkpt>
      <trkpt lat="42.29804" lon="2.01649">
        <ele>1847.48</ele>
        <time>2024-09-26T13:02:43.000Z</time>
      </trkpt>
      <trkpt lat="42.298" lon="2.01636">
        <ele>1847.73</ele>
        <time>2024-09-26T13:02:48.000Z</time>
      </trkpt>
      <trkpt lat="42.29797" lon="2.01622">
        <ele>1847.98</ele>
        <time>2024-09-26T13:02:53.000Z</time>
      </trkpt>
      <trkpt lat="42.29794" lon="2.01608">
        <ele>1848.24</ele>
        <time>2024-09-26T13:02:58.000Z</time>
      </trkpt>
      <trkpt lat="42.29791" lon="2.01592">
        <ele>1848.5</ele>
        <time>2024-09-26T13:03:03.000Z</time>
      </trkpt>
      <trkpt lat="42.29791" lon="2.01573">
        <ele>1848.76</ele>
        <time>2024-09-26T13:03:08.000Z</time>
      </trkpt>
      <trkpt lat="42.29792" lon="2.01558">
        <ele>1849.01</ele>
        <time>2024-09-26T13:03:13.000Z</time>
      </trkpt>
      <trkpt lat="42.29795" lon="2.0154">
        <ele>1849.26</ele>
        <time>2024-09-26T13:03:18.000Z</time>
      </trkpt>
      <trkpt lat="42.29798" lon="2.01525">
        <ele>1849.49</ele>
        <time>2024-09-26T13:03:23.000Z</time>
      </trkpt>
      <trkpt lat="42.298" lon="2.01509">
        <ele>1849.73</ele>
        <time>2024-09-26T13:03:28.000Z</time>
      </trkpt>
      <trkpt lat="42.29801" lon="2.01493">
        <ele>1849.97</ele>
        <time>2024-09-26T13:03:33.000Z</time>
      </trkpt>
      <trkpt lat="42.29804" lon="2.01475">
        <ele>1850.21</ele>
        <time>2024-09-26T13:03:38.000Z</time>
      </trkpt>
      <trkpt lat="42.29807" lon="2.01459">
        <ele>1850.46</ele>
        <time>2024-09-26T13:03:43.000Z</time>
      </trkpt>
      <trkpt lat="42.29812" lon="2.01441">
        <ele>1850.71</ele>
        <time>2024-09-26T13:03:48.000Z</time>
      </trkpt>
      <trkpt lat="42.29818" lon="2.01423">
        <ele>1850.96</ele>
        <time>2024-09-26T13:03:53.000Z</time>
      </trkpt>
      <trkpt lat="42.29824" lon="2.01408">
        <ele>1851.2</ele>
        <time>2024-09-26T13:03:58.000Z</time>
      </trkpt>
      <trkpt lat="42.2983" lon="2.01392">
        <ele>1851.43</ele>
        <time>2024-09-26T13:04:03.000Z</time>
      </trkpt>
      <trkpt lat="42.29839" lon="2.01379">
        <ele>1851.67</ele>
        <time>2024-09-26T13:04:08.000Z</time>
      </trkpt>
      <trkpt lat="42.29846" lon="2.01366">
        <ele>1851.9</ele>
        <time>2024-09-26T13:04:13.000Z</time>
      </trkpt>
      <trkpt lat="42.2985" lon="2.01351">
        <ele>1852.14</ele>
        <time>2024-09-26T13:04:18.000Z</time>
      </trkpt>
      <trkpt lat="42.29854" lon="2.01335">
        <ele>1852.38</ele>
        <time>2024-09-26T13:04:23.000Z</time>
      </trkpt>
      <trkpt lat="42.2986" lon="2.01318">
        <ele>1852.63</ele>
        <time>2024-09-26T13:04:28.000Z</time>
      </trkpt>
      <trkpt lat="42.29868" lon="2.01302">
        <ele>1852.88</ele>
        <time>2024-09-26T13:04:33.000Z</time>
      </trkpt>
      <trkpt lat="42.29875" lon="2.01288">
        <ele>1853.13</ele>
        <time>2024-09-26T13:04:38.000Z</time>
      </trkpt>
      <trkpt lat="42.29881" lon="2.01278">
        <ele>1853.39</ele>
        <time>2024-09-26T13:04:43.000Z</time>
      </trkpt>
      <trkpt lat="42.29892" lon="2.01265">
        <ele>1853.64</ele>
        <time>2024-09-26T13:04:48.000Z</time>
      </trkpt>
      <trkpt lat="42.29904" lon="2.01257">
        <ele>1853.91</ele>
        <time>2024-09-26T13:04:53.000Z</time>
      </trkpt>
      <trkpt lat="42.29922" lon="2.01257">
        <ele>1855.7</ele>
        <time>2024-09-26T13:04:58.000Z</time>
      </trkpt>
      <trkpt lat="42.29942" lon="2.0126">
        <ele>1856.37</ele>
        <time>2024-09-26T13:05:03.000Z</time>
      </trkpt>
      <trkpt lat="42.29959" lon="2.01267">
        <ele>1856.47</ele>
        <time>2024-09-26T13:05:08.000Z</time>
      </trkpt>
      <trkpt lat="42.29975" lon="2.01272">
        <ele>1856.57</ele>
        <time>2024-09-26T13:05:13.000Z</time>
      </trkpt>
      <trkpt lat="42.2999" lon="2.01277">
        <ele>1856.69</ele>
        <time>2024-09-26T13:05:18.000Z</time>
      </trkpt>
      <trkpt lat="42.30004" lon="2.01283">
        <ele>1856.83</ele>
        <time>2024-09-26T13:05:23.000Z</time>
      </trkpt>
      <trkpt lat="42.30019" lon="2.01286">
        <ele>1856.99</ele>
        <time>2024-09-26T13:05:28.000Z</time>
      </trkpt>
      <trkpt lat="42.30035" lon="2.01287">
        <ele>1857.16</ele>
        <time>2024-09-26T13:05:33.000Z</time>
      </trkpt>
      <trkpt lat="42.30049" lon="2.0129">
        <ele>1857.34</ele>
        <time>2024-09-26T13:05:38.000Z</time>
      </trkpt>
      <trkpt lat="42.30065" lon="2.01291">
        <ele>1857.54</ele>
        <time>2024-09-26T13:05:43.000Z</time>
      </trkpt>
      <trkpt lat="42.30079" lon="2.0129">
        <ele>1857.73</ele>
        <time>2024-09-26T13:05:48.000Z</time>
      </trkpt>
      <trkpt lat="42.30094" lon="2.01289">
        <ele>1857.93</ele>
        <time>2024-09-26T13:05:53.000Z</time>
      </trkpt>
      <trkpt lat="42.30104" lon="2.01289">
        <ele>1858.14</ele>
        <time>2024-09-26T13:05:58.000Z</time>
      </trkpt>
      <trkpt lat="42.30114" lon="2.01289">
        <ele>1858.36</ele>
        <time>2024-09-26T13:06:03.000Z</time>
      </trkpt>
      <trkpt lat="42.30125" lon="2.01289">
        <ele>1858.58</ele>
        <time>2024-09-26T13:06:08.000Z</time>
      </trkpt>
      <trkpt lat="42.30137" lon="2.01286">
        <ele>1858.81</ele>
        <time>2024-09-26T13:06:13.000Z</time>
      </trkpt>
      <trkpt lat="42.30148" lon="2.01284">
        <ele>1859.04</ele>
        <time>2024-09-26T13:06:18.000Z</time>
      </trkpt>
      <trkpt lat="42.3016" lon="2.0128">
        <ele>1859.28</ele>
        <time>2024-09-26T13:06:23.000Z</time>
      </trkpt>
      <trkpt lat="42.30172" lon="2.01276">
        <ele>1859.52</ele>
        <time>2024-09-26T13:06:28.000Z</time>
      </trkpt>
      <trkpt lat="42.30185" lon="2.01273">
        <ele>1859.76</ele>
        <time>2024-09-26T13:06:33.000Z</time>
      </trkpt>
      <trkpt lat="42.30197" lon="2.01265">
        <ele>1860.01</ele>
        <time>2024-09-26T13:06:38.000Z</time>
      </trkpt>
      <trkpt lat="42.30205" lon="2.01251">
        <ele>1860.27</ele>
        <time>2024-09-26T13:06:43.000Z</time>
      </trkpt>
      <trkpt lat="42.30205" lon="2.01233">
        <ele>1860.54</ele>
        <time>2024-09-26T13:06:48.000Z</time>
      </trkpt>
      <trkpt lat="42.30199" lon="2.01222">
        <ele>1860.81</ele>
        <time>2024-09-26T13:06:53.000Z</time>
      </trkpt>
      <trkpt lat="42.30188" lon="2.01218">
        <ele>1861.1</ele>
        <time>2024-09-26T13:06:58.000Z</time>
      </trkpt>
      <trkpt lat="42.30179" lon="2.0122">
        <ele>1861.45</ele>
        <time>2024-09-26T13:07:04.000Z</time>
      </trkpt>
      <trkpt lat="42.3017" lon="2.01221">
        <ele>1861.76</ele>
        <time>2024-09-26T13:07:09.000Z</time>
      </trkpt>
      <trkpt lat="42.3016" lon="2.01219">
        <ele>1862.15</ele>
        <time>2024-09-26T13:07:15.000Z</time>
      </trkpt>
      <trkpt lat="42.30151" lon="2.01219">
        <ele>1862.53</ele>
        <time>2024-09-26T13:07:21.000Z</time>
      </trkpt>
      <trkpt lat="42.30142" lon="2.01214">
        <ele>1862.92</ele>
        <time>2024-09-26T13:07:27.000Z</time>
      </trkpt>
      <trkpt lat="42.30134" lon="2.0121">
        <ele>1863.26</ele>
        <time>2024-09-26T13:07:32.000Z</time>
      </trkpt>
      <trkpt lat="42.30124" lon="2.01204">
        <ele>1863.68</ele>
        <time>2024-09-26T13:07:38.000Z</time>
      </trkpt>
      <trkpt lat="42.30116" lon="2.01198">
        <ele>1864.1</ele>
        <time>2024-09-26T13:07:44.000Z</time>
      </trkpt>
      <trkpt lat="42.30108" lon="2.01191">
        <ele>1864.54</ele>
        <time>2024-09-26T13:07:50.000Z</time>
      </trkpt>
      <trkpt lat="42.30099" lon="2.01185">
        <ele>1864.98</ele>
        <time>2024-09-26T13:07:56.000Z</time>
      </trkpt>
      <trkpt lat="42.3009" lon="2.01178">
        <ele>1865.5</ele>
        <time>2024-09-26T13:08:03.000Z</time>
      </trkpt>
      <trkpt lat="42.30082" lon="2.01169">
        <ele>1865.97</ele>
        <time>2024-09-26T13:08:09.000Z</time>
      </trkpt>
      <trkpt lat="42.30077" lon="2.01159">
        <ele>1866.59</ele>
        <time>2024-09-26T13:08:16.999Z</time>
      </trkpt>
      <trkpt lat="42.30072" lon="2.01149">
        <ele>1867.08</ele>
        <time>2024-09-26T13:08:22.999Z</time>
      </trkpt>
      <trkpt lat="42.30065" lon="2.01138">
        <ele>1867.67</ele>
        <time>2024-09-26T13:08:29.999Z</time>
      </trkpt>
      <trkpt lat="42.30059" lon="2.01128">
        <ele>1868.28</ele>
        <time>2024-09-26T13:08:36.999Z</time>
      </trkpt>
      <trkpt lat="42.30054" lon="2.01117">
        <ele>1868.81</ele>
        <time>2024-09-26T13:08:42.999Z</time>
      </trkpt>
      <trkpt lat="42.30048" lon="2.01108">
        <ele>1869.34</ele>
        <time>2024-09-26T13:08:48.999Z</time>
      </trkpt>
      <trkpt lat="42.30042" lon="2.01097">
        <ele>1869.97</ele>
        <time>2024-09-26T13:08:55.999Z</time>
      </trkpt>
      <trkpt lat="42.30036" lon="2.01087">
        <ele>1870.52</ele>
        <time>2024-09-26T13:09:01.999Z</time>
      </trkpt>
      <trkpt lat="42.30031" lon="2.01077">
        <ele>1871.07</ele>
        <time>2024-09-26T13:09:07.999Z</time>
      </trkpt>
      <trkpt lat="42.30026" lon="2.01065">
        <ele>1871.64</ele>
        <time>2024-09-26T13:09:13.999Z</time>
      </trkpt>
      <trkpt lat="42.30023" lon="2.01052">
        <ele>1872.32</ele>
        <time>2024-09-26T13:09:20.999Z</time>
      </trkpt>
      <trkpt lat="42.30019" lon="2.01039">
        <ele>1872.99</ele>
        <time>2024-09-26T13:09:27.999Z</time>
      </trkpt>
      <trkpt lat="42.30017" lon="2.01026">
        <ele>1873.46</ele>
        <time>2024-09-26T13:09:32.999Z</time>
      </trkpt>
      <trkpt lat="42.30016" lon="2.01013">
        <ele>1873.93</ele>
        <time>2024-09-26T13:09:37.999Z</time>
      </trkpt>
      <trkpt lat="42.30017" lon="2.01001">
        <ele>1874.43</ele>
        <time>2024-09-26T13:09:42.999Z</time>
      </trkpt>
      <trkpt lat="42.30018" lon="2.00986">
        <ele>1874.94</ele>
        <time>2024-09-26T13:09:47.999Z</time>
      </trkpt>
      <trkpt lat="42.3002" lon="2.00971">
        <ele>1875.46</ele>
        <time>2024-09-26T13:09:52.999Z</time>
      </trkpt>
      <trkpt lat="42.3002" lon="2.00958">
        <ele>1875.97</ele>
        <time>2024-09-26T13:09:57.999Z</time>
      </trkpt>
      <trkpt lat="42.30021" lon="2.00942">
        <ele>1876.57</ele>
        <time>2024-09-26T13:10:03.999Z</time>
      </trkpt>
      <trkpt lat="42.30023" lon="2.00929">
        <ele>1877.09</ele>
        <time>2024-09-26T13:10:08.999Z</time>
      </trkpt>
      <trkpt lat="42.30023" lon="2.00917">
        <ele>1877.6</ele>
        <time>2024-09-26T13:10:13.999Z</time>
      </trkpt>
      <trkpt lat="42.30025" lon="2.00903">
        <ele>1878.12</ele>
        <time>2024-09-26T13:10:18.999Z</time>
      </trkpt>
      <trkpt lat="42.30028" lon="2.00891">
        <ele>1878.64</ele>
        <time>2024-09-26T13:10:23.999Z</time>
      </trkpt>
      <trkpt lat="42.3003" lon="2.00878">
        <ele>1879.15</ele>
        <time>2024-09-26T13:10:28.999Z</time>
      </trkpt>
      <trkpt lat="42.30034" lon="2.00865">
        <ele>1879.66</ele>
        <time>2024-09-26T13:10:33.999Z</time>
      </trkpt>
      <trkpt lat="42.30037" lon="2.00852">
        <ele>1880.17</ele>
        <time>2024-09-26T13:10:38.999Z</time>
      </trkpt>
      <trkpt lat="42.30041" lon="2.00841">
        <ele>1880.67</ele>
        <time>2024-09-26T13:10:43.999Z</time>
      </trkpt>
      <trkpt lat="42.30044" lon="2.00829">
        <ele>1881.16</ele>
        <time>2024-09-26T13:10:48.999Z</time>
      </trkpt>
      <trkpt lat="42.30049" lon="2.00817">
        <ele>1881.65</ele>
        <time>2024-09-26T13:10:53.999Z</time>
      </trkpt>
      <trkpt lat="42.30054" lon="2.00805">
        <ele>1882.13</ele>
        <time>2024-09-26T13:10:58.999Z</time>
      </trkpt>
      <trkpt lat="42.30059" lon="2.00794">
        <ele>1882.61</ele>
        <time>2024-09-26T13:11:03.999Z</time>
      </trkpt>
      <trkpt lat="42.30063" lon="2.00781">
        <ele>1883.09</ele>
        <time>2024-09-26T13:11:08.999Z</time>
      </trkpt>
      <trkpt lat="42.30067" lon="2.00769">
        <ele>1883.57</ele>
        <time>2024-09-26T13:11:13.999Z</time>
      </trkpt>
      <trkpt lat="42.30072" lon="2.00757">
        <ele>1884.05</ele>
        <time>2024-09-26T13:11:18.999Z</time>
      </trkpt>
      <trkpt lat="42.30076" lon="2.00746">
        <ele>1884.54</ele>
        <time>2024-09-26T13:11:23.999Z</time>
      </trkpt>
      <trkpt lat="42.3008" lon="2.00733">
        <ele>1885.12</ele>
        <time>2024-09-26T13:11:29.999Z</time>
      </trkpt>
      <trkpt lat="42.30084" lon="2.00722">
        <ele>1885.6</ele>
        <time>2024-09-26T13:11:34.999Z</time>
      </trkpt>
      <trkpt lat="42.30087" lon="2.00709">
        <ele>1886.07</ele>
        <time>2024-09-26T13:11:39.999Z</time>
      </trkpt>
      <trkpt lat="42.30088" lon="2.00695">
        <ele>1886.54</ele>
        <time>2024-09-26T13:11:44.999Z</time>
      </trkpt>
      <trkpt lat="42.30081" lon="2.00681">
        <ele>1887.02</ele>
        <time>2024-09-26T13:11:49.999Z</time>
      </trkpt>
      <trkpt lat="42.30071" lon="2.0067">
        <ele>1887.48</ele>
        <time>2024-09-26T13:11:54.999Z</time>
      </trkpt>
      <trkpt lat="42.3006" lon="2.00662">
        <ele>1887.94</ele>
        <time>2024-09-26T13:11:59.999Z</time>
      </trkpt>
      <trkpt lat="42.30047" lon="2.00656">
        <ele>1888.39</ele>
        <time>2024-09-26T13:12:04.999Z</time>
      </trkpt>
      <trkpt lat="42.30033" lon="2.00649">
        <ele>1888.84</ele>
        <time>2024-09-26T13:12:09.999Z</time>
      </trkpt>
      <trkpt lat="42.30024" lon="2.0064">
        <ele>1889.28</ele>
        <time>2024-09-26T13:12:14.999Z</time>
      </trkpt>
      <trkpt lat="42.30017" lon="2.00627">
        <ele>1889.71</ele>
        <time>2024-09-26T13:12:19.999Z</time>
      </trkpt>
      <trkpt lat="42.30013" lon="2.00614">
        <ele>1890.14</ele>
        <time>2024-09-26T13:12:24.999Z</time>
      </trkpt>
      <trkpt lat="42.30012" lon="2.00602">
        <ele>1890.57</ele>
        <time>2024-09-26T13:12:29.999Z</time>
      </trkpt>
      <trkpt lat="42.30012" lon="2.00586">
        <ele>1891.07</ele>
        <time>2024-09-26T13:12:35.999Z</time>
      </trkpt>
      <trkpt lat="42.30012" lon="2.00573">
        <ele>1891.48</ele>
        <time>2024-09-26T13:12:40.999Z</time>
      </trkpt>
      <trkpt lat="42.30011" lon="2.00559">
        <ele>1891.99</ele>
        <time>2024-09-26T13:12:46.999Z</time>
      </trkpt>
      <trkpt lat="42.30011" lon="2.00546">
        <ele>1892.43</ele>
        <time>2024-09-26T13:12:51.999Z</time>
      </trkpt>
      <trkpt lat="42.3001" lon="2.00533">
        <ele>1892.88</ele>
        <time>2024-09-26T13:12:56.999Z</time>
      </trkpt>
      <trkpt lat="42.30011" lon="2.00521">
        <ele>1893.33</ele>
        <time>2024-09-26T13:13:01.999Z</time>
      </trkpt>
      <trkpt lat="42.30012" lon="2.00507">
        <ele>1893.89</ele>
        <time>2024-09-26T13:13:07.999Z</time>
      </trkpt>
      <trkpt lat="42.30014" lon="2.00494">
        <ele>1894.35</ele>
        <time>2024-09-26T13:13:12.999Z</time>
      </trkpt>
      <trkpt lat="42.30015" lon="2.0048">
        <ele>1894.81</ele>
        <time>2024-09-26T13:13:17.999Z</time>
      </trkpt>
      <trkpt lat="42.30019" lon="2.00463">
        <ele>1895.25</ele>
        <time>2024-09-26T13:13:22.999Z</time>
      </trkpt>
      <trkpt lat="42.30021" lon="2.0045">
        <ele>1895.7</ele>
        <time>2024-09-26T13:13:27.999Z</time>
      </trkpt>
      <trkpt lat="42.30024" lon="2.00438">
        <ele>1896.16</ele>
        <time>2024-09-26T13:13:32.999Z</time>
      </trkpt>
      <trkpt lat="42.30025" lon="2.00426">
        <ele>1896.61</ele>
        <time>2024-09-26T13:13:37.999Z</time>
      </trkpt>
      <trkpt lat="42.30027" lon="2.00413">
        <ele>1897.06</ele>
        <time>2024-09-26T13:13:42.999Z</time>
      </trkpt>
      <trkpt lat="42.30028" lon="2.004">
        <ele>1897.51</ele>
        <time>2024-09-26T13:13:47.999Z</time>
      </trkpt>
      <trkpt lat="42.30029" lon="2.00387">
        <ele>1897.96</ele>
        <time>2024-09-26T13:13:52.999Z</time>
      </trkpt>
      <trkpt lat="42.30027" lon="2.00374">
        <ele>1898.4</ele>
        <time>2024-09-26T13:13:57.999Z</time>
      </trkpt>
      <trkpt lat="42.30025" lon="2.0036">
        <ele>1898.85</ele>
        <time>2024-09-26T13:14:02.999Z</time>
      </trkpt>
      <trkpt lat="42.30021" lon="2.00347">
        <ele>1899.3</ele>
        <time>2024-09-26T13:14:07.999Z</time>
      </trkpt>
      <trkpt lat="42.30017" lon="2.00335">
        <ele>1899.77</ele>
        <time>2024-09-26T13:14:12.999Z</time>
      </trkpt>
      <trkpt lat="42.30011" lon="2.00323">
        <ele>1900.33</ele>
        <time>2024-09-26T13:14:18.999Z</time>
      </trkpt>
      <trkpt lat="42.30005" lon="2.00311">
        <ele>1901</ele>
        <time>2024-09-26T13:14:25.999Z</time>
      </trkpt>
      <trkpt lat="42.29999" lon="2.00301">
        <ele>1901.68</ele>
        <time>2024-09-26T13:14:32.999Z</time>
      </trkpt>
      <trkpt lat="42.29992" lon="2.00291">
        <ele>1902.38</ele>
        <time>2024-09-26T13:14:39.999Z</time>
      </trkpt>
      <trkpt lat="42.29987" lon="2.00279">
        <ele>1902.99</ele>
        <time>2024-09-26T13:14:45.999Z</time>
      </trkpt>
      <trkpt lat="42.29983" lon="2.00266">
        <ele>1903.6</ele>
        <time>2024-09-26T13:14:51.999Z</time>
      </trkpt>
      <trkpt lat="42.29982" lon="2.00254">
        <ele>1904.22</ele>
        <time>2024-09-26T13:14:57.999Z</time>
      </trkpt>
      <trkpt lat="42.29982" lon="2.00241">
        <ele>1904.73</ele>
        <time>2024-09-26T13:15:02.999Z</time>
      </trkpt>
      <trkpt lat="42.29983" lon="2.00227">
        <ele>1905.35</ele>
        <time>2024-09-26T13:15:08.999Z</time>
      </trkpt>
      <trkpt lat="42.29984" lon="2.00214">
        <ele>1905.86</ele>
        <time>2024-09-26T13:15:13.999Z</time>
      </trkpt>
      <trkpt lat="42.29985" lon="2.00199">
        <ele>1906.36</ele>
        <time>2024-09-26T13:15:18.999Z</time>
      </trkpt>
      <trkpt lat="42.29987" lon="2.00181">
        <ele>1906.87</ele>
        <time>2024-09-26T13:15:23.999Z</time>
      </trkpt>
      <trkpt lat="42.29989" lon="2.00164">
        <ele>1907.35</ele>
        <time>2024-09-26T13:15:28.999Z</time>
      </trkpt>
      <trkpt lat="42.2999" lon="2.00148">
        <ele>1907.82</ele>
        <time>2024-09-26T13:15:33.999Z</time>
      </trkpt>
      <trkpt lat="42.2999" lon="2.00133">
        <ele>1908.29</ele>
        <time>2024-09-26T13:15:38.999Z</time>
      </trkpt>
      <trkpt lat="42.29989" lon="2.00118">
        <ele>1908.75</ele>
        <time>2024-09-26T13:15:43.999Z</time>
      </trkpt>
      <trkpt lat="42.29989" lon="2.00103">
        <ele>1909.21</ele>
        <time>2024-09-26T13:15:48.999Z</time>
      </trkpt>
      <trkpt lat="42.2999" lon="2.0009">
        <ele>1909.66</ele>
        <time>2024-09-26T13:15:53.999Z</time>
      </trkpt>
      <trkpt lat="42.29992" lon="2.00075">
        <ele>1910.1</ele>
        <time>2024-09-26T13:15:58.999Z</time>
      </trkpt>
      <trkpt lat="42.29993" lon="2.00062">
        <ele>1910.54</ele>
        <time>2024-09-26T13:16:03.999Z</time>
      </trkpt>
      <trkpt lat="42.29995" lon="2.00046">
        <ele>1910.98</ele>
        <time>2024-09-26T13:16:08.999Z</time>
      </trkpt>
      <trkpt lat="42.29997" lon="2.0003">
        <ele>1911.44</ele>
        <time>2024-09-26T13:16:13.999Z</time>
      </trkpt>
      <trkpt lat="42.30001" lon="2.00016">
        <ele>1911.9</ele>
        <time>2024-09-26T13:16:18.999Z</time>
      </trkpt>
      <trkpt lat="42.30006" lon="2.00001">
        <ele>1912.36</ele>
        <time>2024-09-26T13:16:23.999Z</time>
      </trkpt>
      <trkpt lat="42.30013" lon="1.99984">
        <ele>1912.82</ele>
        <time>2024-09-26T13:16:28.999Z</time>
      </trkpt>
      <trkpt lat="42.30021" lon="1.99969">
        <ele>1913.27</ele>
        <time>2024-09-26T13:16:33.999Z</time>
      </trkpt>
      <trkpt lat="42.30028" lon="1.99953">
        <ele>1913.71</ele>
        <time>2024-09-26T13:16:38.999Z</time>
      </trkpt>
      <trkpt lat="42.30031" lon="1.99942">
        <ele>1919.75</ele>
        <time>2024-09-26T13:20:17.999Z</time>
      </trkpt>
      <trkpt lat="42.30036" lon="1.9993">
        <ele>1921.59</ele>
        <time>2024-09-26T13:20:28.999Z</time>
      </trkpt>
      <trkpt lat="42.30045" lon="1.99915">
        <ele>1922.47</ele>
        <time>2024-09-26T13:20:33.999Z</time>
      </trkpt>
      <trkpt lat="42.30053" lon="1.99896">
        <ele>1923.28</ele>
        <time>2024-09-26T13:20:39.000Z</time>
      </trkpt>
      <trkpt lat="42.30062" lon="1.99879">
        <ele>1924.02</ele>
        <time>2024-09-26T13:20:44.000Z</time>
      </trkpt>
      <trkpt lat="42.3007" lon="1.9986">
        <ele>1924.72</ele>
        <time>2024-09-26T13:20:49.000Z</time>
      </trkpt>
      <trkpt lat="42.30076" lon="1.99841">
        <ele>1925.36</ele>
        <time>2024-09-26T13:20:54.000Z</time>
      </trkpt>
      <trkpt lat="42.30078" lon="1.99823">
        <ele>1925.96</ele>
        <time>2024-09-26T13:20:59.000Z</time>
      </trkpt>
      <trkpt lat="42.3008" lon="1.99804">
        <ele>1926.51</ele>
        <time>2024-09-26T13:21:04.000Z</time>
      </trkpt>
      <trkpt lat="42.30082" lon="1.99785">
        <ele>1927.03</ele>
        <time>2024-09-26T13:21:09.000Z</time>
      </trkpt>
      <trkpt lat="42.30083" lon="1.99766">
        <ele>1927.52</ele>
        <time>2024-09-26T13:21:14.000Z</time>
      </trkpt>
      <trkpt lat="42.30084" lon="1.99746">
        <ele>1927.97</ele>
        <time>2024-09-26T13:21:19.000Z</time>
      </trkpt>
      <trkpt lat="42.30087" lon="1.99725">
        <ele>1928.4</ele>
        <time>2024-09-26T13:21:24.000Z</time>
      </trkpt>
      <trkpt lat="42.30089" lon="1.99704">
        <ele>1928.8</ele>
        <time>2024-09-26T13:21:29.000Z</time>
      </trkpt>
      <trkpt lat="42.3009" lon="1.99684">
        <ele>1929.17</ele>
        <time>2024-09-26T13:21:34.000Z</time>
      </trkpt>
      <trkpt lat="42.30093" lon="1.99662">
        <ele>1929.53</ele>
        <time>2024-09-26T13:21:39.000Z</time>
      </trkpt>
      <trkpt lat="42.30095" lon="1.99641">
        <ele>1929.86</ele>
        <time>2024-09-26T13:21:44.000Z</time>
      </trkpt>
      <trkpt lat="42.30098" lon="1.99618">
        <ele>1930.17</ele>
        <time>2024-09-26T13:21:49.000Z</time>
      </trkpt>
      <trkpt lat="42.30102" lon="1.99594">
        <ele>1930.46</ele>
        <time>2024-09-26T13:21:54.000Z</time>
      </trkpt>
      <trkpt lat="42.30107" lon="1.99572">
        <ele>1930.72</ele>
        <time>2024-09-26T13:21:59.000Z</time>
      </trkpt>
      <trkpt lat="42.30112" lon="1.99547">
        <ele>1930.95</ele>
        <time>2024-09-26T13:22:04.000Z</time>
      </trkpt>
      <trkpt lat="42.30118" lon="1.99524">
        <ele>1931.17</ele>
        <time>2024-09-26T13:22:09.000Z</time>
      </trkpt>
      <trkpt lat="42.30124" lon="1.99501">
        <ele>1931.99</ele>
        <time>2024-09-26T13:22:14.000Z</time>
      </trkpt>
      <trkpt lat="42.3013" lon="1.99478">
        <ele>1932.34</ele>
        <time>2024-09-26T13:22:19.000Z</time>
      </trkpt>
      <trkpt lat="42.30136" lon="1.99454">
        <ele>1932.58</ele>
        <time>2024-09-26T13:22:24.000Z</time>
      </trkpt>
      <trkpt lat="42.30141" lon="1.99429">
        <ele>1932.96</ele>
        <time>2024-09-26T13:22:29.000Z</time>
      </trkpt>
      <trkpt lat="42.30144" lon="1.99404">
        <ele>1933.24</ele>
        <time>2024-09-26T13:22:34.000Z</time>
      </trkpt>
      <trkpt lat="42.30146" lon="1.99375">
        <ele>1933.39</ele>
        <time>2024-09-26T13:22:39.000Z</time>
      </trkpt>
      <trkpt lat="42.30145" lon="1.99352">
        <ele>1933.41</ele>
        <time>2024-09-26T13:22:44.000Z</time>
      </trkpt>
      <trkpt lat="42.30145" lon="1.99336">
        <ele>1933.42</ele>
        <time>2024-09-26T13:22:49.000Z</time>
      </trkpt>
      <trkpt lat="42.30145" lon="1.99321">
        <ele>1933.44</ele>
        <time>2024-09-26T13:22:54.000Z</time>
      </trkpt>
      <trkpt lat="42.30143" lon="1.99307">
        <ele>1933.48</ele>
        <time>2024-09-26T13:23:01.000Z</time>
      </trkpt>
      <trkpt lat="42.30141" lon="1.9932">
        <ele>1933.52</ele>
        <time>2024-09-26T13:23:06.000Z</time>
      </trkpt>
      <trkpt lat="42.30142" lon="1.99338">
        <ele>1933.56</ele>
        <time>2024-09-26T13:23:11.000Z</time>
      </trkpt>
      <trkpt lat="42.30144" lon="1.99353">
        <ele>1933.6</ele>
        <time>2024-09-26T13:23:16.000Z</time>
      </trkpt>
      <trkpt lat="42.30137" lon="1.99342">
        <ele>1936.22</ele>
        <time>2024-09-26T13:30:21.000Z</time>
      </trkpt>
      <trkpt lat="42.30138" lon="1.99327">
        <ele>1936.38</ele>
        <time>2024-09-26T13:30:28.000Z</time>
      </trkpt>
      <trkpt lat="42.3014" lon="1.99313">
        <ele>1936.51</ele>
        <time>2024-09-26T13:30:34.000Z</time>
      </trkpt>
      <trkpt lat="42.30142" lon="1.993">
        <ele>1936.6</ele>
        <time>2024-09-26T13:30:39.000Z</time>
      </trkpt>
      <trkpt lat="42.30146" lon="1.99282">
        <ele>1936.68</ele>
        <time>2024-09-26T13:30:44.000Z</time>
      </trkpt>
      <trkpt lat="42.3015" lon="1.99261">
        <ele>1936.75</ele>
        <time>2024-09-26T13:30:49.000Z</time>
      </trkpt>
      <trkpt lat="42.30157" lon="1.99235">
        <ele>1937.19</ele>
        <time>2024-09-26T13:30:54.000Z</time>
      </trkpt>
      <trkpt lat="42.30169" lon="1.99205">
        <ele>1937.33</ele>
        <time>2024-09-26T13:30:59.000Z</time>
      </trkpt>
      <trkpt lat="42.30189" lon="1.99171">
        <ele>1937.38</ele>
        <time>2024-09-26T13:31:04.000Z</time>
      </trkpt>
      <trkpt lat="42.3021" lon="1.99133">
        <ele>1937.4</ele>
        <time>2024-09-26T13:31:09.000Z</time>
      </trkpt>
      <trkpt lat="42.3023" lon="1.99088">
        <ele>1937.11</ele>
        <time>2024-09-26T13:31:14.000Z</time>
      </trkpt>
      <trkpt lat="42.3023" lon="1.9903">
        <ele>1936.36</ele>
        <time>2024-09-26T13:31:19.000Z</time>
      </trkpt>
      <trkpt lat="42.30222" lon="1.98974">
        <ele>1935.36</ele>
        <time>2024-09-26T13:31:24.000Z</time>
      </trkpt>
      <trkpt lat="42.30261" lon="1.98961">
        <ele>1934.22</ele>
        <time>2024-09-26T13:31:29.000Z</time>
      </trkpt>
      <trkpt lat="42.30314" lon="1.98961">
        <ele>1933.3</ele>
        <time>2024-09-26T13:31:34.000Z</time>
      </trkpt>
      <trkpt lat="42.3037" lon="1.98939">
        <ele>1932</ele>
        <time>2024-09-26T13:31:39.000Z</time>
      </trkpt>
      <trkpt lat="42.3043" lon="1.98908">
        <ele>1930.32</ele>
        <time>2024-09-26T13:31:44.000Z</time>
      </trkpt>
      <trkpt lat="42.30491" lon="1.98872">
        <ele>1929.33</ele>
        <time>2024-09-26T13:31:49.000Z</time>
      </trkpt>
      <trkpt lat="42.30555" lon="1.98836">
        <ele>1928.61</ele>
        <time>2024-09-26T13:31:54.000Z</time>
      </trkpt>
      <trkpt lat="42.30613" lon="1.98823">
        <ele>1927.92</ele>
        <time>2024-09-26T13:31:59.000Z</time>
      </trkpt>
      <trkpt lat="42.30666" lon="1.9883">
        <ele>1927.48</ele>
        <time>2024-09-26T13:32:04.000Z</time>
      </trkpt>
      <trkpt lat="42.30703" lon="1.98793">
        <ele>1926.24</ele>
        <time>2024-09-26T13:32:09.000Z</time>
      </trkpt>
      <trkpt lat="42.30687" lon="1.98747">
        <ele>1922.54</ele>
        <time>2024-09-26T13:32:14.000Z</time>
      </trkpt>
      <trkpt lat="42.30668" lon="1.98704">
        <ele>1917.41</ele>
        <time>2024-09-26T13:32:19.000Z</time>
      </trkpt>
      <trkpt lat="42.30651" lon="1.98663">
        <ele>1915.03</ele>
        <time>2024-09-26T13:32:24.000Z</time>
      </trkpt>
      <trkpt lat="42.30632" lon="1.98623">
        <ele>1913.28</ele>
        <time>2024-09-26T13:32:29.000Z</time>
      </trkpt>
      <trkpt lat="42.30613" lon="1.9858">
        <ele>1911.27</ele>
        <time>2024-09-26T13:32:34.000Z</time>
      </trkpt>
      <trkpt lat="42.30589" lon="1.98535">
        <ele>1906.56</ele>
        <time>2024-09-26T13:32:39.000Z</time>
      </trkpt>
      <trkpt lat="42.30564" lon="1.98485">
        <ele>1899.11</ele>
        <time>2024-09-26T13:32:44.000Z</time>
      </trkpt>
      <trkpt lat="42.30539" lon="1.98432">
        <ele>1892.72</ele>
        <time>2024-09-26T13:32:49.000Z</time>
      </trkpt>
      <trkpt lat="42.30513" lon="1.98379">
        <ele>1885.82</ele>
        <time>2024-09-26T13:32:54.000Z</time>
      </trkpt>
      <trkpt lat="42.30514" lon="1.98321">
        <ele>1878.79</ele>
        <time>2024-09-26T13:32:59.000Z</time>
      </trkpt>
      <trkpt lat="42.30571" lon="1.98283">
        <ele>1872.29</ele>
        <time>2024-09-26T13:33:04.999Z</time>
      </trkpt>
      <trkpt lat="42.30626" lon="1.9825">
        <ele>1867.78</ele>
        <time>2024-09-26T13:33:09.999Z</time>
      </trkpt>
      <trkpt lat="42.30683" lon="1.98214">
        <ele>1865.33</ele>
        <time>2024-09-26T13:33:14.999Z</time>
      </trkpt>
      <trkpt lat="42.3072" lon="1.98151">
        <ele>1862.79</ele>
        <time>2024-09-26T13:33:19.999Z</time>
      </trkpt>
      <trkpt lat="42.30731" lon="1.98076">
        <ele>1859.21</ele>
        <time>2024-09-26T13:33:24.999Z</time>
      </trkpt>
      <trkpt lat="42.30705" lon="1.98013">
        <ele>1854.77</ele>
        <time>2024-09-26T13:33:29.999Z</time>
      </trkpt>
      <trkpt lat="42.30686" lon="1.97948">
        <ele>1848.46</ele>
        <time>2024-09-26T13:33:34.999Z</time>
      </trkpt>
      <trkpt lat="42.30684" lon="1.97883">
        <ele>1843.27</ele>
        <time>2024-09-26T13:33:39.999Z</time>
      </trkpt>
      <trkpt lat="42.30687" lon="1.97821">
        <ele>1840.01</ele>
        <time>2024-09-26T13:33:44.999Z</time>
      </trkpt>
      <trkpt lat="42.30685" lon="1.97757">
        <ele>1836.43</ele>
        <time>2024-09-26T13:33:49.999Z</time>
      </trkpt>
      <trkpt lat="42.30675" lon="1.97693">
        <ele>1831.78</ele>
        <time>2024-09-26T13:33:54.999Z</time>
      </trkpt>
      <trkpt lat="42.30654" lon="1.9763">
        <ele>1827.27</ele>
        <time>2024-09-26T13:33:59.999Z</time>
      </trkpt>
      <trkpt lat="42.30627" lon="1.97572">
        <ele>1822.52</ele>
        <time>2024-09-26T13:34:04.999Z</time>
      </trkpt>
      <trkpt lat="42.30597" lon="1.97514">
        <ele>1816.58</ele>
        <time>2024-09-26T13:34:09.999Z</time>
      </trkpt>
      <trkpt lat="42.30583" lon="1.97458">
        <ele>1810.88</ele>
        <time>2024-09-26T13:34:14.999Z</time>
      </trkpt>
      <trkpt lat="42.30618" lon="1.97452">
        <ele>1808.83</ele>
        <time>2024-09-26T13:34:19.999Z</time>
      </trkpt>
      <trkpt lat="42.30653" lon="1.9747">
        <ele>1807.07</ele>
        <time>2024-09-26T13:34:24.999Z</time>
      </trkpt>
      <trkpt lat="42.30683" lon="1.9749">
        <ele>1804.3</ele>
        <time>2024-09-26T13:34:29.999Z</time>
      </trkpt>
      <trkpt lat="42.30713" lon="1.97508">
        <ele>1801.39</ele>
        <time>2024-09-26T13:34:34.999Z</time>
      </trkpt>
      <trkpt lat="42.30742" lon="1.97518">
        <ele>1798.98</ele>
        <time>2024-09-26T13:34:39.999Z</time>
      </trkpt>
      <trkpt lat="42.3077" lon="1.97525">
        <ele>1796.56</ele>
        <time>2024-09-26T13:34:44.999Z</time>
      </trkpt>
      <trkpt lat="42.30799" lon="1.97531">
        <ele>1794.33</ele>
        <time>2024-09-26T13:34:49.999Z</time>
      </trkpt>
      <trkpt lat="42.30826" lon="1.97535">
        <ele>1792.56</ele>
        <time>2024-09-26T13:34:54.999Z</time>
      </trkpt>
      <trkpt lat="42.30853" lon="1.97536">
        <ele>1791.22</ele>
        <time>2024-09-26T13:34:59.999Z</time>
      </trkpt>
      <trkpt lat="42.30876" lon="1.97527">
        <ele>1790.05</ele>
        <time>2024-09-26T13:35:04.999Z</time>
      </trkpt>
      <trkpt lat="42.30896" lon="1.97511">
        <ele>1788.95</ele>
        <time>2024-09-26T13:35:09.999Z</time>
      </trkpt>
      <trkpt lat="42.30916" lon="1.9749">
        <ele>1787.99</ele>
        <time>2024-09-26T13:35:14.999Z</time>
      </trkpt>
      <trkpt lat="42.30937" lon="1.97465">
        <ele>1787.14</ele>
        <time>2024-09-26T13:35:19.999Z</time>
      </trkpt>
      <trkpt lat="42.30957" lon="1.97441">
        <ele>1786.5</ele>
        <time>2024-09-26T13:35:24.999Z</time>
      </trkpt>
      <trkpt lat="42.30977" lon="1.97417">
        <ele>1785.64</ele>
        <time>2024-09-26T13:35:29.999Z</time>
      </trkpt>
      <trkpt lat="42.30996" lon="1.97394">
        <ele>1785.14</ele>
        <time>2024-09-26T13:35:34.999Z</time>
      </trkpt>
      <trkpt lat="42.31016" lon="1.97373">
        <ele>1784.9</ele>
        <time>2024-09-26T13:35:39.999Z</time>
      </trkpt>
      <trkpt lat="42.31034" lon="1.97351">
        <ele>1784.72</ele>
        <time>2024-09-26T13:35:44.999Z</time>
      </trkpt>
      <trkpt lat="42.31051" lon="1.97332">
        <ele>1784.52</ele>
        <time>2024-09-26T13:35:49.999Z</time>
      </trkpt>
      <trkpt lat="42.31068" lon="1.97313">
        <ele>1784.33</ele>
        <time>2024-09-26T13:35:54.999Z</time>
      </trkpt>
      <trkpt lat="42.31083" lon="1.97293">
        <ele>1784.4</ele>
        <time>2024-09-26T13:35:59.999Z</time>
      </trkpt>
      <trkpt lat="42.31098" lon="1.97275">
        <ele>1784.51</ele>
        <time>2024-09-26T13:36:04.999Z</time>
      </trkpt>
      <trkpt lat="42.31109" lon="1.97256">
        <ele>1784.52</ele>
        <time>2024-09-26T13:36:09.999Z</time>
      </trkpt>
      <trkpt lat="42.3112" lon="1.97238">
        <ele>1784.54</ele>
        <time>2024-09-26T13:36:14.999Z</time>
      </trkpt>
      <trkpt lat="42.3113" lon="1.97219">
        <ele>1784.6</ele>
        <time>2024-09-26T13:36:19.999Z</time>
      </trkpt>
      <trkpt lat="42.3114" lon="1.97201">
        <ele>1784.7</ele>
        <time>2024-09-26T13:36:24.999Z</time>
      </trkpt>
      <trkpt lat="42.31149" lon="1.97182">
        <ele>1784.84</ele>
        <time>2024-09-26T13:36:29.999Z</time>
      </trkpt>
      <trkpt lat="42.31162" lon="1.97171">
        <ele>1785</ele>
        <time>2024-09-26T13:36:34.999Z</time>
      </trkpt>
      <trkpt lat="42.31178" lon="1.97166">
        <ele>1785.14</ele>
        <time>2024-09-26T13:36:39.999Z</time>
      </trkpt>
      <trkpt lat="42.31196" lon="1.97165">
        <ele>1785.26</ele>
        <time>2024-09-26T13:36:44.999Z</time>
      </trkpt>
      <trkpt lat="42.31212" lon="1.97166">
        <ele>1785.35</ele>
        <time>2024-09-26T13:36:49.999Z</time>
      </trkpt>
      <trkpt lat="42.31226" lon="1.97166">
        <ele>1785.44</ele>
        <time>2024-09-26T13:36:54.999Z</time>
      </trkpt>
      <trkpt lat="42.3124" lon="1.97163">
        <ele>1785.51</ele>
        <time>2024-09-26T13:36:59.999Z</time>
      </trkpt>
      <trkpt lat="42.31254" lon="1.97156">
        <ele>1785.57</ele>
        <time>2024-09-26T13:37:04.999Z</time>
      </trkpt>
      <trkpt lat="42.31267" lon="1.97144">
        <ele>1785.63</ele>
        <time>2024-09-26T13:37:09.999Z</time>
      </trkpt>
      <trkpt lat="42.31278" lon="1.97129">
        <ele>1785.7</ele>
        <time>2024-09-26T13:37:14.999Z</time>
      </trkpt>
      <trkpt lat="42.3129" lon="1.97114">
        <ele>1785.78</ele>
        <time>2024-09-26T13:37:19.999Z</time>
      </trkpt>
      <trkpt lat="42.31302" lon="1.97097">
        <ele>1785.89</ele>
        <time>2024-09-26T13:37:24.999Z</time>
      </trkpt>
      <trkpt lat="42.31314" lon="1.97081">
        <ele>1786.01</ele>
        <time>2024-09-26T13:37:29.999Z</time>
      </trkpt>
      <trkpt lat="42.31326" lon="1.97066">
        <ele>1786.16</ele>
        <time>2024-09-26T13:37:34.999Z</time>
      </trkpt>
      <trkpt lat="42.31338" lon="1.97051">
        <ele>1786.34</ele>
        <time>2024-09-26T13:37:39.999Z</time>
      </trkpt>
      <trkpt lat="42.31348" lon="1.97038">
        <ele>1786.55</ele>
        <time>2024-09-26T13:37:44.999Z</time>
      </trkpt>
      <trkpt lat="42.31359" lon="1.97024">
        <ele>1786.78</ele>
        <time>2024-09-26T13:37:49.999Z</time>
      </trkpt>
      <trkpt lat="42.31369" lon="1.9701">
        <ele>1786.99</ele>
        <time>2024-09-26T13:37:54.999Z</time>
      </trkpt>
      <trkpt lat="42.31379" lon="1.97">
        <ele>1787.2</ele>
        <time>2024-09-26T13:37:59.999Z</time>
      </trkpt>
      <trkpt lat="42.31395" lon="1.97002">
        <ele>1787.38</ele>
        <time>2024-09-26T13:38:04.999Z</time>
      </trkpt>
      <trkpt lat="42.31404" lon="1.97017">
        <ele>1787.52</ele>
        <time>2024-09-26T13:38:09.999Z</time>
      </trkpt>
      <trkpt lat="42.31407" lon="1.97037">
        <ele>1787.63</ele>
        <time>2024-09-26T13:38:14.999Z</time>
      </trkpt>
      <trkpt lat="42.31408" lon="1.97053">
        <ele>1787.74</ele>
        <time>2024-09-26T13:38:19.999Z</time>
      </trkpt>
      <trkpt lat="42.31408" lon="1.97069">
        <ele>1787.83</ele>
        <time>2024-09-26T13:38:24.999Z</time>
      </trkpt>
      <trkpt lat="42.31409" lon="1.97084">
        <ele>1787.93</ele>
        <time>2024-09-26T13:38:29.999Z</time>
      </trkpt>
      <trkpt lat="42.31409" lon="1.971">
        <ele>1788.07</ele>
        <time>2024-09-26T13:38:34.999Z</time>
      </trkpt>
      <trkpt lat="42.31414" lon="1.97114">
        <ele>1788.22</ele>
        <time>2024-09-26T13:38:39.999Z</time>
      </trkpt>
      <trkpt lat="42.31425" lon="1.97121">
        <ele>1788.36</ele>
        <time>2024-09-26T13:38:44.999Z</time>
      </trkpt>
      <trkpt lat="42.31439" lon="1.9712">
        <ele>1788.5</ele>
        <time>2024-09-26T13:38:49.999Z</time>
      </trkpt>
      <trkpt lat="42.31451" lon="1.97113">
        <ele>1788.73</ele>
        <time>2024-09-26T13:38:54.999Z</time>
      </trkpt>
      <trkpt lat="42.31458" lon="1.97106">
        <ele>1788.97</ele>
        <time>2024-09-26T13:38:59.999Z</time>
      </trkpt>
      <trkpt lat="42.31468" lon="1.971">
        <ele>1789.28</ele>
        <time>2024-09-26T13:39:05.999Z</time>
      </trkpt>
      <trkpt lat="42.31476" lon="1.97094">
        <ele>1789.56</ele>
        <time>2024-09-26T13:39:10.999Z</time>
      </trkpt>
      <trkpt lat="42.31486" lon="1.97088">
        <ele>1789.85</ele>
        <time>2024-09-26T13:39:15.999Z</time>
      </trkpt>
      <trkpt lat="42.31496" lon="1.97083">
        <ele>1790.16</ele>
        <time>2024-09-26T13:39:20.999Z</time>
      </trkpt>
      <trkpt lat="42.31505" lon="1.97076">
        <ele>1790.56</ele>
        <time>2024-09-26T13:39:26.999Z</time>
      </trkpt>
      <trkpt lat="42.31515" lon="1.9707">
        <ele>1790.92</ele>
        <time>2024-09-26T13:39:31.999Z</time>
      </trkpt>
      <trkpt lat="42.31524" lon="1.97064">
        <ele>1791.37</ele>
        <time>2024-09-26T13:39:37.999Z</time>
      </trkpt>
      <trkpt lat="42.31534" lon="1.9706">
        <ele>1791.77</ele>
        <time>2024-09-26T13:39:42.999Z</time>
      </trkpt>
      <trkpt lat="42.31543" lon="1.97058">
        <ele>1792.15</ele>
        <time>2024-09-26T13:39:47.999Z</time>
      </trkpt>
      <trkpt lat="42.31554" lon="1.97056">
        <ele>1792.58</ele>
        <time>2024-09-26T13:39:53.999Z</time>
      </trkpt>
      <trkpt lat="42.31564" lon="1.97056">
        <ele>1792.99</ele>
        <time>2024-09-26T13:39:59.999Z</time>
      </trkpt>
      <trkpt lat="42.31575" lon="1.97057">
        <ele>1793.36</ele>
        <time>2024-09-26T13:40:05.999Z</time>
      </trkpt>
      <trkpt lat="42.31585" lon="1.97057">
        <ele>1793.64</ele>
        <time>2024-09-26T13:40:10.999Z</time>
      </trkpt>
      <trkpt lat="42.31596" lon="1.97058">
        <ele>1793.89</ele>
        <time>2024-09-26T13:40:15.999Z</time>
      </trkpt>
      <trkpt lat="42.31607" lon="1.97057">
        <ele>1794.12</ele>
        <time>2024-09-26T13:40:20.999Z</time>
      </trkpt>
      <trkpt lat="42.3162" lon="1.97058">
        <ele>1794.33</ele>
        <time>2024-09-26T13:40:25.999Z</time>
      </trkpt>
      <trkpt lat="42.31631" lon="1.97057">
        <ele>1794.52</ele>
        <time>2024-09-26T13:40:30.999Z</time>
      </trkpt>
      <trkpt lat="42.31642" lon="1.97057">
        <ele>1794.7</ele>
        <time>2024-09-26T13:40:35.999Z</time>
      </trkpt>
      <trkpt lat="42.31655" lon="1.97057">
        <ele>1794.88</ele>
        <time>2024-09-26T13:40:40.999Z</time>
      </trkpt>
      <trkpt lat="42.31667" lon="1.97058">
        <ele>1795.05</ele>
        <time>2024-09-26T13:40:45.999Z</time>
      </trkpt>
      <trkpt lat="42.31679" lon="1.97059">
        <ele>1795.22</ele>
        <time>2024-09-26T13:40:50.999Z</time>
      </trkpt>
      <trkpt lat="42.3169" lon="1.97058">
        <ele>1795.38</ele>
        <time>2024-09-26T13:40:55.999Z</time>
      </trkpt>
      <trkpt lat="42.31702" lon="1.97059">
        <ele>1795.54</ele>
        <time>2024-09-26T13:41:00.999Z</time>
      </trkpt>
      <trkpt lat="42.31714" lon="1.97059">
        <ele>1795.7</ele>
        <time>2024-09-26T13:41:05.999Z</time>
      </trkpt>
      <trkpt lat="42.31725" lon="1.97058">
        <ele>1795.86</ele>
        <time>2024-09-26T13:41:10.999Z</time>
      </trkpt>
      <trkpt lat="42.31736" lon="1.97058">
        <ele>1796.01</ele>
        <time>2024-09-26T13:41:15.999Z</time>
      </trkpt>
      <trkpt lat="42.31747" lon="1.97056">
        <ele>1796.16</ele>
        <time>2024-09-26T13:41:20.999Z</time>
      </trkpt>
      <trkpt lat="42.31759" lon="1.97054">
        <ele>1796.31</ele>
        <time>2024-09-26T13:41:25.999Z</time>
      </trkpt>
      <trkpt lat="42.31771" lon="1.97049">
        <ele>1796.46</ele>
        <time>2024-09-26T13:41:30.999Z</time>
      </trkpt>
      <trkpt lat="42.31784" lon="1.97044">
        <ele>1796.6</ele>
        <time>2024-09-26T13:41:35.999Z</time>
      </trkpt>
      <trkpt lat="42.31794" lon="1.97038">
        <ele>1796.73</ele>
        <time>2024-09-26T13:41:40.999Z</time>
      </trkpt>
      <trkpt lat="42.31805" lon="1.97028">
        <ele>1796.88</ele>
        <time>2024-09-26T13:41:45.999Z</time>
      </trkpt>
      <trkpt lat="42.31815" lon="1.97018">
        <ele>1797.02</ele>
        <time>2024-09-26T13:41:50.999Z</time>
      </trkpt>
      <trkpt lat="42.31824" lon="1.97009">
        <ele>1797.16</ele>
        <time>2024-09-26T13:41:55.999Z</time>
      </trkpt>
      <trkpt lat="42.31832" lon="1.96999">
        <ele>1797.3</ele>
        <time>2024-09-26T13:42:00.999Z</time>
      </trkpt>
      <trkpt lat="42.31841" lon="1.96988">
        <ele>1797.43</ele>
        <time>2024-09-26T13:42:05.999Z</time>
      </trkpt>
      <trkpt lat="42.3185" lon="1.96978">
        <ele>1797.57</ele>
        <time>2024-09-26T13:42:10.999Z</time>
      </trkpt>
      <trkpt lat="42.3186" lon="1.96966">
        <ele>1797.71</ele>
        <time>2024-09-26T13:42:15.999Z</time>
      </trkpt>
      <trkpt lat="42.31869" lon="1.96956">
        <ele>1797.85</ele>
        <time>2024-09-26T13:42:20.999Z</time>
      </trkpt>
      <trkpt lat="42.31879" lon="1.96945">
        <ele>1798</ele>
        <time>2024-09-26T13:42:25.999Z</time>
      </trkpt>
      <trkpt lat="42.31887" lon="1.96935">
        <ele>1798.14</ele>
        <time>2024-09-26T13:42:30.999Z</time>
      </trkpt>
      <trkpt lat="42.31896" lon="1.96925">
        <ele>1798.28</ele>
        <time>2024-09-26T13:42:35.999Z</time>
      </trkpt>
      <trkpt lat="42.31905" lon="1.96915">
        <ele>1798.43</ele>
        <time>2024-09-26T13:42:40.999Z</time>
      </trkpt>
      <trkpt lat="42.31915" lon="1.96906">
        <ele>1798.57</ele>
        <time>2024-09-26T13:42:45.999Z</time>
      </trkpt>
      <trkpt lat="42.31925" lon="1.96894">
        <ele>1798.71</ele>
        <time>2024-09-26T13:42:50.999Z</time>
      </trkpt>
      <trkpt lat="42.31934" lon="1.96884">
        <ele>1798.85</ele>
        <time>2024-09-26T13:42:55.999Z</time>
      </trkpt>
      <trkpt lat="42.31941" lon="1.96874">
        <ele>1798.99</ele>
        <time>2024-09-26T13:43:00.999Z</time>
      </trkpt>
      <trkpt lat="42.3195" lon="1.96863">
        <ele>1799.15</ele>
        <time>2024-09-26T13:43:05.999Z</time>
      </trkpt>
      <trkpt lat="42.3196" lon="1.96852">
        <ele>1799.31</ele>
        <time>2024-09-26T13:43:10.999Z</time>
      </trkpt>
      <trkpt lat="42.31968" lon="1.96841">
        <ele>1799.47</ele>
        <time>2024-09-26T13:43:15.999Z</time>
      </trkpt>
      <trkpt lat="42.31976" lon="1.96827">
        <ele>1799.64</ele>
        <time>2024-09-26T13:43:20.999Z</time>
      </trkpt>
      <trkpt lat="42.31982" lon="1.96814">
        <ele>1799.83</ele>
        <time>2024-09-26T13:43:25.999Z</time>
      </trkpt>
      <trkpt lat="42.3199" lon="1.96801">
        <ele>1800.04</ele>
        <time>2024-09-26T13:43:30.999Z</time>
      </trkpt>
      <trkpt lat="42.31997" lon="1.96786">
        <ele>1800.27</ele>
        <time>2024-09-26T13:43:35.999Z</time>
      </trkpt>
      <trkpt lat="42.32005" lon="1.96774">
        <ele>1800.54</ele>
        <time>2024-09-26T13:43:40.999Z</time>
      </trkpt>
      <trkpt lat="42.32011" lon="1.96764">
        <ele>1800.82</ele>
        <time>2024-09-26T13:43:45.999Z</time>
      </trkpt>
      <trkpt lat="42.32017" lon="1.96753">
        <ele>1801.1</ele>
        <time>2024-09-26T13:43:50.999Z</time>
      </trkpt>
      <trkpt lat="42.32023" lon="1.9674">
        <ele>1801.38</ele>
        <time>2024-09-26T13:43:55.999Z</time>
      </trkpt>
      <trkpt lat="42.32028" lon="1.96727">
        <ele>1801.67</ele>
        <time>2024-09-26T13:44:00.999Z</time>
      </trkpt>
      <trkpt lat="42.32034" lon="1.96715">
        <ele>1801.97</ele>
        <time>2024-09-26T13:44:05.999Z</time>
      </trkpt>
      <trkpt lat="42.3204" lon="1.96703">
        <ele>1802.28</ele>
        <time>2024-09-26T13:44:10.999Z</time>
      </trkpt>
      <trkpt lat="42.32045" lon="1.96692">
        <ele>1802.59</ele>
        <time>2024-09-26T13:44:15.999Z</time>
      </trkpt>
      <trkpt lat="42.3205" lon="1.96678">
        <ele>1802.9</ele>
        <time>2024-09-26T13:44:20.999Z</time>
      </trkpt>
      <trkpt lat="42.32056" lon="1.96667">
        <ele>1803.21</ele>
        <time>2024-09-26T13:44:25.999Z</time>
      </trkpt>
      <trkpt lat="42.32062" lon="1.96653">
        <ele>1803.53</ele>
        <time>2024-09-26T13:44:30.999Z</time>
      </trkpt>
      <trkpt lat="42.32068" lon="1.96639">
        <ele>1803.85</ele>
        <time>2024-09-26T13:44:35.999Z</time>
      </trkpt>
      <trkpt lat="42.32074" lon="1.96624">
        <ele>1804.16</ele>
        <time>2024-09-26T13:44:40.999Z</time>
      </trkpt>
      <trkpt lat="42.3208" lon="1.96609">
        <ele>1804.48</ele>
        <time>2024-09-26T13:44:45.999Z</time>
      </trkpt>
      <trkpt lat="42.32084" lon="1.96596">
        <ele>1804.8</ele>
        <time>2024-09-26T13:44:50.999Z</time>
      </trkpt>
      <trkpt lat="42.32091" lon="1.96582">
        <ele>1805.13</ele>
        <time>2024-09-26T13:44:55.999Z</time>
      </trkpt>
      <trkpt lat="42.32097" lon="1.96569">
        <ele>1805.45</ele>
        <time>2024-09-26T13:45:00.999Z</time>
      </trkpt>
      <trkpt lat="42.32104" lon="1.96554">
        <ele>1805.79</ele>
        <time>2024-09-26T13:45:05.999Z</time>
      </trkpt>
      <trkpt lat="42.3211" lon="1.96541">
        <ele>1806.13</ele>
        <time>2024-09-26T13:45:10.999Z</time>
      </trkpt>
      <trkpt lat="42.32117" lon="1.96528">
        <ele>1806.46</ele>
        <time>2024-09-26T13:45:15.999Z</time>
      </trkpt>
      <trkpt lat="42.32122" lon="1.96514">
        <ele>1806.8</ele>
        <time>2024-09-26T13:45:20.999Z</time>
      </trkpt>
      <trkpt lat="42.32128" lon="1.965">
        <ele>1807.13</ele>
        <time>2024-09-26T13:45:25.999Z</time>
      </trkpt>
      <trkpt lat="42.32134" lon="1.96488">
        <ele>1807.46</ele>
        <time>2024-09-26T13:45:31.000Z</time>
      </trkpt>
      <trkpt lat="42.3214" lon="1.96476">
        <ele>1807.79</ele>
        <time>2024-09-26T13:45:36.000Z</time>
      </trkpt>
      <trkpt lat="42.32145" lon="1.96464">
        <ele>1808.13</ele>
        <time>2024-09-26T13:45:41.000Z</time>
      </trkpt>
      <trkpt lat="42.32151" lon="1.96453">
        <ele>1808.46</ele>
        <time>2024-09-26T13:45:46.000Z</time>
      </trkpt>
      <trkpt lat="42.32156" lon="1.96442">
        <ele>1808.78</ele>
        <time>2024-09-26T13:45:51.000Z</time>
      </trkpt>
      <trkpt lat="42.32161" lon="1.96429">
        <ele>1809.09</ele>
        <time>2024-09-26T13:45:56.000Z</time>
      </trkpt>
      <trkpt lat="42.32167" lon="1.96418">
        <ele>1809.41</ele>
        <time>2024-09-26T13:46:01.000Z</time>
      </trkpt>
      <trkpt lat="42.32172" lon="1.96406">
        <ele>1809.72</ele>
        <time>2024-09-26T13:46:06.000Z</time>
      </trkpt>
      <trkpt lat="42.32178" lon="1.96394">
        <ele>1810.03</ele>
        <time>2024-09-26T13:46:11.000Z</time>
      </trkpt>
      <trkpt lat="42.32183" lon="1.96382">
        <ele>1810.34</ele>
        <time>2024-09-26T13:46:16.000Z</time>
      </trkpt>
      <trkpt lat="42.32188" lon="1.96372">
        <ele>1810.65</ele>
        <time>2024-09-26T13:46:21.000Z</time>
      </trkpt>
      <trkpt lat="42.32193" lon="1.96357">
        <ele>1810.96</ele>
        <time>2024-09-26T13:46:26.000Z</time>
      </trkpt>
      <trkpt lat="42.32199" lon="1.96345">
        <ele>1811.27</ele>
        <time>2024-09-26T13:46:31.000Z</time>
      </trkpt>
      <trkpt lat="42.32204" lon="1.96332">
        <ele>1811.58</ele>
        <time>2024-09-26T13:46:36.000Z</time>
      </trkpt>
      <trkpt lat="42.32208" lon="1.96317">
        <ele>1811.9</ele>
        <time>2024-09-26T13:46:41.000Z</time>
      </trkpt>
      <trkpt lat="42.32214" lon="1.96307">
        <ele>1812.23</ele>
        <time>2024-09-26T13:46:46.000Z</time>
      </trkpt>
      <trkpt lat="42.32219" lon="1.96295">
        <ele>1812.54</ele>
        <time>2024-09-26T13:46:51.000Z</time>
      </trkpt>
      <trkpt lat="42.32226" lon="1.96282">
        <ele>1812.86</ele>
        <time>2024-09-26T13:46:56.000Z</time>
      </trkpt>
      <trkpt lat="42.3223" lon="1.96269">
        <ele>1813.18</ele>
        <time>2024-09-26T13:47:01.000Z</time>
      </trkpt>
      <trkpt lat="42.32235" lon="1.96256">
        <ele>1813.5</ele>
        <time>2024-09-26T13:47:06.000Z</time>
      </trkpt>
      <trkpt lat="42.32241" lon="1.96244">
        <ele>1813.83</ele>
        <time>2024-09-26T13:47:11.000Z</time>
      </trkpt>
      <trkpt lat="42.32247" lon="1.96232">
        <ele>1814.15</ele>
        <time>2024-09-26T13:47:16.000Z</time>
      </trkpt>
      <trkpt lat="42.32253" lon="1.9622">
        <ele>1814.47</ele>
        <time>2024-09-26T13:47:21.000Z</time>
      </trkpt>
      <trkpt lat="42.32258" lon="1.96208">
        <ele>1814.77</ele>
        <time>2024-09-26T13:47:26.000Z</time>
      </trkpt>
      <trkpt lat="42.32265" lon="1.96197">
        <ele>1815.07</ele>
        <time>2024-09-26T13:47:31.000Z</time>
      </trkpt>
      <trkpt lat="42.32271" lon="1.96186">
        <ele>1815.36</ele>
        <time>2024-09-26T13:47:36.000Z</time>
      </trkpt>
      <trkpt lat="42.32279" lon="1.96176">
        <ele>1815.65</ele>
        <time>2024-09-26T13:47:41.000Z</time>
      </trkpt>
      <trkpt lat="42.32287" lon="1.96166">
        <ele>1815.91</ele>
        <time>2024-09-26T13:47:46.000Z</time>
      </trkpt>
      <trkpt lat="42.32294" lon="1.96157">
        <ele>1816.18</ele>
        <time>2024-09-26T13:47:51.000Z</time>
      </trkpt>
      <trkpt lat="42.32303" lon="1.96149">
        <ele>1816.43</ele>
        <time>2024-09-26T13:47:56.000Z</time>
      </trkpt>
      <trkpt lat="42.32313" lon="1.9614">
        <ele>1816.68</ele>
        <time>2024-09-26T13:48:01.000Z</time>
      </trkpt>
      <trkpt lat="42.32323" lon="1.96132">
        <ele>1816.92</ele>
        <time>2024-09-26T13:48:06.000Z</time>
      </trkpt>
      <trkpt lat="42.32334" lon="1.96124">
        <ele>1817.15</ele>
        <time>2024-09-26T13:48:11.000Z</time>
      </trkpt>
      <trkpt lat="42.32347" lon="1.96114">
        <ele>1817.38</ele>
        <time>2024-09-26T13:48:16.000Z</time>
      </trkpt>
      <trkpt lat="42.32361" lon="1.96104">
        <ele>1817.6</ele>
        <time>2024-09-26T13:48:21.000Z</time>
      </trkpt>
      <trkpt lat="42.32375" lon="1.96094">
        <ele>1817.82</ele>
        <time>2024-09-26T13:48:26.000Z</time>
      </trkpt>
      <trkpt lat="42.32388" lon="1.96084">
        <ele>1818.03</ele>
        <time>2024-09-26T13:48:31.000Z</time>
      </trkpt>
      <trkpt lat="42.32399" lon="1.96074">
        <ele>1818.24</ele>
        <time>2024-09-26T13:48:36.000Z</time>
      </trkpt>
      <trkpt lat="42.32408" lon="1.96067">
        <ele>1818.45</ele>
        <time>2024-09-26T13:48:41.000Z</time>
      </trkpt>
      <trkpt lat="42.32419" lon="1.9606">
        <ele>1818.65</ele>
        <time>2024-09-26T13:48:46.000Z</time>
      </trkpt>
      <trkpt lat="42.3243" lon="1.96053">
        <ele>1818.86</ele>
        <time>2024-09-26T13:48:51.000Z</time>
      </trkpt>
      <trkpt lat="42.32442" lon="1.96045">
        <ele>1819.06</ele>
        <time>2024-09-26T13:48:56.000Z</time>
      </trkpt>
      <trkpt lat="42.32454" lon="1.96035">
        <ele>1819.26</ele>
        <time>2024-09-26T13:49:01.000Z</time>
      </trkpt>
      <trkpt lat="42.32467" lon="1.96025">
        <ele>1819.45</ele>
        <time>2024-09-26T13:49:06.000Z</time>
      </trkpt>
      <trkpt lat="42.32479" lon="1.96015">
        <ele>1819.65</ele>
        <time>2024-09-26T13:49:11.000Z</time>
      </trkpt>
      <trkpt lat="42.32491" lon="1.96004">
        <ele>1819.84</ele>
        <time>2024-09-26T13:49:16.000Z</time>
      </trkpt>
      <trkpt lat="42.32504" lon="1.95995">
        <ele>1820.03</ele>
        <time>2024-09-26T13:49:21.000Z</time>
      </trkpt>
      <trkpt lat="42.32516" lon="1.95988">
        <ele>1820.21</ele>
        <time>2024-09-26T13:49:26.000Z</time>
      </trkpt>
      <trkpt lat="42.32529" lon="1.95984">
        <ele>1820.39</ele>
        <time>2024-09-26T13:49:31.000Z</time>
      </trkpt>
      <trkpt lat="42.32542" lon="1.95976">
        <ele>1820.56</ele>
        <time>2024-09-26T13:49:36.000Z</time>
      </trkpt>
      <trkpt lat="42.32552" lon="1.95971">
        <ele>1821.12</ele>
        <time>2024-09-26T13:50:28.000Z</time>
      </trkpt>
      <trkpt lat="42.32576" lon="1.95966">
        <ele>1823.05</ele>
        <time>2024-09-26T13:50:33.000Z</time>
      </trkpt>
      <trkpt lat="42.32609" lon="1.95955">
        <ele>1823.99</ele>
        <time>2024-09-26T13:50:38.000Z</time>
      </trkpt>
      <trkpt lat="42.32643" lon="1.95948">
        <ele>1824.38</ele>
        <time>2024-09-26T13:50:43.000Z</time>
      </trkpt>
      <trkpt lat="42.32675" lon="1.95948">
        <ele>1824.29</ele>
        <time>2024-09-26T13:50:48.000Z</time>
      </trkpt>
      <trkpt lat="42.32704" lon="1.95958">
        <ele>1824.36</ele>
        <time>2024-09-26T13:50:53.000Z</time>
      </trkpt>
      <trkpt lat="42.32737" lon="1.95972">
        <ele>1824.12</ele>
        <time>2024-09-26T13:50:58.000Z</time>
      </trkpt>
      <trkpt lat="42.3276" lon="1.9598">
        <ele>1824.21</ele>
        <time>2024-09-26T13:51:03.000Z</time>
      </trkpt>
      <trkpt lat="42.32772" lon="1.95973">
        <ele>1825.07</ele>
        <time>2024-09-26T13:52:02.000Z</time>
      </trkpt>
      <trkpt lat="42.32764" lon="1.95964">
        <ele>1827.31</ele>
        <time>2024-09-26T13:54:04.000Z</time>
      </trkpt>
      <trkpt lat="42.32747" lon="1.95947">
        <ele>1828.35</ele>
        <time>2024-09-26T13:54:09.000Z</time>
      </trkpt>
      <trkpt lat="42.32727" lon="1.95929">
        <ele>1830.72</ele>
        <time>2024-09-26T13:54:14.000Z</time>
      </trkpt>
      <trkpt lat="42.32706" lon="1.95912">
        <ele>1831.32</ele>
        <time>2024-09-26T13:54:19.000Z</time>
      </trkpt>
      <trkpt lat="42.32682" lon="1.95885">
        <ele>1831.32</ele>
        <time>2024-09-26T13:54:24.000Z</time>
      </trkpt>
      <trkpt lat="42.32655" lon="1.95864">
        <ele>1831.12</ele>
        <time>2024-09-26T13:54:29.000Z</time>
      </trkpt>
      <trkpt lat="42.3262" lon="1.95855">
        <ele>1830.69</ele>
        <time>2024-09-26T13:54:34.000Z</time>
      </trkpt>
      <trkpt lat="42.32602" lon="1.95807">
        <ele>1829.33</ele>
        <time>2024-09-26T13:54:39.000Z</time>
      </trkpt>
      <trkpt lat="42.32594" lon="1.95743">
        <ele>1827.87</ele>
        <time>2024-09-26T13:54:44.000Z</time>
      </trkpt>
      <trkpt lat="42.32589" lon="1.95676">
        <ele>1825.66</ele>
        <time>2024-09-26T13:54:49.000Z</time>
      </trkpt>
      <trkpt lat="42.32558" lon="1.95627">
        <ele>1823.1</ele>
        <time>2024-09-26T13:54:54.000Z</time>
      </trkpt>
      <trkpt lat="42.32529" lon="1.95577">
        <ele>1820.96</ele>
        <time>2024-09-26T13:54:59.000Z</time>
      </trkpt>
      <trkpt lat="42.32544" lon="1.95511">
        <ele>1817.64</ele>
        <time>2024-09-26T13:55:04.000Z</time>
      </trkpt>
      <trkpt lat="42.32584" lon="1.95469">
        <ele>1815.3</ele>
        <time>2024-09-26T13:55:09.000Z</time>
      </trkpt>
      <trkpt lat="42.32625" lon="1.95433">
        <ele>1813.49</ele>
        <time>2024-09-26T13:55:14.000Z</time>
      </trkpt>
      <trkpt lat="42.3267" lon="1.95394">
        <ele>1811.63</ele>
        <time>2024-09-26T13:55:19.000Z</time>
      </trkpt>
      <trkpt lat="42.32718" lon="1.95353">
        <ele>1809.56</ele>
        <time>2024-09-26T13:55:24.000Z</time>
      </trkpt>
      <trkpt lat="42.32772" lon="1.95327">
        <ele>1807.34</ele>
        <time>2024-09-26T13:55:29.000Z</time>
      </trkpt>
      <trkpt lat="42.32807" lon="1.95268">
        <ele>1803.82</ele>
        <time>2024-09-26T13:55:34.000Z</time>
      </trkpt>
      <trkpt lat="42.32842" lon="1.9521">
        <ele>1799.46</ele>
        <time>2024-09-26T13:55:39.000Z</time>
      </trkpt>
      <trkpt lat="42.32879" lon="1.95154">
        <ele>1795.63</ele>
        <time>2024-09-26T13:55:44.000Z</time>
      </trkpt>
      <trkpt lat="42.32893" lon="1.95089">
        <ele>1792.39</ele>
        <time>2024-09-26T13:55:49.000Z</time>
      </trkpt>
      <trkpt lat="42.32892" lon="1.95028">
        <ele>1789.62</ele>
        <time>2024-09-26T13:55:54.000Z</time>
      </trkpt>
      <trkpt lat="42.32904" lon="1.94969">
        <ele>1786.03</ele>
        <time>2024-09-26T13:55:59.000Z</time>
      </trkpt>
      <trkpt lat="42.32938" lon="1.94929">
        <ele>1782.91</ele>
        <time>2024-09-26T13:56:04.000Z</time>
      </trkpt>
      <trkpt lat="42.32984" lon="1.94904">
        <ele>1780.42</ele>
        <time>2024-09-26T13:56:09.000Z</time>
      </trkpt>
      <trkpt lat="42.33029" lon="1.94868">
        <ele>1778.41</ele>
        <time>2024-09-26T13:56:14.000Z</time>
      </trkpt>
      <trkpt lat="42.33063" lon="1.94806">
        <ele>1776.64</ele>
        <time>2024-09-26T13:56:19.000Z</time>
      </trkpt>
      <trkpt lat="42.33094" lon="1.94742">
        <ele>1772.83</ele>
        <time>2024-09-26T13:56:24.000Z</time>
      </trkpt>
      <trkpt lat="42.33118" lon="1.94674">
        <ele>1770.55</ele>
        <time>2024-09-26T13:56:29.000Z</time>
      </trkpt>
      <trkpt lat="42.3314" lon="1.9461">
        <ele>1767.4</ele>
        <time>2024-09-26T13:56:34.000Z</time>
      </trkpt>
      <trkpt lat="42.33179" lon="1.94566">
        <ele>1764.84</ele>
        <time>2024-09-26T13:56:39.000Z</time>
      </trkpt>
      <trkpt lat="42.33231" lon="1.94562">
        <ele>1762.45</ele>
        <time>2024-09-26T13:56:44.000Z</time>
      </trkpt>
      <trkpt lat="42.33276" lon="1.94587">
        <ele>1760.34</ele>
        <time>2024-09-26T13:56:49.000Z</time>
      </trkpt>
      <trkpt lat="42.33316" lon="1.9462">
        <ele>1758.29</ele>
        <time>2024-09-26T13:56:54.000Z</time>
      </trkpt>
      <trkpt lat="42.33363" lon="1.94617">
        <ele>1754.49</ele>
        <time>2024-09-26T13:56:59.000Z</time>
      </trkpt>
      <trkpt lat="42.33404" lon="1.94584">
        <ele>1750.99</ele>
        <time>2024-09-26T13:57:04.000Z</time>
      </trkpt>
      <trkpt lat="42.33441" lon="1.94546">
        <ele>1748.41</ele>
        <time>2024-09-26T13:57:09.000Z</time>
      </trkpt>
      <trkpt lat="42.33479" lon="1.94521">
        <ele>1745.94</ele>
        <time>2024-09-26T13:57:14.000Z</time>
      </trkpt>
      <trkpt lat="42.33526" lon="1.94528">
        <ele>1743.4</ele>
        <time>2024-09-26T13:57:19.000Z</time>
      </trkpt>
      <trkpt lat="42.33571" lon="1.9454">
        <ele>1741.76</ele>
        <time>2024-09-26T13:57:24.000Z</time>
      </trkpt>
      <trkpt lat="42.3361" lon="1.94578">
        <ele>1739.53</ele>
        <time>2024-09-26T13:57:29.000Z</time>
      </trkpt>
      <trkpt lat="42.3364" lon="1.94626">
        <ele>1734.79</ele>
        <time>2024-09-26T13:57:34.000Z</time>
      </trkpt>
      <trkpt lat="42.33667" lon="1.94675">
        <ele>1729.96</ele>
        <time>2024-09-26T13:57:39.000Z</time>
      </trkpt>
      <trkpt lat="42.337" lon="1.94716">
        <ele>1725.55</ele>
        <time>2024-09-26T13:57:44.000Z</time>
      </trkpt>
      <trkpt lat="42.33746" lon="1.94725">
        <ele>1722.45</ele>
        <time>2024-09-26T13:57:49.000Z</time>
      </trkpt>
      <trkpt lat="42.33806" lon="1.94702">
        <ele>1720.29</ele>
        <time>2024-09-26T13:57:54.999Z</time>
      </trkpt>
      <trkpt lat="42.33858" lon="1.94682">
        <ele>1717.63</ele>
        <time>2024-09-26T13:57:59.999Z</time>
      </trkpt>
      <trkpt lat="42.33898" lon="1.94642">
        <ele>1715.68</ele>
        <time>2024-09-26T13:58:04.999Z</time>
      </trkpt>
      <trkpt lat="42.33989" lon="1.94457">
        <ele>1718.44</ele>
        <time>2024-09-26T13:58:26.999Z</time>
      </trkpt>
      <trkpt lat="42.33994" lon="1.94401">
        <ele>1715.16</ele>
        <time>2024-09-26T13:58:31.999Z</time>
      </trkpt>
      <trkpt lat="42.33986" lon="1.94366">
        <ele>1709.17</ele>
        <time>2024-09-26T13:58:36.999Z</time>
      </trkpt>
      <trkpt lat="42.3398" lon="1.94376">
        <ele>1702.97</ele>
        <time>2024-09-26T14:00:18.999Z</time>
      </trkpt>
      <trkpt lat="42.33986" lon="1.94388">
        <ele>1700.81</ele>
        <time>2024-09-26T14:00:28.999Z</time>
      </trkpt>
      <trkpt lat="42.33988" lon="1.94407">
        <ele>1699.65</ele>
        <time>2024-09-26T14:00:33.999Z</time>
      </trkpt>
      <trkpt lat="42.33987" lon="1.94428">
        <ele>1698.6</ele>
        <time>2024-09-26T14:00:38.999Z</time>
      </trkpt>
      <trkpt lat="42.33986" lon="1.94451">
        <ele>1697.65</ele>
        <time>2024-09-26T14:00:43.999Z</time>
      </trkpt>
      <trkpt lat="42.33985" lon="1.94471">
        <ele>1696.79</ele>
        <time>2024-09-26T14:00:48.999Z</time>
      </trkpt>
      <trkpt lat="42.33984" lon="1.94485">
        <ele>1696.02</ele>
        <time>2024-09-26T14:00:53.999Z</time>
      </trkpt>
      <trkpt lat="42.33914" lon="1.9462">
        <ele>1690.01</ele>
        <time>2024-09-26T14:01:43.999Z</time>
      </trkpt>
      <trkpt lat="42.3389" lon="1.94648">
        <ele>1688.34</ele>
        <time>2024-09-26T14:01:48.999Z</time>
      </trkpt>
      <trkpt lat="42.33881" lon="1.94661">
        <ele>1688.47</ele>
        <time>2024-09-26T14:01:53.999Z</time>
      </trkpt>
      <trkpt lat="42.33875" lon="1.94676">
        <ele>1688.68</ele>
        <time>2024-09-26T14:01:58.999Z</time>
      </trkpt>
      <trkpt lat="42.33868" lon="1.94686">
        <ele>1688.96</ele>
        <time>2024-09-26T14:02:03.999Z</time>
      </trkpt>
      <trkpt lat="42.33859" lon="1.94689">
        <ele>1689.58</ele>
        <time>2024-09-26T14:02:17.999Z</time>
      </trkpt>
      <trkpt lat="42.33851" lon="1.94698">
        <ele>1690.46</ele>
        <time>2024-09-26T14:02:37.999Z</time>
      </trkpt>
      <trkpt lat="42.33834" lon="1.9471">
        <ele>1692.45</ele>
        <time>2024-09-26T14:02:42.999Z</time>
      </trkpt>
      <trkpt lat="42.3381" lon="1.94731">
        <ele>1693.88</ele>
        <time>2024-09-26T14:02:47.999Z</time>
      </trkpt>
      <trkpt lat="42.33777" lon="1.94761">
        <ele>1694.09</ele>
        <time>2024-09-26T14:02:52.999Z</time>
      </trkpt>
      <trkpt lat="42.33743" lon="1.94789">
        <ele>1693.75</ele>
        <time>2024-09-26T14:02:57.999Z</time>
      </trkpt>
      <trkpt lat="42.33714" lon="1.94802">
        <ele>1692.92</ele>
        <time>2024-09-26T14:03:02.999Z</time>
      </trkpt>
      <trkpt lat="42.33675" lon="1.94788">
        <ele>1690.8</ele>
        <time>2024-09-26T14:03:07.999Z</time>
      </trkpt>
      <trkpt lat="42.33643" lon="1.94761">
        <ele>1689.6</ele>
        <time>2024-09-26T14:03:12.999Z</time>
      </trkpt>
      <trkpt lat="42.33603" lon="1.94729">
        <ele>1688.79</ele>
        <time>2024-09-26T14:03:17.999Z</time>
      </trkpt>
      <trkpt lat="42.33573" lon="1.94694">
        <ele>1687.26</ele>
        <time>2024-09-26T14:03:22.999Z</time>
      </trkpt>
      <trkpt lat="42.33575" lon="1.94724">
        <ele>1685.21</ele>
        <time>2024-09-26T14:03:27.999Z</time>
      </trkpt>
      <trkpt lat="42.33604" lon="1.94783">
        <ele>1680.45</ele>
        <time>2024-09-26T14:03:32.999Z</time>
      </trkpt>
      <trkpt lat="42.33634" lon="1.94836">
        <ele>1676.43</ele>
        <time>2024-09-26T14:03:37.999Z</time>
      </trkpt>
      <trkpt lat="42.33652" lon="1.94887">
        <ele>1673.32</ele>
        <time>2024-09-26T14:03:42.999Z</time>
      </trkpt>
      <trkpt lat="42.33661" lon="1.94953">
        <ele>1670.87</ele>
        <time>2024-09-26T14:03:47.999Z</time>
      </trkpt>
      <trkpt lat="42.33694" lon="1.94989">
        <ele>1666.72</ele>
        <time>2024-09-26T14:03:52.999Z</time>
      </trkpt>
      <trkpt lat="42.33739" lon="1.94997">
        <ele>1661.62</ele>
        <time>2024-09-26T14:03:57.999Z</time>
      </trkpt>
      <trkpt lat="42.33773" lon="1.94983">
        <ele>1657.27</ele>
        <time>2024-09-26T14:04:02.999Z</time>
      </trkpt>
      <trkpt lat="42.33799" lon="1.94976">
        <ele>1653.18</ele>
        <time>2024-09-26T14:04:07.999Z</time>
      </trkpt>
      <trkpt lat="42.33836" lon="1.94969">
        <ele>1649.2</ele>
        <time>2024-09-26T14:04:12.999Z</time>
      </trkpt>
      <trkpt lat="42.33874" lon="1.94959">
        <ele>1645.3</ele>
        <time>2024-09-26T14:04:17.999Z</time>
      </trkpt>
      <trkpt lat="42.33908" lon="1.94971">
        <ele>1641.91</ele>
        <time>2024-09-26T14:04:22.999Z</time>
      </trkpt>
      <trkpt lat="42.33948" lon="1.94992">
        <ele>1636.49</ele>
        <time>2024-09-26T14:04:27.999Z</time>
      </trkpt>
      <trkpt lat="42.33982" lon="1.95019">
        <ele>1630.84</ele>
        <time>2024-09-26T14:04:32.999Z</time>
      </trkpt>
      <trkpt lat="42.34009" lon="1.95052">
        <ele>1625.34</ele>
        <time>2024-09-26T14:04:37.999Z</time>
      </trkpt>
      <trkpt lat="42.34036" lon="1.95076">
        <ele>1621.53</ele>
        <time>2024-09-26T14:04:42.999Z</time>
      </trkpt>
      <trkpt lat="42.34064" lon="1.95094">
        <ele>1620.28</ele>
        <time>2024-09-26T14:04:47.999Z</time>
      </trkpt>
      <trkpt lat="42.34089" lon="1.95105">
        <ele>1619.26</ele>
        <time>2024-09-26T14:04:52.999Z</time>
      </trkpt>
      <trkpt lat="42.34111" lon="1.95106">
        <ele>1617.43</ele>
        <time>2024-09-26T14:04:57.999Z</time>
      </trkpt>
      <trkpt lat="42.34135" lon="1.95105">
        <ele>1614.75</ele>
        <time>2024-09-26T14:05:02.999Z</time>
      </trkpt>
      <trkpt lat="42.34162" lon="1.95107">
        <ele>1613.04</ele>
        <time>2024-09-26T14:05:07.999Z</time>
      </trkpt>
      <trkpt lat="42.34186" lon="1.95105">
        <ele>1612.09</ele>
        <time>2024-09-26T14:05:12.999Z</time>
      </trkpt>
      <trkpt lat="42.34198" lon="1.95107">
        <ele>1612.07</ele>
        <time>2024-09-26T14:05:17.999Z</time>
      </trkpt>
      <trkpt lat="42.34209" lon="1.95107">
        <ele>1612.03</ele>
        <time>2024-09-26T14:05:39.999Z</time>
      </trkpt>
      <trkpt lat="42.34234" lon="1.95119">
        <ele>1611.22</ele>
        <time>2024-09-26T14:05:44.999Z</time>
      </trkpt>
      <trkpt lat="42.3426" lon="1.95098">
        <ele>1609.24</ele>
        <time>2024-09-26T14:05:49.999Z</time>
      </trkpt>
      <trkpt lat="42.34275" lon="1.95052">
        <ele>1606.85</ele>
        <time>2024-09-26T14:05:54.999Z</time>
      </trkpt>
      <trkpt lat="42.34296" lon="1.9502">
        <ele>1605.32</ele>
        <time>2024-09-26T14:05:59.999Z</time>
      </trkpt>
      <trkpt lat="42.3432" lon="1.94993">
        <ele>1604.42</ele>
        <time>2024-09-26T14:06:04.999Z</time>
      </trkpt>
      <trkpt lat="42.34347" lon="1.94964">
        <ele>1602.41</ele>
        <time>2024-09-26T14:06:09.999Z</time>
      </trkpt>
      <trkpt lat="42.34375" lon="1.94928">
        <ele>1600.23</ele>
        <time>2024-09-26T14:06:14.999Z</time>
      </trkpt>
      <trkpt lat="42.34396" lon="1.9491">
        <ele>1598.31</ele>
        <time>2024-09-26T14:06:19.999Z</time>
      </trkpt>
      <trkpt lat="42.34396" lon="1.94929">
        <ele>1595.52</ele>
        <time>2024-09-26T14:06:24.999Z</time>
      </trkpt>
      <trkpt lat="42.3438" lon="1.94963">
        <ele>1592.64</ele>
        <time>2024-09-26T14:06:29.999Z</time>
      </trkpt>
      <trkpt lat="42.34361" lon="1.95009">
        <ele>1590.53</ele>
        <time>2024-09-26T14:06:34.999Z</time>
      </trkpt>
      <trkpt lat="42.34353" lon="1.95065">
        <ele>1587.72</ele>
        <time>2024-09-26T14:06:39.999Z</time>
      </trkpt>
      <trkpt lat="42.34348" lon="1.95123">
        <ele>1584.53</ele>
        <time>2024-09-26T14:06:44.999Z</time>
      </trkpt>
      <trkpt lat="42.34343" lon="1.95178">
        <ele>1581.47</ele>
        <time>2024-09-26T14:06:49.999Z</time>
      </trkpt>
      <trkpt lat="42.3433" lon="1.95234">
        <ele>1580.02</ele>
        <time>2024-09-26T14:06:54.999Z</time>
      </trkpt>
      <trkpt lat="42.343" lon="1.95277">
        <ele>1577.82</ele>
        <time>2024-09-26T14:06:59.999Z</time>
      </trkpt>
      <trkpt lat="42.34273" lon="1.95307">
        <ele>1575.41</ele>
        <time>2024-09-26T14:07:04.999Z</time>
      </trkpt>
      <trkpt lat="42.34249" lon="1.95324">
        <ele>1573.48</ele>
        <time>2024-09-26T14:07:09.999Z</time>
      </trkpt>
      <trkpt lat="42.34223" lon="1.95328">
        <ele>1570.54</ele>
        <time>2024-09-26T14:07:14.999Z</time>
      </trkpt>
      <trkpt lat="42.34202" lon="1.95324">
        <ele>1568.08</ele>
        <time>2024-09-26T14:07:19.999Z</time>
      </trkpt>
      <trkpt lat="42.34193" lon="1.95319">
        <ele>1567.74</ele>
        <time>2024-09-26T14:07:24.999Z</time>
      </trkpt>
      <trkpt lat="42.34183" lon="1.95316">
        <ele>1567.81</ele>
        <time>2024-09-26T14:07:51.999Z</time>
      </trkpt>
      <trkpt lat="42.3416" lon="1.95305">
        <ele>1566.44</ele>
        <time>2024-09-26T14:07:56.999Z</time>
      </trkpt>
      <trkpt lat="42.34124" lon="1.95296">
        <ele>1564.36</ele>
        <time>2024-09-26T14:08:01.999Z</time>
      </trkpt>
      <trkpt lat="42.3408" lon="1.95305">
        <ele>1561.3</ele>
        <time>2024-09-26T14:08:06.999Z</time>
      </trkpt>
      <trkpt lat="42.34037" lon="1.95338">
        <ele>1557.43</ele>
        <time>2024-09-26T14:08:11.999Z</time>
      </trkpt>
      <trkpt lat="42.33997" lon="1.95377">
        <ele>1553.74</ele>
        <time>2024-09-26T14:08:16.999Z</time>
      </trkpt>
      <trkpt lat="42.33955" lon="1.95373">
        <ele>1550.56</ele>
        <time>2024-09-26T14:08:21.999Z</time>
      </trkpt>
      <trkpt lat="42.33917" lon="1.95335">
        <ele>1546.91</ele>
        <time>2024-09-26T14:08:26.999Z</time>
      </trkpt>
      <trkpt lat="42.33871" lon="1.9534">
        <ele>1542.82</ele>
        <time>2024-09-26T14:08:31.999Z</time>
      </trkpt>
      <trkpt lat="42.33851" lon="1.95406">
        <ele>1539.68</ele>
        <time>2024-09-26T14:08:36.999Z</time>
      </trkpt>
      <trkpt lat="42.33827" lon="1.95468">
        <ele>1537.46</ele>
        <time>2024-09-26T14:08:41.999Z</time>
      </trkpt>
      <trkpt lat="42.3379" lon="1.95521">
        <ele>1533.68</ele>
        <time>2024-09-26T14:08:46.999Z</time>
      </trkpt>
      <trkpt lat="42.33743" lon="1.95512">
        <ele>1528.92</ele>
        <time>2024-09-26T14:08:51.999Z</time>
      </trkpt>
      <trkpt lat="42.33698" lon="1.95477">
        <ele>1525.86</ele>
        <time>2024-09-26T14:08:56.999Z</time>
      </trkpt>
      <trkpt lat="42.3365" lon="1.95475">
        <ele>1521.22</ele>
        <time>2024-09-26T14:09:01.999Z</time>
      </trkpt>
      <trkpt lat="42.3363" lon="1.95539">
        <ele>1514.16</ele>
        <time>2024-09-26T14:09:06.999Z</time>
      </trkpt>
      <trkpt lat="42.33635" lon="1.95614">
        <ele>1506.93</ele>
        <time>2024-09-26T14:09:11.999Z</time>
      </trkpt>
      <trkpt lat="42.33658" lon="1.95681">
        <ele>1500.67</ele>
        <time>2024-09-26T14:09:16.999Z</time>
      </trkpt>
      <trkpt lat="42.33704" lon="1.95722">
        <ele>1495.6</ele>
        <time>2024-09-26T14:09:21.999Z</time>
      </trkpt>
      <trkpt lat="42.33756" lon="1.95761">
        <ele>1491.52</ele>
        <time>2024-09-26T14:09:26.999Z</time>
      </trkpt>
      <trkpt lat="42.33811" lon="1.95781">
        <ele>1487.59</ele>
        <time>2024-09-26T14:09:31.999Z</time>
      </trkpt>
      <trkpt lat="42.33869" lon="1.95793">
        <ele>1484.65</ele>
        <time>2024-09-26T14:09:36.999Z</time>
      </trkpt>
      <trkpt lat="42.3393" lon="1.95798">
        <ele>1482.63</ele>
        <time>2024-09-26T14:09:41.999Z</time>
      </trkpt>
      <trkpt lat="42.3399" lon="1.95793">
        <ele>1479.3</ele>
        <time>2024-09-26T14:09:46.999Z</time>
      </trkpt>
      <trkpt lat="42.34043" lon="1.95784">
        <ele>1476.73</ele>
        <time>2024-09-26T14:09:51.999Z</time>
      </trkpt>
      <trkpt lat="42.34093" lon="1.95774">
        <ele>1474.41</ele>
        <time>2024-09-26T14:09:56.999Z</time>
      </trkpt>
      <trkpt lat="42.3414" lon="1.95767">
        <ele>1471.42</ele>
        <time>2024-09-26T14:10:01.999Z</time>
      </trkpt>
      <trkpt lat="42.34185" lon="1.95758">
        <ele>1468.58</ele>
        <time>2024-09-26T14:10:06.999Z</time>
      </trkpt>
      <trkpt lat="42.34231" lon="1.95746">
        <ele>1465.79</ele>
        <time>2024-09-26T14:10:12.000Z</time>
      </trkpt>
      <trkpt lat="42.34277" lon="1.95733">
        <ele>1463.05</ele>
        <time>2024-09-26T14:10:17.000Z</time>
      </trkpt>
      <trkpt lat="42.3432" lon="1.95752">
        <ele>1460.53</ele>
        <time>2024-09-26T14:10:22.000Z</time>
      </trkpt>
      <trkpt lat="42.34354" lon="1.95787">
        <ele>1458.15</ele>
        <time>2024-09-26T14:10:27.000Z</time>
      </trkpt>
      <trkpt lat="42.34394" lon="1.95772">
        <ele>1455.65</ele>
        <time>2024-09-26T14:10:32.000Z</time>
      </trkpt>
      <trkpt lat="42.34421" lon="1.95731">
        <ele>1452.61</ele>
        <time>2024-09-26T14:10:37.000Z</time>
      </trkpt>
      <trkpt lat="42.34446" lon="1.95698">
        <ele>1450.18</ele>
        <time>2024-09-26T14:10:42.000Z</time>
      </trkpt>
      <trkpt lat="42.34467" lon="1.95671">
        <ele>1448.42</ele>
        <time>2024-09-26T14:10:47.000Z</time>
      </trkpt>
      <trkpt lat="42.34483" lon="1.95648">
        <ele>1446.53</ele>
        <time>2024-09-26T14:10:52.000Z</time>
      </trkpt>
      <trkpt lat="42.345" lon="1.95626">
        <ele>1444.89</ele>
        <time>2024-09-26T14:10:57.000Z</time>
      </trkpt>
      <trkpt lat="42.34519" lon="1.95602">
        <ele>1443.17</ele>
        <time>2024-09-26T14:11:02.000Z</time>
      </trkpt>
      <trkpt lat="42.34538" lon="1.95577">
        <ele>1441.76</ele>
        <time>2024-09-26T14:11:07.000Z</time>
      </trkpt>
      <trkpt lat="42.34551" lon="1.95558">
        <ele>1441.3</ele>
        <time>2024-09-26T14:11:12.000Z</time>
      </trkpt>
      <trkpt lat="42.34565" lon="1.95541">
        <ele>1440.26</ele>
        <time>2024-09-26T14:11:17.000Z</time>
      </trkpt>
      <trkpt lat="42.3458" lon="1.95518">
        <ele>1438.91</ele>
        <time>2024-09-26T14:11:22.000Z</time>
      </trkpt>
      <trkpt lat="42.34599" lon="1.95494">
        <ele>1437.86</ele>
        <time>2024-09-26T14:11:27.000Z</time>
      </trkpt>
      <trkpt lat="42.34626" lon="1.95477">
        <ele>1436.97</ele>
        <time>2024-09-26T14:11:32.000Z</time>
      </trkpt>
      <trkpt lat="42.34648" lon="1.9545">
        <ele>1436.42</ele>
        <time>2024-09-26T14:11:37.000Z</time>
      </trkpt>
      <trkpt lat="42.34663" lon="1.95412">
        <ele>1435.77</ele>
        <time>2024-09-26T14:11:42.000Z</time>
      </trkpt>
      <trkpt lat="42.34677" lon="1.95375">
        <ele>1435.03</ele>
        <time>2024-09-26T14:11:47.000Z</time>
      </trkpt>
      <trkpt lat="42.34692" lon="1.95337">
        <ele>1433.97</ele>
        <time>2024-09-26T14:11:52.000Z</time>
      </trkpt>
      <trkpt lat="42.34708" lon="1.95298">
        <ele>1432.95</ele>
        <time>2024-09-26T14:11:57.000Z</time>
      </trkpt>
      <trkpt lat="42.34723" lon="1.95256">
        <ele>1431.99</ele>
        <time>2024-09-26T14:12:02.000Z</time>
      </trkpt>
      <trkpt lat="42.3474" lon="1.95212">
        <ele>1430.73</ele>
        <time>2024-09-26T14:12:07.000Z</time>
      </trkpt>
      <trkpt lat="42.34757" lon="1.95168">
        <ele>1429.55</ele>
        <time>2024-09-26T14:12:12.000Z</time>
      </trkpt>
      <trkpt lat="42.34768" lon="1.9512">
        <ele>1428.24</ele>
        <time>2024-09-26T14:12:17.000Z</time>
      </trkpt>
      <trkpt lat="42.34771" lon="1.95069">
        <ele>1426.89</ele>
        <time>2024-09-26T14:12:22.000Z</time>
      </trkpt>
      <trkpt lat="42.3477" lon="1.95016">
        <ele>1425.68</ele>
        <time>2024-09-26T14:12:27.000Z</time>
      </trkpt>
      <trkpt lat="42.34776" lon="1.94959">
        <ele>1424.15</ele>
        <time>2024-09-26T14:12:32.000Z</time>
      </trkpt>
      <trkpt lat="42.3479" lon="1.94903">
        <ele>1422.58</ele>
        <time>2024-09-26T14:12:37.000Z</time>
      </trkpt>
      <trkpt lat="42.34799" lon="1.94854">
        <ele>1421.88</ele>
        <time>2024-09-26T14:12:42.000Z</time>
      </trkpt>
      <trkpt lat="42.34801" lon="1.94819">
        <ele>1421.61</ele>
        <time>2024-09-26T14:12:47.000Z</time>
      </trkpt>
      <trkpt lat="42.34801" lon="1.94788">
        <ele>1421.41</ele>
        <time>2024-09-26T14:12:52.000Z</time>
      </trkpt>
      <trkpt lat="42.34791" lon="1.94759">
        <ele>1421.29</ele>
        <time>2024-09-26T14:12:57.000Z</time>
      </trkpt>
      <trkpt lat="42.34786" lon="1.94714">
        <ele>1419.79</ele>
        <time>2024-09-26T14:13:02.000Z</time>
      </trkpt>
      <trkpt lat="42.34791" lon="1.94652">
        <ele>1417.74</ele>
        <time>2024-09-26T14:13:07.000Z</time>
      </trkpt>
      <trkpt lat="42.34791" lon="1.9458">
        <ele>1416.14</ele>
        <time>2024-09-26T14:13:12.000Z</time>
      </trkpt>
      <trkpt lat="42.34761" lon="1.94519">
        <ele>1414.94</ele>
        <time>2024-09-26T14:13:17.000Z</time>
      </trkpt>
      <trkpt lat="42.34737" lon="1.94457">
        <ele>1412.92</ele>
        <time>2024-09-26T14:13:22.000Z</time>
      </trkpt>
      <trkpt lat="42.34749" lon="1.94387">
        <ele>1409.32</ele>
        <time>2024-09-26T14:13:27.000Z</time>
      </trkpt>
      <trkpt lat="42.34779" lon="1.94324">
        <ele>1405.55</ele>
        <time>2024-09-26T14:13:32.000Z</time>
      </trkpt>
      <trkpt lat="42.34794" lon="1.94249">
        <ele>1401.84</ele>
        <time>2024-09-26T14:13:37.000Z</time>
      </trkpt>
      <trkpt lat="42.34815" lon="1.94173">
        <ele>1398.05</ele>
        <time>2024-09-26T14:13:42.000Z</time>
      </trkpt>
      <trkpt lat="42.34863" lon="1.94116">
        <ele>1394.89</ele>
        <time>2024-09-26T14:13:47.000Z</time>
      </trkpt>
      <trkpt lat="42.34908" lon="1.94059">
        <ele>1391.25</ele>
        <time>2024-09-26T14:13:52.000Z</time>
      </trkpt>
      <trkpt lat="42.34951" lon="1.93996">
        <ele>1387.17</ele>
        <time>2024-09-26T14:13:57.000Z</time>
      </trkpt>
      <trkpt lat="42.3496" lon="1.93912">
        <ele>1382.89</ele>
        <time>2024-09-26T14:14:02.000Z</time>
      </trkpt>
      <trkpt lat="42.34956" lon="1.93834">
        <ele>1379.11</ele>
        <time>2024-09-26T14:14:07.000Z</time>
      </trkpt>
      <trkpt lat="42.34955" lon="1.93764">
        <ele>1377.39</ele>
        <time>2024-09-26T14:14:12.000Z</time>
      </trkpt>
      <trkpt lat="42.34972" lon="1.93698">
        <ele>1375.22</ele>
        <time>2024-09-26T14:14:17.000Z</time>
      </trkpt>
      <trkpt lat="42.34998" lon="1.93645">
        <ele>1371.82</ele>
        <time>2024-09-26T14:14:22.000Z</time>
      </trkpt>
      <trkpt lat="42.35018" lon="1.93589">
        <ele>1368.05</ele>
        <time>2024-09-26T14:14:27.000Z</time>
      </trkpt>
      <trkpt lat="42.35018" lon="1.93522">
        <ele>1364.25</ele>
        <time>2024-09-26T14:14:32.000Z</time>
      </trkpt>
      <trkpt lat="42.35018" lon="1.93451">
        <ele>1360.66</ele>
        <time>2024-09-26T14:14:37.000Z</time>
      </trkpt>
      <trkpt lat="42.3502" lon="1.93381">
        <ele>1357.52</ele>
        <time>2024-09-26T14:14:42.000Z</time>
      </trkpt>
      <trkpt lat="42.3502" lon="1.93318">
        <ele>1354.22</ele>
        <time>2024-09-26T14:14:47.000Z</time>
      </trkpt>
      <trkpt lat="42.35024" lon="1.93257">
        <ele>1351.31</ele>
        <time>2024-09-26T14:14:52.000Z</time>
      </trkpt>
      <trkpt lat="42.35046" lon="1.93202">
        <ele>1348.75</ele>
        <time>2024-09-26T14:14:57.000Z</time>
      </trkpt>
      <trkpt lat="42.35083" lon="1.93161">
        <ele>1346.18</ele>
        <time>2024-09-26T14:15:02.000Z</time>
      </trkpt>
      <trkpt lat="42.35125" lon="1.93122">
        <ele>1343.3</ele>
        <time>2024-09-26T14:15:07.000Z</time>
      </trkpt>
      <trkpt lat="42.35164" lon="1.93072">
        <ele>1340.25</ele>
        <time>2024-09-26T14:15:12.000Z</time>
      </trkpt>
      <trkpt lat="42.35201" lon="1.93029">
        <ele>1336.97</ele>
        <time>2024-09-26T14:15:17.000Z</time>
      </trkpt>
      <trkpt lat="42.35236" lon="1.92988">
        <ele>1333.98</ele>
        <time>2024-09-26T14:15:22.000Z</time>
      </trkpt>
      <trkpt lat="42.35274" lon="1.92947">
        <ele>1330.98</ele>
        <time>2024-09-26T14:15:27.000Z</time>
      </trkpt>
      <trkpt lat="42.35307" lon="1.92909">
        <ele>1327.83</ele>
        <time>2024-09-26T14:15:32.000Z</time>
      </trkpt>
      <trkpt lat="42.35349" lon="1.92885">
        <ele>1325.06</ele>
        <time>2024-09-26T14:15:37.000Z</time>
      </trkpt>
      <trkpt lat="42.35394" lon="1.92862">
        <ele>1322.65</ele>
        <time>2024-09-26T14:15:42.000Z</time>
      </trkpt>
      <trkpt lat="42.3544" lon="1.9284">
        <ele>1320.76</ele>
        <time>2024-09-26T14:15:47.000Z</time>
      </trkpt>
      <trkpt lat="42.35478" lon="1.92798">
        <ele>1318.51</ele>
        <time>2024-09-26T14:15:52.000Z</time>
      </trkpt>
      <trkpt lat="42.35517" lon="1.92749">
        <ele>1315.83</ele>
        <time>2024-09-26T14:15:57.000Z</time>
      </trkpt>
      <trkpt lat="42.3556" lon="1.927">
        <ele>1312.85</ele>
        <time>2024-09-26T14:16:02.000Z</time>
      </trkpt>
      <trkpt lat="42.35606" lon="1.92655">
        <ele>1309.53</ele>
        <time>2024-09-26T14:16:07.000Z</time>
      </trkpt>
      <trkpt lat="42.35651" lon="1.92614">
        <ele>1306.11</ele>
        <time>2024-09-26T14:16:12.000Z</time>
      </trkpt>
      <trkpt lat="42.35692" lon="1.92572">
        <ele>1302.9</ele>
        <time>2024-09-26T14:16:17.000Z</time>
      </trkpt>
      <trkpt lat="42.35729" lon="1.92523">
        <ele>1299.87</ele>
        <time>2024-09-26T14:16:22.000Z</time>
      </trkpt>
      <trkpt lat="42.35761" lon="1.92471">
        <ele>1296.92</ele>
        <time>2024-09-26T14:16:27.000Z</time>
      </trkpt>
      <trkpt lat="42.35787" lon="1.92414">
        <ele>1293.96</ele>
        <time>2024-09-26T14:16:32.000Z</time>
      </trkpt>
      <trkpt lat="42.35808" lon="1.92354">
        <ele>1291.27</ele>
        <time>2024-09-26T14:16:37.000Z</time>
      </trkpt>
      <trkpt lat="42.35828" lon="1.92295">
        <ele>1288.71</ele>
        <time>2024-09-26T14:16:42.000Z</time>
      </trkpt>
      <trkpt lat="42.35847" lon="1.92238">
        <ele>1286.37</ele>
        <time>2024-09-26T14:16:47.000Z</time>
      </trkpt>
      <trkpt lat="42.35871" lon="1.92182">
        <ele>1284.01</ele>
        <time>2024-09-26T14:16:52.000Z</time>
      </trkpt>
      <trkpt lat="42.35903" lon="1.9213">
        <ele>1281.59</ele>
        <time>2024-09-26T14:16:57.000Z</time>
      </trkpt>
      <trkpt lat="42.3594" lon="1.92086">
        <ele>1278.87</ele>
        <time>2024-09-26T14:17:02.000Z</time>
      </trkpt>
      <trkpt lat="42.35972" lon="1.92041">
        <ele>1276.62</ele>
        <time>2024-09-26T14:17:07.000Z</time>
      </trkpt>
      <trkpt lat="42.36003" lon="1.92003">
        <ele>1274.09</ele>
        <time>2024-09-26T14:17:12.000Z</time>
      </trkpt>
      <trkpt lat="42.36031" lon="1.91965">
        <ele>1271.69</ele>
        <time>2024-09-26T14:17:17.000Z</time>
      </trkpt>
      <trkpt lat="42.36057" lon="1.91925">
        <ele>1269.58</ele>
        <time>2024-09-26T14:17:22.000Z</time>
      </trkpt>
      <trkpt lat="42.36078" lon="1.91882">
        <ele>1267.55</ele>
        <time>2024-09-26T14:17:27.000Z</time>
      </trkpt>
      <trkpt lat="42.36095" lon="1.91831">
        <ele>1265.45</ele>
        <time>2024-09-26T14:17:32.000Z</time>
      </trkpt>
      <trkpt lat="42.3611" lon="1.91776">
        <ele>1263.48</ele>
        <time>2024-09-26T14:17:37.000Z</time>
      </trkpt>
      <trkpt lat="42.36123" lon="1.91724">
        <ele>1261.6</ele>
        <time>2024-09-26T14:17:42.000Z</time>
      </trkpt>
      <trkpt lat="42.36141" lon="1.91676">
        <ele>1259.48</ele>
        <time>2024-09-26T14:17:47.000Z</time>
      </trkpt>
      <trkpt lat="42.36164" lon="1.91628">
        <ele>1257.05</ele>
        <time>2024-09-26T14:17:52.000Z</time>
      </trkpt>
      <trkpt lat="42.3619" lon="1.91579">
        <ele>1254.57</ele>
        <time>2024-09-26T14:17:57.000Z</time>
      </trkpt>
      <trkpt lat="42.36218" lon="1.9153">
        <ele>1252.29</ele>
        <time>2024-09-26T14:18:02.000Z</time>
      </trkpt>
      <trkpt lat="42.36243" lon="1.91478">
        <ele>1249.87</ele>
        <time>2024-09-26T14:18:07.000Z</time>
      </trkpt>
      <trkpt lat="42.36268" lon="1.91426">
        <ele>1247.36</ele>
        <time>2024-09-26T14:18:12.000Z</time>
      </trkpt>
      <trkpt lat="42.36294" lon="1.91373">
        <ele>1245.02</ele>
        <time>2024-09-26T14:18:17.000Z</time>
      </trkpt>
      <trkpt lat="42.36318" lon="1.91321">
        <ele>1242.79</ele>
        <time>2024-09-26T14:18:22.000Z</time>
      </trkpt>
      <trkpt lat="42.36338" lon="1.91269">
        <ele>1240.61</ele>
        <time>2024-09-26T14:18:27.000Z</time>
      </trkpt>
      <trkpt lat="42.36358" lon="1.91217">
        <ele>1238.57</ele>
        <time>2024-09-26T14:18:32.000Z</time>
      </trkpt>
      <trkpt lat="42.36379" lon="1.91166">
        <ele>1236.47</ele>
        <time>2024-09-26T14:18:37.000Z</time>
      </trkpt>
      <trkpt lat="42.364" lon="1.91122">
        <ele>1234.39</ele>
        <time>2024-09-26T14:18:42.000Z</time>
      </trkpt>
      <trkpt lat="42.36425" lon="1.91077">
        <ele>1232.35</ele>
        <time>2024-09-26T14:18:47.000Z</time>
      </trkpt>
      <trkpt lat="42.36453" lon="1.91035">
        <ele>1230.37</ele>
        <time>2024-09-26T14:18:52.000Z</time>
      </trkpt>
      <trkpt lat="42.3648" lon="1.90998">
        <ele>1229.23</ele>
        <time>2024-09-26T14:18:57.000Z</time>
      </trkpt>
      <trkpt lat="42.36506" lon="1.90963">
        <ele>1227.86</ele>
        <time>2024-09-26T14:19:02.000Z</time>
      </trkpt>
      <trkpt lat="42.36533" lon="1.90928">
        <ele>1226.17</ele>
        <time>2024-09-26T14:19:07.000Z</time>
      </trkpt>
      <trkpt lat="42.36561" lon="1.90891">
        <ele>1224.38</ele>
        <time>2024-09-26T14:19:12.000Z</time>
      </trkpt>
      <trkpt lat="42.36589" lon="1.90855">
        <ele>1222.63</ele>
        <time>2024-09-26T14:19:17.000Z</time>
      </trkpt>
      <trkpt lat="42.36616" lon="1.90823">
        <ele>1221.19</ele>
        <time>2024-09-26T14:19:22.000Z</time>
      </trkpt>
      <trkpt lat="42.36639" lon="1.90794">
        <ele>1219.2</ele>
        <time>2024-09-26T14:19:27.000Z</time>
      </trkpt>
      <trkpt lat="42.36659" lon="1.90773">
        <ele>1217.92</ele>
        <time>2024-09-26T14:19:32.000Z</time>
      </trkpt>
      <trkpt lat="42.36673" lon="1.90758">
        <ele>1217.56</ele>
        <time>2024-09-26T14:19:37.000Z</time>
      </trkpt>
      <trkpt lat="42.36687" lon="1.90744">
        <ele>1217.49</ele>
        <time>2024-09-26T14:19:42.000Z</time>
      </trkpt>
      <trkpt lat="42.36701" lon="1.90728">
        <ele>1216.97</ele>
        <time>2024-09-26T14:19:47.000Z</time>
      </trkpt>
      <trkpt lat="42.36717" lon="1.90711">
        <ele>1216.97</ele>
        <time>2024-09-26T14:19:52.000Z</time>
      </trkpt>
      <trkpt lat="42.36734" lon="1.90694">
        <ele>1216.87</ele>
        <time>2024-09-26T14:19:57.000Z</time>
      </trkpt>
      <trkpt lat="42.36749" lon="1.90677">
        <ele>1216.48</ele>
        <time>2024-09-26T14:20:02.000Z</time>
      </trkpt>
      <trkpt lat="42.36763" lon="1.9066">
        <ele>1216.22</ele>
        <time>2024-09-26T14:20:07.000Z</time>
      </trkpt>
      <trkpt lat="42.36776" lon="1.90644">
        <ele>1216.14</ele>
        <time>2024-09-26T14:20:12.000Z</time>
      </trkpt>
      <trkpt lat="42.36787" lon="1.90628">
        <ele>1216.02</ele>
        <time>2024-09-26T14:20:17.000Z</time>
      </trkpt>
      <trkpt lat="42.36797" lon="1.90613">
        <ele>1215.89</ele>
        <time>2024-09-26T14:20:22.000Z</time>
      </trkpt>
      <trkpt lat="42.36807" lon="1.90597">
        <ele>1215.78</ele>
        <time>2024-09-26T14:20:27.000Z</time>
      </trkpt>
      <trkpt lat="42.36817" lon="1.9058">
        <ele>1215.67</ele>
        <time>2024-09-26T14:20:32.000Z</time>
      </trkpt>
      <trkpt lat="42.36826" lon="1.90563">
        <ele>1215.56</ele>
        <time>2024-09-26T14:20:37.000Z</time>
      </trkpt>
      <trkpt lat="42.36835" lon="1.90546">
        <ele>1215.44</ele>
        <time>2024-09-26T14:20:42.000Z</time>
      </trkpt>
      <trkpt lat="42.36844" lon="1.90528">
        <ele>1215.33</ele>
        <time>2024-09-26T14:20:47.000Z</time>
      </trkpt>
      <trkpt lat="42.36852" lon="1.90509">
        <ele>1215.21</ele>
        <time>2024-09-26T14:20:52.000Z</time>
      </trkpt>
      <trkpt lat="42.3686" lon="1.9049">
        <ele>1215.1</ele>
        <time>2024-09-26T14:20:57.000Z</time>
      </trkpt>
      <trkpt lat="42.36868" lon="1.90468">
        <ele>1214.45</ele>
        <time>2024-09-26T14:21:02.000Z</time>
      </trkpt>
      <trkpt lat="42.36877" lon="1.90443">
        <ele>1213.88</ele>
        <time>2024-09-26T14:21:07.000Z</time>
      </trkpt>
      <trkpt lat="42.36885" lon="1.90419">
        <ele>1213.5</ele>
        <time>2024-09-26T14:21:12.000Z</time>
      </trkpt>
      <trkpt lat="42.36895" lon="1.90391">
        <ele>1213.06</ele>
        <time>2024-09-26T14:21:17.000Z</time>
      </trkpt>
      <trkpt lat="42.36906" lon="1.90362">
        <ele>1212.55</ele>
        <time>2024-09-26T14:21:22.000Z</time>
      </trkpt>
      <trkpt lat="42.36918" lon="1.90331">
        <ele>1212.06</ele>
        <time>2024-09-26T14:21:27.000Z</time>
      </trkpt>
      <trkpt lat="42.36933" lon="1.90303">
        <ele>1211.67</ele>
        <time>2024-09-26T14:21:32.000Z</time>
      </trkpt>
      <trkpt lat="42.3695" lon="1.90275">
        <ele>1211.32</ele>
        <time>2024-09-26T14:21:37.000Z</time>
      </trkpt>
      <trkpt lat="42.36969" lon="1.90251">
        <ele>1210.95</ele>
        <time>2024-09-26T14:21:42.000Z</time>
      </trkpt>
      <trkpt lat="42.36988" lon="1.9023">
        <ele>1210.7</ele>
        <time>2024-09-26T14:21:47.000Z</time>
      </trkpt>
      <trkpt lat="42.3701" lon="1.90209">
        <ele>1210.5</ele>
        <time>2024-09-26T14:21:52.000Z</time>
      </trkpt>
      <trkpt lat="42.37033" lon="1.9019">
        <ele>1210.2</ele>
        <time>2024-09-26T14:21:57.000Z</time>
      </trkpt>
      <trkpt lat="42.37058" lon="1.9017">
        <ele>1209.89</ele>
        <time>2024-09-26T14:22:02.000Z</time>
      </trkpt>
      <trkpt lat="42.37077" lon="1.90153">
        <ele>1209.6</ele>
        <time>2024-09-26T14:22:07.000Z</time>
      </trkpt>
      <trkpt lat="42.37094" lon="1.90136">
        <ele>1209.51</ele>
        <time>2024-09-26T14:22:12.000Z</time>
      </trkpt>
      <trkpt lat="42.37115" lon="1.90108">
        <ele>1209.62</ele>
        <time>2024-09-26T14:22:17.999Z</time>
      </trkpt>
      <trkpt lat="42.37129" lon="1.90083">
        <ele>1209.41</ele>
        <time>2024-09-26T14:22:22.999Z</time>
      </trkpt>
      <trkpt lat="42.37142" lon="1.90056">
        <ele>1209.19</ele>
        <time>2024-09-26T14:22:27.999Z</time>
      </trkpt>
      <trkpt lat="42.37155" lon="1.90024">
        <ele>1208.9</ele>
        <time>2024-09-26T14:22:32.999Z</time>
      </trkpt>
      <trkpt lat="42.37165" lon="1.90004">
        <ele>1208.8</ele>
        <time>2024-09-26T14:22:37.999Z</time>
      </trkpt>
      <trkpt lat="42.37158" lon="1.89992">
        <ele>1208.74</ele>
        <time>2024-09-26T14:22:42.999Z</time>
      </trkpt>
      <trkpt lat="42.37146" lon="1.89993">
        <ele>1208.33</ele>
        <time>2024-09-26T14:23:33.999Z</time>
      </trkpt>
      <trkpt lat="42.37131" lon="1.90013">
        <ele>1206.6</ele>
        <time>2024-09-26T14:23:38.999Z</time>
      </trkpt>
      <trkpt lat="42.3712" lon="1.90052">
        <ele>1204.92</ele>
        <time>2024-09-26T14:23:43.999Z</time>
      </trkpt>
      <trkpt lat="42.37107" lon="1.90032">
        <ele>1203.52</ele>
        <time>2024-09-26T14:23:48.999Z</time>
      </trkpt>
      <trkpt lat="42.37126" lon="1.8999">
        <ele>1201.57</ele>
        <time>2024-09-26T14:23:53.999Z</time>
      </trkpt>
      <trkpt lat="42.37141" lon="1.89935">
        <ele>1199.47</ele>
        <time>2024-09-26T14:23:58.999Z</time>
      </trkpt>
      <trkpt lat="42.37152" lon="1.8988">
        <ele>1197.07</ele>
        <time>2024-09-26T14:24:03.999Z</time>
      </trkpt>
      <trkpt lat="42.37148" lon="1.89829">
        <ele>1194.14</ele>
        <time>2024-09-26T14:24:08.999Z</time>
      </trkpt>
      <trkpt lat="42.3713" lon="1.89784">
        <ele>1191.95</ele>
        <time>2024-09-26T14:24:13.999Z</time>
      </trkpt>
      <trkpt lat="42.3715" lon="1.89743">
        <ele>1189.58</ele>
        <time>2024-09-26T14:24:18.999Z</time>
      </trkpt>
      <trkpt lat="42.37171" lon="1.89698">
        <ele>1186.74</ele>
        <time>2024-09-26T14:24:23.999Z</time>
      </trkpt>
      <trkpt lat="42.37174" lon="1.89646">
        <ele>1183.89</ele>
        <time>2024-09-26T14:24:28.999Z</time>
      </trkpt>
      <trkpt lat="42.37177" lon="1.89597">
        <ele>1183.06</ele>
        <time>2024-09-26T14:24:33.999Z</time>
      </trkpt>
      <trkpt lat="42.372" lon="1.89557">
        <ele>1181.3</ele>
        <time>2024-09-26T14:24:38.999Z</time>
      </trkpt>
      <trkpt lat="42.37223" lon="1.89519">
        <ele>1179.07</ele>
        <time>2024-09-26T14:24:43.999Z</time>
      </trkpt>
      <trkpt lat="42.37241" lon="1.89484">
        <ele>1178.99</ele>
        <time>2024-09-26T14:24:48.999Z</time>
      </trkpt>
      <trkpt lat="42.37249" lon="1.89459">
        <ele>1178.29</ele>
        <time>2024-09-26T14:24:53.999Z</time>
      </trkpt>
      <trkpt lat="42.37251" lon="1.89441">
        <ele>1178.04</ele>
        <time>2024-09-26T14:24:58.999Z</time>
      </trkpt>
      <trkpt lat="42.37253" lon="1.89424">
        <ele>1177.82</ele>
        <time>2024-09-26T14:25:03.999Z</time>
      </trkpt>
      <trkpt lat="42.37255" lon="1.89408">
        <ele>1177.63</ele>
        <time>2024-09-26T14:25:08.999Z</time>
      </trkpt>
      <trkpt lat="42.37258" lon="1.89394">
        <ele>1177.48</ele>
        <time>2024-09-26T14:25:13.999Z</time>
      </trkpt>
      <trkpt lat="42.37265" lon="1.89381">
        <ele>1177.28</ele>
        <time>2024-09-26T14:25:18.999Z</time>
      </trkpt>
      <trkpt lat="42.37272" lon="1.89368">
        <ele>1176.98</ele>
        <time>2024-09-26T14:25:23.999Z</time>
      </trkpt>
      <trkpt lat="42.37279" lon="1.89354">
        <ele>1176.56</ele>
        <time>2024-09-26T14:25:28.999Z</time>
      </trkpt>
      <trkpt lat="42.37287" lon="1.89339">
        <ele>1176.09</ele>
        <time>2024-09-26T14:25:33.999Z</time>
      </trkpt>
      <trkpt lat="42.37294" lon="1.89322">
        <ele>1175.63</ele>
        <time>2024-09-26T14:25:38.999Z</time>
      </trkpt>
      <trkpt lat="42.37301" lon="1.89307">
        <ele>1175.17</ele>
        <time>2024-09-26T14:25:43.999Z</time>
      </trkpt>
      <trkpt lat="42.37308" lon="1.89292">
        <ele>1174.86</ele>
        <time>2024-09-26T14:25:48.999Z</time>
      </trkpt>
      <trkpt lat="42.37318" lon="1.89279">
        <ele>1174.61</ele>
        <time>2024-09-26T14:25:53.999Z</time>
      </trkpt>
      <trkpt lat="42.37336" lon="1.8926">
        <ele>1173.34</ele>
        <time>2024-09-26T14:25:58.999Z</time>
      </trkpt>
      <trkpt lat="42.37357" lon="1.89237">
        <ele>1173.19</ele>
        <time>2024-09-26T14:26:03.999Z</time>
      </trkpt>
      <trkpt lat="42.37379" lon="1.89206">
        <ele>1173.11</ele>
        <time>2024-09-26T14:26:08.999Z</time>
      </trkpt>
      <trkpt lat="42.37406" lon="1.89176">
        <ele>1172.73</ele>
        <time>2024-09-26T14:26:13.999Z</time>
      </trkpt>
      <trkpt lat="42.37431" lon="1.89139">
        <ele>1172.56</ele>
        <time>2024-09-26T14:26:18.999Z</time>
      </trkpt>
      <trkpt lat="42.37449" lon="1.89109">
        <ele>1172.19</ele>
        <time>2024-09-26T14:26:23.999Z</time>
      </trkpt>
      <trkpt lat="42.37461" lon="1.89089">
        <ele>1171.92</ele>
        <time>2024-09-26T14:26:28.999Z</time>
      </trkpt>
      <trkpt lat="42.37468" lon="1.89081">
        <ele>1171.92</ele>
        <time>2024-09-26T14:26:33.999Z</time>
      </trkpt>
      <trkpt lat="42.37474" lon="1.89068">
        <ele>1171.92</ele>
        <time>2024-09-26T14:26:38.999Z</time>
      </trkpt>
      <trkpt lat="42.37472" lon="1.89056">
        <ele>1171.71</ele>
        <time>2024-09-26T14:27:54.999Z</time>
      </trkpt>
      <trkpt lat="42.37467" lon="1.8904">
        <ele>1171.55</ele>
        <time>2024-09-26T14:27:59.999Z</time>
      </trkpt>
      <trkpt lat="42.3746" lon="1.89025">
        <ele>1171.42</ele>
        <time>2024-09-26T14:28:04.999Z</time>
      </trkpt>
      <trkpt lat="42.37455" lon="1.89008">
        <ele>1171.29</ele>
        <time>2024-09-26T14:28:09.999Z</time>
      </trkpt>
      <trkpt lat="42.3745" lon="1.88993">
        <ele>1171.17</ele>
        <time>2024-09-26T14:28:14.999Z</time>
      </trkpt>
      <trkpt lat="42.37446" lon="1.88978">
        <ele>1171.06</ele>
        <time>2024-09-26T14:28:19.999Z</time>
      </trkpt>
      <trkpt lat="42.37442" lon="1.88965">
        <ele>1171</ele>
        <time>2024-09-26T14:28:24.999Z</time>
      </trkpt>
      <trkpt lat="42.37437" lon="1.88951">
        <ele>1170.95</ele>
        <time>2024-09-26T14:28:29.999Z</time>
      </trkpt>
      <trkpt lat="42.37433" lon="1.88935">
        <ele>1170.93</ele>
        <time>2024-09-26T14:28:34.999Z</time>
      </trkpt>
      <trkpt lat="42.37427" lon="1.88919">
        <ele>1170.95</ele>
        <time>2024-09-26T14:28:39.999Z</time>
      </trkpt>
      <trkpt lat="42.37421" lon="1.88904">
        <ele>1170.99</ele>
        <time>2024-09-26T14:28:44.999Z</time>
      </trkpt>
      <trkpt lat="42.37415" lon="1.88886">
        <ele>1171.06</ele>
        <time>2024-09-26T14:28:49.999Z</time>
      </trkpt>
      <trkpt lat="42.37408" lon="1.88866">
        <ele>1171.14</ele>
        <time>2024-09-26T14:28:54.999Z</time>
      </trkpt>
      <trkpt lat="42.37401" lon="1.88847">
        <ele>1171.24</ele>
        <time>2024-09-26T14:28:59.999Z</time>
      </trkpt>
      <trkpt lat="42.37395" lon="1.8883">
        <ele>1171.35</ele>
        <time>2024-09-26T14:29:04.999Z</time>
      </trkpt>
      <trkpt lat="42.37389" lon="1.88813">
        <ele>1171.43</ele>
        <time>2024-09-26T14:29:09.999Z</time>
      </trkpt>
      <trkpt lat="42.37382" lon="1.88797">
        <ele>1171.52</ele>
        <time>2024-09-26T14:29:14.999Z</time>
      </trkpt>
      <trkpt lat="42.37377" lon="1.88783">
        <ele>1171.61</ele>
        <time>2024-09-26T14:29:19.999Z</time>
      </trkpt>
      <trkpt lat="42.37374" lon="1.88771">
        <ele>1171.71</ele>
        <time>2024-09-26T14:29:24.999Z</time>
      </trkpt>
      <trkpt lat="42.37365" lon="1.88768">
        <ele>1171.83</ele>
        <time>2024-09-26T14:29:32.999Z</time>
      </trkpt>
      <trkpt lat="42.37356" lon="1.88772">
        <ele>1171.98</ele>
        <time>2024-09-26T14:29:39.999Z</time>
      </trkpt>
      <trkpt lat="42.37346" lon="1.88777">
        <ele>1172.21</ele>
        <time>2024-09-26T14:29:46.999Z</time>
      </trkpt>
      <trkpt lat="42.37337" lon="1.88782">
        <ele>1172.48</ele>
        <time>2024-09-26T14:29:53.999Z</time>
      </trkpt>
      <trkpt lat="42.37329" lon="1.88788">
        <ele>1172.77</ele>
        <time>2024-09-26T14:30:00.999Z</time>
      </trkpt>
      <trkpt lat="42.3732" lon="1.88792">
        <ele>1173.12</ele>
        <time>2024-09-26T14:30:07.999Z</time>
      </trkpt>
      <trkpt lat="42.3731" lon="1.88793">
        <ele>1173.46</ele>
        <time>2024-09-26T14:30:14.999Z</time>
      </trkpt>
      <trkpt lat="42.37303" lon="1.88782">
        <ele>1173.88</ele>
        <time>2024-09-26T14:30:20.999Z</time>
      </trkpt>
      <trkpt lat="42.373" lon="1.8877">
        <ele>1174.53</ele>
        <time>2024-09-26T14:30:28.999Z</time>
      </trkpt>
      <trkpt lat="42.37295" lon="1.88759">
        <ele>1175.01</ele>
        <time>2024-09-26T14:30:33.999Z</time>
      </trkpt>
      <trkpt lat="42.37291" lon="1.88745">
        <ele>1175.55</ele>
        <time>2024-09-26T14:30:38.999Z</time>
      </trkpt>
      <trkpt lat="42.37285" lon="1.88734">
        <ele>1176.12</ele>
        <time>2024-09-26T14:30:43.999Z</time>
      </trkpt>
      <trkpt lat="42.3728" lon="1.88724">
        <ele>1176.98</ele>
        <time>2024-09-26T14:30:55.999Z</time>
      </trkpt>
      <trkpt lat="42.37279" lon="1.8871">
        <ele>1177.69</ele>
        <time>2024-09-26T14:31:01.999Z</time>
      </trkpt>
      <trkpt lat="42.37275" lon="1.88694">
        <ele>1178.22</ele>
        <time>2024-09-26T14:31:06.999Z</time>
      </trkpt>
      <trkpt lat="42.37268" lon="1.88677">
        <ele>1178.72</ele>
        <time>2024-09-26T14:31:11.999Z</time>
      </trkpt>
      <trkpt lat="42.37259" lon="1.88662">
        <ele>1179.18</ele>
        <time>2024-09-26T14:31:16.999Z</time>
      </trkpt>
      <trkpt lat="42.37252" lon="1.88646">
        <ele>1179.63</ele>
        <time>2024-09-26T14:31:21.999Z</time>
      </trkpt>
      <trkpt lat="42.37248" lon="1.88626">
        <ele>1180.06</ele>
        <time>2024-09-26T14:31:26.999Z</time>
      </trkpt>
      <trkpt lat="42.37242" lon="1.88602">
        <ele>1180.45</ele>
        <time>2024-09-26T14:31:31.999Z</time>
      </trkpt>
      <trkpt lat="42.37243" lon="1.88583">
        <ele>1180.8</ele>
        <time>2024-09-26T14:31:36.999Z</time>
      </trkpt>
      <trkpt lat="42.37238" lon="1.88562">
        <ele>1181.13</ele>
        <time>2024-09-26T14:31:41.999Z</time>
      </trkpt>
      <trkpt lat="42.37234" lon="1.88538">
        <ele>1181.44</ele>
        <time>2024-09-26T14:31:46.999Z</time>
      </trkpt>
      <trkpt lat="42.37225" lon="1.88518">
        <ele>1181.72</ele>
        <time>2024-09-26T14:31:51.999Z</time>
      </trkpt>
      <trkpt lat="42.37217" lon="1.885">
        <ele>1181.96</ele>
        <time>2024-09-26T14:31:56.999Z</time>
      </trkpt>
      <trkpt lat="42.37206" lon="1.88489">
        <ele>1182.16</ele>
        <time>2024-09-26T14:32:01.999Z</time>
      </trkpt>
      <trkpt lat="42.37201" lon="1.88476">
        <ele>1182.33</ele>
        <time>2024-09-26T14:32:06.999Z</time>
      </trkpt>
      <trkpt lat="42.37195" lon="1.88467">
        <ele>1182.45</ele>
        <time>2024-09-26T14:32:11.999Z</time>
      </trkpt>
      <trkpt lat="42.37189" lon="1.88457">
        <ele>1182.53</ele>
        <time>2024-09-26T14:32:16.999Z</time>
      </trkpt>
      <trkpt lat="42.3718" lon="1.88448">
        <ele>1182.59</ele>
        <time>2024-09-26T14:32:21.999Z</time>
      </trkpt>
      <trkpt lat="42.37172" lon="1.88437">
        <ele>1182.65</ele>
        <time>2024-09-26T14:32:26.999Z</time>
      </trkpt>
      <trkpt lat="42.37161" lon="1.88425">
        <ele>1182.69</ele>
        <time>2024-09-26T14:32:31.999Z</time>
      </trkpt>
      <trkpt lat="42.37153" lon="1.88417">
        <ele>1182.72</ele>
        <time>2024-09-26T14:32:36.999Z</time>
      </trkpt>
      <trkpt lat="42.37153" lon="1.88401">
        <ele>1183.07</ele>
        <time>2024-09-26T14:35:33.000Z</time>
      </trkpt>
      <trkpt lat="42.37154" lon="1.8836">
        <ele>1183.73</ele>
        <time>2024-09-26T14:35:38.000Z</time>
      </trkpt>
      <trkpt lat="42.37158" lon="1.88311">
        <ele>1183.85</ele>
        <time>2024-09-26T14:35:43.000Z</time>
      </trkpt>
      <trkpt lat="42.37157" lon="1.88265">
        <ele>1183.67</ele>
        <time>2024-09-26T14:35:48.000Z</time>
      </trkpt>
      <trkpt lat="42.37162" lon="1.88242">
        <ele>1183.55</ele>
        <time>2024-09-26T14:35:53.000Z</time>
      </trkpt>
      <trkpt lat="42.37177" lon="1.88236">
        <ele>1183.56</ele>
        <time>2024-09-26T14:35:58.000Z</time>
      </trkpt>
      <trkpt lat="42.37182" lon="1.88216">
        <ele>1183.6</ele>
        <time>2024-09-26T14:36:03.000Z</time>
      </trkpt>
      <trkpt lat="42.37181" lon="1.88198">
        <ele>1183.61</ele>
        <time>2024-09-26T14:36:08.000Z</time>
      </trkpt>
      <trkpt lat="42.37181" lon="1.88181">
        <ele>1183.58</ele>
        <time>2024-09-26T14:36:13.000Z</time>
      </trkpt>
      <trkpt lat="42.37181" lon="1.88164">
        <ele>1183.54</ele>
        <time>2024-09-26T14:36:18.000Z</time>
      </trkpt>
      <trkpt lat="42.37176" lon="1.88145">
        <ele>1183.49</ele>
        <time>2024-09-26T14:36:23.000Z</time>
      </trkpt>
      <trkpt lat="42.37167" lon="1.88124">
        <ele>1183.27</ele>
        <time>2024-09-26T14:36:28.000Z</time>
      </trkpt>
      <trkpt lat="42.37164" lon="1.88105">
        <ele>1183.2</ele>
        <time>2024-09-26T14:36:33.000Z</time>
      </trkpt>
      <trkpt lat="42.37162" lon="1.88084">
        <ele>1183.14</ele>
        <time>2024-09-26T14:36:38.000Z</time>
      </trkpt>
      <trkpt lat="42.37168" lon="1.88063">
        <ele>1183.07</ele>
        <time>2024-09-26T14:36:43.000Z</time>
      </trkpt>
      <trkpt lat="42.37174" lon="1.88041">
        <ele>1182.97</ele>
        <time>2024-09-26T14:36:48.000Z</time>
      </trkpt>
      <trkpt lat="42.37168" lon="1.88016">
        <ele>1182.84</ele>
        <time>2024-09-26T14:36:53.000Z</time>
      </trkpt>
      <trkpt lat="42.37157" lon="1.88002">
        <ele>1182.7</ele>
        <time>2024-09-26T14:36:58.000Z</time>
      </trkpt>
      <trkpt lat="42.3715" lon="1.87984">
        <ele>1182.54</ele>
        <time>2024-09-26T14:37:03.000Z</time>
      </trkpt>
      <trkpt lat="42.37148" lon="1.87955">
        <ele>1181.46</ele>
        <time>2024-09-26T14:37:08.000Z</time>
      </trkpt>
      <trkpt lat="42.37148" lon="1.87921">
        <ele>1180.69</ele>
        <time>2024-09-26T14:37:13.000Z</time>
      </trkpt>
      <trkpt lat="42.37149" lon="1.87883">
        <ele>1180.21</ele>
        <time>2024-09-26T14:37:18.000Z</time>
      </trkpt>
      <trkpt lat="42.3715" lon="1.87841">
        <ele>1179.95</ele>
        <time>2024-09-26T14:37:23.000Z</time>
      </trkpt>
      <trkpt lat="42.37151" lon="1.878">
        <ele>1179.76</ele>
        <time>2024-09-26T14:37:28.000Z</time>
      </trkpt>
      <trkpt lat="42.37152" lon="1.87764">
        <ele>1179.67</ele>
        <time>2024-09-26T14:37:33.000Z</time>
      </trkpt>
      <trkpt lat="42.37152" lon="1.87731">
        <ele>1179.49</ele>
        <time>2024-09-26T14:37:38.000Z</time>
      </trkpt>
      <trkpt lat="42.37153" lon="1.87702">
        <ele>1179.47</ele>
        <time>2024-09-26T14:37:43.000Z</time>
      </trkpt>
      <trkpt lat="42.37151" lon="1.87674">
        <ele>1179.52</ele>
        <time>2024-09-26T14:37:48.000Z</time>
      </trkpt>
      <trkpt lat="42.37147" lon="1.87647">
        <ele>1179.01</ele>
        <time>2024-09-26T14:37:53.000Z</time>
      </trkpt>
      <trkpt lat="42.37144" lon="1.8762">
        <ele>1178.48</ele>
        <time>2024-09-26T14:37:58.000Z</time>
      </trkpt>
      <trkpt lat="42.37141" lon="1.87592">
        <ele>1177.77</ele>
        <time>2024-09-26T14:38:03.000Z</time>
      </trkpt>
      <trkpt lat="42.37137" lon="1.87558">
        <ele>1177.03</ele>
        <time>2024-09-26T14:38:08.000Z</time>
      </trkpt>
      <trkpt lat="42.37133" lon="1.87522">
        <ele>1176.33</ele>
        <time>2024-09-26T14:38:13.000Z</time>
      </trkpt>
      <trkpt lat="42.37132" lon="1.87486">
        <ele>1175.75</ele>
        <time>2024-09-26T14:38:18.000Z</time>
      </trkpt>
      <trkpt lat="42.37135" lon="1.87452">
        <ele>1175.39</ele>
        <time>2024-09-26T14:38:23.000Z</time>
      </trkpt>
      <trkpt lat="42.37138" lon="1.8742">
        <ele>1175.09</ele>
        <time>2024-09-26T14:38:28.000Z</time>
      </trkpt>
      <trkpt lat="42.37142" lon="1.87388">
        <ele>1174.79</ele>
        <time>2024-09-26T14:38:33.000Z</time>
      </trkpt>
      <trkpt lat="42.37146" lon="1.87357">
        <ele>1174.37</ele>
        <time>2024-09-26T14:38:38.000Z</time>
      </trkpt>
      <trkpt lat="42.37149" lon="1.87325">
        <ele>1173.95</ele>
        <time>2024-09-26T14:38:43.000Z</time>
      </trkpt>
      <trkpt lat="42.37151" lon="1.87293">
        <ele>1173.6</ele>
        <time>2024-09-26T14:38:48.000Z</time>
      </trkpt>
      <trkpt lat="42.3715" lon="1.87259">
        <ele>1173.24</ele>
        <time>2024-09-26T14:38:53.000Z</time>
      </trkpt>
      <trkpt lat="42.37146" lon="1.87227">
        <ele>1172.82</ele>
        <time>2024-09-26T14:38:58.000Z</time>
      </trkpt>
      <trkpt lat="42.37137" lon="1.87194">
        <ele>1172.28</ele>
        <time>2024-09-26T14:39:03.000Z</time>
      </trkpt>
      <trkpt lat="42.37126" lon="1.87163">
        <ele>1171.78</ele>
        <time>2024-09-26T14:39:08.000Z</time>
      </trkpt>
      <trkpt lat="42.37113" lon="1.87131">
        <ele>1171.35</ele>
        <time>2024-09-26T14:39:13.000Z</time>
      </trkpt>
      <trkpt lat="42.37102" lon="1.87099">
        <ele>1170.99</ele>
        <time>2024-09-26T14:39:18.000Z</time>
      </trkpt>
      <trkpt lat="42.37089" lon="1.87068">
        <ele>1170.5</ele>
        <time>2024-09-26T14:39:23.000Z</time>
      </trkpt>
      <trkpt lat="42.37078" lon="1.8704">
        <ele>1170</ele>
        <time>2024-09-26T14:39:28.000Z</time>
      </trkpt>
      <trkpt lat="42.37067" lon="1.87013">
        <ele>1169.51</ele>
        <time>2024-09-26T14:39:33.000Z</time>
      </trkpt>
      <trkpt lat="42.37056" lon="1.86985">
        <ele>1169.05</ele>
        <time>2024-09-26T14:39:38.000Z</time>
      </trkpt>
      <trkpt lat="42.37045" lon="1.86958">
        <ele>1168.6</ele>
        <time>2024-09-26T14:39:43.000Z</time>
      </trkpt>
      <trkpt lat="42.37034" lon="1.86931">
        <ele>1168.16</ele>
        <time>2024-09-26T14:39:48.000Z</time>
      </trkpt>
      <trkpt lat="42.37025" lon="1.86905">
        <ele>1167.81</ele>
        <time>2024-09-26T14:39:53.000Z</time>
      </trkpt>
      <trkpt lat="42.37014" lon="1.86879">
        <ele>1167.5</ele>
        <time>2024-09-26T14:39:58.000Z</time>
      </trkpt>
      <trkpt lat="42.37003" lon="1.86852">
        <ele>1167.23</ele>
        <time>2024-09-26T14:40:03.000Z</time>
      </trkpt>
      <trkpt lat="42.36992" lon="1.86822">
        <ele>1166.97</ele>
        <time>2024-09-26T14:40:08.000Z</time>
      </trkpt>
      <trkpt lat="42.36981" lon="1.86795">
        <ele>1166.69</ele>
        <time>2024-09-26T14:40:13.000Z</time>
      </trkpt>
      <trkpt lat="42.36971" lon="1.86767">
        <ele>1166.37</ele>
        <time>2024-09-26T14:40:18.000Z</time>
      </trkpt>
      <trkpt lat="42.3696" lon="1.86739">
        <ele>1166.03</ele>
        <time>2024-09-26T14:40:23.000Z</time>
      </trkpt>
      <trkpt lat="42.3695" lon="1.8671">
        <ele>1165.69</ele>
        <time>2024-09-26T14:40:28.000Z</time>
      </trkpt>
      <trkpt lat="42.36943" lon="1.86679">
        <ele>1165.37</ele>
        <time>2024-09-26T14:40:33.000Z</time>
      </trkpt>
      <trkpt lat="42.36938" lon="1.86646">
        <ele>1165.07</ele>
        <time>2024-09-26T14:40:38.000Z</time>
      </trkpt>
      <trkpt lat="42.36936" lon="1.86614">
        <ele>1164.84</ele>
        <time>2024-09-26T14:40:43.000Z</time>
      </trkpt>
      <trkpt lat="42.36935" lon="1.86585">
        <ele>1164.6</ele>
        <time>2024-09-26T14:40:48.000Z</time>
      </trkpt>
      <trkpt lat="42.36936" lon="1.86556">
        <ele>1164.41</ele>
        <time>2024-09-26T14:40:53.000Z</time>
      </trkpt>
      <trkpt lat="42.36937" lon="1.86529">
        <ele>1164.26</ele>
        <time>2024-09-26T14:40:58.000Z</time>
      </trkpt>
      <trkpt lat="42.36937" lon="1.86501">
        <ele>1164.1</ele>
        <time>2024-09-26T14:41:03.000Z</time>
      </trkpt>
      <trkpt lat="42.36937" lon="1.86475">
        <ele>1163.93</ele>
        <time>2024-09-26T14:41:08.000Z</time>
      </trkpt>
      <trkpt lat="42.36938" lon="1.86449">
        <ele>1163.83</ele>
        <time>2024-09-26T14:41:13.000Z</time>
      </trkpt>
      <trkpt lat="42.36938" lon="1.86427">
        <ele>1163.79</ele>
        <time>2024-09-26T14:41:18.000Z</time>
      </trkpt>
      <trkpt lat="42.36938" lon="1.86405">
        <ele>1163.71</ele>
        <time>2024-09-26T14:41:23.000Z</time>
      </trkpt>
      <trkpt lat="42.36938" lon="1.86383">
        <ele>1163.64</ele>
        <time>2024-09-26T14:41:28.000Z</time>
      </trkpt>
      <trkpt lat="42.36937" lon="1.86365">
        <ele>1163.56</ele>
        <time>2024-09-26T14:41:33.000Z</time>
      </trkpt>
      <trkpt lat="42.36938" lon="1.86351">
        <ele>1163.47</ele>
        <time>2024-09-26T14:41:38.000Z</time>
      </trkpt>
      <trkpt lat="42.36938" lon="1.86337">
        <ele>1163.37</ele>
        <time>2024-09-26T14:41:43.000Z</time>
      </trkpt>
      <trkpt lat="42.36935" lon="1.86324">
        <ele>1162.73</ele>
        <time>2024-09-26T14:42:48.000Z</time>
      </trkpt>
      <trkpt lat="42.36935" lon="1.86307">
        <ele>1162.45</ele>
        <time>2024-09-26T14:42:53.000Z</time>
      </trkpt>
      <trkpt lat="42.36935" lon="1.86282">
        <ele>1161.46</ele>
        <time>2024-09-26T14:42:58.000Z</time>
      </trkpt>
      <trkpt lat="42.36933" lon="1.86254">
        <ele>1160.19</ele>
        <time>2024-09-26T14:43:03.000Z</time>
      </trkpt>
      <trkpt lat="42.36932" lon="1.86225">
        <ele>1159.69</ele>
        <time>2024-09-26T14:43:08.000Z</time>
      </trkpt>
      <trkpt lat="42.36932" lon="1.86195">
        <ele>1159.47</ele>
        <time>2024-09-26T14:43:13.000Z</time>
      </trkpt>
      <trkpt lat="42.36933" lon="1.86166">
        <ele>1159.35</ele>
        <time>2024-09-26T14:43:18.000Z</time>
      </trkpt>
      <trkpt lat="42.36933" lon="1.8614">
        <ele>1159.3</ele>
        <time>2024-09-26T14:43:23.000Z</time>
      </trkpt>
      <trkpt lat="42.36932" lon="1.86115">
        <ele>1159.28</ele>
        <time>2024-09-26T14:43:28.000Z</time>
      </trkpt>
      <trkpt lat="42.36929" lon="1.86091">
        <ele>1159.26</ele>
        <time>2024-09-26T14:43:33.000Z</time>
      </trkpt>
      <trkpt lat="42.36926" lon="1.8607">
        <ele>1159.23</ele>
        <time>2024-09-26T14:43:38.000Z</time>
      </trkpt>
      <trkpt lat="42.36924" lon="1.86049">
        <ele>1159.19</ele>
        <time>2024-09-26T14:43:43.000Z</time>
      </trkpt>
      <trkpt lat="42.36922" lon="1.86028">
        <ele>1159.15</ele>
        <time>2024-09-26T14:43:48.000Z</time>
      </trkpt>
      <trkpt lat="42.36919" lon="1.86007">
        <ele>1159.1</ele>
        <time>2024-09-26T14:43:53.000Z</time>
      </trkpt>
      <trkpt lat="42.36917" lon="1.85986">
        <ele>1159.06</ele>
        <time>2024-09-26T14:43:58.000Z</time>
      </trkpt>
      <trkpt lat="42.36914" lon="1.85964">
        <ele>1159.01</ele>
        <time>2024-09-26T14:44:03.000Z</time>
      </trkpt>
      <trkpt lat="42.36912" lon="1.85943">
        <ele>1158.96</ele>
        <time>2024-09-26T14:44:08.000Z</time>
      </trkpt>
      <trkpt lat="42.36909" lon="1.85923">
        <ele>1158.91</ele>
        <time>2024-09-26T14:44:13.000Z</time>
      </trkpt>
      <trkpt lat="42.36906" lon="1.85902">
        <ele>1158.86</ele>
        <time>2024-09-26T14:44:18.000Z</time>
      </trkpt>
      <trkpt lat="42.36903" lon="1.85881">
        <ele>1158.8</ele>
        <time>2024-09-26T14:44:23.000Z</time>
      </trkpt>
      <trkpt lat="42.36901" lon="1.85859">
        <ele>1158.76</ele>
        <time>2024-09-26T14:44:28.000Z</time>
      </trkpt>
      <trkpt lat="42.369" lon="1.85837">
        <ele>1158.71</ele>
        <time>2024-09-26T14:44:33.000Z</time>
      </trkpt>
      <trkpt lat="42.369" lon="1.85812">
        <ele>1158.62</ele>
        <time>2024-09-26T14:44:38.000Z</time>
      </trkpt>
      <trkpt lat="42.36902" lon="1.85786">
        <ele>1158.35</ele>
        <time>2024-09-26T14:44:43.000Z</time>
      </trkpt>
      <trkpt lat="42.36906" lon="1.85758">
        <ele>1158.18</ele>
        <time>2024-09-26T14:44:48.000Z</time>
      </trkpt>
      <trkpt lat="42.36911" lon="1.8573">
        <ele>1158.02</ele>
        <time>2024-09-26T14:44:53.000Z</time>
      </trkpt>
      <trkpt lat="42.36915" lon="1.85701">
        <ele>1157.88</ele>
        <time>2024-09-26T14:44:58.000Z</time>
      </trkpt>
      <trkpt lat="42.3692" lon="1.85671">
        <ele>1157.65</ele>
        <time>2024-09-26T14:45:03.000Z</time>
      </trkpt>
      <trkpt lat="42.36924" lon="1.85637">
        <ele>1157.44</ele>
        <time>2024-09-26T14:45:08.000Z</time>
      </trkpt>
      <trkpt lat="42.36929" lon="1.85604">
        <ele>1157.25</ele>
        <time>2024-09-26T14:45:13.000Z</time>
      </trkpt>
      <trkpt lat="42.3693" lon="1.85571">
        <ele>1157.07</ele>
        <time>2024-09-26T14:45:18.000Z</time>
      </trkpt>
      <trkpt lat="42.36927" lon="1.85535">
        <ele>1156.87</ele>
        <time>2024-09-26T14:45:23.000Z</time>
      </trkpt>
      <trkpt lat="42.36922" lon="1.85499">
        <ele>1156.68</ele>
        <time>2024-09-26T14:45:28.000Z</time>
      </trkpt>
      <trkpt lat="42.36917" lon="1.85464">
        <ele>1156.49</ele>
        <time>2024-09-26T14:45:33.000Z</time>
      </trkpt>
      <trkpt lat="42.36913" lon="1.85428">
        <ele>1156.36</ele>
        <time>2024-09-26T14:45:38.000Z</time>
      </trkpt>
      <trkpt lat="42.36908" lon="1.8539">
        <ele>1156.23</ele>
        <time>2024-09-26T14:45:43.000Z</time>
      </trkpt>
      <trkpt lat="42.36904" lon="1.85353">
        <ele>1156.1</ele>
        <time>2024-09-26T14:45:48.000Z</time>
      </trkpt>
      <trkpt lat="42.36898" lon="1.85316">
        <ele>1155.96</ele>
        <time>2024-09-26T14:45:53.000Z</time>
      </trkpt>
      <trkpt lat="42.36894" lon="1.85279">
        <ele>1155.8</ele>
        <time>2024-09-26T14:45:58.000Z</time>
      </trkpt>
      <trkpt lat="42.3689" lon="1.85241">
        <ele>1155.64</ele>
        <time>2024-09-26T14:46:03.000Z</time>
      </trkpt>
      <trkpt lat="42.36886" lon="1.85205">
        <ele>1155.48</ele>
        <time>2024-09-26T14:46:08.000Z</time>
      </trkpt>
      <trkpt lat="42.36881" lon="1.8517">
        <ele>1155.31</ele>
        <time>2024-09-26T14:46:13.000Z</time>
      </trkpt>
      <trkpt lat="42.36877" lon="1.85136">
        <ele>1155.09</ele>
        <time>2024-09-26T14:46:18.000Z</time>
      </trkpt>
      <trkpt lat="42.36874" lon="1.85103">
        <ele>1154.9</ele>
        <time>2024-09-26T14:46:23.000Z</time>
      </trkpt>
      <trkpt lat="42.36874" lon="1.85063">
        <ele>1154.65</ele>
        <time>2024-09-26T14:46:28.999Z</time>
      </trkpt>
      <trkpt lat="42.3687" lon="1.85026">
        <ele>1154.37</ele>
        <time>2024-09-26T14:46:33.999Z</time>
      </trkpt>
      <trkpt lat="42.36871" lon="1.84987">
        <ele>1154.08</ele>
        <time>2024-09-26T14:46:38.999Z</time>
      </trkpt>
      <trkpt lat="42.36873" lon="1.8495">
        <ele>1153.82</ele>
        <time>2024-09-26T14:46:43.999Z</time>
      </trkpt>
      <trkpt lat="42.36874" lon="1.84912">
        <ele>1153.63</ele>
        <time>2024-09-26T14:46:48.999Z</time>
      </trkpt>
      <trkpt lat="42.36873" lon="1.84878">
        <ele>1153.44</ele>
        <time>2024-09-26T14:46:53.999Z</time>
      </trkpt>
      <trkpt lat="42.36869" lon="1.84841">
        <ele>1153.12</ele>
        <time>2024-09-26T14:46:58.999Z</time>
      </trkpt>
      <trkpt lat="42.36865" lon="1.84803">
        <ele>1152.74</ele>
        <time>2024-09-26T14:47:03.999Z</time>
      </trkpt>
      <trkpt lat="42.36861" lon="1.84765">
        <ele>1152.38</ele>
        <time>2024-09-26T14:47:08.999Z</time>
      </trkpt>
      <trkpt lat="42.36857" lon="1.84725">
        <ele>1152.08</ele>
        <time>2024-09-26T14:47:13.999Z</time>
      </trkpt>
      <trkpt lat="42.36852" lon="1.84688">
        <ele>1151.73</ele>
        <time>2024-09-26T14:47:18.999Z</time>
      </trkpt>
      <trkpt lat="42.36848" lon="1.84655">
        <ele>1151.42</ele>
        <time>2024-09-26T14:47:23.999Z</time>
      </trkpt>
      <trkpt lat="42.36843" lon="1.84623">
        <ele>1151.13</ele>
        <time>2024-09-26T14:47:28.999Z</time>
      </trkpt>
      <trkpt lat="42.36836" lon="1.84589">
        <ele>1150.83</ele>
        <time>2024-09-26T14:47:33.999Z</time>
      </trkpt>
      <trkpt lat="42.36822" lon="1.84558">
        <ele>1150.44</ele>
        <time>2024-09-26T14:47:38.999Z</time>
      </trkpt>
      <trkpt lat="42.36806" lon="1.84533">
        <ele>1150.11</ele>
        <time>2024-09-26T14:47:43.999Z</time>
      </trkpt>
      <trkpt lat="42.36791" lon="1.84509">
        <ele>1149.77</ele>
        <time>2024-09-26T14:47:48.999Z</time>
      </trkpt>
      <trkpt lat="42.36778" lon="1.84491">
        <ele>1149.61</ele>
        <time>2024-09-26T14:47:53.999Z</time>
      </trkpt>
      <trkpt lat="42.36765" lon="1.8447">
        <ele>1149.22</ele>
        <time>2024-09-26T14:47:58.999Z</time>
      </trkpt>
      <trkpt lat="42.36751" lon="1.8445">
        <ele>1148.91</ele>
        <time>2024-09-26T14:48:03.999Z</time>
      </trkpt>
      <trkpt lat="42.36737" lon="1.84429">
        <ele>1148.69</ele>
        <time>2024-09-26T14:48:08.999Z</time>
      </trkpt>
      <trkpt lat="42.36722" lon="1.84408">
        <ele>1148.47</ele>
        <time>2024-09-26T14:48:13.999Z</time>
      </trkpt>
      <trkpt lat="42.36707" lon="1.84387">
        <ele>1148.27</ele>
        <time>2024-09-26T14:48:18.999Z</time>
      </trkpt>
      <trkpt lat="42.36692" lon="1.84367">
        <ele>1148.07</ele>
        <time>2024-09-26T14:48:23.999Z</time>
      </trkpt>
      <trkpt lat="42.36678" lon="1.84347">
        <ele>1147.86</ele>
        <time>2024-09-26T14:48:28.999Z</time>
      </trkpt>
      <trkpt lat="42.36665" lon="1.84328">
        <ele>1147.67</ele>
        <time>2024-09-26T14:48:33.999Z</time>
      </trkpt>
      <trkpt lat="42.36654" lon="1.84312">
        <ele>1147.63</ele>
        <time>2024-09-26T14:48:38.999Z</time>
      </trkpt>
      <trkpt lat="42.36645" lon="1.84295">
        <ele>1147.57</ele>
        <time>2024-09-26T14:48:43.999Z</time>
      </trkpt>
      <trkpt lat="42.36637" lon="1.8428">
        <ele>1147.49</ele>
        <time>2024-09-26T14:48:48.999Z</time>
      </trkpt>
      <trkpt lat="42.3663" lon="1.84267">
        <ele>1147.38</ele>
        <time>2024-09-26T14:48:53.999Z</time>
      </trkpt>
      <trkpt lat="42.36622" lon="1.84259">
        <ele>1147.26</ele>
        <time>2024-09-26T14:48:58.999Z</time>
      </trkpt>
      <trkpt lat="42.36614" lon="1.84252">
        <ele>1146.89</ele>
        <time>2024-09-26T14:49:23.999Z</time>
      </trkpt>
      <trkpt lat="42.36603" lon="1.84236">
        <ele>1146.69</ele>
        <time>2024-09-26T14:49:28.999Z</time>
      </trkpt>
      <trkpt lat="42.3659" lon="1.84217">
        <ele>1146.5</ele>
        <time>2024-09-26T14:49:33.999Z</time>
      </trkpt>
      <trkpt lat="42.36577" lon="1.84199">
        <ele>1145.6</ele>
        <time>2024-09-26T14:49:38.999Z</time>
      </trkpt>
      <trkpt lat="42.36565" lon="1.8418">
        <ele>1145.25</ele>
        <time>2024-09-26T14:49:43.999Z</time>
      </trkpt>
      <trkpt lat="42.36552" lon="1.84162">
        <ele>1145.17</ele>
        <time>2024-09-26T14:49:48.999Z</time>
      </trkpt>
      <trkpt lat="42.36539" lon="1.84143">
        <ele>1144.87</ele>
        <time>2024-09-26T14:49:53.999Z</time>
      </trkpt>
      <trkpt lat="42.36525" lon="1.84123">
        <ele>1144.45</ele>
        <time>2024-09-26T14:49:58.999Z</time>
      </trkpt>
      <trkpt lat="42.36512" lon="1.84104">
        <ele>1144.24</ele>
        <time>2024-09-26T14:50:03.999Z</time>
      </trkpt>
      <trkpt lat="42.36501" lon="1.84085">
        <ele>1144.18</ele>
        <time>2024-09-26T14:50:08.999Z</time>
      </trkpt>
      <trkpt lat="42.36489" lon="1.84066">
        <ele>1144.13</ele>
        <time>2024-09-26T14:50:13.999Z</time>
      </trkpt>
      <trkpt lat="42.36479" lon="1.84042">
        <ele>1143.96</ele>
        <time>2024-09-26T14:50:18.999Z</time>
      </trkpt>
      <trkpt lat="42.36467" lon="1.84013">
        <ele>1143.85</ele>
        <time>2024-09-26T14:50:23.999Z</time>
      </trkpt>
      <trkpt lat="42.36455" lon="1.83981">
        <ele>1143.73</ele>
        <time>2024-09-26T14:50:28.999Z</time>
      </trkpt>
      <trkpt lat="42.36442" lon="1.83947">
        <ele>1143.64</ele>
        <time>2024-09-26T14:50:33.999Z</time>
      </trkpt>
      <trkpt lat="42.36431" lon="1.8391">
        <ele>1143.6</ele>
        <time>2024-09-26T14:50:38.999Z</time>
      </trkpt>
      <trkpt lat="42.3643" lon="1.83872">
        <ele>1143.53</ele>
        <time>2024-09-26T14:50:43.999Z</time>
      </trkpt>
      <trkpt lat="42.36434" lon="1.83838">
        <ele>1143.4</ele>
        <time>2024-09-26T14:50:48.999Z</time>
      </trkpt>
      <trkpt lat="42.3644" lon="1.83802">
        <ele>1143.2</ele>
        <time>2024-09-26T14:50:53.999Z</time>
      </trkpt>
      <trkpt lat="42.36444" lon="1.83778">
        <ele>1143.01</ele>
        <time>2024-09-26T14:50:58.999Z</time>
      </trkpt>
      <trkpt lat="42.36446" lon="1.83765">
        <ele>1142.93</ele>
        <time>2024-09-26T14:51:04.999Z</time>
      </trkpt>
      <trkpt lat="42.3645" lon="1.83739">
        <ele>1142.48</ele>
        <time>2024-09-26T14:51:09.999Z</time>
      </trkpt>
      <trkpt lat="42.36451" lon="1.83705">
        <ele>1141.67</ele>
        <time>2024-09-26T14:51:14.999Z</time>
      </trkpt>
      <trkpt lat="42.36448" lon="1.8366">
        <ele>1140.56</ele>
        <time>2024-09-26T14:51:19.999Z</time>
      </trkpt>
      <trkpt lat="42.36442" lon="1.83614">
        <ele>1139.5</ele>
        <time>2024-09-26T14:51:24.999Z</time>
      </trkpt>
      <trkpt lat="42.36445" lon="1.83569">
        <ele>1138.34</ele>
        <time>2024-09-26T14:51:29.999Z</time>
      </trkpt>
      <trkpt lat="42.36461" lon="1.83528">
        <ele>1136.98</ele>
        <time>2024-09-26T14:51:34.999Z</time>
      </trkpt>
      <trkpt lat="42.36483" lon="1.83486">
        <ele>1135.8</ele>
        <time>2024-09-26T14:51:39.999Z</time>
      </trkpt>
      <trkpt lat="42.36509" lon="1.83449">
        <ele>1135.02</ele>
        <time>2024-09-26T14:51:44.999Z</time>
      </trkpt>
      <trkpt lat="42.36545" lon="1.83428">
        <ele>1134</ele>
        <time>2024-09-26T14:51:49.999Z</time>
      </trkpt>
      <trkpt lat="42.36584" lon="1.83408">
        <ele>1130.89</ele>
        <time>2024-09-26T14:51:54.999Z</time>
      </trkpt>
      <trkpt lat="42.36624" lon="1.83371">
        <ele>1127.74</ele>
        <time>2024-09-26T14:51:59.999Z</time>
      </trkpt>
      <trkpt lat="42.36642" lon="1.83311">
        <ele>1125.78</ele>
        <time>2024-09-26T14:52:04.999Z</time>
      </trkpt>
      <trkpt lat="42.36652" lon="1.83246">
        <ele>1125.35</ele>
        <time>2024-09-26T14:52:09.999Z</time>
      </trkpt>
      <trkpt lat="42.36659" lon="1.83182">
        <ele>1124.89</ele>
        <time>2024-09-26T14:52:14.999Z</time>
      </trkpt>
      <trkpt lat="42.36661" lon="1.83124">
        <ele>1124.31</ele>
        <time>2024-09-26T14:52:19.999Z</time>
      </trkpt>
      <trkpt lat="42.36657" lon="1.83071">
        <ele>1123.01</ele>
        <time>2024-09-26T14:52:24.999Z</time>
      </trkpt>
      <trkpt lat="42.36643" lon="1.83023">
        <ele>1121.48</ele>
        <time>2024-09-26T14:52:29.999Z</time>
      </trkpt>
      <trkpt lat="42.36629" lon="1.82977">
        <ele>1120.15</ele>
        <time>2024-09-26T14:52:34.999Z</time>
      </trkpt>
      <trkpt lat="42.36614" lon="1.82931">
        <ele>1118.54</ele>
        <time>2024-09-26T14:52:39.999Z</time>
      </trkpt>
      <trkpt lat="42.36599" lon="1.82886">
        <ele>1117.09</ele>
        <time>2024-09-26T14:52:44.999Z</time>
      </trkpt>
      <trkpt lat="42.36584" lon="1.82841">
        <ele>1115.76</ele>
        <time>2024-09-26T14:52:49.999Z</time>
      </trkpt>
      <trkpt lat="42.36572" lon="1.82802">
        <ele>1115.08</ele>
        <time>2024-09-26T14:52:54.999Z</time>
      </trkpt>
      <trkpt lat="42.36562" lon="1.82772">
        <ele>1114.51</ele>
        <time>2024-09-26T14:52:59.999Z</time>
      </trkpt>
      <trkpt lat="42.36555" lon="1.8275">
        <ele>1114.17</ele>
        <time>2024-09-26T14:53:04.999Z</time>
      </trkpt>
      <trkpt lat="42.36549" lon="1.82732">
        <ele>1113.99</ele>
        <time>2024-09-26T14:53:09.999Z</time>
      </trkpt>
      <trkpt lat="42.36544" lon="1.82715">
        <ele>1113.77</ele>
        <time>2024-09-26T14:53:14.999Z</time>
      </trkpt>
      <trkpt lat="42.36538" lon="1.82699">
        <ele>1113.51</ele>
        <time>2024-09-26T14:53:19.999Z</time>
      </trkpt>
      <trkpt lat="42.36533" lon="1.82681">
        <ele>1113.24</ele>
        <time>2024-09-26T14:53:24.999Z</time>
      </trkpt>
      <trkpt lat="42.36528" lon="1.82664">
        <ele>1112.96</ele>
        <time>2024-09-26T14:53:29.999Z</time>
      </trkpt>
      <trkpt lat="42.36523" lon="1.82648">
        <ele>1112.66</ele>
        <time>2024-09-26T14:53:34.999Z</time>
      </trkpt>
      <trkpt lat="42.36518" lon="1.82635">
        <ele>1112.33</ele>
        <time>2024-09-26T14:53:39.999Z</time>
      </trkpt>
      <trkpt lat="42.36513" lon="1.82619">
        <ele>1112.04</ele>
        <time>2024-09-26T14:53:44.999Z</time>
      </trkpt>
      <trkpt lat="42.36509" lon="1.82607">
        <ele>1111.76</ele>
        <time>2024-09-26T14:53:49.999Z</time>
      </trkpt>
      <trkpt lat="42.36506" lon="1.82595">
        <ele>1111.49</ele>
        <time>2024-09-26T14:53:54.999Z</time>
      </trkpt>
      <trkpt lat="42.36502" lon="1.82583">
        <ele>1111.25</ele>
        <time>2024-09-26T14:53:59.999Z</time>
      </trkpt>
      <trkpt lat="42.36498" lon="1.82572">
        <ele>1111.08</ele>
        <time>2024-09-26T14:54:04.999Z</time>
      </trkpt>
      <trkpt lat="42.36495" lon="1.8256">
        <ele>1110.94</ele>
        <time>2024-09-26T14:54:10.999Z</time>
      </trkpt>
      <trkpt lat="42.36491" lon="1.82547">
        <ele>1110.85</ele>
        <time>2024-09-26T14:54:16.999Z</time>
      </trkpt>
      <trkpt lat="42.36487" lon="1.82535">
        <ele>1110.77</ele>
        <time>2024-09-26T14:54:22.999Z</time>
      </trkpt>
      <trkpt lat="42.36483" lon="1.82522">
        <ele>1110.73</ele>
        <time>2024-09-26T14:54:28.999Z</time>
      </trkpt>
      <trkpt lat="42.36479" lon="1.82511">
        <ele>1110.74</ele>
        <time>2024-09-26T14:54:34.999Z</time>
      </trkpt>
      <trkpt lat="42.36475" lon="1.82497">
        <ele>1110.81</ele>
        <time>2024-09-26T14:54:40.999Z</time>
      </trkpt>
      <trkpt lat="42.36471" lon="1.82485">
        <ele>1110.93</ele>
        <time>2024-09-26T14:54:47.999Z</time>
      </trkpt>
      <trkpt lat="42.36468" lon="1.82471">
        <ele>1111.07</ele>
        <time>2024-09-26T14:54:54.999Z</time>
      </trkpt>
      <trkpt lat="42.36464" lon="1.8246">
        <ele>1111.22</ele>
        <time>2024-09-26T14:55:00.999Z</time>
      </trkpt>
      <trkpt lat="42.3646" lon="1.82447">
        <ele>1111.38</ele>
        <time>2024-09-26T14:55:06.999Z</time>
      </trkpt>
      <trkpt lat="42.36457" lon="1.82436">
        <ele>1111.57</ele>
        <time>2024-09-26T14:55:12.999Z</time>
      </trkpt>
      <trkpt lat="42.36453" lon="1.82424">
        <ele>1111.8</ele>
        <time>2024-09-26T14:55:19.999Z</time>
      </trkpt>
      <trkpt lat="42.3645" lon="1.82413">
        <ele>1111.96</ele>
        <time>2024-09-26T14:55:25.999Z</time>
      </trkpt>
      <trkpt lat="42.36445" lon="1.82402">
        <ele>1112.12</ele>
        <time>2024-09-26T14:55:31.999Z</time>
      </trkpt>
      <trkpt lat="42.36442" lon="1.8239">
        <ele>1112.26</ele>
        <time>2024-09-26T14:55:37.999Z</time>
      </trkpt>
      <trkpt lat="42.36438" lon="1.82378">
        <ele>1112.39</ele>
        <time>2024-09-26T14:55:44.999Z</time>
      </trkpt>
      <trkpt lat="42.36435" lon="1.82366">
        <ele>1112.49</ele>
        <time>2024-09-26T14:55:50.999Z</time>
      </trkpt>
      <trkpt lat="42.36431" lon="1.82355">
        <ele>1112.59</ele>
        <time>2024-09-26T14:55:57.999Z</time>
      </trkpt>
      <trkpt lat="42.36427" lon="1.82343">
        <ele>1112.68</ele>
        <time>2024-09-26T14:56:04.999Z</time>
      </trkpt>
      <trkpt lat="42.36424" lon="1.82331">
        <ele>1112.76</ele>
        <time>2024-09-26T14:56:10.999Z</time>
      </trkpt>
      <trkpt lat="42.3642" lon="1.8232">
        <ele>1112.86</ele>
        <time>2024-09-26T14:56:17.999Z</time>
      </trkpt>
      <trkpt lat="42.36416" lon="1.82308">
        <ele>1112.96</ele>
        <time>2024-09-26T14:56:24.999Z</time>
      </trkpt>
      <trkpt lat="42.36413" lon="1.82296">
        <ele>1113.07</ele>
        <time>2024-09-26T14:56:30.999Z</time>
      </trkpt>
      <trkpt lat="42.36409" lon="1.82285">
        <ele>1113.23</ele>
        <time>2024-09-26T14:56:37.999Z</time>
      </trkpt>
      <trkpt lat="42.36404" lon="1.82272">
        <ele>1113.37</ele>
        <time>2024-09-26T14:56:44.999Z</time>
      </trkpt>
      <trkpt lat="42.36403" lon="1.8226">
        <ele>1113.49</ele>
        <time>2024-09-26T14:56:49.999Z</time>
      </trkpt>
      <trkpt lat="42.364" lon="1.82248">
        <ele>1113.66</ele>
        <time>2024-09-26T14:56:55.999Z</time>
      </trkpt>
      <trkpt lat="42.36396" lon="1.82237">
        <ele>1113.86</ele>
        <time>2024-09-26T14:57:01.999Z</time>
      </trkpt>
      <trkpt lat="42.36392" lon="1.82225">
        <ele>1114.14</ele>
        <time>2024-09-26T14:57:08.999Z</time>
      </trkpt>
      <trkpt lat="42.36388" lon="1.82213">
        <ele>1114.48</ele>
        <time>2024-09-26T14:57:15.999Z</time>
      </trkpt>
      <trkpt lat="42.36385" lon="1.822">
        <ele>1114.87</ele>
        <time>2024-09-26T14:57:22.999Z</time>
      </trkpt>
      <trkpt lat="42.36381" lon="1.82188">
        <ele>1115.28</ele>
        <time>2024-09-26T14:57:29.999Z</time>
      </trkpt>
      <trkpt lat="42.36378" lon="1.82176">
        <ele>1115.65</ele>
        <time>2024-09-26T14:57:35.999Z</time>
      </trkpt>
      <trkpt lat="42.36374" lon="1.82164">
        <ele>1116.07</ele>
        <time>2024-09-26T14:57:42.999Z</time>
      </trkpt>
      <trkpt lat="42.3637" lon="1.82151">
        <ele>1116.5</ele>
        <time>2024-09-26T14:57:49.999Z</time>
      </trkpt>
      <trkpt lat="42.36366" lon="1.82139">
        <ele>1116.88</ele>
        <time>2024-09-26T14:57:55.999Z</time>
      </trkpt>
      <trkpt lat="42.36361" lon="1.82127">
        <ele>1117.34</ele>
        <time>2024-09-26T14:58:02.999Z</time>
      </trkpt>
      <trkpt lat="42.36357" lon="1.82115">
        <ele>1117.79</ele>
        <time>2024-09-26T14:58:09.999Z</time>
      </trkpt>
      <trkpt lat="42.36353" lon="1.82103">
        <ele>1118.17</ele>
        <time>2024-09-26T14:58:15.999Z</time>
      </trkpt>
      <trkpt lat="42.36347" lon="1.8209">
        <ele>1118.54</ele>
        <time>2024-09-26T14:58:21.999Z</time>
      </trkpt>
      <trkpt lat="42.36342" lon="1.8208">
        <ele>1118.86</ele>
        <time>2024-09-26T14:58:26.999Z</time>
      </trkpt>
      <trkpt lat="42.36337" lon="1.82067">
        <ele>1119.18</ele>
        <time>2024-09-26T14:58:31.999Z</time>
      </trkpt>
      <trkpt lat="42.36331" lon="1.82054">
        <ele>1119.48</ele>
        <time>2024-09-26T14:58:37.000Z</time>
      </trkpt>
      <trkpt lat="42.36325" lon="1.82038">
        <ele>1119.76</ele>
        <time>2024-09-26T14:58:42.000Z</time>
      </trkpt>
      <trkpt lat="42.36319" lon="1.82017">
        <ele>1120.02</ele>
        <time>2024-09-26T14:58:47.000Z</time>
      </trkpt>
      <trkpt lat="42.36314" lon="1.81996">
        <ele>1120.26</ele>
        <time>2024-09-26T14:58:52.000Z</time>
      </trkpt>
      <trkpt lat="42.36309" lon="1.81974">
        <ele>1120.49</ele>
        <time>2024-09-26T14:58:57.000Z</time>
      </trkpt>
      <trkpt lat="42.36304" lon="1.81949">
        <ele>1121.76</ele>
        <time>2024-09-26T14:59:02.000Z</time>
      </trkpt>
      <trkpt lat="42.36299" lon="1.81922">
        <ele>1122.47</ele>
        <time>2024-09-26T14:59:07.000Z</time>
      </trkpt>
      <trkpt lat="42.36296" lon="1.81896">
        <ele>1122.77</ele>
        <time>2024-09-26T14:59:12.000Z</time>
      </trkpt>
      <trkpt lat="42.36293" lon="1.8187">
        <ele>1122.87</ele>
        <time>2024-09-26T14:59:17.000Z</time>
      </trkpt>
      <trkpt lat="42.36291" lon="1.81846">
        <ele>1122.88</ele>
        <time>2024-09-26T14:59:22.000Z</time>
      </trkpt>
      <trkpt lat="42.36289" lon="1.81822">
        <ele>1122.89</ele>
        <time>2024-09-26T14:59:27.000Z</time>
      </trkpt>
      <trkpt lat="42.36286" lon="1.81798">
        <ele>1122.9</ele>
        <time>2024-09-26T14:59:32.000Z</time>
      </trkpt>
      <trkpt lat="42.36284" lon="1.81775">
        <ele>1122.98</ele>
        <time>2024-09-26T14:59:37.000Z</time>
      </trkpt>
      <trkpt lat="42.36281" lon="1.81749">
        <ele>1123.24</ele>
        <time>2024-09-26T14:59:42.000Z</time>
      </trkpt>
      <trkpt lat="42.36278" lon="1.81722">
        <ele>1123.41</ele>
        <time>2024-09-26T14:59:47.000Z</time>
      </trkpt>
      <trkpt lat="42.36275" lon="1.81692">
        <ele>1123.55</ele>
        <time>2024-09-26T14:59:52.000Z</time>
      </trkpt>
      <trkpt lat="42.36272" lon="1.81659">
        <ele>1123.63</ele>
        <time>2024-09-26T14:59:57.000Z</time>
      </trkpt>
      <trkpt lat="42.3627" lon="1.81622">
        <ele>1123.68</ele>
        <time>2024-09-26T15:00:02.000Z</time>
      </trkpt>
      <trkpt lat="42.36269" lon="1.81581">
        <ele>1123.67</ele>
        <time>2024-09-26T15:00:07.000Z</time>
      </trkpt>
      <trkpt lat="42.36274" lon="1.81537">
        <ele>1123.61</ele>
        <time>2024-09-26T15:00:12.000Z</time>
      </trkpt>
      <trkpt lat="42.36282" lon="1.8149">
        <ele>1123.35</ele>
        <time>2024-09-26T15:00:17.000Z</time>
      </trkpt>
      <trkpt lat="42.36293" lon="1.81439">
        <ele>1123.07</ele>
        <time>2024-09-26T15:00:22.000Z</time>
      </trkpt>
      <trkpt lat="42.36304" lon="1.81385">
        <ele>1122.78</ele>
        <time>2024-09-26T15:00:27.000Z</time>
      </trkpt>
      <trkpt lat="42.36317" lon="1.81329">
        <ele>1122.37</ele>
        <time>2024-09-26T15:00:32.000Z</time>
      </trkpt>
      <trkpt lat="42.36328" lon="1.81269">
        <ele>1121.76</ele>
        <time>2024-09-26T15:00:37.000Z</time>
      </trkpt>
      <trkpt lat="42.36333" lon="1.81208">
        <ele>1121.01</ele>
        <time>2024-09-26T15:00:42.000Z</time>
      </trkpt>
      <trkpt lat="42.36332" lon="1.81149">
        <ele>1120.21</ele>
        <time>2024-09-26T15:00:47.000Z</time>
      </trkpt>
      <trkpt lat="42.36329" lon="1.81093">
        <ele>1119.3</ele>
        <time>2024-09-26T15:00:52.000Z</time>
      </trkpt>
      <trkpt lat="42.36326" lon="1.81042">
        <ele>1118.37</ele>
        <time>2024-09-26T15:00:57.000Z</time>
      </trkpt>
      <trkpt lat="42.36323" lon="1.80997">
        <ele>1117.34</ele>
        <time>2024-09-26T15:01:02.000Z</time>
      </trkpt>
      <trkpt lat="42.3632" lon="1.80955">
        <ele>1116.39</ele>
        <time>2024-09-26T15:01:07.000Z</time>
      </trkpt>
      <trkpt lat="42.36315" lon="1.80917">
        <ele>1115.21</ele>
        <time>2024-09-26T15:01:12.000Z</time>
      </trkpt>
      <trkpt lat="42.36312" lon="1.80879">
        <ele>1113.9</ele>
        <time>2024-09-26T15:01:17.000Z</time>
      </trkpt>
      <trkpt lat="42.36306" lon="1.80842">
        <ele>1112.96</ele>
        <time>2024-09-26T15:01:22.000Z</time>
      </trkpt>
      <trkpt lat="42.36301" lon="1.80805">
        <ele>1111.85</ele>
        <time>2024-09-26T15:01:27.000Z</time>
      </trkpt>
      <trkpt lat="42.36297" lon="1.80768">
        <ele>1110.76</ele>
        <time>2024-09-26T15:01:32.000Z</time>
      </trkpt>
      <trkpt lat="42.36292" lon="1.8073">
        <ele>1109.46</ele>
        <time>2024-09-26T15:01:37.000Z</time>
      </trkpt>
      <trkpt lat="42.3629" lon="1.80704">
        <ele>1108.75</ele>
        <time>2024-09-26T15:01:42.000Z</time>
      </trkpt>
      <trkpt lat="42.36289" lon="1.80689">
        <ele>1107.97</ele>
        <time>2024-09-26T15:02:46.000Z</time>
      </trkpt>
      <trkpt lat="42.36288" lon="1.80661">
        <ele>1105.44</ele>
        <time>2024-09-26T15:02:51.000Z</time>
      </trkpt>
      <trkpt lat="42.36289" lon="1.80621">
        <ele>1103.71</ele>
        <time>2024-09-26T15:02:56.000Z</time>
      </trkpt>
      <trkpt lat="42.36292" lon="1.80572">
        <ele>1102.35</ele>
        <time>2024-09-26T15:03:01.000Z</time>
      </trkpt>
      <trkpt lat="42.36298" lon="1.80516">
        <ele>1100.88</ele>
        <time>2024-09-26T15:03:06.000Z</time>
      </trkpt>
      <trkpt lat="42.36308" lon="1.8046">
        <ele>1099.18</ele>
        <time>2024-09-26T15:03:11.000Z</time>
      </trkpt>
      <trkpt lat="42.36327" lon="1.80405">
        <ele>1097.72</ele>
        <time>2024-09-26T15:03:16.000Z</time>
      </trkpt>
      <trkpt lat="42.36349" lon="1.80351">
        <ele>1096.34</ele>
        <time>2024-09-26T15:03:21.000Z</time>
      </trkpt>
      <trkpt lat="42.36379" lon="1.80304">
        <ele>1094.72</ele>
        <time>2024-09-26T15:03:26.000Z</time>
      </trkpt>
      <trkpt lat="42.36413" lon="1.80261">
        <ele>1093.32</ele>
        <time>2024-09-26T15:03:31.000Z</time>
      </trkpt>
      <trkpt lat="42.36444" lon="1.80225">
        <ele>1091.85</ele>
        <time>2024-09-26T15:03:36.000Z</time>
      </trkpt>
      <trkpt lat="42.36475" lon="1.80193">
        <ele>1090.14</ele>
        <time>2024-09-26T15:03:41.000Z</time>
      </trkpt>
      <trkpt lat="42.36476" lon="1.80142">
        <ele>1087.54</ele>
        <time>2024-09-26T15:03:46.000Z</time>
      </trkpt>
      <trkpt lat="42.36493" lon="1.80082">
        <ele>1083.98</ele>
        <time>2024-09-26T15:03:51.000Z</time>
      </trkpt>
      <trkpt lat="42.36521" lon="1.80028">
        <ele>1080.34</ele>
        <time>2024-09-26T15:03:56.000Z</time>
      </trkpt>
      <trkpt lat="42.36546" lon="1.79981">
        <ele>1078.1</ele>
        <time>2024-09-26T15:04:01.000Z</time>
      </trkpt>
      <trkpt lat="42.36567" lon="1.7994">
        <ele>1075.96</ele>
        <time>2024-09-26T15:04:06.000Z</time>
      </trkpt>
      <trkpt lat="42.36585" lon="1.799">
        <ele>1074.72</ele>
        <time>2024-09-26T15:04:11.000Z</time>
      </trkpt>
      <trkpt lat="42.36602" lon="1.79868">
        <ele>1073.49</ele>
        <time>2024-09-26T15:04:16.000Z</time>
      </trkpt>
      <trkpt lat="42.36617" lon="1.79837">
        <ele>1071.75</ele>
        <time>2024-09-26T15:04:21.000Z</time>
      </trkpt>
      <trkpt lat="42.36628" lon="1.79813">
        <ele>1070.41</ele>
        <time>2024-09-26T15:04:26.000Z</time>
      </trkpt>
      <trkpt lat="42.36639" lon="1.79792">
        <ele>1070.23</ele>
        <time>2024-09-26T15:04:31.000Z</time>
      </trkpt>
      <trkpt lat="42.36647" lon="1.79773">
        <ele>1070.14</ele>
        <time>2024-09-26T15:04:36.000Z</time>
      </trkpt>
      <trkpt lat="42.36657" lon="1.79752">
        <ele>1069.82</ele>
        <time>2024-09-26T15:04:41.000Z</time>
      </trkpt>
      <trkpt lat="42.36665" lon="1.79733">
        <ele>1069.59</ele>
        <time>2024-09-26T15:04:46.000Z</time>
      </trkpt>
      <trkpt lat="42.36674" lon="1.79714">
        <ele>1069.39</ele>
        <time>2024-09-26T15:04:51.000Z</time>
      </trkpt>
      <trkpt lat="42.36681" lon="1.79696">
        <ele>1069.17</ele>
        <time>2024-09-26T15:04:56.000Z</time>
      </trkpt>
      <trkpt lat="42.36689" lon="1.79678">
        <ele>1068.92</ele>
        <time>2024-09-26T15:05:01.000Z</time>
      </trkpt>
      <trkpt lat="42.367" lon="1.79662">
        <ele>1068.64</ele>
        <time>2024-09-26T15:05:06.000Z</time>
      </trkpt>
      <trkpt lat="42.36707" lon="1.79643">
        <ele>1068.35</ele>
        <time>2024-09-26T15:05:11.000Z</time>
      </trkpt>
      <trkpt lat="42.36708" lon="1.79619">
        <ele>1068.02</ele>
        <time>2024-09-26T15:05:16.000Z</time>
      </trkpt>
      <trkpt lat="42.36716" lon="1.79594">
        <ele>1065.56</ele>
        <time>2024-09-26T15:05:21.000Z</time>
      </trkpt>
      <trkpt lat="42.36725" lon="1.79564">
        <ele>1063.89</ele>
        <time>2024-09-26T15:05:26.000Z</time>
      </trkpt>
      <trkpt lat="42.36738" lon="1.79528">
        <ele>1062.37</ele>
        <time>2024-09-26T15:05:31.000Z</time>
      </trkpt>
      <trkpt lat="42.36753" lon="1.79484">
        <ele>1060.59</ele>
        <time>2024-09-26T15:05:36.000Z</time>
      </trkpt>
      <trkpt lat="42.36766" lon="1.79434">
        <ele>1058.87</ele>
        <time>2024-09-26T15:05:41.000Z</time>
      </trkpt>
      <trkpt lat="42.36778" lon="1.79381">
        <ele>1057.69</ele>
        <time>2024-09-26T15:05:46.000Z</time>
      </trkpt>
      <trkpt lat="42.36789" lon="1.79328">
        <ele>1056.69</ele>
        <time>2024-09-26T15:05:51.000Z</time>
      </trkpt>
      <trkpt lat="42.36797" lon="1.79277">
        <ele>1055.64</ele>
        <time>2024-09-26T15:05:56.000Z</time>
      </trkpt>
      <trkpt lat="42.36803" lon="1.79228">
        <ele>1054.84</ele>
        <time>2024-09-26T15:06:01.000Z</time>
      </trkpt>
      <trkpt lat="42.36809" lon="1.79186">
        <ele>1054.24</ele>
        <time>2024-09-26T15:06:06.000Z</time>
      </trkpt>
      <trkpt lat="42.36814" lon="1.79155">
        <ele>1053.94</ele>
        <time>2024-09-26T15:06:11.000Z</time>
      </trkpt>
      <trkpt lat="42.36818" lon="1.79129">
        <ele>1053.7</ele>
        <time>2024-09-26T15:06:16.000Z</time>
      </trkpt>
      <trkpt lat="42.36822" lon="1.79107">
        <ele>1053.7</ele>
        <time>2024-09-26T15:06:21.000Z</time>
      </trkpt>
      <trkpt lat="42.36824" lon="1.79086">
        <ele>1053.69</ele>
        <time>2024-09-26T15:06:26.000Z</time>
      </trkpt>
      <trkpt lat="42.36827" lon="1.79066">
        <ele>1053.65</ele>
        <time>2024-09-26T15:06:31.000Z</time>
      </trkpt>
      <trkpt lat="42.3683" lon="1.79046">
        <ele>1053.61</ele>
        <time>2024-09-26T15:06:36.000Z</time>
      </trkpt>
      <trkpt lat="42.36838" lon="1.79029">
        <ele>1053.58</ele>
        <time>2024-09-26T15:06:41.000Z</time>
      </trkpt>
      <trkpt lat="42.36843" lon="1.79011">
        <ele>1053.58</ele>
        <time>2024-09-26T15:06:46.000Z</time>
      </trkpt>
      <trkpt lat="42.36841" lon="1.78989">
        <ele>1053.57</ele>
        <time>2024-09-26T15:06:51.000Z</time>
      </trkpt>
      <trkpt lat="42.36841" lon="1.78963">
        <ele>1053.38</ele>
        <time>2024-09-26T15:06:56.000Z</time>
      </trkpt>
      <trkpt lat="42.36846" lon="1.78936">
        <ele>1052.79</ele>
        <time>2024-09-26T15:07:01.000Z</time>
      </trkpt>
      <trkpt lat="42.36851" lon="1.78912">
        <ele>1052.49</ele>
        <time>2024-09-26T15:07:06.000Z</time>
      </trkpt>
      <trkpt lat="42.36855" lon="1.78887">
        <ele>1051.88</ele>
        <time>2024-09-26T15:07:11.000Z</time>
      </trkpt>
      <trkpt lat="42.3686" lon="1.78862">
        <ele>1051.2</ele>
        <time>2024-09-26T15:07:16.000Z</time>
      </trkpt>
      <trkpt lat="42.36864" lon="1.78838">
        <ele>1050.82</ele>
        <time>2024-09-26T15:07:21.000Z</time>
      </trkpt>
      <trkpt lat="42.36868" lon="1.78815">
        <ele>1050.74</ele>
        <time>2024-09-26T15:07:26.000Z</time>
      </trkpt>
      <trkpt lat="42.36871" lon="1.78795">
        <ele>1050.65</ele>
        <time>2024-09-26T15:07:31.000Z</time>
      </trkpt>
      <trkpt lat="42.36866" lon="1.78784">
        <ele>1050.57</ele>
        <time>2024-09-26T15:07:36.000Z</time>
      </trkpt>
      <trkpt lat="42.36874" lon="1.78777">
        <ele>1048.26</ele>
        <time>2024-09-26T15:14:20.999Z</time>
      </trkpt>
      <trkpt lat="42.36879" lon="1.78758">
        <ele>1048.06</ele>
        <time>2024-09-26T15:14:25.999Z</time>
      </trkpt>
      <trkpt lat="42.36884" lon="1.78737">
        <ele>1047.86</ele>
        <time>2024-09-26T15:14:30.999Z</time>
      </trkpt>
      <trkpt lat="42.36889" lon="1.78714">
        <ele>1047.65</ele>
        <time>2024-09-26T15:14:35.999Z</time>
      </trkpt>
      <trkpt lat="42.36895" lon="1.78691">
        <ele>1047.45</ele>
        <time>2024-09-26T15:14:40.999Z</time>
      </trkpt>
      <trkpt lat="42.36901" lon="1.78667">
        <ele>1046.17</ele>
        <time>2024-09-26T15:14:45.999Z</time>
      </trkpt>
      <trkpt lat="42.36909" lon="1.78641">
        <ele>1045.6</ele>
        <time>2024-09-26T15:14:50.999Z</time>
      </trkpt>
      <trkpt lat="42.36915" lon="1.78619">
        <ele>1045.55</ele>
        <time>2024-09-26T15:14:55.999Z</time>
      </trkpt>
      <trkpt lat="42.3692" lon="1.78603">
        <ele>1045.52</ele>
        <time>2024-09-26T15:15:00.999Z</time>
      </trkpt>
      <trkpt lat="42.36923" lon="1.78591">
        <ele>1045.5</ele>
        <time>2024-09-26T15:15:05.999Z</time>
      </trkpt>
      <trkpt lat="42.36927" lon="1.78577">
        <ele>1045.48</ele>
        <time>2024-09-26T15:15:10.999Z</time>
      </trkpt>
      <trkpt lat="42.3693" lon="1.78565">
        <ele>1045.45</ele>
        <time>2024-09-26T15:15:15.999Z</time>
      </trkpt>
      <trkpt lat="42.36934" lon="1.78552">
        <ele>1045.4</ele>
        <time>2024-09-26T15:15:22.999Z</time>
      </trkpt>
      <trkpt lat="42.36937" lon="1.7854">
        <ele>1045.33</ele>
        <time>2024-09-26T15:15:29.999Z</time>
      </trkpt>
      <trkpt lat="42.3694" lon="1.78527">
        <ele>1045.26</ele>
        <time>2024-09-26T15:15:35.999Z</time>
      </trkpt>
      <trkpt lat="42.36943" lon="1.78515">
        <ele>1045.19</ele>
        <time>2024-09-26T15:15:41.999Z</time>
      </trkpt>
      <trkpt lat="42.36947" lon="1.78503">
        <ele>1045.11</ele>
        <time>2024-09-26T15:15:47.999Z</time>
      </trkpt>
      <trkpt lat="42.3695" lon="1.78489">
        <ele>1045.05</ele>
        <time>2024-09-26T15:15:53.999Z</time>
      </trkpt>
      <trkpt lat="42.36951" lon="1.78477">
        <ele>1045</ele>
        <time>2024-09-26T15:15:58.999Z</time>
      </trkpt>
      <trkpt lat="42.36953" lon="1.78462">
        <ele>1044.95</ele>
        <time>2024-09-26T15:16:03.999Z</time>
      </trkpt>
      <trkpt lat="42.36956" lon="1.78444">
        <ele>1044.91</ele>
        <time>2024-09-26T15:16:08.999Z</time>
      </trkpt>
      <trkpt lat="42.36959" lon="1.78426">
        <ele>1044.87</ele>
        <time>2024-09-26T15:16:13.999Z</time>
      </trkpt>
      <trkpt lat="42.36962" lon="1.78407">
        <ele>1044.82</ele>
        <time>2024-09-26T15:16:18.999Z</time>
      </trkpt>
      <trkpt lat="42.36965" lon="1.78387">
        <ele>1044.79</ele>
        <time>2024-09-26T15:16:23.999Z</time>
      </trkpt>
      <trkpt lat="42.36968" lon="1.78366">
        <ele>1044.75</ele>
        <time>2024-09-26T15:16:28.999Z</time>
      </trkpt>
      <trkpt lat="42.36971" lon="1.78345">
        <ele>1044.73</ele>
        <time>2024-09-26T15:16:33.999Z</time>
      </trkpt>
      <trkpt lat="42.36974" lon="1.78325">
        <ele>1044.71</ele>
        <time>2024-09-26T15:16:38.999Z</time>
      </trkpt>
      <trkpt lat="42.36978" lon="1.78305">
        <ele>1044.69</ele>
        <time>2024-09-26T15:16:43.999Z</time>
      </trkpt>
      <trkpt lat="42.36983" lon="1.78287">
        <ele>1044.67</ele>
        <time>2024-09-26T15:16:48.999Z</time>
      </trkpt>
      <trkpt lat="42.36983" lon="1.78269">
        <ele>1044.66</ele>
        <time>2024-09-26T15:16:53.999Z</time>
      </trkpt>
      <trkpt lat="42.36986" lon="1.78247">
        <ele>1044.64</ele>
        <time>2024-09-26T15:16:58.999Z</time>
      </trkpt>
      <trkpt lat="42.36989" lon="1.78225">
        <ele>1044.62</ele>
        <time>2024-09-26T15:17:03.999Z</time>
      </trkpt>
      <trkpt lat="42.36992" lon="1.78204">
        <ele>1044.6</ele>
        <time>2024-09-26T15:17:08.999Z</time>
      </trkpt>
      <trkpt lat="42.36995" lon="1.78185">
        <ele>1044.59</ele>
        <time>2024-09-26T15:17:13.999Z</time>
      </trkpt>
      <trkpt lat="42.36998" lon="1.78167">
        <ele>1044.57</ele>
        <time>2024-09-26T15:17:18.999Z</time>
      </trkpt>
      <trkpt lat="42.37001" lon="1.78143">
        <ele>1044.55</ele>
        <time>2024-09-26T15:17:23.999Z</time>
      </trkpt>
      <trkpt lat="42.37006" lon="1.78117">
        <ele>1044.48</ele>
        <time>2024-09-26T15:17:28.999Z</time>
      </trkpt>
      <trkpt lat="42.37009" lon="1.78087">
        <ele>1044.44</ele>
        <time>2024-09-26T15:17:33.999Z</time>
      </trkpt>
      <trkpt lat="42.37014" lon="1.78053">
        <ele>1044.4</ele>
        <time>2024-09-26T15:17:38.999Z</time>
      </trkpt>
      <trkpt lat="42.3702" lon="1.78019">
        <ele>1044.39</ele>
        <time>2024-09-26T15:17:43.999Z</time>
      </trkpt>
      <trkpt lat="42.37022" lon="1.78002">
        <ele>1044.38</ele>
        <time>2024-09-26T15:17:48.999Z</time>
      </trkpt>
      <trkpt lat="42.37015" lon="1.77996">
        <ele>1044.12</ele>
        <time>2024-09-26T15:19:32.999Z</time>
      </trkpt>
      <trkpt lat="42.37006" lon="1.7799">
        <ele>1044.87</ele>
        <time>2024-09-26T15:21:06.999Z</time>
      </trkpt>
      <trkpt lat="42.36996" lon="1.77991">
        <ele>1045.11</ele>
        <time>2024-09-26T15:21:15.999Z</time>
      </trkpt>
      <trkpt lat="42.36997" lon="1.78004">
        <ele>1045.77</ele>
        <time>2024-09-26T15:22:09.999Z</time>
      </trkpt>
      <trkpt lat="42.37044" lon="1.78022">
        <ele>1046.32</ele>
        <time>2024-09-26T15:25:56.000Z</time>
      </trkpt>
      <trkpt lat="42.37003" lon="1.78018">
        <ele>1046.29</ele>
        <time>2024-09-26T15:29:22.000Z</time>
      </trkpt>
      <trkpt lat="42.36994" lon="1.78016">
        <ele>1046.19</ele>
        <time>2024-09-26T15:29:31.000Z</time>
      </trkpt>
      <trkpt lat="42.37003" lon="1.7802">
        <ele>1045.03</ele>
        <time>2024-09-26T15:29:58.000Z</time>
      </trkpt>
    </trkseg>
  </trk>
</gpx>